<?xml version='1.0' encoding='UTF-8'?><gpx version="1.1" creator="JPX - https://github.com/jenetics/jpx" xmlns="http://www.topografix.com/GPX/1/1"><trk><trkseg><trkpt lat="42.68553858717176" lon="12.556663121286533"><ele>309.0</ele><time>2026-05-01T08:39:45Z</time></trkpt><trkpt lat="42.68554479530746" lon="12.556780979315642"><ele>309.0</ele><time>2026-05-01T08:39:46Z</time></trkpt><trkpt lat="42.68556803005671" lon="12.556930121805365"><ele>309.0</ele><time>2026-05-01T08:39:47Z</time></trkpt><trkpt lat="42.685601806156015" lon="12.557090041978476"><ele>309.0</ele><time>2026-05-01T08:39:48Z</time></trkpt><trkpt lat="42.68564851628259" lon="12.55725878537916"><ele>311.6666666666667</ele><time>2026-05-01T08:39:49Z</time></trkpt><trkpt lat="42.68570783854177" lon="12.557433432407151"><ele>314.33333333333337</ele><time>2026-05-01T08:39:50Z</time></trkpt><trkpt lat="42.685798707801894" lon="12.55758680588478"><ele>317.0</ele><time>2026-05-01T08:39:51Z</time></trkpt><trkpt lat="42.685933373196455" lon="12.557715121832455"><ele>317.0</ele><time>2026-05-01T08:39:52Z</time></trkpt><trkpt lat="42.686095937766" lon="12.557825187051186"><ele>317.0</ele><time>2026-05-01T08:39:53Z</time></trkpt><trkpt lat="42.68630565376732" lon="12.557906935865294"><ele>317.0</ele><time>2026-05-01T08:39:54Z</time></trkpt><trkpt lat="42.686527544881805" lon="12.557934600307583"><ele>317.0</ele><time>2026-05-01T08:39:55Z</time></trkpt><trkpt lat="42.686718368571015" lon="12.557898473958472"><ele>317.0</ele><time>2026-05-01T08:39:56Z</time></trkpt><trkpt lat="42.68688773310705" lon="12.557805519240093"><ele>317.0</ele><time>2026-05-01T08:39:57Z</time></trkpt><trkpt lat="42.68704407137941" lon="12.55767394546879"><ele>320.33333333333337</ele><time>2026-05-01T08:39:58Z</time></trkpt><trkpt lat="42.687201293883604" lon="12.557550672659168"><ele>323.6666666666667</ele><time>2026-05-01T08:39:59Z</time></trkpt><trkpt lat="42.687364962306944" lon="12.557438607002128"><ele>327.0</ele><time>2026-05-01T08:40:00Z</time></trkpt><trkpt lat="42.68753413312889" lon="12.557332758411254"><ele>327.0</ele><time>2026-05-01T08:40:01Z</time></trkpt><trkpt lat="42.687697472368264" lon="12.557246233160171"><ele>327.0</ele><time>2026-05-01T08:40:02Z</time></trkpt><trkpt lat="42.68788064008629" lon="12.55713951822738"><ele>327.0</ele><time>2026-05-01T08:40:03Z</time></trkpt><trkpt lat="42.6880870519918" lon="12.557081149805699"><ele>324.5</ele><time>2026-05-01T08:40:04Z</time></trkpt><trkpt lat="42.688297962187654" lon="12.55695560719881"><ele>322.0</ele><time>2026-05-01T08:40:05Z</time></trkpt><trkpt lat="42.68853871932455" lon="12.556865837436204"><ele>324.66666666666663</ele><time>2026-05-01T08:40:06Z</time></trkpt><trkpt lat="42.688766558820255" lon="12.556804899298259"><ele>327.3333333333333</ele><time>2026-05-01T08:40:07Z</time></trkpt><trkpt lat="42.68896054113978" lon="12.556773618624234"><ele>330.0</ele><time>2026-05-01T08:40:08Z</time></trkpt><trkpt lat="42.689135827588125" lon="12.556849603356476"><ele>330.0</ele><time>2026-05-01T08:40:09Z</time></trkpt><trkpt lat="42.68932297938317" lon="12.556918159177217"><ele>330.0</ele><time>2026-05-01T08:40:10Z</time></trkpt><trkpt lat="42.68951327569059" lon="12.557017273939842"><ele>330.0</ele><time>2026-05-01T08:40:11Z</time></trkpt><trkpt lat="42.68968561737422" lon="12.55717686947403"><ele>337.3333333333333</ele><time>2026-05-01T08:40:12Z</time></trkpt><trkpt lat="42.68986224818055" lon="12.55727673161931"><ele>344.66666666666663</ele><time>2026-05-01T08:40:13Z</time></trkpt><trkpt lat="42.690048503024826" lon="12.557311255569696"><ele>352.0</ele><time>2026-05-01T08:40:14Z</time></trkpt><trkpt lat="42.69026806442873" lon="12.55731190396506"><ele>354.5</ele><time>2026-05-01T08:40:15Z</time></trkpt><trkpt lat="42.69050794845059" lon="12.557291421571104"><ele>357.0</ele><time>2026-05-01T08:40:16Z</time></trkpt><trkpt lat="42.69075268283949" lon="12.557274917559596"><ele>357.0</ele><time>2026-05-01T08:40:17Z</time></trkpt><trkpt lat="42.69102010369613" lon="12.557247628366012"><ele>357.0</ele><time>2026-05-01T08:40:18Z</time></trkpt><trkpt lat="42.69128779939147" lon="12.557208568358153"><ele>360.0</ele><time>2026-05-01T08:40:19Z</time></trkpt><trkpt lat="42.691574554331325" lon="12.557189464974432"><ele>363.0</ele><time>2026-05-01T08:40:20Z</time></trkpt><trkpt lat="42.691872518331785" lon="12.557200892868469"><ele>367.0</ele><time>2026-05-01T08:40:21Z</time></trkpt><trkpt lat="42.692174247785594" lon="12.557218197964454"><ele>371.0</ele><time>2026-05-01T08:40:22Z</time></trkpt><trkpt lat="42.69246203914085" lon="12.557227973684038"><ele>371.0</ele><time>2026-05-01T08:40:23Z</time></trkpt><trkpt lat="42.69273246757372" lon="12.557224442870881"><ele>371.0</ele><time>2026-05-01T08:40:24Z</time></trkpt><trkpt lat="42.69298988379485" lon="12.557194162317154"><ele>375.0</ele><time>2026-05-01T08:40:25Z</time></trkpt><trkpt lat="42.69324393151723" lon="12.557184486226651"><ele>379.0</ele><time>2026-05-01T08:40:26Z</time></trkpt><trkpt lat="42.693468624214574" lon="12.55718068677372"><ele>376.3333333333333</ele><time>2026-05-01T08:40:27Z</time></trkpt><trkpt lat="42.6936630301169" lon="12.557232086677221"><ele>373.6666666666667</ele><time>2026-05-01T08:40:28Z</time></trkpt><trkpt lat="42.69384858478945" lon="12.55728985375246"><ele>371.0</ele><time>2026-05-01T08:40:29Z</time></trkpt><trkpt lat="42.69402562493206" lon="12.557406675868098"><ele>371.0</ele><time>2026-05-01T08:40:30Z</time></trkpt><trkpt lat="42.6941874147376" lon="12.557563564919771"><ele>371.0</ele><time>2026-05-01T08:40:31Z</time></trkpt><trkpt lat="42.694363845348796" lon="12.557765831724206"><ele>371.0</ele><time>2026-05-01T08:40:32Z</time></trkpt><trkpt lat="42.694563664321656" lon="12.557983022654675"><ele>372.5</ele><time>2026-05-01T08:40:33Z</time></trkpt><trkpt lat="42.694761067905866" lon="12.558202931141604"><ele>374.0</ele><time>2026-05-01T08:40:34Z</time></trkpt><trkpt lat="42.6949334004405" lon="12.558473991853402"><ele>375.0</ele><time>2026-05-01T08:40:35Z</time></trkpt><trkpt lat="42.69511878999984" lon="12.55876455518706"><ele>376.0</ele><time>2026-05-01T08:40:36Z</time></trkpt><trkpt lat="42.695333411457156" lon="12.559032187197525"><ele>376.0</ele><time>2026-05-01T08:40:37Z</time></trkpt><trkpt lat="42.69558656961187" lon="12.559253556914582"><ele>376.0</ele><time>2026-05-01T08:40:38Z</time></trkpt><trkpt lat="42.69583194823591" lon="12.559491571009247"><ele>375.5</ele><time>2026-05-01T08:40:39Z</time></trkpt><trkpt lat="42.69602889597804" lon="12.559703511365253"><ele>375.0</ele><time>2026-05-01T08:40:40Z</time></trkpt><trkpt lat="42.69619692069572" lon="12.559935154607558"><ele>375.0</ele><time>2026-05-01T08:40:41Z</time></trkpt><trkpt lat="42.69632838559935" lon="12.56014667634493"><ele>375.0</ele><time>2026-05-01T08:40:42Z</time></trkpt><trkpt lat="42.696408904117305" lon="12.560371158655109"><ele>375.0</ele><time>2026-05-01T08:40:43Z</time></trkpt><trkpt lat="42.696466748315316" lon="12.560632814714394"><ele>383.5</ele><time>2026-05-01T08:40:44Z</time></trkpt><trkpt lat="42.69652283305958" lon="12.560938812488503"><ele>392.0</ele><time>2026-05-01T08:40:45Z</time></trkpt><trkpt lat="42.69655387169229" lon="12.56124540916918"><ele>397.0</ele><time>2026-05-01T08:40:46Z</time></trkpt><trkpt lat="42.69654428178918" lon="12.561515186474955"><ele>402.0</ele><time>2026-05-01T08:40:47Z</time></trkpt><trkpt lat="42.69649614176849" lon="12.561738236695764"><ele>407.0</ele><time>2026-05-01T08:40:48Z</time></trkpt><trkpt lat="42.696494247400054" lon="12.56188388754713"><ele>407.0</ele><time>2026-05-01T08:40:49Z</time></trkpt><trkpt lat="42.69652789630862" lon="12.561988149830245"><ele>407.0</ele><time>2026-05-01T08:40:50Z</time></trkpt><trkpt lat="42.69664717187908" lon="12.562049840887315"><ele>407.0</ele><time>2026-05-01T08:40:51Z</time></trkpt><trkpt lat="42.69680067902935" lon="12.56209341717902"><ele>407.0</ele><time>2026-05-01T08:40:52Z</time></trkpt><trkpt lat="42.69703470297983" lon="12.562127064284365"><ele>408.0</ele><time>2026-05-01T08:40:53Z</time></trkpt><trkpt lat="42.69723142713641" lon="12.562220417649533"><ele>409.0</ele><time>2026-05-01T08:40:54Z</time></trkpt><trkpt lat="42.69743195782841" lon="12.56235915252072"><ele>410.0</ele><time>2026-05-01T08:40:55Z</time></trkpt><trkpt lat="42.69762571082838" lon="12.56255712732018"><ele>410.0</ele><time>2026-05-01T08:40:56Z</time></trkpt><trkpt lat="42.69774454179915" lon="12.562794141913528"><ele>410.0</ele><time>2026-05-01T08:40:57Z</time></trkpt><trkpt lat="42.697816629771026" lon="12.563047757156767"><ele>410.0</ele><time>2026-05-01T08:40:58Z</time></trkpt><trkpt lat="42.69789202593846" lon="12.563381230247195"><ele>407.5</ele><time>2026-05-01T08:40:59Z</time></trkpt><trkpt lat="42.697941753879284" lon="12.563698176127229"><ele>405.0</ele><time>2026-05-01T08:41:00Z</time></trkpt><trkpt lat="42.69796280108036" lon="12.564019047821672"><ele>405.0</ele><time>2026-05-01T08:41:01Z</time></trkpt><trkpt lat="42.69798226044644" lon="12.564342450370116"><ele>405.0</ele><time>2026-05-01T08:41:02Z</time></trkpt><trkpt lat="42.69801172888172" lon="12.56463458954719"><ele>409.0</ele><time>2026-05-01T08:41:03Z</time></trkpt><trkpt lat="42.69805111526993" lon="12.564878028871297"><ele>413.0</ele><time>2026-05-01T08:41:04Z</time></trkpt><trkpt lat="42.69808892025449" lon="12.565104291569874"><ele>417.0</ele><time>2026-05-01T08:41:05Z</time></trkpt><trkpt lat="42.69811652395282" lon="12.565311107072109"><ele>420.5</ele><time>2026-05-01T08:41:06Z</time></trkpt><trkpt lat="42.69812219380226" lon="12.565491403691583"><ele>424.0</ele><time>2026-05-01T08:41:07Z</time></trkpt><trkpt lat="42.698137218945526" lon="12.565652758330032"><ele>427.5</ele><time>2026-05-01T08:41:08Z</time></trkpt><trkpt lat="42.69814366447356" lon="12.565807092396849"><ele>431.0</ele><time>2026-05-01T08:41:09Z</time></trkpt><trkpt lat="42.69815522456758" lon="12.565970428002318"><ele>431.0</ele><time>2026-05-01T08:41:10Z</time></trkpt><trkpt lat="42.69816878877132" lon="12.56609952196377"><ele>431.0</ele><time>2026-05-01T08:41:11Z</time></trkpt><trkpt lat="42.69818873238847" lon="12.566215821496291"><ele>431.0</ele><time>2026-05-01T08:41:12Z</time></trkpt><trkpt lat="42.6982401834668" lon="12.566320643925007"><ele>431.0</ele><time>2026-05-01T08:41:13Z</time></trkpt><trkpt lat="42.698312990213935" lon="12.566399272029514"><ele>431.0</ele><time>2026-05-01T08:41:14Z</time></trkpt><trkpt lat="42.6984208724307" lon="12.566408572340904"><ele>434.75</ele><time>2026-05-01T08:41:15Z</time></trkpt><trkpt lat="42.69852933441975" lon="12.566376769225577"><ele>438.5</ele><time>2026-05-01T08:41:16Z</time></trkpt><trkpt lat="42.69863675196355" lon="12.566290458740438"><ele>442.25</ele><time>2026-05-01T08:41:17Z</time></trkpt><trkpt lat="42.698709452685705" lon="12.566157032888889"><ele>446.0</ele><time>2026-05-01T08:41:18Z</time></trkpt><trkpt lat="42.698774831006446" lon="12.566002710127417"><ele>446.0</ele><time>2026-05-01T08:41:19Z</time></trkpt><trkpt lat="42.69884638473616" lon="12.565841304334732"><ele>446.0</ele><time>2026-05-01T08:41:20Z</time></trkpt><trkpt lat="42.698927774176795" lon="12.565696362213053"><ele>446.0</ele><time>2026-05-01T08:41:21Z</time></trkpt><trkpt lat="42.69899712410969" lon="12.565584743577626"><ele>446.0</ele><time>2026-05-01T08:41:22Z</time></trkpt><trkpt lat="42.69906393666361" lon="12.565473798353786"><ele>446.0</ele><time>2026-05-01T08:41:23Z</time></trkpt><trkpt lat="42.69913703578917" lon="12.565381834386518"><ele>446.0</ele><time>2026-05-01T08:41:24Z</time></trkpt><trkpt lat="42.69922854325253" lon="12.565291639072722"><ele>446.0</ele><time>2026-05-01T08:41:25Z</time></trkpt><trkpt lat="42.699339265033714" lon="12.565246799505587"><ele>446.0</ele><time>2026-05-01T08:41:26Z</time></trkpt><trkpt lat="42.699474665519496" lon="12.565222658720163"><ele>440.75</ele><time>2026-05-01T08:41:27Z</time></trkpt><trkpt lat="42.69961062778999" lon="12.565236485606079"><ele>435.5</ele><time>2026-05-01T08:41:28Z</time></trkpt><trkpt lat="42.699746158938304" lon="12.565260512634595"><ele>430.25</ele><time>2026-05-01T08:41:29Z</time></trkpt><trkpt lat="42.69988150399219" lon="12.565302569036971"><ele>425.0</ele><time>2026-05-01T08:41:30Z</time></trkpt><trkpt lat="42.700015303979455" lon="12.565360440695507"><ele>432.0</ele><time>2026-05-01T08:41:31Z</time></trkpt><trkpt lat="42.700130415015906" lon="12.56542204021397"><ele>439.0</ele><time>2026-05-01T08:41:32Z</time></trkpt><trkpt lat="42.70023168395951" lon="12.565504306082314"><ele>446.0</ele><time>2026-05-01T08:41:33Z</time></trkpt><trkpt lat="42.700304257654366" lon="12.565610593874924"><ele>453.0</ele><time>2026-05-01T08:41:34Z</time></trkpt><trkpt lat="42.70035756063962" lon="12.565710787033055"><ele>460.0</ele><time>2026-05-01T08:41:35Z</time></trkpt><trkpt lat="42.70042037483787" lon="12.565794258145173"><ele>460.0</ele><time>2026-05-01T08:41:36Z</time></trkpt><trkpt lat="42.700502842576306" lon="12.565832098651587"><ele>460.0</ele><time>2026-05-01T08:41:37Z</time></trkpt><trkpt lat="42.700606226792296" lon="12.565771720286714"><ele>460.0</ele><time>2026-05-01T08:41:38Z</time></trkpt><trkpt lat="42.700686147469696" lon="12.565666915823673"><ele>460.0</ele><time>2026-05-01T08:41:39Z</time></trkpt><trkpt lat="42.70072833482236" lon="12.565515198221167"><ele>460.0</ele><time>2026-05-01T08:41:40Z</time></trkpt><trkpt lat="42.7007772353429" lon="12.56536583089112"><ele>457.0</ele><time>2026-05-01T08:41:41Z</time></trkpt><trkpt lat="42.70084512190026" lon="12.565205812440384"><ele>454.0</ele><time>2026-05-01T08:41:42Z</time></trkpt><trkpt lat="42.70092739141599" lon="12.565056331990792"><ele>451.0</ele><time>2026-05-01T08:41:43Z</time></trkpt><trkpt lat="42.70103764374991" lon="12.56497796565503"><ele>448.0</ele><time>2026-05-01T08:41:44Z</time></trkpt><trkpt lat="42.701164707473026" lon="12.564959744513896"><ele>448.0</ele><time>2026-05-01T08:41:45Z</time></trkpt><trkpt lat="42.701304626154666" lon="12.564983035880038"><ele>448.0</ele><time>2026-05-01T08:41:46Z</time></trkpt><trkpt lat="42.70149107723071" lon="12.565020424074483"><ele>448.0</ele><time>2026-05-01T08:41:47Z</time></trkpt><trkpt lat="42.70168655464262" lon="12.565077271195827"><ele>448.0</ele><time>2026-05-01T08:41:48Z</time></trkpt><trkpt lat="42.701885093784476" lon="12.565127082885901"><ele>448.0</ele><time>2026-05-01T08:41:49Z</time></trkpt><trkpt lat="42.70209894745574" lon="12.56518791479363"><ele>448.0</ele><time>2026-05-01T08:41:50Z</time></trkpt><trkpt lat="42.702345775163884" lon="12.565253659952585"><ele>449.0</ele><time>2026-05-01T08:41:51Z</time></trkpt><trkpt lat="42.702608163054315" lon="12.565341671455128"><ele>450.0</ele><time>2026-05-01T08:41:52Z</time></trkpt><trkpt lat="42.70287584732297" lon="12.56546027733513"><ele>457.5</ele><time>2026-05-01T08:41:53Z</time></trkpt><trkpt lat="42.7031394128842" lon="12.565620111863293"><ele>465.0</ele><time>2026-05-01T08:41:54Z</time></trkpt><trkpt lat="42.70340835773915" lon="12.565809681437816"><ele>459.0</ele><time>2026-05-01T08:41:55Z</time></trkpt><trkpt lat="42.70367585483264" lon="12.565984271672974"><ele>453.0</ele><time>2026-05-01T08:41:56Z</time></trkpt><trkpt lat="42.70397109146006" lon="12.566148787847597"><ele>468.5</ele><time>2026-05-01T08:41:57Z</time></trkpt><trkpt lat="42.704262837803505" lon="12.566296189597129"><ele>484.0</ele><time>2026-05-01T08:41:58Z</time></trkpt><trkpt lat="42.7045140386853" lon="12.566428065430259"><ele>484.0</ele><time>2026-05-01T08:41:59Z</time></trkpt><trkpt lat="42.70473953704897" lon="12.566537014161813"><ele>484.0</ele><time>2026-05-01T08:42:00Z</time></trkpt><trkpt lat="42.704907464208915" lon="12.566616969198742"><ele>484.0</ele><time>2026-05-01T08:42:01Z</time></trkpt><trkpt lat="42.70497139385472" lon="12.566638582385304"><ele>484.0</ele><time>2026-05-01T08:42:02Z</time></trkpt><trkpt lat="42.70503344017908" lon="12.566535764466053"><ele>484.0</ele><time>2026-05-01T08:42:03Z</time></trkpt><trkpt lat="42.70512963703672" lon="12.566411049382818"><ele>484.0</ele><time>2026-05-01T08:42:04Z</time></trkpt><trkpt lat="42.70518574719334" lon="12.566197914505974"><ele>484.0</ele><time>2026-05-01T08:42:05Z</time></trkpt><trkpt lat="42.70526092912712" lon="12.56604936974377"><ele>485.25</ele><time>2026-05-01T08:42:06Z</time></trkpt><trkpt lat="42.70537749085721" lon="12.56597908174089"><ele>486.5</ele><time>2026-05-01T08:42:07Z</time></trkpt><trkpt lat="42.70550014742268" lon="12.565993889635084"><ele>487.75</ele><time>2026-05-01T08:42:08Z</time></trkpt><trkpt lat="42.70565726027827" lon="12.56615601224229"><ele>489.0</ele><time>2026-05-01T08:42:09Z</time></trkpt><trkpt lat="42.70587590413577" lon="12.566323174787044"><ele>480.5</ele><time>2026-05-01T08:42:10Z</time></trkpt><trkpt lat="42.70609747087185" lon="12.566468776259153"><ele>472.0</ele><time>2026-05-01T08:42:11Z</time></trkpt><trkpt lat="42.70627505300613" lon="12.566676396282398"><ele>472.0</ele><time>2026-05-01T08:42:12Z</time></trkpt><trkpt lat="42.70642899667378" lon="12.56688755863895"><ele>472.0</ele><time>2026-05-01T08:42:13Z</time></trkpt><trkpt lat="42.706550993193844" lon="12.56711421662335"><ele>472.0</ele><time>2026-05-01T08:42:14Z</time></trkpt><trkpt lat="42.70663616947086" lon="12.567398802522957"><ele>482.0</ele><time>2026-05-01T08:42:15Z</time></trkpt><trkpt lat="42.70674620146583" lon="12.567710913455075"><ele>492.0</ele><time>2026-05-01T08:42:16Z</time></trkpt><trkpt lat="42.706830060891896" lon="12.567969084561591"><ele>493.0</ele><time>2026-05-01T08:42:17Z</time></trkpt><trkpt lat="42.70693945313212" lon="12.568137074298194"><ele>494.0</ele><time>2026-05-01T08:42:18Z</time></trkpt><trkpt lat="42.7070920696666" lon="12.568238505802999"><ele>495.0</ele><time>2026-05-01T08:42:19Z</time></trkpt><trkpt lat="42.707305633718704" lon="12.56830795813559"><ele>495.0</ele><time>2026-05-01T08:42:20Z</time></trkpt><trkpt lat="42.70756099482023" lon="12.568371796793322"><ele>495.0</ele><time>2026-05-01T08:42:21Z</time></trkpt><trkpt lat="42.70777094199119" lon="12.56853654031383"><ele>492.0</ele><time>2026-05-01T08:42:22Z</time></trkpt><trkpt lat="42.7079302329411" lon="12.568705261395717"><ele>489.0</ele><time>2026-05-01T08:42:23Z</time></trkpt><trkpt lat="42.70802513341693" lon="12.56886354754808"><ele>486.0</ele><time>2026-05-01T08:42:24Z</time></trkpt><trkpt lat="42.70808127863654" lon="12.56901197947439"><ele>486.0</ele><time>2026-05-01T08:42:25Z</time></trkpt><trkpt lat="42.70809203978875" lon="12.569178408926554"><ele>486.0</ele><time>2026-05-01T08:42:26Z</time></trkpt><trkpt lat="42.70805700177698" lon="12.569327381326895"><ele>486.0</ele><time>2026-05-01T08:42:27Z</time></trkpt><trkpt lat="42.70802091138693" lon="12.569527862885932"><ele>486.0</ele><time>2026-05-01T08:42:28Z</time></trkpt><trkpt lat="42.70797501296059" lon="12.569752256611766"><ele>484.5</ele><time>2026-05-01T08:42:29Z</time></trkpt><trkpt lat="42.70790211337196" lon="12.570020257086718"><ele>483.0</ele><time>2026-05-01T08:42:30Z</time></trkpt><trkpt lat="42.70780156685055" lon="12.570349790421663"><ele>504.0</ele><time>2026-05-01T08:42:31Z</time></trkpt><trkpt lat="42.7077227260456" lon="12.570708716327813"><ele>525.0</ele><time>2026-05-01T08:42:32Z</time></trkpt><trkpt lat="42.707654218651626" lon="12.571042234896694"><ele>526.3333333333334</ele><time>2026-05-01T08:42:33Z</time></trkpt><trkpt lat="42.70761760231918" lon="12.57131693157171"><ele>527.6666666666667</ele><time>2026-05-01T08:42:34Z</time></trkpt><trkpt lat="42.70764225362318" lon="12.571606876711078"><ele>529.0</ele><time>2026-05-01T08:42:35Z</time></trkpt><trkpt lat="42.707670359638755" lon="12.571839899493272"><ele>527.0</ele><time>2026-05-01T08:42:36Z</time></trkpt><trkpt lat="42.70764315834404" lon="12.572046857042746"><ele>525.0</ele><time>2026-05-01T08:42:37Z</time></trkpt><trkpt lat="42.70755730536614" lon="12.572256394573307"><ele>523.0</ele><time>2026-05-01T08:42:38Z</time></trkpt><trkpt lat="42.7074634600617" lon="12.572560866628303"><ele>516.0</ele><time>2026-05-01T08:42:39Z</time></trkpt><trkpt lat="42.70740736178823" lon="12.572870126219737"><ele>509.0</ele><time>2026-05-01T08:42:40Z</time></trkpt><trkpt lat="42.707313224779476" lon="12.5731903162507"><ele>509.0</ele><time>2026-05-01T08:42:41Z</time></trkpt><trkpt lat="42.70720754810556" lon="12.573573864523054"><ele>509.0</ele><time>2026-05-01T08:42:42Z</time></trkpt><trkpt lat="42.70713116487201" lon="12.573987637960037"><ele>505.5</ele><time>2026-05-01T08:42:43Z</time></trkpt><trkpt lat="42.7070575911975" lon="12.574403604003065"><ele>502.0</ele><time>2026-05-01T08:42:44Z</time></trkpt><trkpt lat="42.70695963073333" lon="12.574747968958885"><ele>517.5</ele><time>2026-05-01T08:42:45Z</time></trkpt><trkpt lat="42.70685353132804" lon="12.575075204999997"><ele>533.0</ele><time>2026-05-01T08:42:46Z</time></trkpt><trkpt lat="42.706738812936436" lon="12.57541131821217"><ele>533.0</ele><time>2026-05-01T08:42:47Z</time></trkpt><trkpt lat="42.70660093449233" lon="12.575707028346585"><ele>533.0</ele><time>2026-05-01T08:42:48Z</time></trkpt><trkpt lat="42.70645360435268" lon="12.576014721968798"><ele>531.6666666666666</ele><time>2026-05-01T08:42:49Z</time></trkpt><trkpt lat="42.706385781312655" lon="12.57630380858009"><ele>530.3333333333334</ele><time>2026-05-01T08:42:50Z</time></trkpt><trkpt lat="42.7063392973657" lon="12.576506827941017"><ele>529.0</ele><time>2026-05-01T08:42:51Z</time></trkpt><trkpt lat="42.706355009627195" lon="12.576735581740655"><ele>529.0</ele><time>2026-05-01T08:42:52Z</time></trkpt><trkpt lat="42.706416741873234" lon="12.577004323046397"><ele>529.0</ele><time>2026-05-01T08:42:53Z</time></trkpt><trkpt lat="42.706416302356914" lon="12.577184664701015"><ele>529.0</ele><time>2026-05-01T08:42:54Z</time></trkpt><trkpt lat="42.70637137777357" lon="12.577383602359333"><ele>530.3333333333334</ele><time>2026-05-01T08:42:55Z</time></trkpt><trkpt lat="42.706246834467535" lon="12.577542790515608"><ele>531.6666666666666</ele><time>2026-05-01T08:42:56Z</time></trkpt><trkpt lat="42.70607573028109" lon="12.577828316894182"><ele>533.0</ele><time>2026-05-01T08:42:57Z</time></trkpt><trkpt lat="42.70588052916331" lon="12.578116066809432"><ele>533.0</ele><time>2026-05-01T08:42:58Z</time></trkpt><trkpt lat="42.7056503427701" lon="12.578329200063102"><ele>533.0</ele><time>2026-05-01T08:42:59Z</time></trkpt><trkpt lat="42.705433867573376" lon="12.578486470358218"><ele>549.5</ele><time>2026-05-01T08:43:00Z</time></trkpt><trkpt lat="42.70522056626632" lon="12.578597084561514"><ele>566.0</ele><time>2026-05-01T08:43:01Z</time></trkpt><trkpt lat="42.70497102306861" lon="12.578670740490258"><ele>550.0</ele><time>2026-05-01T08:43:02Z</time></trkpt><trkpt lat="42.7047405845194" lon="12.578776734372592"><ele>534.0</ele><time>2026-05-01T08:43:03Z</time></trkpt><trkpt lat="42.70449854721239" lon="12.578912615584331"><ele>542.3333333333334</ele><time>2026-05-01T08:43:04Z</time></trkpt><trkpt lat="42.70431245076856" lon="12.579030559672207"><ele>550.6666666666667</ele><time>2026-05-01T08:43:05Z</time></trkpt><trkpt lat="42.704161957614694" lon="12.579074516192355"><ele>559.0</ele><time>2026-05-01T08:43:06Z</time></trkpt><trkpt lat="42.7040036187903" lon="12.579094025014864"><ele>559.0</ele><time>2026-05-01T08:43:07Z</time></trkpt><trkpt lat="42.703844870071464" lon="12.579173205965471"><ele>559.0</ele><time>2026-05-01T08:43:08Z</time></trkpt><trkpt lat="42.70366981273626" lon="12.579326884817426"><ele>559.0</ele><time>2026-05-01T08:43:09Z</time></trkpt><trkpt lat="42.703515789750405" lon="12.579537415691226"><ele>557.3333333333334</ele><time>2026-05-01T08:43:10Z</time></trkpt><trkpt lat="42.70334054208601" lon="12.579704110502766"><ele>555.6666666666666</ele><time>2026-05-01T08:43:11Z</time></trkpt><trkpt lat="42.70317578496757" lon="12.579844192752917"><ele>554.0</ele><time>2026-05-01T08:43:12Z</time></trkpt><trkpt lat="42.70292011028635" lon="12.579845988619565"><ele>555.3333333333333</ele><time>2026-05-01T08:43:13Z</time></trkpt><trkpt lat="42.702747345452174" lon="12.579912934809963"><ele>556.6666666666666</ele><time>2026-05-01T08:43:14Z</time></trkpt><trkpt lat="42.70259642145187" lon="12.57992212226319"><ele>558.0</ele><time>2026-05-01T08:43:15Z</time></trkpt><trkpt lat="42.70243761128494" lon="12.579884682532258"><ele>558.0</ele><time>2026-05-01T08:43:16Z</time></trkpt><trkpt lat="42.70224047791477" lon="12.579748368313199"><ele>558.0</ele><time>2026-05-01T08:43:17Z</time></trkpt><trkpt lat="42.70203686222329" lon="12.57959844995662"><ele>560.5</ele><time>2026-05-01T08:43:18Z</time></trkpt><trkpt lat="42.70184045336319" lon="12.579354930306398"><ele>563.0</ele><time>2026-05-01T08:43:19Z</time></trkpt><trkpt lat="42.70175788077385" lon="12.57897667243641"><ele>563.0</ele><time>2026-05-01T08:43:20Z</time></trkpt><trkpt lat="42.70165457793589" lon="12.578724622950299"><ele>563.0</ele><time>2026-05-01T08:43:21Z</time></trkpt><trkpt lat="42.701543527378554" lon="12.578543604849598"><ele>563.0</ele><time>2026-05-01T08:43:22Z</time></trkpt><trkpt lat="42.70142643512384" lon="12.578386427186532"><ele>561.6666666666666</ele><time>2026-05-01T08:43:23Z</time></trkpt><trkpt lat="42.7012992819803" lon="12.578240545068809"><ele>560.3333333333334</ele><time>2026-05-01T08:43:24Z</time></trkpt><trkpt lat="42.70116319644475" lon="12.578164129174588"><ele>559.0</ele><time>2026-05-01T08:43:25Z</time></trkpt><trkpt lat="42.70098431125587" lon="12.578119838883524"><ele>559.0</ele><time>2026-05-01T08:43:26Z</time></trkpt><trkpt lat="42.700790090842844" lon="12.578099708320142"><ele>559.0</ele><time>2026-05-01T08:43:27Z</time></trkpt><trkpt lat="42.70061451810205" lon="12.578078192403712"><ele>559.0</ele><time>2026-05-01T08:43:28Z</time></trkpt><trkpt lat="42.70047612960331" lon="12.57805436984343"><ele>559.0</ele><time>2026-05-01T08:43:29Z</time></trkpt><trkpt lat="42.700350082610036" lon="12.578077959638719"><ele>559.0</ele><time>2026-05-01T08:43:30Z</time></trkpt><trkpt lat="42.70022561293582" lon="12.578156643830225"><ele>559.0</ele><time>2026-05-01T08:43:31Z</time></trkpt><trkpt lat="42.700124457241934" lon="12.578287029392921"><ele>559.0</ele><time>2026-05-01T08:43:32Z</time></trkpt><trkpt lat="42.700059465103145" lon="12.578489323896042"><ele>558.0</ele><time>2026-05-01T08:43:33Z</time></trkpt><trkpt lat="42.70005461034978" lon="12.578786126759644"><ele>557.0</ele><time>2026-05-01T08:43:34Z</time></trkpt><trkpt lat="42.70007866442365" lon="12.579108664808684"><ele>557.0</ele><time>2026-05-01T08:43:35Z</time></trkpt><trkpt lat="42.70012156024979" lon="12.579470393283486"><ele>557.0</ele><time>2026-05-01T08:43:36Z</time></trkpt><trkpt lat="42.70013135047028" lon="12.579826076451182"><ele>557.5</ele><time>2026-05-01T08:43:37Z</time></trkpt><trkpt lat="42.7001360883791" lon="12.5800828916864"><ele>558.0</ele><time>2026-05-01T08:43:38Z</time></trkpt><trkpt lat="42.7001606666778" lon="12.580248906277882"><ele>558.5</ele><time>2026-05-01T08:43:39Z</time></trkpt><trkpt lat="42.70022794522815" lon="12.58037942294719"><ele>559.0</ele><time>2026-05-01T08:43:40Z</time></trkpt><trkpt lat="42.700339101694986" lon="12.580464730239985"><ele>561.6666666666667</ele><time>2026-05-01T08:43:41Z</time></trkpt><trkpt lat="42.70048358750047" lon="12.580481624139344"><ele>564.3333333333334</ele><time>2026-05-01T08:43:42Z</time></trkpt><trkpt lat="42.700630928441875" lon="12.580397701254824"><ele>567.0</ele><time>2026-05-01T08:43:43Z</time></trkpt><trkpt lat="42.70073956494726" lon="12.580259545636066"><ele>567.0</ele><time>2026-05-01T08:43:44Z</time></trkpt><trkpt lat="42.700783916171915" lon="12.580041201997808"><ele>567.0</ele><time>2026-05-01T08:43:45Z</time></trkpt><trkpt lat="42.700787112716284" lon="12.579784522962079"><ele>567.0</ele><time>2026-05-01T08:43:46Z</time></trkpt><trkpt lat="42.70083037541428" lon="12.579600125796855"><ele>566.75</ele><time>2026-05-01T08:43:47Z</time></trkpt><trkpt lat="42.70092820929585" lon="12.579491475451592"><ele>566.5</ele><time>2026-05-01T08:43:48Z</time></trkpt><trkpt lat="42.70105537962524" lon="12.579475264288622"><ele>566.25</ele><time>2026-05-01T08:43:49Z</time></trkpt><trkpt lat="42.70117268906966" lon="12.579561952123566"><ele>566.0</ele><time>2026-05-01T08:43:50Z</time></trkpt><trkpt lat="42.70127091547301" lon="12.579732179565557"><ele>566.0</ele><time>2026-05-01T08:43:51Z</time></trkpt><trkpt lat="42.70135441067225" lon="12.57999252963832"><ele>566.0</ele><time>2026-05-01T08:43:52Z</time></trkpt><trkpt lat="42.70143674056329" lon="12.580285697051192"><ele>566.0</ele><time>2026-05-01T08:43:53Z</time></trkpt><trkpt lat="42.7015357478682" lon="12.580613199529687"><ele>570.0</ele><time>2026-05-01T08:43:54Z</time></trkpt><trkpt lat="42.70164397420017" lon="12.580965834156155"><ele>574.0</ele><time>2026-05-01T08:43:55Z</time></trkpt><trkpt lat="42.701736555561105" lon="12.581328264424808"><ele>578.0</ele><time>2026-05-01T08:43:56Z</time></trkpt><trkpt lat="42.70180265447575" lon="12.5816901003029"><ele>582.0</ele><time>2026-05-01T08:43:57Z</time></trkpt><trkpt lat="42.70184929430562" lon="12.581947267994481"><ele>583.75</ele><time>2026-05-01T08:43:58Z</time></trkpt><trkpt lat="42.70189064443856" lon="12.58210255761421"><ele>585.5</ele><time>2026-05-01T08:43:59Z</time></trkpt><trkpt lat="42.701962071573064" lon="12.582225951361714"><ele>587.25</ele><time>2026-05-01T08:44:00Z</time></trkpt><trkpt lat="42.702069405627284" lon="12.582264549562387"><ele>589.0</ele><time>2026-05-01T08:44:01Z</time></trkpt><trkpt lat="42.70219332121874" lon="12.582225702847404"><ele>589.0</ele><time>2026-05-01T08:44:02Z</time></trkpt><trkpt lat="42.702296465168075" lon="12.582110847132498"><ele>589.0</ele><time>2026-05-01T08:44:03Z</time></trkpt><trkpt lat="42.7023320841427" lon="12.581902373878657"><ele>589.0</ele><time>2026-05-01T08:44:04Z</time></trkpt><trkpt lat="42.70232057254687" lon="12.581611822682012"><ele>589.0</ele><time>2026-05-01T08:44:05Z</time></trkpt><trkpt lat="42.70233823512317" lon="12.58139568208279"><ele>589.0</ele><time>2026-05-01T08:44:06Z</time></trkpt><trkpt lat="42.702423424855425" lon="12.58124988375572"><ele>589.0</ele><time>2026-05-01T08:44:07Z</time></trkpt><trkpt lat="42.7025541426837" lon="12.581148813904113"><ele>589.0</ele><time>2026-05-01T08:44:08Z</time></trkpt><trkpt lat="42.70269815768136" lon="12.581045547290387"><ele>584.3333333333334</ele><time>2026-05-01T08:44:09Z</time></trkpt><trkpt lat="42.702864231236696" lon="12.580967468396576"><ele>579.6666666666666</ele><time>2026-05-01T08:44:10Z</time></trkpt><trkpt lat="42.70312229618956" lon="12.581031169114963"><ele>575.0</ele><time>2026-05-01T08:44:11Z</time></trkpt><trkpt lat="42.70336907924862" lon="12.581076633345953"><ele>581.5</ele><time>2026-05-01T08:44:12Z</time></trkpt><trkpt lat="42.703698721883896" lon="12.581037384222803"><ele>588.0</ele><time>2026-05-01T08:44:13Z</time></trkpt><trkpt lat="42.703952726293394" lon="12.580919321648542"><ele>588.0</ele><time>2026-05-01T08:44:14Z</time></trkpt><trkpt lat="42.70416531467066" lon="12.58089611524491"><ele>588.0</ele><time>2026-05-01T08:44:15Z</time></trkpt><trkpt lat="42.704418852281336" lon="12.580894819553055"><ele>587.3333333333334</ele><time>2026-05-01T08:44:16Z</time></trkpt><trkpt lat="42.704646020969" lon="12.580946039615155"><ele>586.6666666666667</ele><time>2026-05-01T08:44:17Z</time></trkpt><trkpt lat="42.70484315472926" lon="12.580963107745823"><ele>586.0</ele><time>2026-05-01T08:44:18Z</time></trkpt><trkpt lat="42.70506074442175" lon="12.581047553544435"><ele>583.3333333333334</ele><time>2026-05-01T08:44:19Z</time></trkpt><trkpt lat="42.705287048618814" lon="12.58117726820041"><ele>580.6666666666666</ele><time>2026-05-01T08:44:20Z</time></trkpt><trkpt lat="42.70547955121947" lon="12.58125962491953"><ele>578.0</ele><time>2026-05-01T08:44:21Z</time></trkpt><trkpt lat="42.70562694835758" lon="12.58130573310477"><ele>584.75</ele><time>2026-05-01T08:44:22Z</time></trkpt><trkpt lat="42.7057230620676" lon="12.581396216167365"><ele>591.5</ele><time>2026-05-01T08:44:23Z</time></trkpt><trkpt lat="42.70579186564346" lon="12.581502061200396"><ele>598.25</ele><time>2026-05-01T08:44:24Z</time></trkpt><trkpt lat="42.70581583896158" lon="12.581695205950119"><ele>605.0</ele><time>2026-05-01T08:44:25Z</time></trkpt><trkpt lat="42.7058220418334" lon="12.581936500023815"><ele>605.5</ele><time>2026-05-01T08:44:26Z</time></trkpt><trkpt lat="42.70590565733975" lon="12.582162616514974"><ele>606.0</ele><time>2026-05-01T08:44:27Z</time></trkpt><trkpt lat="42.705987667128134" lon="12.582337530939926"><ele>606.5</ele><time>2026-05-01T08:44:28Z</time></trkpt><trkpt lat="42.70607990494427" lon="12.58240047476048"><ele>607.0</ele><time>2026-05-01T08:44:29Z</time></trkpt><trkpt lat="42.70625487140228" lon="12.582343103327931"><ele>607.0</ele><time>2026-05-01T08:44:30Z</time></trkpt><trkpt lat="42.70648549251395" lon="12.582267031465179"><ele>607.0</ele><time>2026-05-01T08:44:31Z</time></trkpt><trkpt lat="42.70664351653864" lon="12.582314827631336"><ele>607.0</ele><time>2026-05-01T08:44:32Z</time></trkpt><trkpt lat="42.706797021973344" lon="12.58244554488901"><ele>607.0</ele><time>2026-05-01T08:44:33Z</time></trkpt><trkpt lat="42.70691019484424" lon="12.582663998860564"><ele>607.0</ele><time>2026-05-01T08:44:34Z</time></trkpt><trkpt lat="42.70700935639005" lon="12.582901067722926"><ele>607.0</ele><time>2026-05-01T08:44:35Z</time></trkpt><trkpt lat="42.70699649179899" lon="12.583221188666762"><ele>610.0</ele><time>2026-05-01T08:44:36Z</time></trkpt><trkpt lat="42.7069880637923" lon="12.583517420430598"><ele>613.0</ele><time>2026-05-01T08:44:37Z</time></trkpt><trkpt lat="42.70706396028828" lon="12.583786362207851"><ele>616.0</ele><time>2026-05-01T08:44:38Z</time></trkpt><trkpt lat="42.70719547657228" lon="12.584072043654496"><ele>616.0</ele><time>2026-05-01T08:44:39Z</time></trkpt><trkpt lat="42.707376136563674" lon="12.584351133873744"><ele>616.0</ele><time>2026-05-01T08:44:40Z</time></trkpt><trkpt lat="42.70753105691214" lon="12.584651910815927"><ele>620.5</ele><time>2026-05-01T08:44:41Z</time></trkpt><trkpt lat="42.70768860748923" lon="12.584971506878933"><ele>625.0</ele><time>2026-05-01T08:44:42Z</time></trkpt><trkpt lat="42.70785480672482" lon="12.585324098705115"><ele>627.5</ele><time>2026-05-01T08:44:43Z</time></trkpt><trkpt lat="42.70804547082494" lon="12.585676068568512"><ele>630.0</ele><time>2026-05-01T08:44:44Z</time></trkpt><trkpt lat="42.70826825223668" lon="12.585981102919483"><ele>634.0</ele><time>2026-05-01T08:44:45Z</time></trkpt><trkpt lat="42.70847394518021" lon="12.586278485948805"><ele>638.0</ele><time>2026-05-01T08:44:46Z</time></trkpt><trkpt lat="42.7086847624918" lon="12.586546182261477"><ele>638.0</ele><time>2026-05-01T08:44:47Z</time></trkpt><trkpt lat="42.708892621197165" lon="12.586771525277154"><ele>638.0</ele><time>2026-05-01T08:44:48Z</time></trkpt><trkpt lat="42.70909696732996" lon="12.586911574980393"><ele>644.0</ele><time>2026-05-01T08:44:49Z</time></trkpt><trkpt lat="42.709326301269094" lon="12.587030034388292"><ele>650.0</ele><time>2026-05-01T08:44:50Z</time></trkpt><trkpt lat="42.70957545696199" lon="12.58710986788859"><ele>650.5</ele><time>2026-05-01T08:44:51Z</time></trkpt><trkpt lat="42.70985849172344" lon="12.587162508946994"><ele>651.0</ele><time>2026-05-01T08:44:52Z</time></trkpt><trkpt lat="42.71040992713871" lon="12.587198390303264"><ele>651.0</ele><time>2026-05-01T08:44:54Z</time></trkpt><trkpt lat="42.71067460744297" lon="12.58731748719463"><ele>651.0</ele><time>2026-05-01T08:44:55Z</time></trkpt><trkpt lat="42.710924336056586" lon="12.587462380806004"><ele>650.5</ele><time>2026-05-01T08:44:56Z</time></trkpt><trkpt lat="42.711146412132734" lon="12.587568497037116"><ele>650.0</ele><time>2026-05-01T08:44:57Z</time></trkpt><trkpt lat="42.711367438150944" lon="12.5876217713543"><ele>650.0</ele><time>2026-05-01T08:44:58Z</time></trkpt><trkpt lat="42.711836767462636" lon="12.587594858646602"><ele>650.6666666666666</ele><time>2026-05-01T08:45:00Z</time></trkpt><trkpt lat="42.71206154892977" lon="12.587513638229415"><ele>651.3333333333334</ele><time>2026-05-01T08:45:01Z</time></trkpt><trkpt lat="42.71222959108511" lon="12.58748370162386"><ele>652.0</ele><time>2026-05-01T08:45:02Z</time></trkpt><trkpt lat="42.71236325620133" lon="12.58746612181016"><ele>652.0</ele><time>2026-05-01T08:45:03Z</time></trkpt><trkpt lat="42.71246217601919" lon="12.587484451438577"><ele>652.0</ele><time>2026-05-01T08:45:04Z</time></trkpt><trkpt lat="42.71256149192891" lon="12.587549049017408"><ele>652.0</ele><time>2026-05-01T08:45:05Z</time></trkpt><trkpt lat="42.712646405280125" lon="12.58769125259153"><ele>652.0</ele><time>2026-05-01T08:45:06Z</time></trkpt><trkpt lat="42.71265563745364" lon="12.587940053941095"><ele>653.0</ele><time>2026-05-01T08:45:07Z</time></trkpt><trkpt lat="42.71266613051583" lon="12.588285380993433"><ele>654.0</ele><time>2026-05-01T08:45:08Z</time></trkpt><trkpt lat="42.712718763861794" lon="12.58857035138015"><ele>650.5</ele><time>2026-05-01T08:45:09Z</time></trkpt><trkpt lat="42.71284234922802" lon="12.588823476350885"><ele>647.0</ele><time>2026-05-01T08:45:10Z</time></trkpt><trkpt lat="42.713031596475396" lon="12.589069279003253"><ele>647.0</ele><time>2026-05-01T08:45:11Z</time></trkpt><trkpt lat="42.713216518316365" lon="12.589356845110148"><ele>647.0</ele><time>2026-05-01T08:45:12Z</time></trkpt><trkpt lat="42.71338048780625" lon="12.589683875284567"><ele>647.5</ele><time>2026-05-01T08:45:13Z</time></trkpt><trkpt lat="42.7135321034315" lon="12.59003068053963"><ele>648.0</ele><time>2026-05-01T08:45:14Z</time></trkpt><trkpt lat="42.71363775230453" lon="12.590375722421989"><ele>646.5</ele><time>2026-05-01T08:45:15Z</time></trkpt><trkpt lat="42.713693856085406" lon="12.590685157870588"><ele>645.0</ele><time>2026-05-01T08:45:16Z</time></trkpt><trkpt lat="42.71373992203408" lon="12.590998475340703"><ele>642.6666666666666</ele><time>2026-05-01T08:45:17Z</time></trkpt><trkpt lat="42.71373873918566" lon="12.591300190662285"><ele>640.3333333333333</ele><time>2026-05-01T08:45:18Z</time></trkpt><trkpt lat="42.713711152736764" lon="12.591593726284184"><ele>638.0</ele><time>2026-05-01T08:45:19Z</time></trkpt><trkpt lat="42.71369475050248" lon="12.591857433207888"><ele>634.0</ele><time>2026-05-01T08:45:20Z</time></trkpt><trkpt lat="42.713708140925405" lon="12.592130670929784"><ele>630.0</ele><time>2026-05-01T08:45:21Z</time></trkpt><trkpt lat="42.713727053075736" lon="12.592414475403215"><ele>626.0</ele><time>2026-05-01T08:45:22Z</time></trkpt><trkpt lat="42.71372474970467" lon="12.592719060828596"><ele>620.0</ele><time>2026-05-01T08:45:23Z</time></trkpt><trkpt lat="42.713730086939876" lon="12.593001446677182"><ele>614.0</ele><time>2026-05-01T08:45:24Z</time></trkpt><trkpt lat="42.713730957353995" lon="12.593227461051347"><ele>608.0</ele><time>2026-05-01T08:45:25Z</time></trkpt><trkpt lat="42.71371942448409" lon="12.593482176561622"><ele>614.0</ele><time>2026-05-01T08:45:26Z</time></trkpt><trkpt lat="42.713624423724276" lon="12.593760542981027"><ele>620.0</ele><time>2026-05-01T08:45:27Z</time></trkpt><trkpt lat="42.713504065460796" lon="12.59406354735674"><ele>620.0</ele><time>2026-05-01T08:45:28Z</time></trkpt><trkpt lat="42.713373540235224" lon="12.5943739744008"><ele>620.0</ele><time>2026-05-01T08:45:29Z</time></trkpt><trkpt lat="42.7132475066404" lon="12.59464986158378"><ele>608.5</ele><time>2026-05-01T08:45:30Z</time></trkpt><trkpt lat="42.71309777413074" lon="12.594902772876363"><ele>597.0</ele><time>2026-05-01T08:45:31Z</time></trkpt><trkpt lat="42.71293822128409" lon="12.595111353101283"><ele>597.0</ele><time>2026-05-01T08:45:32Z</time></trkpt><trkpt lat="42.712804022646644" lon="12.595316608839106"><ele>597.0</ele><time>2026-05-01T08:45:33Z</time></trkpt><trkpt lat="42.712682200137586" lon="12.595525017308475"><ele>597.0</ele><time>2026-05-01T08:45:34Z</time></trkpt><trkpt lat="42.71256371262422" lon="12.59572590799827"><ele>601.0</ele><time>2026-05-01T08:45:35Z</time></trkpt><trkpt lat="42.71247941742721" lon="12.595908854713919"><ele>605.0</ele><time>2026-05-01T08:45:36Z</time></trkpt><trkpt lat="42.71239562382229" lon="12.596108252733439"><ele>609.0</ele><time>2026-05-01T08:45:37Z</time></trkpt><trkpt lat="42.71229489841191" lon="12.59630704784047"><ele>612.25</ele><time>2026-05-01T08:45:38Z</time></trkpt><trkpt lat="42.71219424921418" lon="12.59645780526067"><ele>615.5</ele><time>2026-05-01T08:45:39Z</time></trkpt><trkpt lat="42.71208110372183" lon="12.596593187625256"><ele>618.75</ele><time>2026-05-01T08:45:40Z</time></trkpt><trkpt lat="42.711970302599205" lon="12.596697522753438"><ele>622.0</ele><time>2026-05-01T08:45:41Z</time></trkpt><trkpt lat="42.71187554319315" lon="12.596818108640464"><ele>622.0</ele><time>2026-05-01T08:45:42Z</time></trkpt><trkpt lat="42.711782387362796" lon="12.596945213752678"><ele>622.0</ele><time>2026-05-01T08:45:43Z</time></trkpt><trkpt lat="42.711715410987736" lon="12.597092961138431"><ele>622.0</ele><time>2026-05-01T08:45:44Z</time></trkpt><trkpt lat="42.71166248082426" lon="12.597295169087397"><ele>622.0</ele><time>2026-05-01T08:45:45Z</time></trkpt><trkpt lat="42.71164067932408" lon="12.597457685670463"><ele>616.5</ele><time>2026-05-01T08:45:46Z</time></trkpt><trkpt lat="42.711650905908265" lon="12.597644841809583"><ele>611.0</ele><time>2026-05-01T08:45:47Z</time></trkpt><trkpt lat="42.71165808587613" lon="12.597835695928993"><ele>605.5</ele><time>2026-05-01T08:45:48Z</time></trkpt><trkpt lat="42.71162540680603" lon="12.598039482673197"><ele>600.0</ele><time>2026-05-01T08:45:49Z</time></trkpt><trkpt lat="42.711572514079606" lon="12.598243941906775"><ele>596.0</ele><time>2026-05-01T08:45:50Z</time></trkpt><trkpt lat="42.711497558275205" lon="12.598466070699487"><ele>592.0</ele><time>2026-05-01T08:45:51Z</time></trkpt><trkpt lat="42.71140577284297" lon="12.598708042862429"><ele>588.0</ele><time>2026-05-01T08:45:52Z</time></trkpt><trkpt lat="42.71130520289248" lon="12.598987086560584"><ele>579.5</ele><time>2026-05-01T08:45:53Z</time></trkpt><trkpt lat="42.71120341116385" lon="12.59931743866725"><ele>571.0</ele><time>2026-05-01T08:45:54Z</time></trkpt><trkpt lat="42.71109660160179" lon="12.599669826591045"><ele>584.5</ele><time>2026-05-01T08:45:55Z</time></trkpt><trkpt lat="42.71100795095258" lon="12.599994796256443"><ele>598.0</ele><time>2026-05-01T08:45:56Z</time></trkpt><trkpt lat="42.710922558175305" lon="12.600307450170522"><ele>593.6666666666667</ele><time>2026-05-01T08:45:57Z</time></trkpt><trkpt lat="42.71085583823046" lon="12.600573563823197"><ele>589.3333333333334</ele><time>2026-05-01T08:45:58Z</time></trkpt><trkpt lat="42.710797864181714" lon="12.60085699506033"><ele>585.0</ele><time>2026-05-01T08:45:59Z</time></trkpt><trkpt lat="42.71081330975763" lon="12.601176066845454"><ele>581.0</ele><time>2026-05-01T08:46:00Z</time></trkpt><trkpt lat="42.71083678103448" lon="12.601446210239052"><ele>577.0</ele><time>2026-05-01T08:46:01Z</time></trkpt><trkpt lat="42.71083151215686" lon="12.601733421559207"><ele>573.0</ele><time>2026-05-01T08:46:02Z</time></trkpt><trkpt lat="42.710760268101104" lon="12.602050710617565"><ele>562.5</ele><time>2026-05-01T08:46:03Z</time></trkpt><trkpt lat="42.71066665340234" lon="12.602382656590555"><ele>552.0</ele><time>2026-05-01T08:46:04Z</time></trkpt><trkpt lat="42.71052187155364" lon="12.602717191348239"><ele>539.0</ele><time>2026-05-01T08:46:05Z</time></trkpt><trkpt lat="42.71040950139705" lon="12.603017707006437"><ele>526.0</ele><time>2026-05-01T08:46:06Z</time></trkpt><trkpt lat="42.71030393329726" lon="12.603306019120462"><ele>534.6666666666667</ele><time>2026-05-01T08:46:07Z</time></trkpt><trkpt lat="42.71018814335589" lon="12.603575814923117"><ele>543.3333333333334</ele><time>2026-05-01T08:46:08Z</time></trkpt><trkpt lat="42.71006985320584" lon="12.603809778036164"><ele>552.0</ele><time>2026-05-01T08:46:09Z</time></trkpt><trkpt lat="42.709939829715346" lon="12.604027164831889"><ele>552.0</ele><time>2026-05-01T08:46:10Z</time></trkpt><trkpt lat="42.709800975771365" lon="12.604213214781646"><ele>552.0</ele><time>2026-05-01T08:46:11Z</time></trkpt><trkpt lat="42.70963691452654" lon="12.604381409177142"><ele>552.0</ele><time>2026-05-01T08:46:12Z</time></trkpt><trkpt lat="42.70948341454878" lon="12.604525749237393"><ele>552.3333333333334</ele><time>2026-05-01T08:46:13Z</time></trkpt><trkpt lat="42.70934418316314" lon="12.604664856046528"><ele>552.6666666666667</ele><time>2026-05-01T08:46:14Z</time></trkpt><trkpt lat="42.70921050497179" lon="12.604796324562685"><ele>553.0</ele><time>2026-05-01T08:46:15Z</time></trkpt><trkpt lat="42.70906700993402" lon="12.60492777476664"><ele>553.0</ele><time>2026-05-01T08:46:16Z</time></trkpt><trkpt lat="42.70889897626028" lon="12.605034469598221"><ele>553.0</ele><time>2026-05-01T08:46:17Z</time></trkpt><trkpt lat="42.70871572252615" lon="12.605112739478146"><ele>553.0</ele><time>2026-05-01T08:46:18Z</time></trkpt><trkpt lat="42.708550942204795" lon="12.605179055128547"><ele>556.3333333333334</ele><time>2026-05-01T08:46:19Z</time></trkpt><trkpt lat="42.7083896177493" lon="12.605237557268028"><ele>559.6666666666666</ele><time>2026-05-01T08:46:20Z</time></trkpt><trkpt lat="42.708223658943496" lon="12.605297542312732"><ele>563.0</ele><time>2026-05-01T08:46:21Z</time></trkpt><trkpt lat="42.70806045640033" lon="12.605337705661277"><ele>559.25</ele><time>2026-05-01T08:46:22Z</time></trkpt><trkpt lat="42.70790940661591" lon="12.605366796410333"><ele>555.5</ele><time>2026-05-01T08:46:23Z</time></trkpt><trkpt lat="42.70778696534901" lon="12.605398873135213"><ele>551.75</ele><time>2026-05-01T08:46:24Z</time></trkpt><trkpt lat="42.70766882909404" lon="12.60545296431418"><ele>548.0</ele><time>2026-05-01T08:46:25Z</time></trkpt><trkpt lat="42.707551496782486" lon="12.605524309337373"><ele>548.0</ele><time>2026-05-01T08:46:26Z</time></trkpt><trkpt lat="42.70745173896427" lon="12.60562985403162"><ele>548.0</ele><time>2026-05-01T08:46:27Z</time></trkpt><trkpt lat="42.70737632792211" lon="12.605752172631902"><ele>548.0</ele><time>2026-05-01T08:46:28Z</time></trkpt><trkpt lat="42.70731621291059" lon="12.60591392522464"><ele>548.0</ele><time>2026-05-01T08:46:29Z</time></trkpt><trkpt lat="42.70728346290089" lon="12.606097693242365"><ele>545.6666666666666</ele><time>2026-05-01T08:46:30Z</time></trkpt><trkpt lat="42.70728497370202" lon="12.60630336004384"><ele>543.3333333333334</ele><time>2026-05-01T08:46:31Z</time></trkpt><trkpt lat="42.70729792806423" lon="12.606548814213067"><ele>541.0</ele><time>2026-05-01T08:46:32Z</time></trkpt><trkpt lat="42.707316662069125" lon="12.606872110316802"><ele>538.5</ele><time>2026-05-01T08:46:33Z</time></trkpt><trkpt lat="42.707350193913406" lon="12.60723703002969"><ele>536.0</ele><time>2026-05-01T08:46:34Z</time></trkpt><trkpt lat="42.70736201779813" lon="12.60764214969685"><ele>532.0</ele><time>2026-05-01T08:46:35Z</time></trkpt><trkpt lat="42.70737783187962" lon="12.60807876438765"><ele>528.0</ele><time>2026-05-01T08:46:36Z</time></trkpt><trkpt lat="42.70739925345871" lon="12.608501113916235"><ele>526.0</ele><time>2026-05-01T08:46:37Z</time></trkpt><trkpt lat="42.70741423363959" lon="12.60880949102645"><ele>524.0</ele><time>2026-05-01T08:46:38Z</time></trkpt><trkpt lat="42.70742962920242" lon="12.6090816202115"><ele>522.0</ele><time>2026-05-01T08:46:39Z</time></trkpt><trkpt lat="42.70745125564856" lon="12.609301970932847"><ele>522.0</ele><time>2026-05-01T08:46:40Z</time></trkpt><trkpt lat="42.707506105948525" lon="12.609490327000913"><ele>522.0</ele><time>2026-05-01T08:46:41Z</time></trkpt><trkpt lat="42.70762457096267" lon="12.609636356496464"><ele>522.0</ele><time>2026-05-01T08:46:42Z</time></trkpt><trkpt lat="42.70780696512157" lon="12.60978036708635"><ele>518.0</ele><time>2026-05-01T08:46:43Z</time></trkpt><trkpt lat="42.70802405626658" lon="12.609953470616132"><ele>514.0</ele><time>2026-05-01T08:46:44Z</time></trkpt><trkpt lat="42.708217450134825" lon="12.610185183427205"><ele>513.5</ele><time>2026-05-01T08:46:45Z</time></trkpt><trkpt lat="42.7084087670782" lon="12.61043776273747"><ele>513.0</ele><time>2026-05-01T08:46:46Z</time></trkpt><trkpt lat="42.70862996754058" lon="12.610644977444275"><ele>509.0</ele><time>2026-05-01T08:46:47Z</time></trkpt><trkpt lat="42.70888094117546" lon="12.610818140550696"><ele>505.0</ele><time>2026-05-01T08:46:48Z</time></trkpt><trkpt lat="42.70919462532719" lon="12.610919461714497"><ele>499.0</ele><time>2026-05-01T08:46:49Z</time></trkpt><trkpt lat="42.70950218663539" lon="12.610988001148087"><ele>493.0</ele><time>2026-05-01T08:46:50Z</time></trkpt><trkpt lat="42.70975814210565" lon="12.611046285734158"><ele>493.0</ele><time>2026-05-01T08:46:51Z</time></trkpt><trkpt lat="42.70998236167945" lon="12.611128012881125"><ele>493.0</ele><time>2026-05-01T08:46:52Z</time></trkpt><trkpt lat="42.7102122032312" lon="12.611233439268132"><ele>490.0</ele><time>2026-05-01T08:46:53Z</time></trkpt><trkpt lat="42.71044164922743" lon="12.611366098274052"><ele>487.0</ele><time>2026-05-01T08:46:54Z</time></trkpt><trkpt lat="42.7106662767651" lon="12.611494202415685"><ele>487.0</ele><time>2026-05-01T08:46:55Z</time></trkpt><trkpt lat="42.71084607919991" lon="12.611602781190895"><ele>487.0</ele><time>2026-05-01T08:46:56Z</time></trkpt><trkpt lat="42.71097577014854" lon="12.611737940072558"><ele>487.0</ele><time>2026-05-01T08:46:57Z</time></trkpt><trkpt lat="42.711068342062376" lon="12.61187228695906"><ele>484.6666666666667</ele><time>2026-05-01T08:46:58Z</time></trkpt><trkpt lat="42.7111511246074" lon="12.61204660595631"><ele>482.33333333333337</ele><time>2026-05-01T08:46:59Z</time></trkpt><trkpt lat="42.71118213500066" lon="12.612297692026118"><ele>480.0</ele><time>2026-05-01T08:47:00Z</time></trkpt><trkpt lat="42.71126937162964" lon="12.612493578649332"><ele>480.0</ele><time>2026-05-01T08:47:01Z</time></trkpt><trkpt lat="42.711402003033655" lon="12.612596729519442"><ele>480.0</ele><time>2026-05-01T08:47:02Z</time></trkpt><trkpt lat="42.71155905976773" lon="12.612626176592725"><ele>480.0</ele><time>2026-05-01T08:47:03Z</time></trkpt><trkpt lat="42.711747426346804" lon="12.61255299920458"><ele>480.0</ele><time>2026-05-01T08:47:04Z</time></trkpt><trkpt lat="42.71190652940297" lon="12.612452848652385"><ele>480.0</ele><time>2026-05-01T08:47:05Z</time></trkpt><trkpt lat="42.71201937856848" lon="12.612344255309102"><ele>480.0</ele><time>2026-05-01T08:47:06Z</time></trkpt><trkpt lat="42.712122107837985" lon="12.61223341019884"><ele>480.0</ele><time>2026-05-01T08:47:07Z</time></trkpt><trkpt lat="42.71220441888004" lon="12.612103310223926"><ele>478.0</ele><time>2026-05-01T08:47:08Z</time></trkpt><trkpt lat="42.71228509236945" lon="12.611955777005033"><ele>476.0</ele><time>2026-05-01T08:47:09Z</time></trkpt><trkpt lat="42.71236707898113" lon="12.611743843245296"><ele>474.0</ele><time>2026-05-01T08:47:10Z</time></trkpt><trkpt lat="42.712454402899596" lon="12.6115135690162"><ele>474.0</ele><time>2026-05-01T08:47:11Z</time></trkpt><trkpt lat="42.71253503739022" lon="12.611281667770903"><ele>474.0</ele><time>2026-05-01T08:47:12Z</time></trkpt><trkpt lat="42.71261607234771" lon="12.611103388397758"><ele>474.0</ele><time>2026-05-01T08:47:13Z</time></trkpt><trkpt lat="42.712743598664204" lon="12.611002515963778"><ele>469.5</ele><time>2026-05-01T08:47:14Z</time></trkpt><trkpt lat="42.71287668431581" lon="12.610918714432799"><ele>465.0</ele><time>2026-05-01T08:47:15Z</time></trkpt><trkpt lat="42.71298003618712" lon="12.610817046628386"><ele>460.5</ele><time>2026-05-01T08:47:16Z</time></trkpt><trkpt lat="42.71306480453828" lon="12.610711478271883"><ele>456.0</ele><time>2026-05-01T08:47:17Z</time></trkpt><trkpt lat="42.71309299869815" lon="12.610577361295556"><ele>456.0</ele><time>2026-05-01T08:47:18Z</time></trkpt><trkpt lat="42.71311760969707" lon="12.610411691578323"><ele>456.0</ele><time>2026-05-01T08:47:19Z</time></trkpt><trkpt lat="42.71313431181753" lon="12.610232859668145"><ele>456.0</ele><time>2026-05-01T08:47:20Z</time></trkpt><trkpt lat="42.71317187296486" lon="12.610049139318486"><ele>456.0</ele><time>2026-05-01T08:47:21Z</time></trkpt><trkpt lat="42.71320041382439" lon="12.609859995900674"><ele>456.33333333333337</ele><time>2026-05-01T08:47:22Z</time></trkpt><trkpt lat="42.71325969611072" lon="12.609696014740543"><ele>456.6666666666667</ele><time>2026-05-01T08:47:23Z</time></trkpt><trkpt lat="42.71332727947699" lon="12.609519138786457"><ele>457.0</ele><time>2026-05-01T08:47:24Z</time></trkpt><trkpt lat="42.71342655444679" lon="12.609294987751822"><ele>455.0</ele><time>2026-05-01T08:47:25Z</time></trkpt><trkpt lat="42.713604357920936" lon="12.609067150628844"><ele>453.0</ele><time>2026-05-01T08:47:26Z</time></trkpt><trkpt lat="42.71377577942026" lon="12.608826334001593"><ele>458.33333333333337</ele><time>2026-05-01T08:47:27Z</time></trkpt><trkpt lat="42.71391589755076" lon="12.608627149583382"><ele>463.6666666666667</ele><time>2026-05-01T08:47:28Z</time></trkpt><trkpt lat="42.71404742781087" lon="12.608481933004361"><ele>469.0</ele><time>2026-05-01T08:47:29Z</time></trkpt><trkpt lat="42.71415167720357" lon="12.608409664912491"><ele>469.0</ele><time>2026-05-01T08:47:30Z</time></trkpt><trkpt lat="42.71425809170095" lon="12.608402148969155"><ele>469.0</ele><time>2026-05-01T08:47:31Z</time></trkpt><trkpt lat="42.71437709922136" lon="12.608486016066948"><ele>469.0</ele><time>2026-05-01T08:47:32Z</time></trkpt><trkpt lat="42.71449802194114" lon="12.608621621611558"><ele>469.0</ele><time>2026-05-01T08:47:33Z</time></trkpt><trkpt lat="42.71461373204101" lon="12.608842939541317"><ele>465.5</ele><time>2026-05-01T08:47:34Z</time></trkpt><trkpt lat="42.71470482738224" lon="12.609157845938135"><ele>462.0</ele><time>2026-05-01T08:47:35Z</time></trkpt><trkpt lat="42.71481360263315" lon="12.609530774627984"><ele>458.0</ele><time>2026-05-01T08:47:36Z</time></trkpt><trkpt lat="42.714944399769834" lon="12.609887812981803"><ele>454.0</ele><time>2026-05-01T08:47:37Z</time></trkpt><trkpt lat="42.71505310192259" lon="12.61022832158351"><ele>455.0</ele><time>2026-05-01T08:47:38Z</time></trkpt><trkpt lat="42.71517263547062" lon="12.610495828899404"><ele>456.0</ele><time>2026-05-01T08:47:39Z</time></trkpt><trkpt lat="42.715315631852214" lon="12.610711179911826"><ele>457.0</ele><time>2026-05-01T08:47:40Z</time></trkpt><trkpt lat="42.71550280637094" lon="12.610889352337615"><ele>457.0</ele><time>2026-05-01T08:47:41Z</time></trkpt><trkpt lat="42.71573451050164" lon="12.611010848299538"><ele>457.0</ele><time>2026-05-01T08:47:42Z</time></trkpt><trkpt lat="42.715954116572114" lon="12.611087619788577"><ele>460.33333333333337</ele><time>2026-05-01T08:47:43Z</time></trkpt><trkpt lat="42.71613143567263" lon="12.611113526232732"><ele>463.66666666666663</ele><time>2026-05-01T08:47:44Z</time></trkpt><trkpt lat="42.71628706430555" lon="12.611146178228244"><ele>467.0</ele><time>2026-05-01T08:47:45Z</time></trkpt><trkpt lat="42.716439175299804" lon="12.611228786634301"><ele>467.0</ele><time>2026-05-01T08:47:46Z</time></trkpt><trkpt lat="42.716583797365146" lon="12.611386575275448"><ele>467.0</ele><time>2026-05-01T08:47:47Z</time></trkpt><trkpt lat="42.716667102979414" lon="12.611587020350992"><ele>467.0</ele><time>2026-05-01T08:47:48Z</time></trkpt><trkpt lat="42.716696148885454" lon="12.61184480982878"><ele>467.0</ele><time>2026-05-01T08:47:49Z</time></trkpt><trkpt lat="42.716661108377565" lon="12.612182538434498"><ele>467.0</ele><time>2026-05-01T08:47:50Z</time></trkpt><trkpt lat="42.71661430443544" lon="12.612564556718599"><ele>465.5</ele><time>2026-05-01T08:47:51Z</time></trkpt><trkpt lat="42.71654595248953" lon="12.612985581410898"><ele>464.0</ele><time>2026-05-01T08:47:52Z</time></trkpt><trkpt lat="42.71647946349686" lon="12.613415430804482"><ele>465.5</ele><time>2026-05-01T08:47:53Z</time></trkpt><trkpt lat="42.71637241700726" lon="12.613796428962894"><ele>467.0</ele><time>2026-05-01T08:47:54Z</time></trkpt><trkpt lat="42.71625924997228" lon="12.614120798488791"><ele>467.0</ele><time>2026-05-01T08:47:55Z</time></trkpt><trkpt lat="42.716204135920954" lon="12.614474639076215"><ele>467.0</ele><time>2026-05-01T08:47:56Z</time></trkpt><trkpt lat="42.71620489970333" lon="12.61483205462103"><ele>467.3333333333333</ele><time>2026-05-01T08:47:57Z</time></trkpt><trkpt lat="42.71621396439286" lon="12.615102898894182"><ele>467.66666666666663</ele><time>2026-05-01T08:47:58Z</time></trkpt><trkpt lat="42.71624056419854" lon="12.615300784277025"><ele>468.0</ele><time>2026-05-01T08:47:59Z</time></trkpt><trkpt lat="42.71629427283206" lon="12.61548536481282"><ele>465.0</ele><time>2026-05-01T08:48:00Z</time></trkpt><trkpt lat="42.71641765313186" lon="12.61566304681894"><ele>462.0</ele><time>2026-05-01T08:48:01Z</time></trkpt><trkpt lat="42.71659568592967" lon="12.615869501263306"><ele>459.0</ele><time>2026-05-01T08:48:02Z</time></trkpt><trkpt lat="42.716820512193515" lon="12.616053696663599"><ele>457.66666666666663</ele><time>2026-05-01T08:48:03Z</time></trkpt><trkpt lat="42.71698814797446" lon="12.616237959420841"><ele>456.3333333333333</ele><time>2026-05-01T08:48:04Z</time></trkpt><trkpt lat="42.71709256884329" lon="12.616448889796931"><ele>455.0</ele><time>2026-05-01T08:48:05Z</time></trkpt><trkpt lat="42.717134821332955" lon="12.616699109468499"><ele>454.3333333333333</ele><time>2026-05-01T08:48:06Z</time></trkpt><trkpt lat="42.71713188254008" lon="12.616989007510066"><ele>453.66666666666663</ele><time>2026-05-01T08:48:07Z</time></trkpt><trkpt lat="42.71711198702447" lon="12.617266328206677"><ele>453.0</ele><time>2026-05-01T08:48:08Z</time></trkpt><trkpt lat="42.71710659896556" lon="12.617477608946425"><ele>453.0</ele><time>2026-05-01T08:48:09Z</time></trkpt><trkpt lat="42.71714216853965" lon="12.617621016437369"><ele>453.0</ele><time>2026-05-01T08:48:10Z</time></trkpt><trkpt lat="42.71721279097324" lon="12.617736192441031"><ele>453.0</ele><time>2026-05-01T08:48:11Z</time></trkpt><trkpt lat="42.71731917176727" lon="12.617837271529398"><ele>453.0</ele><time>2026-05-01T08:48:12Z</time></trkpt><trkpt lat="42.717484743811376" lon="12.617944567308948"><ele>453.0</ele><time>2026-05-01T08:48:13Z</time></trkpt><trkpt lat="42.71767381660839" lon="12.618044163437885"><ele>453.0</ele><time>2026-05-01T08:48:14Z</time></trkpt><trkpt lat="42.71780447349414" lon="12.618121156207666"><ele>453.0</ele><time>2026-05-01T08:48:15Z</time></trkpt><trkpt lat="42.71788444384178" lon="12.618217275697214"><ele>450.0</ele><time>2026-05-01T08:48:16Z</time></trkpt><trkpt lat="42.71793221759365" lon="12.618376620549595"><ele>447.0</ele><time>2026-05-01T08:48:17Z</time></trkpt><trkpt lat="42.717932644831414" lon="12.618585436420677"><ele>444.0</ele><time>2026-05-01T08:48:18Z</time></trkpt><trkpt lat="42.717919784090164" lon="12.618829210624233"><ele>442.0</ele><time>2026-05-01T08:48:19Z</time></trkpt><trkpt lat="42.71794254794475" lon="12.6190789055031"><ele>440.0</ele><time>2026-05-01T08:48:20Z</time></trkpt><trkpt lat="42.7180083785201" lon="12.61928803232224"><ele>438.0</ele><time>2026-05-01T08:48:21Z</time></trkpt><trkpt lat="42.718118213885646" lon="12.619446480002154"><ele>438.66666666666663</ele><time>2026-05-01T08:48:22Z</time></trkpt><trkpt lat="42.71823601445589" lon="12.61961581021563"><ele>439.3333333333333</ele><time>2026-05-01T08:48:23Z</time></trkpt><trkpt lat="42.71832856205651" lon="12.619779069939929"><ele>440.0</ele><time>2026-05-01T08:48:24Z</time></trkpt><trkpt lat="42.71843021684784" lon="12.61992629566872"><ele>440.0</ele><time>2026-05-01T08:48:25Z</time></trkpt><trkpt lat="42.718547628028794" lon="12.620051456060109"><ele>440.0</ele><time>2026-05-01T08:48:26Z</time></trkpt><trkpt lat="42.718686032417104" lon="12.620166880674653"><ele>440.0</ele><time>2026-05-01T08:48:27Z</time></trkpt><trkpt lat="42.71883611176429" lon="12.620253309174203"><ele>435.66666666666663</ele><time>2026-05-01T08:48:28Z</time></trkpt><trkpt lat="42.71898481512634" lon="12.620387458244403"><ele>431.33333333333337</ele><time>2026-05-01T08:48:29Z</time></trkpt><trkpt lat="42.71910499305535" lon="12.620523244471402"><ele>427.0</ele><time>2026-05-01T08:48:30Z</time></trkpt><trkpt lat="42.719215207583176" lon="12.620679151725795"><ele>427.0</ele><time>2026-05-01T08:48:31Z</time></trkpt><trkpt lat="42.719298846896166" lon="12.620807184065907"><ele>427.0</ele><time>2026-05-01T08:48:32Z</time></trkpt><trkpt lat="42.719360142497926" lon="12.620946319163608"><ele>427.0</ele><time>2026-05-01T08:48:33Z</time></trkpt><trkpt lat="42.719355298412516" lon="12.621164463591269"><ele>427.0</ele><time>2026-05-01T08:48:34Z</time></trkpt><trkpt lat="42.719362837970515" lon="12.621443146147273"><ele>426.5</ele><time>2026-05-01T08:48:35Z</time></trkpt><trkpt lat="42.719379084744084" lon="12.621765613198505"><ele>426.0</ele><time>2026-05-01T08:48:36Z</time></trkpt><trkpt lat="42.71936209625864" lon="12.622101012645308"><ele>427.33333333333337</ele><time>2026-05-01T08:48:37Z</time></trkpt><trkpt lat="42.71938242976251" lon="12.62234850202861"><ele>428.6666666666667</ele><time>2026-05-01T08:48:38Z</time></trkpt><trkpt lat="42.7194290499938" lon="12.622577286158354"><ele>430.0</ele><time>2026-05-01T08:48:39Z</time></trkpt><trkpt lat="42.71953242273339" lon="12.622800202368863"><ele>423.6666666666667</ele><time>2026-05-01T08:48:40Z</time></trkpt><trkpt lat="42.7196790735616" lon="12.623018357838024"><ele>417.33333333333337</ele><time>2026-05-01T08:48:41Z</time></trkpt><trkpt lat="42.71983798237728" lon="12.623233981802164"><ele>411.0</ele><time>2026-05-01T08:48:42Z</time></trkpt><trkpt lat="42.719903574621256" lon="12.623491214507778"><ele>410.0</ele><time>2026-05-01T08:48:43Z</time></trkpt><trkpt lat="42.71992321763116" lon="12.623776460833039"><ele>409.0</ele><time>2026-05-01T08:48:44Z</time></trkpt><trkpt lat="42.71991354176061" lon="12.624117597965753"><ele>409.0</ele><time>2026-05-01T08:48:45Z</time></trkpt><trkpt lat="42.71990063737601" lon="12.624476090261615"><ele>409.0</ele><time>2026-05-01T08:48:46Z</time></trkpt><trkpt lat="42.719819994332575" lon="12.62477594011906"><ele>405.0</ele><time>2026-05-01T08:48:47Z</time></trkpt><trkpt lat="42.71970710532515" lon="12.625075370914725"><ele>401.0</ele><time>2026-05-01T08:48:48Z</time></trkpt><trkpt lat="42.719578458700155" lon="12.625393871411214"><ele>402.5</ele><time>2026-05-01T08:48:49Z</time></trkpt><trkpt lat="42.71943665172125" lon="12.6257326891346"><ele>404.0</ele><time>2026-05-01T08:48:50Z</time></trkpt><trkpt lat="42.71927573669006" lon="12.626001103615389"><ele>400.66666666666663</ele><time>2026-05-01T08:48:51Z</time></trkpt><trkpt lat="42.71915457748101" lon="12.62625769394141"><ele>397.33333333333337</ele><time>2026-05-01T08:48:52Z</time></trkpt><trkpt lat="42.719063657115285" lon="12.626497016384281"><ele>394.0</ele><time>2026-05-01T08:48:53Z</time></trkpt><trkpt lat="42.719020921308086" lon="12.626762259002218"><ele>393.0</ele><time>2026-05-01T08:48:54Z</time></trkpt><trkpt lat="42.719025136306065" lon="12.627042937498759"><ele>392.0</ele><time>2026-05-01T08:48:55Z</time></trkpt><trkpt lat="42.719078499302036" lon="12.627323482813432"><ele>391.0</ele><time>2026-05-01T08:48:56Z</time></trkpt><trkpt lat="42.71918700012265" lon="12.627573008206024"><ele>391.0</ele><time>2026-05-01T08:48:57Z</time></trkpt><trkpt lat="42.7193885079852" lon="12.627767139347933"><ele>391.0</ele><time>2026-05-01T08:48:58Z</time></trkpt><trkpt lat="42.7196293744884" lon="12.627941345808484"><ele>389.33333333333337</ele><time>2026-05-01T08:48:59Z</time></trkpt><trkpt lat="42.71982762708828" lon="12.628105855658974"><ele>387.66666666666663</ele><time>2026-05-01T08:49:00Z</time></trkpt><trkpt lat="42.7199660015379" lon="12.628310315363743"><ele>386.0</ele><time>2026-05-01T08:49:01Z</time></trkpt><trkpt lat="42.72007775294805" lon="12.628583507346038"><ele>386.5</ele><time>2026-05-01T08:49:02Z</time></trkpt><trkpt lat="42.72013358653282" lon="12.628905544753545"><ele>387.0</ele><time>2026-05-01T08:49:03Z</time></trkpt><trkpt lat="42.72017356987169" lon="12.62931378624131"><ele>385.5</ele><time>2026-05-01T08:49:04Z</time></trkpt><trkpt lat="42.7201956520884" lon="12.629724609171909"><ele>384.0</ele><time>2026-05-01T08:49:05Z</time></trkpt><trkpt lat="42.72022041099131" lon="12.630084629523468"><ele>378.0</ele><time>2026-05-01T08:49:06Z</time></trkpt><trkpt lat="42.72023778094259" lon="12.630395280696872"><ele>372.0</ele><time>2026-05-01T08:49:07Z</time></trkpt><trkpt lat="42.72026131692562" lon="12.630700871345379"><ele>372.0</ele><time>2026-05-01T08:49:08Z</time></trkpt><trkpt lat="42.72028525561082" lon="12.630993184676711"><ele>372.0</ele><time>2026-05-01T08:49:09Z</time></trkpt><trkpt lat="42.72029842668266" lon="12.631284432528568"><ele>372.0</ele><time>2026-05-01T08:49:10Z</time></trkpt><trkpt lat="42.720312132720856" lon="12.631571281830185"><ele>371.3333333333333</ele><time>2026-05-01T08:49:11Z</time></trkpt><trkpt lat="42.720327974955595" lon="12.631845982326544"><ele>370.66666666666663</ele><time>2026-05-01T08:49:12Z</time></trkpt><trkpt lat="42.7203379518195" lon="12.632113780740058"><ele>370.0</ele><time>2026-05-01T08:49:13Z</time></trkpt><trkpt lat="42.720324119334215" lon="12.632381662433565"><ele>370.3333333333333</ele><time>2026-05-01T08:49:14Z</time></trkpt><trkpt lat="42.72028010892888" lon="12.632656757318856"><ele>370.6666666666667</ele><time>2026-05-01T08:49:15Z</time></trkpt><trkpt lat="42.720224053662065" lon="12.632918024607685"><ele>371.0</ele><time>2026-05-01T08:49:16Z</time></trkpt><trkpt lat="42.72019606055015" lon="12.633179806192626"><ele>371.0</ele><time>2026-05-01T08:49:17Z</time></trkpt><trkpt lat="42.720209667988776" lon="12.633419637296988"><ele>371.0</ele><time>2026-05-01T08:49:18Z</time></trkpt><trkpt lat="42.720252636282126" lon="12.633637526438092"><ele>371.0</ele><time>2026-05-01T08:49:19Z</time></trkpt><trkpt lat="42.720310655266644" lon="12.633856753524737"><ele>368.33333333333337</ele><time>2026-05-01T08:49:20Z</time></trkpt><trkpt lat="42.720370385455446" lon="12.634074754502562"><ele>365.6666666666667</ele><time>2026-05-01T08:49:21Z</time></trkpt><trkpt lat="42.720424690138955" lon="12.63427869410785"><ele>363.0</ele><time>2026-05-01T08:49:22Z</time></trkpt><trkpt lat="42.72047593039338" lon="12.63447926355576"><ele>362.3333333333333</ele><time>2026-05-01T08:49:23Z</time></trkpt><trkpt lat="42.720524022641264" lon="12.634665327190737"><ele>361.66666666666663</ele><time>2026-05-01T08:49:24Z</time></trkpt><trkpt lat="42.72057170938266" lon="12.63487026831788"><ele>361.0</ele><time>2026-05-01T08:49:25Z</time></trkpt><trkpt lat="42.72062614936113" lon="12.635108955229597"><ele>360.66666666666663</ele><time>2026-05-01T08:49:26Z</time></trkpt><trkpt lat="42.720678125730316" lon="12.635339713918002"><ele>360.3333333333333</ele><time>2026-05-01T08:49:27Z</time></trkpt><trkpt lat="42.720734721919854" lon="12.635555504336041"><ele>360.0</ele><time>2026-05-01T08:49:28Z</time></trkpt><trkpt lat="42.72080016039731" lon="12.635757631139459"><ele>360.0</ele><time>2026-05-01T08:49:29Z</time></trkpt><trkpt lat="42.720877178463866" lon="12.635939516352652"><ele>360.0</ele><time>2026-05-01T08:49:30Z</time></trkpt><trkpt lat="42.72096146718444" lon="12.636091657111542"><ele>360.0</ele><time>2026-05-01T08:49:31Z</time></trkpt><trkpt lat="42.72105893258985" lon="12.636257176217988"><ele>358.6666666666667</ele><time>2026-05-01T08:49:32Z</time></trkpt><trkpt lat="42.72117032059361" lon="12.636473527261893"><ele>357.33333333333337</ele><time>2026-05-01T08:49:33Z</time></trkpt><trkpt lat="42.721304546588264" lon="12.636745732557488"><ele>356.0</ele><time>2026-05-01T08:49:34Z</time></trkpt><trkpt lat="42.7214172756455" lon="12.636957459277463"><ele>355.33333333333337</ele><time>2026-05-01T08:49:35Z</time></trkpt><trkpt lat="42.72150130156484" lon="12.6371561757838"><ele>354.6666666666667</ele><time>2026-05-01T08:49:36Z</time></trkpt><trkpt lat="42.72156598050413" lon="12.63734757713237"><ele>354.0</ele><time>2026-05-01T08:49:37Z</time></trkpt><trkpt lat="42.721615679509135" lon="12.63753505377477"><ele>354.0</ele><time>2026-05-01T08:49:38Z</time></trkpt><trkpt lat="42.721664466140275" lon="12.637722384555005"><ele>354.0</ele><time>2026-05-01T08:49:39Z</time></trkpt><trkpt lat="42.721714781865046" lon="12.637903718649172"><ele>354.0</ele><time>2026-05-01T08:49:40Z</time></trkpt><trkpt lat="42.721774387374026" lon="12.638100659010808"><ele>354.0</ele><time>2026-05-01T08:49:41Z</time></trkpt><trkpt lat="42.72184589941989" lon="12.638354250262186"><ele>352.6666666666667</ele><time>2026-05-01T08:49:42Z</time></trkpt><trkpt lat="42.72192563820186" lon="12.638650590674285"><ele>351.33333333333337</ele><time>2026-05-01T08:49:43Z</time></trkpt><trkpt lat="42.72199782124356" lon="12.638918401299575"><ele>350.0</ele><time>2026-05-01T08:49:44Z</time></trkpt><trkpt lat="42.722056942663514" lon="12.639134762754393"><ele>350.0</ele><time>2026-05-01T08:49:45Z</time></trkpt><trkpt lat="42.72211025774295" lon="12.639332319626538"><ele>350.0</ele><time>2026-05-01T08:49:46Z</time></trkpt><trkpt lat="42.72215012818841" lon="12.639521029907122"><ele>350.0</ele><time>2026-05-01T08:49:47Z</time></trkpt><trkpt lat="42.72217222076041" lon="12.639727527211106"><ele>349.5</ele><time>2026-05-01T08:49:48Z</time></trkpt><trkpt lat="42.72217361083522" lon="12.63993847840628"><ele>349.0</ele><time>2026-05-01T08:49:49Z</time></trkpt><trkpt lat="42.72217985638717" lon="12.640135984696117"><ele>348.5</ele><time>2026-05-01T08:49:50Z</time></trkpt><trkpt lat="42.72220564863875" lon="12.640328638982304"><ele>348.0</ele><time>2026-05-01T08:49:51Z</time></trkpt><trkpt lat="42.722247221086604" lon="12.640515137284575"><ele>347.3333333333333</ele><time>2026-05-01T08:49:52Z</time></trkpt><trkpt lat="42.722305802101964" lon="12.640703534617998"><ele>346.66666666666663</ele><time>2026-05-01T08:49:53Z</time></trkpt><trkpt lat="42.72236807346656" lon="12.640888285134455"><ele>346.0</ele><time>2026-05-01T08:49:54Z</time></trkpt><trkpt lat="42.72242614572729" lon="12.641088031628216"><ele>345.3333333333333</ele><time>2026-05-01T08:49:55Z</time></trkpt><trkpt lat="42.722464138074955" lon="12.641321306493612"><ele>344.6666666666667</ele><time>2026-05-01T08:49:56Z</time></trkpt><trkpt lat="42.72246992108102" lon="12.641601380622244"><ele>344.0</ele><time>2026-05-01T08:49:57Z</time></trkpt><trkpt lat="42.72244223010318" lon="12.64192362453736"><ele>343.0</ele><time>2026-05-01T08:49:58Z</time></trkpt><trkpt lat="42.72241227963809" lon="12.642238050014646"><ele>342.0</ele><time>2026-05-01T08:49:59Z</time></trkpt><trkpt lat="42.72237014800248" lon="12.642527586826674"><ele>341.0</ele><time>2026-05-01T08:50:00Z</time></trkpt><trkpt lat="42.72229151267932" lon="12.642812281175699"><ele>340.0</ele><time>2026-05-01T08:50:01Z</time></trkpt><trkpt lat="42.722189683072685" lon="12.643088695813814"><ele>340.0</ele><time>2026-05-01T08:50:02Z</time></trkpt><trkpt lat="42.72206100984387" lon="12.643342981051234"><ele>340.0</ele><time>2026-05-01T08:50:03Z</time></trkpt><trkpt lat="42.7218736413038" lon="12.643597304499849"><ele>339.0</ele><time>2026-05-01T08:50:04Z</time></trkpt><trkpt lat="42.72165445943405" lon="12.643836677070297"><ele>338.0</ele><time>2026-05-01T08:50:05Z</time></trkpt><trkpt lat="42.7214630042993" lon="12.644056586225645"><ele>338.0</ele><time>2026-05-01T08:50:06Z</time></trkpt><trkpt lat="42.72128683613622" lon="12.64425680251767"><ele>338.0</ele><time>2026-05-01T08:50:07Z</time></trkpt><trkpt lat="42.72113130298389" lon="12.6444393567715"><ele>338.0</ele><time>2026-05-01T08:50:08Z</time></trkpt><trkpt lat="42.720992224599705" lon="12.644611468911187"><ele>336.6666666666667</ele><time>2026-05-01T08:50:09Z</time></trkpt><trkpt lat="42.720863189921005" lon="12.644778007715137"><ele>335.3333333333333</ele><time>2026-05-01T08:50:10Z</time></trkpt><trkpt lat="42.720747158553486" lon="12.644940987708807"><ele>334.0</ele><time>2026-05-01T08:50:11Z</time></trkpt><trkpt lat="42.72064387382127" lon="12.645144898917126"><ele>334.3333333333333</ele><time>2026-05-01T08:50:12Z</time></trkpt><trkpt lat="42.720586696232715" lon="12.64536636209475"><ele>334.6666666666667</ele><time>2026-05-01T08:50:13Z</time></trkpt><trkpt lat="42.72057565286554" lon="12.645581194359238"><ele>335.0</ele><time>2026-05-01T08:50:14Z</time></trkpt><trkpt lat="42.72060345717658" lon="12.645757298299912"><ele>335.0</ele><time>2026-05-01T08:50:15Z</time></trkpt><trkpt lat="42.72059299873495" lon="12.645958763431146"><ele>335.0</ele><time>2026-05-01T08:50:16Z</time></trkpt><trkpt lat="42.7205735601867" lon="12.646143002336638"><ele>335.0</ele><time>2026-05-01T08:50:17Z</time></trkpt><trkpt lat="42.72055734808683" lon="12.64634131456543"><ele>335.0</ele><time>2026-05-01T08:50:18Z</time></trkpt><trkpt lat="42.720558792830786" lon="12.646547179846909"><ele>335.0</ele><time>2026-05-01T08:50:19Z</time></trkpt><trkpt lat="42.720558183878516" lon="12.646754888219489"><ele>335.0</ele><time>2026-05-01T08:50:20Z</time></trkpt><trkpt lat="42.72055000006842" lon="12.646989415582953"><ele>335.0</ele><time>2026-05-01T08:50:21Z</time></trkpt><trkpt lat="42.7205439828666" lon="12.647218096300765"><ele>335.0</ele><time>2026-05-01T08:50:22Z</time></trkpt><trkpt lat="42.720541423339014" lon="12.64745747828102"><ele>335.0</ele><time>2026-05-01T08:50:23Z</time></trkpt><trkpt lat="42.72054966224537" lon="12.647702873748434"><ele>335.0</ele><time>2026-05-01T08:50:24Z</time></trkpt><trkpt lat="42.720582599021554" lon="12.64793728865336"><ele>334.6666666666667</ele><time>2026-05-01T08:50:25Z</time></trkpt><trkpt lat="42.720656053070854" lon="12.648171892873014"><ele>334.3333333333333</ele><time>2026-05-01T08:50:26Z</time></trkpt><trkpt lat="42.72075603026951" lon="12.6484038914173"><ele>334.0</ele><time>2026-05-01T08:50:27Z</time></trkpt><trkpt lat="42.72085869806887" lon="12.648619776414234"><ele>334.3333333333333</ele><time>2026-05-01T08:50:28Z</time></trkpt><trkpt lat="42.720951592241704" lon="12.64885093449728"><ele>334.6666666666667</ele><time>2026-05-01T08:50:29Z</time></trkpt><trkpt lat="42.721029915613485" lon="12.649084667000437"><ele>335.0</ele><time>2026-05-01T08:50:30Z</time></trkpt><trkpt lat="42.7211032169184" lon="12.649317768409697"><ele>334.0</ele><time>2026-05-01T08:50:31Z</time></trkpt><trkpt lat="42.721181019264655" lon="12.64955113893408"><ele>333.0</ele><time>2026-05-01T08:50:32Z</time></trkpt><trkpt lat="42.72125869063782" lon="12.64978341857463"><ele>332.0</ele><time>2026-05-01T08:50:33Z</time></trkpt><trkpt lat="42.721332245596656" lon="12.650014605727364"><ele>332.0</ele><time>2026-05-01T08:50:34Z</time></trkpt><trkpt lat="42.721401580751646" lon="12.650248164272416"><ele>332.0</ele><time>2026-05-01T08:50:35Z</time></trkpt><trkpt lat="42.721461415389946" lon="12.650483744834238"><ele>332.0</ele><time>2026-05-01T08:50:36Z</time></trkpt><trkpt lat="42.72151984317917" lon="12.65072191515464"><ele>332.6666666666667</ele><time>2026-05-01T08:50:37Z</time></trkpt><trkpt lat="42.72158004326501" lon="12.650955719773325"><ele>333.3333333333333</ele><time>2026-05-01T08:50:38Z</time></trkpt><trkpt lat="42.721641905648475" lon="12.651186396659918"><ele>334.0</ele><time>2026-05-01T08:50:39Z</time></trkpt><trkpt lat="42.721705738669996" lon="12.651420947961535"><ele>333.0</ele><time>2026-05-01T08:50:40Z</time></trkpt><trkpt lat="42.721774377637104" lon="12.651650921057964"><ele>332.0</ele><time>2026-05-01T08:50:41Z</time></trkpt><trkpt lat="42.72185443924205" lon="12.651879688041086"><ele>331.0</ele><time>2026-05-01T08:50:42Z</time></trkpt><trkpt lat="42.72194075779712" lon="12.652106981756223"><ele>331.0</ele><time>2026-05-01T08:50:43Z</time></trkpt><trkpt lat="42.72202787816148" lon="12.652337905754962"><ele>331.0</ele><time>2026-05-01T08:50:44Z</time></trkpt><trkpt lat="42.72212010763547" lon="12.652571383220554"><ele>331.0</ele><time>2026-05-01T08:50:45Z</time></trkpt><trkpt lat="42.7221961080185" lon="12.652810725407218"><ele>331.0</ele><time>2026-05-01T08:50:46Z</time></trkpt><trkpt lat="42.7222745927891" lon="12.653050566577724"><ele>331.0</ele><time>2026-05-01T08:50:47Z</time></trkpt><trkpt lat="42.7223510229741" lon="12.65329493635424"><ele>331.0</ele><time>2026-05-01T08:50:48Z</time></trkpt><trkpt lat="42.72241774161342" lon="12.653545625228698"><ele>331.3333333333333</ele><time>2026-05-01T08:50:49Z</time></trkpt><trkpt lat="42.72248111579822" lon="12.653800217712494"><ele>331.6666666666667</ele><time>2026-05-01T08:50:50Z</time></trkpt><trkpt lat="42.722539399869916" lon="12.654061274593625"><ele>332.0</ele><time>2026-05-01T08:50:51Z</time></trkpt><trkpt lat="42.72259063986404" lon="12.654317605614166"><ele>332.6666666666667</ele><time>2026-05-01T08:50:52Z</time></trkpt><trkpt lat="42.7226523507623" lon="12.654577243925138"><ele>333.3333333333333</ele><time>2026-05-01T08:50:53Z</time></trkpt><trkpt lat="42.722724666728254" lon="12.654834091759945"><ele>334.0</ele><time>2026-05-01T08:50:54Z</time></trkpt><trkpt lat="42.72280125918007" lon="12.655080498682105"><ele>332.3333333333333</ele><time>2026-05-01T08:50:55Z</time></trkpt><trkpt lat="42.72288688700533" lon="12.65532271339621"><ele>330.6666666666667</ele><time>2026-05-01T08:50:56Z</time></trkpt><trkpt lat="42.72296717606074" lon="12.655562643043824"><ele>329.0</ele><time>2026-05-01T08:50:57Z</time></trkpt><trkpt lat="42.72305044834728" lon="12.655809818551614"><ele>329.0</ele><time>2026-05-01T08:50:58Z</time></trkpt><trkpt lat="42.72312542546891" lon="12.656051945566722"><ele>329.0</ele><time>2026-05-01T08:50:59Z</time></trkpt><trkpt lat="42.72319752963106" lon="12.656293755073452"><ele>329.0</ele><time>2026-05-01T08:51:00Z</time></trkpt><trkpt lat="42.72327522141107" lon="12.656533366445228"><ele>329.0</ele><time>2026-05-01T08:51:01Z</time></trkpt><trkpt lat="42.72335368445349" lon="12.656773136878057"><ele>329.0</ele><time>2026-05-01T08:51:02Z</time></trkpt><trkpt lat="42.72343140593899" lon="12.657015247636815"><ele>329.0</ele><time>2026-05-01T08:51:03Z</time></trkpt><trkpt lat="42.723509962552185" lon="12.657253940944022"><ele>328.33333333333337</ele><time>2026-05-01T08:51:04Z</time></trkpt><trkpt lat="42.72358699596225" lon="12.657494698746333"><ele>327.6666666666667</ele><time>2026-05-01T08:51:05Z</time></trkpt><trkpt lat="42.7236626673824" lon="12.657729800176599"><ele>327.0</ele><time>2026-05-01T08:51:06Z</time></trkpt><trkpt lat="42.723742457766676" lon="12.657965623692691"><ele>327.0</ele><time>2026-05-01T08:51:07Z</time></trkpt><trkpt lat="42.72382657914997" lon="12.658200363091813"><ele>327.0</ele><time>2026-05-01T08:51:08Z</time></trkpt><trkpt lat="42.72390742560588" lon="12.6584359154225"><ele>327.0</ele><time>2026-05-01T08:51:09Z</time></trkpt><trkpt lat="42.72398115393852" lon="12.65867417710831"><ele>327.0</ele><time>2026-05-01T08:51:10Z</time></trkpt><trkpt lat="42.724051633652124" lon="12.658912348806904"><ele>327.0</ele><time>2026-05-01T08:51:11Z</time></trkpt><trkpt lat="42.7241273744429" lon="12.65914800513499"><ele>327.0</ele><time>2026-05-01T08:51:12Z</time></trkpt><trkpt lat="42.72420908108665" lon="12.659381222836647"><ele>327.0</ele><time>2026-05-01T08:51:13Z</time></trkpt><trkpt lat="42.72429536479908" lon="12.659611598873076"><ele>327.0</ele><time>2026-05-01T08:51:14Z</time></trkpt><trkpt lat="42.7243837273312" lon="12.659839703952601"><ele>327.0</ele><time>2026-05-01T08:51:15Z</time></trkpt><trkpt lat="42.72447745698645" lon="12.66006408185151"><ele>326.6666666666667</ele><time>2026-05-01T08:51:16Z</time></trkpt><trkpt lat="42.72457514522338" lon="12.66028468934475"><ele>326.33333333333337</ele><time>2026-05-01T08:51:17Z</time></trkpt><trkpt lat="42.72467456517885" lon="12.660511431752658"><ele>326.0</ele><time>2026-05-01T08:51:18Z</time></trkpt><trkpt lat="42.724770461648696" lon="12.66073768750312"><ele>326.0</ele><time>2026-05-01T08:51:19Z</time></trkpt><trkpt lat="42.72486166637183" lon="12.66097102245059"><ele>326.0</ele><time>2026-05-01T08:51:20Z</time></trkpt><trkpt lat="42.72495720000522" lon="12.661199276566586"><ele>326.0</ele><time>2026-05-01T08:51:21Z</time></trkpt><trkpt lat="42.725055555281706" lon="12.661417837479641"><ele>326.0</ele><time>2026-05-01T08:51:22Z</time></trkpt><trkpt lat="42.725152667479705" lon="12.661637429650586"><ele>326.0</ele><time>2026-05-01T08:51:23Z</time></trkpt><trkpt lat="42.725247193547595" lon="12.661856195494595"><ele>326.0</ele><time>2026-05-01T08:51:24Z</time></trkpt><trkpt lat="42.7253490351889" lon="12.662073821803993"><ele>325.6666666666667</ele><time>2026-05-01T08:51:25Z</time></trkpt><trkpt lat="42.7254624623209" lon="12.66228314429352"><ele>325.3333333333333</ele><time>2026-05-01T08:51:26Z</time></trkpt><trkpt lat="42.725586688630635" lon="12.662485371458796"><ele>325.0</ele><time>2026-05-01T08:51:27Z</time></trkpt><trkpt lat="42.725716377315585" lon="12.66267043405242"><ele>325.3333333333333</ele><time>2026-05-01T08:51:28Z</time></trkpt><trkpt lat="42.72585566904773" lon="12.662838613155726"><ele>325.6666666666667</ele><time>2026-05-01T08:51:29Z</time></trkpt><trkpt lat="42.72599821432833" lon="12.662996904218375"><ele>326.0</ele><time>2026-05-01T08:51:30Z</time></trkpt><trkpt lat="42.72614687395973" lon="12.663145638947064"><ele>325.33333333333337</ele><time>2026-05-01T08:51:31Z</time></trkpt><trkpt lat="42.72630222196631" lon="12.663288852328499"><ele>324.6666666666667</ele><time>2026-05-01T08:51:32Z</time></trkpt><trkpt lat="42.72646494052213" lon="12.663422437307828"><ele>324.0</ele><time>2026-05-01T08:51:33Z</time></trkpt><trkpt lat="42.726633915187776" lon="12.663544928024358"><ele>323.6666666666667</ele><time>2026-05-01T08:51:34Z</time></trkpt><trkpt lat="42.7267993493737" lon="12.663659183248955"><ele>323.33333333333337</ele><time>2026-05-01T08:51:35Z</time></trkpt><trkpt lat="42.726965950443294" lon="12.663771931409551"><ele>323.0</ele><time>2026-05-01T08:51:36Z</time></trkpt><trkpt lat="42.727126938620934" lon="12.663892848707372"><ele>323.0</ele><time>2026-05-01T08:51:37Z</time></trkpt><trkpt lat="42.72728348951858" lon="12.66401998595366"><ele>323.0</ele><time>2026-05-01T08:51:38Z</time></trkpt><trkpt lat="42.72744354787888" lon="12.664150922146943"><ele>323.0</ele><time>2026-05-01T08:51:39Z</time></trkpt><trkpt lat="42.72760713411465" lon="12.664274478097923"><ele>322.6666666666667</ele><time>2026-05-01T08:51:40Z</time></trkpt><trkpt lat="42.727772250313414" lon="12.664400577220087"><ele>322.3333333333333</ele><time>2026-05-01T08:51:41Z</time></trkpt><trkpt lat="42.72793070886529" lon="12.664519581294858"><ele>322.0</ele><time>2026-05-01T08:51:42Z</time></trkpt><trkpt lat="42.72809099616281" lon="12.664653678793128"><ele>322.66666666666663</ele><time>2026-05-01T08:51:43Z</time></trkpt><trkpt lat="42.728244086015664" lon="12.66480011319284"><ele>323.3333333333333</ele><time>2026-05-01T08:51:44Z</time></trkpt><trkpt lat="42.72839601591496" lon="12.66495804757559"><ele>324.0</ele><time>2026-05-01T08:51:45Z</time></trkpt><trkpt lat="42.72853790962564" lon="12.665130702926946"><ele>323.6666666666667</ele><time>2026-05-01T08:51:46Z</time></trkpt><trkpt lat="42.7286709120064" lon="12.665314563291066"><ele>323.33333333333337</ele><time>2026-05-01T08:51:47Z</time></trkpt><trkpt lat="42.728805591772776" lon="12.665496936633858"><ele>323.0</ele><time>2026-05-01T08:51:48Z</time></trkpt><trkpt lat="42.72893846373426" lon="12.66567772170194"><ele>323.0</ele><time>2026-05-01T08:51:49Z</time></trkpt><trkpt lat="42.729063306991065" lon="12.665865423282867"><ele>323.0</ele><time>2026-05-01T08:51:50Z</time></trkpt><trkpt lat="42.72918235245973" lon="12.66606485353698"><ele>323.0</ele><time>2026-05-01T08:51:51Z</time></trkpt><trkpt lat="42.72929038102815" lon="12.666273433258247"><ele>322.33333333333337</ele><time>2026-05-01T08:51:52Z</time></trkpt><trkpt lat="42.72939506589383" lon="12.666487012986268"><ele>321.6666666666667</ele><time>2026-05-01T08:51:53Z</time></trkpt><trkpt lat="42.72949420024003" lon="12.66670860153637"><ele>321.0</ele><time>2026-05-01T08:51:54Z</time></trkpt><trkpt lat="42.72958657508159" lon="12.666938641422785"><ele>320.6666666666667</ele><time>2026-05-01T08:51:55Z</time></trkpt><trkpt lat="42.729678361441856" lon="12.667167680732712"><ele>320.33333333333337</ele><time>2026-05-01T08:51:56Z</time></trkpt><trkpt lat="42.72976468280986" lon="12.667396471802961"><ele>320.0</ele><time>2026-05-01T08:51:57Z</time></trkpt><trkpt lat="42.729845522087345" lon="12.667634354011314"><ele>319.6666666666667</ele><time>2026-05-01T08:51:58Z</time></trkpt><trkpt lat="42.72992099315603" lon="12.66787534350847"><ele>319.3333333333333</ele><time>2026-05-01T08:51:59Z</time></trkpt><trkpt lat="42.729989575262934" lon="12.66812391054718"><ele>319.0</ele><time>2026-05-01T08:52:00Z</time></trkpt><trkpt lat="42.73004851561627" lon="12.66838534003018"><ele>319.3333333333333</ele><time>2026-05-01T08:52:01Z</time></trkpt><trkpt lat="42.730101803501974" lon="12.668657646078376"><ele>319.6666666666667</ele><time>2026-05-01T08:52:02Z</time></trkpt><trkpt lat="42.73014530132462" lon="12.668934282144939"><ele>320.0</ele><time>2026-05-01T08:52:03Z</time></trkpt><trkpt lat="42.73018062767248" lon="12.669188044230305"><ele>320.0</ele><time>2026-05-01T08:52:04Z</time></trkpt><trkpt lat="42.73020460443639" lon="12.669429781643013"><ele>320.0</ele><time>2026-05-01T08:52:05Z</time></trkpt><trkpt lat="42.73022306705809" lon="12.669683638307662"><ele>320.0</ele><time>2026-05-01T08:52:06Z</time></trkpt><trkpt lat="42.730234940258114" lon="12.669933369070483"><ele>319.0</ele><time>2026-05-01T08:52:07Z</time></trkpt><trkpt lat="42.73024401235809" lon="12.67018705114594"><ele>318.0</ele><time>2026-05-01T08:52:08Z</time></trkpt><trkpt lat="42.730244029859826" lon="12.670436191724132"><ele>317.0</ele><time>2026-05-01T08:52:09Z</time></trkpt><trkpt lat="42.73023875222996" lon="12.670692866478705"><ele>317.6666666666667</ele><time>2026-05-01T08:52:10Z</time></trkpt><trkpt lat="42.73022271260078" lon="12.67095369679695"><ele>318.3333333333333</ele><time>2026-05-01T08:52:11Z</time></trkpt><trkpt lat="42.73020414694556" lon="12.671215998372809"><ele>319.0</ele><time>2026-05-01T08:52:12Z</time></trkpt><trkpt lat="42.73018617699431" lon="12.671473671697356"><ele>319.0</ele><time>2026-05-01T08:52:13Z</time></trkpt><trkpt lat="42.730170956879185" lon="12.671724255676265"><ele>319.0</ele><time>2026-05-01T08:52:14Z</time></trkpt><trkpt lat="42.730151561456616" lon="12.671966270426308"><ele>319.0</ele><time>2026-05-01T08:52:15Z</time></trkpt><trkpt lat="42.73013312549719" lon="12.672204690110842"><ele>319.0</ele><time>2026-05-01T08:52:16Z</time></trkpt><trkpt lat="42.73011409825502" lon="12.672456476670245"><ele>319.0</ele><time>2026-05-01T08:52:17Z</time></trkpt><trkpt lat="42.730096863875545" lon="12.672700239876892"><ele>319.0</ele><time>2026-05-01T08:52:18Z</time></trkpt><trkpt lat="42.73007579333828" lon="12.672946789111545"><ele>318.66666666666663</ele><time>2026-05-01T08:52:19Z</time></trkpt><trkpt lat="42.73005861996105" lon="12.673193589616451"><ele>318.3333333333333</ele><time>2026-05-01T08:52:20Z</time></trkpt><trkpt lat="42.73004555330693" lon="12.673440992860883"><ele>318.0</ele><time>2026-05-01T08:52:21Z</time></trkpt><trkpt lat="42.73003098861458" lon="12.673691901227253"><ele>318.0</ele><time>2026-05-01T08:52:22Z</time></trkpt><trkpt lat="42.730014843096065" lon="12.673941129075386"><ele>318.0</ele><time>2026-05-01T08:52:23Z</time></trkpt><trkpt lat="42.729996574453" lon="12.674187899395324"><ele>318.0</ele><time>2026-05-01T08:52:24Z</time></trkpt><trkpt lat="42.729978354191005" lon="12.674441525972682"><ele>317.3333333333333</ele><time>2026-05-01T08:52:25Z</time></trkpt><trkpt lat="42.72995813990471" lon="12.674697230425389"><ele>316.66666666666663</ele><time>2026-05-01T08:52:26Z</time></trkpt><trkpt lat="42.72994076176194" lon="12.674957092654576"><ele>316.0</ele><time>2026-05-01T08:52:27Z</time></trkpt><trkpt lat="42.72992528902592" lon="12.675208244953037"><ele>315.3333333333333</ele><time>2026-05-01T08:52:28Z</time></trkpt><trkpt lat="42.72990673626653" lon="12.675458580270423"><ele>314.6666666666667</ele><time>2026-05-01T08:52:29Z</time></trkpt><trkpt lat="42.72988936691856" lon="12.6757115445266"><ele>314.0</ele><time>2026-05-01T08:52:30Z</time></trkpt><trkpt lat="42.72987055487623" lon="12.675965881690873"><ele>313.33333333333337</ele><time>2026-05-01T08:52:31Z</time></trkpt><trkpt lat="42.72984693154107" lon="12.676221800484955"><ele>312.6666666666667</ele><time>2026-05-01T08:52:32Z</time></trkpt><trkpt lat="42.729827982327144" lon="12.67648282756036"><ele>312.0</ele><time>2026-05-01T08:52:33Z</time></trkpt><trkpt lat="42.729811309167765" lon="12.676745676210881"><ele>311.3333333333333</ele><time>2026-05-01T08:52:34Z</time></trkpt><trkpt lat="42.729795440402405" lon="12.677009231046537"><ele>310.66666666666663</ele><time>2026-05-01T08:52:35Z</time></trkpt><trkpt lat="42.729784271817664" lon="12.677264823480584"><ele>310.0</ele><time>2026-05-01T08:52:36Z</time></trkpt><trkpt lat="42.72977897752402" lon="12.67752213416969"><ele>310.0</ele><time>2026-05-01T08:52:37Z</time></trkpt><trkpt lat="42.72979135469944" lon="12.67777147319089"><ele>310.0</ele><time>2026-05-01T08:52:38Z</time></trkpt><trkpt lat="42.72982226895741" lon="12.677998126492033"><ele>310.0</ele><time>2026-05-01T08:52:39Z</time></trkpt><trkpt lat="42.72984185872115" lon="12.678209758531592"><ele>310.0</ele><time>2026-05-01T08:52:40Z</time></trkpt><trkpt lat="42.72987351305866" lon="12.67840231699022"><ele>310.0</ele><time>2026-05-01T08:52:41Z</time></trkpt><trkpt lat="42.72990958396549" lon="12.678580960128507"><ele>310.0</ele><time>2026-05-01T08:52:42Z</time></trkpt><trkpt lat="42.72994806628423" lon="12.678751407602231"><ele>310.0</ele><time>2026-05-01T08:52:43Z</time></trkpt><trkpt lat="42.72998483831956" lon="12.678910708318874"><ele>310.16666666666663</ele><time>2026-05-01T08:52:44Z</time></trkpt><trkpt lat="42.73001724743618" lon="12.679051108167766"><ele>310.3333333333333</ele><time>2026-05-01T08:52:45Z</time></trkpt><trkpt lat="42.73004667844323" lon="12.67917861014484"><ele>310.5</ele><time>2026-05-01T08:52:46Z</time></trkpt><trkpt lat="42.73007250184668" lon="12.679293609462734"><ele>310.6666666666667</ele><time>2026-05-01T08:52:47Z</time></trkpt><trkpt lat="42.73009561802429" lon="12.679395666748349"><ele>310.83333333333337</ele><time>2026-05-01T08:52:48Z</time></trkpt><trkpt lat="42.73011701720492" lon="12.679486743487889"><ele>311.0</ele><time>2026-05-01T08:52:49Z</time></trkpt><trkpt lat="42.73013845667608" lon="12.679577394376265"><ele>311.0</ele><time>2026-05-01T08:52:50Z</time></trkpt><trkpt lat="42.730164895461925" lon="12.679680748770624"><ele>311.0</ele><time>2026-05-01T08:52:51Z</time></trkpt><trkpt lat="42.73018866811974" lon="12.679769974729421"><ele>311.0</ele><time>2026-05-01T08:52:52Z</time></trkpt><trkpt lat="42.73022485551683" lon="12.679895320740028"><ele>311.0</ele><time>2026-05-01T08:52:53Z</time></trkpt><trkpt lat="42.730275534194305" lon="12.680058311910296"><ele>311.0</ele><time>2026-05-01T08:52:54Z</time></trkpt><trkpt lat="42.7303307575945" lon="12.68022790954512"><ele>310.25</ele><time>2026-05-01T08:52:55Z</time></trkpt><trkpt lat="42.730398012335485" lon="12.680380546071364"><ele>309.5</ele><time>2026-05-01T08:52:56Z</time></trkpt><trkpt lat="42.73044763390857" lon="12.680540618572156"><ele>308.75</ele><time>2026-05-01T08:52:57Z</time></trkpt><trkpt lat="42.73049566067785" lon="12.680691737040243"><ele>308.0</ele><time>2026-05-01T08:52:58Z</time></trkpt><trkpt lat="42.73054564192281" lon="12.68084208094406"><ele>308.0</ele><time>2026-05-01T08:52:59Z</time></trkpt><trkpt lat="42.7305776616036" lon="12.680991820550625"><ele>308.0</ele><time>2026-05-01T08:53:00Z</time></trkpt><trkpt lat="42.73062301758093" lon="12.681140764930358"><ele>308.0</ele><time>2026-05-01T08:53:01Z</time></trkpt><trkpt lat="42.73067778204984" lon="12.681278491714126"><ele>308.0</ele><time>2026-05-01T08:53:02Z</time></trkpt><trkpt lat="42.73072099140917" lon="12.681427730976651"><ele>308.8</ele><time>2026-05-01T08:53:03Z</time></trkpt><trkpt lat="42.73076368136892" lon="12.681573063938313"><ele>309.6</ele><time>2026-05-01T08:53:04Z</time></trkpt><trkpt lat="42.73080182396343" lon="12.68171649324521"><ele>310.4</ele><time>2026-05-01T08:53:05Z</time></trkpt><trkpt lat="42.730838603596176" lon="12.681848842347927"><ele>311.2</ele><time>2026-05-01T08:53:06Z</time></trkpt><trkpt lat="42.730871576067855" lon="12.681973816142769"><ele>312.0</ele><time>2026-05-01T08:53:07Z</time></trkpt><trkpt lat="42.73091548077342" lon="12.682116025884195"><ele>312.0</ele><time>2026-05-01T08:53:08Z</time></trkpt><trkpt lat="42.73096588375346" lon="12.682252707251342"><ele>312.0</ele><time>2026-05-01T08:53:09Z</time></trkpt><trkpt lat="42.73101366386532" lon="12.682383330772945"><ele>312.0</ele><time>2026-05-01T08:53:10Z</time></trkpt><trkpt lat="42.73106622055815" lon="12.682518242665074"><ele>312.0</ele><time>2026-05-01T08:53:11Z</time></trkpt><trkpt lat="42.731113296837066" lon="12.682658331041079"><ele>312.0</ele><time>2026-05-01T08:53:12Z</time></trkpt><trkpt lat="42.73116467300998" lon="12.682792467946129"><ele>312.0</ele><time>2026-05-01T08:53:13Z</time></trkpt><trkpt lat="42.73121523676054" lon="12.682921168429381"><ele>312.0</ele><time>2026-05-01T08:53:14Z</time></trkpt><trkpt lat="42.7312657277002" lon="12.6830506028369"><ele>312.0</ele><time>2026-05-01T08:53:15Z</time></trkpt><trkpt lat="42.73131334972191" lon="12.68319750285787"><ele>312.0</ele><time>2026-05-01T08:53:16Z</time></trkpt><trkpt lat="42.73135629723418" lon="12.683352409791153"><ele>312.0</ele><time>2026-05-01T08:53:17Z</time></trkpt><trkpt lat="42.731397849127575" lon="12.683510612235024"><ele>312.0</ele><time>2026-05-01T08:53:18Z</time></trkpt><trkpt lat="42.73144164889835" lon="12.683683761620058"><ele>312.0</ele><time>2026-05-01T08:53:19Z</time></trkpt><trkpt lat="42.73148496784736" lon="12.683911994131138"><ele>312.0</ele><time>2026-05-01T08:53:20Z</time></trkpt><trkpt lat="42.73154716700354" lon="12.684171643112625"><ele>311.5</ele><time>2026-05-01T08:53:21Z</time></trkpt><trkpt lat="42.73163185429222" lon="12.684470334796984"><ele>311.0</ele><time>2026-05-01T08:53:22Z</time></trkpt><trkpt lat="42.73169990250553" lon="12.684756544931387"><ele>311.0</ele><time>2026-05-01T08:53:23Z</time></trkpt><trkpt lat="42.731768954980545" lon="12.685029363814735"><ele>311.0</ele><time>2026-05-01T08:53:24Z</time></trkpt><trkpt lat="42.73183371901406" lon="12.685280820173823"><ele>311.0</ele><time>2026-05-01T08:53:25Z</time></trkpt><trkpt lat="42.731898398444756" lon="12.685506474084264"><ele>309.6666666666667</ele><time>2026-05-01T08:53:26Z</time></trkpt><trkpt lat="42.73196221668468" lon="12.685742003899495"><ele>308.3333333333333</ele><time>2026-05-01T08:53:27Z</time></trkpt><trkpt lat="42.73202839813723" lon="12.685990634802511"><ele>307.0</ele><time>2026-05-01T08:53:28Z</time></trkpt><trkpt lat="42.732102745973194" lon="12.68624215844996"><ele>307.0</ele><time>2026-05-01T08:53:29Z</time></trkpt><trkpt lat="42.73218487388049" lon="12.686489396820916"><ele>307.0</ele><time>2026-05-01T08:53:30Z</time></trkpt><trkpt lat="42.732285211963564" lon="12.686729430473497"><ele>307.0</ele><time>2026-05-01T08:53:31Z</time></trkpt><trkpt lat="42.7324092325455" lon="12.68696485591782"><ele>306.0</ele><time>2026-05-01T08:53:32Z</time></trkpt><trkpt lat="42.73254669719654" lon="12.68718865160448"><ele>305.0</ele><time>2026-05-01T08:53:33Z</time></trkpt><trkpt lat="42.73268706573169" lon="12.687404840511514"><ele>304.0</ele><time>2026-05-01T08:53:34Z</time></trkpt><trkpt lat="42.7328199245913" lon="12.687619857514374"><ele>303.0</ele><time>2026-05-01T08:53:35Z</time></trkpt><trkpt lat="42.73295057581517" lon="12.687823150544444"><ele>302.0</ele><time>2026-05-01T08:53:36Z</time></trkpt><trkpt lat="42.733071172593455" lon="12.688011247887676"><ele>301.0</ele><time>2026-05-01T08:53:37Z</time></trkpt><trkpt lat="42.73319462378127" lon="12.688180401963178"><ele>301.0</ele><time>2026-05-01T08:53:38Z</time></trkpt><trkpt lat="42.73332177129348" lon="12.688321594915855"><ele>301.0</ele><time>2026-05-01T08:53:39Z</time></trkpt><trkpt lat="42.733445868067754" lon="12.68844235555371"><ele>301.0</ele><time>2026-05-01T08:53:40Z</time></trkpt><trkpt lat="42.73355895414273" lon="12.688592562979725"><ele>300.0</ele><time>2026-05-01T08:53:41Z</time></trkpt><trkpt lat="42.73367720182323" lon="12.688766229421983"><ele>299.0</ele><time>2026-05-01T08:53:42Z</time></trkpt><trkpt lat="42.73375515673845" lon="12.689011063689426"><ele>298.0</ele><time>2026-05-01T08:53:43Z</time></trkpt><trkpt lat="42.733857470430564" lon="12.689241817247323"><ele>299.0</ele><time>2026-05-01T08:53:44Z</time></trkpt><trkpt lat="42.73395575280582" lon="12.689472083851205"><ele>300.0</ele><time>2026-05-01T08:53:45Z</time></trkpt><trkpt lat="42.73404353039445" lon="12.689710876443986"><ele>301.0</ele><time>2026-05-01T08:53:46Z</time></trkpt><trkpt lat="42.73412347028445" lon="12.689954872693608"><ele>301.0</ele><time>2026-05-01T08:53:47Z</time></trkpt><trkpt lat="42.73420060956224" lon="12.690202009560068"><ele>301.0</ele><time>2026-05-01T08:53:48Z</time></trkpt><trkpt lat="42.734266999288906" lon="12.69045054416522"><ele>301.0</ele><time>2026-05-01T08:53:49Z</time></trkpt><trkpt lat="42.734326347227835" lon="12.69069261360994"><ele>300.0</ele><time>2026-05-01T08:53:50Z</time></trkpt><trkpt lat="42.73438974956324" lon="12.690940813877297"><ele>299.0</ele><time>2026-05-01T08:53:51Z</time></trkpt><trkpt lat="42.73445273124441" lon="12.691190752421623"><ele>298.0</ele><time>2026-05-01T08:53:52Z</time></trkpt><trkpt lat="42.73450499957937" lon="12.691443214360655"><ele>298.0</ele><time>2026-05-01T08:53:53Z</time></trkpt><trkpt lat="42.73454352231276" lon="12.691702481259643"><ele>298.0</ele><time>2026-05-01T08:53:54Z</time></trkpt><trkpt lat="42.7345671308216" lon="12.691964918018995"><ele>298.0</ele><time>2026-05-01T08:53:55Z</time></trkpt><trkpt lat="42.73458289285648" lon="12.692225647228563"><ele>297.66666666666663</ele><time>2026-05-01T08:53:56Z</time></trkpt><trkpt lat="42.734603979373674" lon="12.692485640332759"><ele>297.3333333333333</ele><time>2026-05-01T08:53:57Z</time></trkpt><trkpt lat="42.73462176447448" lon="12.692747847334257"><ele>297.0</ele><time>2026-05-01T08:53:58Z</time></trkpt><trkpt lat="42.73463913544145" lon="12.693013256995423"><ele>297.0</ele><time>2026-05-01T08:53:59Z</time></trkpt><trkpt lat="42.73465347953454" lon="12.69327519707541"><ele>297.0</ele><time>2026-05-01T08:54:00Z</time></trkpt><trkpt lat="42.73467527063066" lon="12.693540029229457"><ele>297.0</ele><time>2026-05-01T08:54:01Z</time></trkpt><trkpt lat="42.73469856270587" lon="12.693816681356772"><ele>296.6666666666667</ele><time>2026-05-01T08:54:02Z</time></trkpt><trkpt lat="42.73472499088318" lon="12.694097310154119"><ele>296.33333333333337</ele><time>2026-05-01T08:54:03Z</time></trkpt><trkpt lat="42.73475532641318" lon="12.694379870373224"><ele>296.0</ele><time>2026-05-01T08:54:04Z</time></trkpt><trkpt lat="42.734791874556265" lon="12.694665535110229"><ele>296.0</ele><time>2026-05-01T08:54:05Z</time></trkpt><trkpt lat="42.73482864497719" lon="12.694951161166221"><ele>296.0</ele><time>2026-05-01T08:54:06Z</time></trkpt><trkpt lat="42.73488669321842" lon="12.695240097724701"><ele>296.0</ele><time>2026-05-01T08:54:07Z</time></trkpt><trkpt lat="42.73496376406643" lon="12.695516484391378"><ele>295.33333333333337</ele><time>2026-05-01T08:54:08Z</time></trkpt><trkpt lat="42.73505642407725" lon="12.695788331909828"><ele>294.6666666666667</ele><time>2026-05-01T08:54:09Z</time></trkpt><trkpt lat="42.73514919150863" lon="12.696050336726264"><ele>294.0</ele><time>2026-05-01T08:54:10Z</time></trkpt><trkpt lat="42.73524929340376" lon="12.69631675639682"><ele>294.0</ele><time>2026-05-01T08:54:11Z</time></trkpt><trkpt lat="42.735347452920415" lon="12.696588658629512"><ele>294.0</ele><time>2026-05-01T08:54:12Z</time></trkpt><trkpt lat="42.73544692448166" lon="12.696858464138655"><ele>294.0</ele><time>2026-05-01T08:54:13Z</time></trkpt><trkpt lat="42.73554543474724" lon="12.697119757902215"><ele>294.3333333333333</ele><time>2026-05-01T08:54:14Z</time></trkpt><trkpt lat="42.73564790970078" lon="12.697387828095279"><ele>294.66666666666663</ele><time>2026-05-01T08:54:15Z</time></trkpt><trkpt lat="42.73574928913801" lon="12.69765120766904"><ele>295.0</ele><time>2026-05-01T08:54:16Z</time></trkpt><trkpt lat="42.73584593973901" lon="12.697916614811108"><ele>293.66666666666663</ele><time>2026-05-01T08:54:17Z</time></trkpt><trkpt lat="42.73593968143639" lon="12.698175775484865"><ele>292.3333333333333</ele><time>2026-05-01T08:54:18Z</time></trkpt><trkpt lat="42.73603685591375" lon="12.698435577745142"><ele>291.0</ele><time>2026-05-01T08:54:19Z</time></trkpt><trkpt lat="42.73612854924576" lon="12.698683391637276"><ele>291.0</ele><time>2026-05-01T08:54:20Z</time></trkpt><trkpt lat="42.7362219015579" lon="12.698928247994907"><ele>291.0</ele><time>2026-05-01T08:54:21Z</time></trkpt><trkpt lat="42.73631176975085" lon="12.699156145024121"><ele>291.0</ele><time>2026-05-01T08:54:22Z</time></trkpt><trkpt lat="42.736402192289425" lon="12.699373720203367"><ele>291.6666666666667</ele><time>2026-05-01T08:54:23Z</time></trkpt><trkpt lat="42.73649196697218" lon="12.699575115470019"><ele>292.33333333333337</ele><time>2026-05-01T08:54:24Z</time></trkpt><trkpt lat="42.73658156387721" lon="12.69975615763715"><ele>293.0</ele><time>2026-05-01T08:54:25Z</time></trkpt><trkpt lat="42.73666341918593" lon="12.699926122069732"><ele>293.0</ele><time>2026-05-01T08:54:26Z</time></trkpt><trkpt lat="42.73674254376142" lon="12.700081623043502"><ele>293.0</ele><time>2026-05-01T08:54:27Z</time></trkpt><trkpt lat="42.73681588353572" lon="12.700231183093605"><ele>293.0</ele><time>2026-05-01T08:54:28Z</time></trkpt><trkpt lat="42.73688304273069" lon="12.700368187627543"><ele>293.0</ele><time>2026-05-01T08:54:29Z</time></trkpt><trkpt lat="42.73695694978513" lon="12.700515072150278"><ele>293.5</ele><time>2026-05-01T08:54:30Z</time></trkpt><trkpt lat="42.73702237023528" lon="12.70065173899804"><ele>294.0</ele><time>2026-05-01T08:54:31Z</time></trkpt><trkpt lat="42.7370941724612" lon="12.70079918258076"><ele>294.5</ele><time>2026-05-01T08:54:32Z</time></trkpt><trkpt lat="42.73717172371111" lon="12.700953574004968"><ele>295.0</ele><time>2026-05-01T08:54:33Z</time></trkpt><trkpt lat="42.73725369878307" lon="12.70111033661924"><ele>295.0</ele><time>2026-05-01T08:54:34Z</time></trkpt><trkpt lat="42.73732817224046" lon="12.701269631723303"><ele>295.0</ele><time>2026-05-01T08:54:35Z</time></trkpt><trkpt lat="42.7373963837797" lon="12.701408330966862"><ele>295.0</ele><time>2026-05-01T08:54:36Z</time></trkpt><trkpt lat="42.7374726199566" lon="12.70156799261639"><ele>295.0</ele><time>2026-05-01T08:54:37Z</time></trkpt><trkpt lat="42.73753937368137" lon="12.701711606053522"><ele>295.0</ele><time>2026-05-01T08:54:38Z</time></trkpt><trkpt lat="42.737613275500394" lon="12.70186568015096"><ele>295.0</ele><time>2026-05-01T08:54:39Z</time></trkpt><trkpt lat="42.7376906291798" lon="12.702017356299818"><ele>295.0</ele><time>2026-05-01T08:54:40Z</time></trkpt><trkpt lat="42.73776946099945" lon="12.702174717935694"><ele>295.0</ele><time>2026-05-01T08:54:41Z</time></trkpt><trkpt lat="42.73783653227831" lon="12.702329675094386"><ele>294.5</ele><time>2026-05-01T08:54:42Z</time></trkpt><trkpt lat="42.73790220807182" lon="12.702477308372782"><ele>294.0</ele><time>2026-05-01T08:54:43Z</time></trkpt><trkpt lat="42.737969129399126" lon="12.702620649306281"><ele>293.5</ele><time>2026-05-01T08:54:44Z</time></trkpt><trkpt lat="42.73803623469706" lon="12.702757472612037"><ele>293.0</ele><time>2026-05-01T08:54:45Z</time></trkpt><trkpt lat="42.73810330392914" lon="12.70290400095391"><ele>293.0</ele><time>2026-05-01T08:54:46Z</time></trkpt><trkpt lat="42.73817068236552" lon="12.703049870020235"><ele>293.0</ele><time>2026-05-01T08:54:47Z</time></trkpt><trkpt lat="42.738237604840585" lon="12.703186876068747"><ele>293.0</ele><time>2026-05-01T08:54:48Z</time></trkpt><trkpt lat="42.73830780529338" lon="12.7033244306464"><ele>293.0</ele><time>2026-05-01T08:54:49Z</time></trkpt><trkpt lat="42.73838112190234" lon="12.703465243120998"><ele>293.25</ele><time>2026-05-01T08:54:50Z</time></trkpt><trkpt lat="42.73845485588666" lon="12.70361479945067"><ele>293.5</ele><time>2026-05-01T08:54:51Z</time></trkpt><trkpt lat="42.73853041045996" lon="12.703778339357582"><ele>293.75</ele><time>2026-05-01T08:54:52Z</time></trkpt><trkpt lat="42.738609092337555" lon="12.703944273196944"><ele>294.0</ele><time>2026-05-01T08:54:53Z</time></trkpt><trkpt lat="42.738686964653894" lon="12.70411168461232"><ele>294.0</ele><time>2026-05-01T08:54:54Z</time></trkpt><trkpt lat="42.738764184138375" lon="12.704284342493857"><ele>294.0</ele><time>2026-05-01T08:54:55Z</time></trkpt><trkpt lat="42.738833190082865" lon="12.704441464488127"><ele>294.0</ele><time>2026-05-01T08:54:56Z</time></trkpt><trkpt lat="42.73890005557143" lon="12.704584824673333"><ele>294.0</ele><time>2026-05-01T08:54:57Z</time></trkpt><trkpt lat="42.73897072983597" lon="12.704726263576898"><ele>294.5</ele><time>2026-05-01T08:54:58Z</time></trkpt><trkpt lat="42.73904725150008" lon="12.704886524369611"><ele>295.0</ele><time>2026-05-01T08:54:59Z</time></trkpt><trkpt lat="42.73912064620407" lon="12.705035633239193"><ele>295.5</ele><time>2026-05-01T08:55:00Z</time></trkpt><trkpt lat="42.73919309970789" lon="12.705180148905441"><ele>296.0</ele><time>2026-05-01T08:55:01Z</time></trkpt><trkpt lat="42.739265267989936" lon="12.705327195124973"><ele>296.25</ele><time>2026-05-01T08:55:02Z</time></trkpt><trkpt lat="42.73933780240163" lon="12.705478125801623"><ele>296.5</ele><time>2026-05-01T08:55:03Z</time></trkpt><trkpt lat="42.73941072968084" lon="12.70562892530515"><ele>296.75</ele><time>2026-05-01T08:55:04Z</time></trkpt><trkpt lat="42.73948787903736" lon="12.705775423732538"><ele>297.0</ele><time>2026-05-01T08:55:05Z</time></trkpt><trkpt lat="42.739577073528615" lon="12.70594398540495"><ele>297.0</ele><time>2026-05-01T08:55:06Z</time></trkpt><trkpt lat="42.73966998844252" lon="12.706137618834756"><ele>297.0</ele><time>2026-05-01T08:55:07Z</time></trkpt><trkpt lat="42.73977256584017" lon="12.70634728687168"><ele>297.0</ele><time>2026-05-01T08:55:08Z</time></trkpt><trkpt lat="42.73986597288469" lon="12.706584528385365"><ele>297.0</ele><time>2026-05-01T08:55:09Z</time></trkpt><trkpt lat="42.73998334957757" lon="12.70680284340587"><ele>297.0</ele><time>2026-05-01T08:55:10Z</time></trkpt><trkpt lat="42.74007900309306" lon="12.707022636797857"><ele>297.0</ele><time>2026-05-01T08:55:11Z</time></trkpt><trkpt lat="42.74016265048684" lon="12.70722285327172"><ele>297.3333333333333</ele><time>2026-05-01T08:55:12Z</time></trkpt><trkpt lat="42.740254111131044" lon="12.70742544646355"><ele>297.66666666666663</ele><time>2026-05-01T08:55:13Z</time></trkpt><trkpt lat="42.740350490819196" lon="12.707629723349385"><ele>298.0</ele><time>2026-05-01T08:55:14Z</time></trkpt><trkpt lat="42.74044668008519" lon="12.70783110743486"><ele>297.3333333333333</ele><time>2026-05-01T08:55:15Z</time></trkpt><trkpt lat="42.74054585955079" lon="12.708036302710617"><ele>296.6666666666667</ele><time>2026-05-01T08:55:16Z</time></trkpt><trkpt lat="42.740644034619926" lon="12.708235634174034"><ele>296.0</ele><time>2026-05-01T08:55:17Z</time></trkpt><trkpt lat="42.74074619260534" lon="12.708440808916242"><ele>296.0</ele><time>2026-05-01T08:55:18Z</time></trkpt><trkpt lat="42.7408463552401" lon="12.708641491671552"><ele>296.0</ele><time>2026-05-01T08:55:19Z</time></trkpt><trkpt lat="42.740946662554755" lon="12.708843496437781"><ele>296.0</ele><time>2026-05-01T08:55:20Z</time></trkpt><trkpt lat="42.741052240629486" lon="12.709059058235388"><ele>296.0</ele><time>2026-05-01T08:55:21Z</time></trkpt><trkpt lat="42.74115689893284" lon="12.709271826938672"><ele>296.0</ele><time>2026-05-01T08:55:22Z</time></trkpt><trkpt lat="42.74125914888965" lon="12.709487505764953"><ele>296.0</ele><time>2026-05-01T08:55:23Z</time></trkpt><trkpt lat="42.74136227604281" lon="12.709703292076975"><ele>295.33333333333337</ele><time>2026-05-01T08:55:24Z</time></trkpt><trkpt lat="42.741467240215655" lon="12.709916216990505"><ele>294.6666666666667</ele><time>2026-05-01T08:55:25Z</time></trkpt><trkpt lat="42.741573252278215" lon="12.710128573432996"><ele>294.0</ele><time>2026-05-01T08:55:26Z</time></trkpt><trkpt lat="42.74167639636285" lon="12.710345026074597"><ele>293.6666666666667</ele><time>2026-05-01T08:55:27Z</time></trkpt><trkpt lat="42.74177807538461" lon="12.710567804570058"><ele>293.33333333333337</ele><time>2026-05-01T08:55:28Z</time></trkpt><trkpt lat="42.74188501479933" lon="12.710794511058912"><ele>293.0</ele><time>2026-05-01T08:55:29Z</time></trkpt><trkpt lat="42.741992071059855" lon="12.711019802451817"><ele>292.0</ele><time>2026-05-01T08:55:30Z</time></trkpt><trkpt lat="42.74210205385976" lon="12.71125014680393"><ele>291.0</ele><time>2026-05-01T08:55:31Z</time></trkpt><trkpt lat="42.742217253058456" lon="12.711468440469877"><ele>290.0</ele><time>2026-05-01T08:55:32Z</time></trkpt><trkpt lat="42.742323561576036" lon="12.711687196765093"><ele>290.0</ele><time>2026-05-01T08:55:33Z</time></trkpt><trkpt lat="42.74242634417761" lon="12.711904305875153"><ele>290.0</ele><time>2026-05-01T08:55:34Z</time></trkpt><trkpt lat="42.742529130363764" lon="12.71211248237389"><ele>290.0</ele><time>2026-05-01T08:55:35Z</time></trkpt><trkpt lat="42.7426287979977" lon="12.712326539272206"><ele>289.6666666666667</ele><time>2026-05-01T08:55:36Z</time></trkpt><trkpt lat="42.7427303622972" lon="12.712539135469191"><ele>289.3333333333333</ele><time>2026-05-01T08:55:37Z</time></trkpt><trkpt lat="42.74283171486012" lon="12.712748150023275"><ele>289.0</ele><time>2026-05-01T08:55:38Z</time></trkpt><trkpt lat="42.74293542137094" lon="12.712961166404128"><ele>289.0</ele><time>2026-05-01T08:55:39Z</time></trkpt><trkpt lat="42.74304105880305" lon="12.713169022439226"><ele>289.0</ele><time>2026-05-01T08:55:40Z</time></trkpt><trkpt lat="42.7431561722204" lon="12.713366884484863"><ele>289.0</ele><time>2026-05-01T08:55:41Z</time></trkpt><trkpt lat="42.74328520226901" lon="12.71355132565974"><ele>288.66666666666663</ele><time>2026-05-01T08:55:42Z</time></trkpt><trkpt lat="42.74342035439209" lon="12.713730314475674"><ele>288.3333333333333</ele><time>2026-05-01T08:55:43Z</time></trkpt><trkpt lat="42.743557160948086" lon="12.713915035249846"><ele>288.0</ele><time>2026-05-01T08:55:44Z</time></trkpt><trkpt lat="42.74369017995432" lon="12.714088960144851"><ele>288.0</ele><time>2026-05-01T08:55:45Z</time></trkpt><trkpt lat="42.7438150588378" lon="12.71424021598768"><ele>288.0</ele><time>2026-05-01T08:55:46Z</time></trkpt><trkpt lat="42.743932808380244" lon="12.714379414853834"><ele>288.0</ele><time>2026-05-01T08:55:47Z</time></trkpt><trkpt lat="42.74404015647213" lon="12.714505646044675"><ele>288.5</ele><time>2026-05-01T08:55:48Z</time></trkpt><trkpt lat="42.744140844662205" lon="12.714626838802994"><ele>289.0</ele><time>2026-05-01T08:55:49Z</time></trkpt><trkpt lat="42.744230431074236" lon="12.714755803390382"><ele>289.5</ele><time>2026-05-01T08:55:50Z</time></trkpt><trkpt lat="42.74431711596212" lon="12.71485688126947"><ele>290.0</ele><time>2026-05-01T08:55:51Z</time></trkpt><trkpt lat="42.74438368870636" lon="12.714971633908384"><ele>289.6</ele><time>2026-05-01T08:55:52Z</time></trkpt><trkpt lat="42.74443045877838" lon="12.71509122704845"><ele>289.2</ele><time>2026-05-01T08:55:53Z</time></trkpt><trkpt lat="42.74444385794811" lon="12.715224470591348"><ele>288.8</ele><time>2026-05-01T08:55:54Z</time></trkpt><trkpt lat="42.74448594906609" lon="12.715344029989716"><ele>288.4</ele><time>2026-05-01T08:55:55Z</time></trkpt><trkpt lat="42.744565865050376" lon="12.715431884085717"><ele>288.0</ele><time>2026-05-01T08:55:56Z</time></trkpt><trkpt lat="42.74466498431274" lon="12.715470944550004"><ele>288.0</ele><time>2026-05-01T08:55:57Z</time></trkpt><trkpt lat="42.744783570232904" lon="12.715516047989894"><ele>288.0</ele><time>2026-05-01T08:55:58Z</time></trkpt><trkpt lat="42.74490150475143" lon="12.715605309565946"><ele>288.0</ele><time>2026-05-01T08:55:59Z</time></trkpt><trkpt lat="42.74501301827129" lon="12.715735965588324"><ele>288.0</ele><time>2026-05-01T08:56:00Z</time></trkpt><trkpt lat="42.74513174653183" lon="12.715893237552438"><ele>287.0</ele><time>2026-05-01T08:56:01Z</time></trkpt><trkpt lat="42.74526179674417" lon="12.716043503845935"><ele>286.0</ele><time>2026-05-01T08:56:02Z</time></trkpt><trkpt lat="42.74540131120856" lon="12.716210364675552"><ele>285.0</ele><time>2026-05-01T08:56:03Z</time></trkpt><trkpt lat="42.74553121768928" lon="12.716375141134892"><ele>285.0</ele><time>2026-05-01T08:56:04Z</time></trkpt><trkpt lat="42.74567249362368" lon="12.716553718587019"><ele>285.0</ele><time>2026-05-01T08:56:05Z</time></trkpt><trkpt lat="42.74582046148398" lon="12.716738224573403"><ele>285.0</ele><time>2026-05-01T08:56:06Z</time></trkpt><trkpt lat="42.745966573569596" lon="12.716927056413965"><ele>284.0</ele><time>2026-05-01T08:56:07Z</time></trkpt><trkpt lat="42.746108047821664" lon="12.717117243223266"><ele>283.0</ele><time>2026-05-01T08:56:08Z</time></trkpt><trkpt lat="42.74625624259616" lon="12.717307666329996"><ele>282.0</ele><time>2026-05-01T08:56:09Z</time></trkpt><trkpt lat="42.746408229355275" lon="12.717492640340472"><ele>282.0</ele><time>2026-05-01T08:56:10Z</time></trkpt><trkpt lat="42.746561672947664" lon="12.717675295788238"><ele>282.0</ele><time>2026-05-01T08:56:11Z</time></trkpt><trkpt lat="42.74671707555482" lon="12.717866452043102"><ele>282.0</ele><time>2026-05-01T08:56:12Z</time></trkpt><trkpt lat="42.74686462503234" lon="12.718054690937153"><ele>281.6666666666667</ele><time>2026-05-01T08:56:13Z</time></trkpt><trkpt lat="42.74701156078215" lon="12.718237943954351"><ele>281.33333333333337</ele><time>2026-05-01T08:56:14Z</time></trkpt><trkpt lat="42.747161375530276" lon="12.718427006368797"><ele>281.0</ele><time>2026-05-01T08:56:15Z</time></trkpt><trkpt lat="42.74731454426465" lon="12.718623248198854"><ele>281.33333333333337</ele><time>2026-05-01T08:56:16Z</time></trkpt><trkpt lat="42.74746231028786" lon="12.71882220696043"><ele>281.6666666666667</ele><time>2026-05-01T08:56:17Z</time></trkpt><trkpt lat="42.74760888960781" lon="12.719030555783908"><ele>282.0</ele><time>2026-05-01T08:56:18Z</time></trkpt><trkpt lat="42.74775170144851" lon="12.719248088070884"><ele>283.6666666666667</ele><time>2026-05-01T08:56:19Z</time></trkpt><trkpt lat="42.747886252565266" lon="12.719470698679226"><ele>285.33333333333337</ele><time>2026-05-01T08:56:20Z</time></trkpt><trkpt lat="42.74801098697307" lon="12.71969653182167"><ele>287.0</ele><time>2026-05-01T08:56:21Z</time></trkpt><trkpt lat="42.74812696390356" lon="12.719931699196373"><ele>287.0</ele><time>2026-05-01T08:56:22Z</time></trkpt><trkpt lat="42.74824076964098" lon="12.720171002013974"><ele>287.0</ele><time>2026-05-01T08:56:23Z</time></trkpt><trkpt lat="42.74835299886716" lon="12.720417946062256"><ele>287.0</ele><time>2026-05-01T08:56:24Z</time></trkpt><trkpt lat="42.74846002448693" lon="12.72069368698761"><ele>287.0</ele><time>2026-05-01T08:56:25Z</time></trkpt><trkpt lat="42.748559934043854" lon="12.721011707359457"><ele>287.0</ele><time>2026-05-01T08:56:26Z</time></trkpt><trkpt lat="42.748645852215674" lon="12.72134150926474"><ele>287.0</ele><time>2026-05-01T08:56:27Z</time></trkpt><trkpt lat="42.74870764440837" lon="12.72162017571518"><ele>287.0</ele><time>2026-05-01T08:56:28Z</time></trkpt><trkpt lat="42.748759353581946" lon="12.721873985156265"><ele>287.0</ele><time>2026-05-01T08:56:29Z</time></trkpt><trkpt lat="42.748802521612085" lon="12.722119958492671"><ele>289.33333333333337</ele><time>2026-05-01T08:56:30Z</time></trkpt><trkpt lat="42.74883789428094" lon="12.722365198949795"><ele>291.6666666666667</ele><time>2026-05-01T08:56:31Z</time></trkpt><trkpt lat="42.74885757616001" lon="12.722631649904507"><ele>294.0</ele><time>2026-05-01T08:56:32Z</time></trkpt><trkpt lat="42.74886717957304" lon="12.722907760003004"><ele>295.0</ele><time>2026-05-01T08:56:33Z</time></trkpt><trkpt lat="42.74887252398566" lon="12.723190183216136"><ele>296.0</ele><time>2026-05-01T08:56:34Z</time></trkpt><trkpt lat="42.74887211817485" lon="12.723477210974277"><ele>297.0</ele><time>2026-05-01T08:56:35Z</time></trkpt><trkpt lat="42.74884910859074" lon="12.723769176122696"><ele>297.0</ele><time>2026-05-01T08:56:36Z</time></trkpt><trkpt lat="42.74883899877165" lon="12.72403003168839"><ele>297.0</ele><time>2026-05-01T08:56:37Z</time></trkpt><trkpt lat="42.74882975745132" lon="12.724268479184614"><ele>297.0</ele><time>2026-05-01T08:56:38Z</time></trkpt><trkpt lat="42.74881994712275" lon="12.724497963175493"><ele>297.0</ele><time>2026-05-01T08:56:39Z</time></trkpt><trkpt lat="42.748809998303464" lon="12.724723819658132"><ele>297.0</ele><time>2026-05-01T08:56:40Z</time></trkpt><trkpt lat="42.74879991622363" lon="12.724952701504595"><ele>297.0</ele><time>2026-05-01T08:56:41Z</time></trkpt><trkpt lat="42.74880594298718" lon="12.725187379972212"><ele>296.0</ele><time>2026-05-01T08:56:42Z</time></trkpt><trkpt lat="42.74879280399155" lon="12.725424309152089"><ele>295.0</ele><time>2026-05-01T08:56:43Z</time></trkpt><trkpt lat="42.7487797797651" lon="12.725663772776945"><ele>294.0</ele><time>2026-05-01T08:56:44Z</time></trkpt><trkpt lat="42.74876928975449" lon="12.725903055129205"><ele>294.0</ele><time>2026-05-01T08:56:45Z</time></trkpt><trkpt lat="42.74875829698543" lon="12.726139829788384"><ele>294.0</ele><time>2026-05-01T08:56:46Z</time></trkpt><trkpt lat="42.74874569562672" lon="12.726371271656486"><ele>294.0</ele><time>2026-05-01T08:56:47Z</time></trkpt><trkpt lat="42.74873741665221" lon="12.726586794472372"><ele>294.0</ele><time>2026-05-01T08:56:48Z</time></trkpt><trkpt lat="42.74872806308062" lon="12.726797701585655"><ele>294.0</ele><time>2026-05-01T08:56:49Z</time></trkpt><trkpt lat="42.748722899975355" lon="12.727008616629835"><ele>294.0</ele><time>2026-05-01T08:56:50Z</time></trkpt><trkpt lat="42.74871517726475" lon="12.727204357515715"><ele>294.5</ele><time>2026-05-01T08:56:51Z</time></trkpt><trkpt lat="42.74870715551195" lon="12.727375005155338"><ele>295.0</ele><time>2026-05-01T08:56:52Z</time></trkpt><trkpt lat="42.7487026521002" lon="12.72753324077646"><ele>295.5</ele><time>2026-05-01T08:56:53Z</time></trkpt><trkpt lat="42.7486992739375" lon="12.727685257823131"><ele>296.0</ele><time>2026-05-01T08:56:54Z</time></trkpt><trkpt lat="42.74869546955604" lon="12.727840359849916"><ele>296.0</ele><time>2026-05-01T08:56:55Z</time></trkpt><trkpt lat="42.748688219768006" lon="12.728000687085785"><ele>296.0</ele><time>2026-05-01T08:56:56Z</time></trkpt><trkpt lat="42.748680243749135" lon="12.728163727907377"><ele>296.0</ele><time>2026-05-01T08:56:57Z</time></trkpt><trkpt lat="42.74865318545586" lon="12.72832109090702"><ele>296.0</ele><time>2026-05-01T08:56:58Z</time></trkpt><trkpt lat="42.748646890510635" lon="12.728471038537224"><ele>296.2</ele><time>2026-05-01T08:56:59Z</time></trkpt><trkpt lat="42.748648416629955" lon="12.728632020370538"><ele>296.40000000000003</ele><time>2026-05-01T08:57:00Z</time></trkpt><trkpt lat="42.748644096144794" lon="12.728785422539257"><ele>296.6</ele><time>2026-05-01T08:57:01Z</time></trkpt><trkpt lat="42.74863604745384" lon="12.728924881167531"><ele>296.8</ele><time>2026-05-01T08:57:02Z</time></trkpt><trkpt lat="42.74862869225651" lon="12.729048640424447"><ele>297.0</ele><time>2026-05-01T08:57:03Z</time></trkpt><trkpt lat="42.748623066833986" lon="12.729151742499466"><ele>297.0</ele><time>2026-05-01T08:57:04Z</time></trkpt><trkpt lat="42.74861449892546" lon="12.72923735618949"><ele>297.0</ele><time>2026-05-01T08:57:05Z</time></trkpt><trkpt lat="42.74860487608811" lon="12.729330158323084"><ele>297.0</ele><time>2026-05-01T08:57:06Z</time></trkpt><trkpt lat="42.74859267689155" lon="12.729447219734828"><ele>297.0</ele><time>2026-05-01T08:57:07Z</time></trkpt><trkpt lat="42.74857956796815" lon="12.729578082899911"><ele>297.0</ele><time>2026-05-01T08:57:08Z</time></trkpt><trkpt lat="42.74856145966049" lon="12.729709458989067"><ele>297.0</ele><time>2026-05-01T08:57:09Z</time></trkpt><trkpt lat="42.748528564780315" lon="12.729826753686972"><ele>297.75</ele><time>2026-05-01T08:57:10Z</time></trkpt><trkpt lat="42.74848361762871" lon="12.729945237028739"><ele>298.5</ele><time>2026-05-01T08:57:11Z</time></trkpt><trkpt lat="42.74842533149645" lon="12.730070403855581"><ele>299.25</ele><time>2026-05-01T08:57:12Z</time></trkpt><trkpt lat="42.748353065973525" lon="12.730215854703935"><ele>300.0</ele><time>2026-05-01T08:57:13Z</time></trkpt><trkpt lat="42.74828004431361" lon="12.730359646952559"><ele>300.25</ele><time>2026-05-01T08:57:14Z</time></trkpt><trkpt lat="42.74819894713329" lon="12.730498636016751"><ele>300.5</ele><time>2026-05-01T08:57:15Z</time></trkpt><trkpt lat="42.748118099032105" lon="12.730612824066316"><ele>300.75</ele><time>2026-05-01T08:57:16Z</time></trkpt><trkpt lat="42.748036823973415" lon="12.730722102037085"><ele>301.0</ele><time>2026-05-01T08:57:17Z</time></trkpt><trkpt lat="42.747957423486184" lon="12.73081983421825"><ele>301.0</ele><time>2026-05-01T08:57:18Z</time></trkpt><trkpt lat="42.74787277387395" lon="12.730910373772373"><ele>301.0</ele><time>2026-05-01T08:57:19Z</time></trkpt><trkpt lat="42.74777928555207" lon="12.731008820990246"><ele>301.0</ele><time>2026-05-01T08:57:20Z</time></trkpt><trkpt lat="42.74768126141048" lon="12.731110909816351"><ele>301.0</ele><time>2026-05-01T08:57:21Z</time></trkpt><trkpt lat="42.74756814289712" lon="12.731207623433733"><ele>301.75</ele><time>2026-05-01T08:57:22Z</time></trkpt><trkpt lat="42.74746803014005" lon="12.731309300803797"><ele>302.5</ele><time>2026-05-01T08:57:23Z</time></trkpt><trkpt lat="42.7473667905866" lon="12.731417586585643"><ele>303.25</ele><time>2026-05-01T08:57:24Z</time></trkpt><trkpt lat="42.747269226706784" lon="12.731522578479622"><ele>304.0</ele><time>2026-05-01T08:57:25Z</time></trkpt><trkpt lat="42.747166507683765" lon="12.731630549230252"><ele>304.0</ele><time>2026-05-01T08:57:26Z</time></trkpt><trkpt lat="42.74705590544911" lon="12.731737524748644"><ele>304.0</ele><time>2026-05-01T08:57:27Z</time></trkpt><trkpt lat="42.746956142053634" lon="12.731839924817356"><ele>304.0</ele><time>2026-05-01T08:57:28Z</time></trkpt><trkpt lat="42.746847755690794" lon="12.731947679133665"><ele>304.0</ele><time>2026-05-01T08:57:29Z</time></trkpt><trkpt lat="42.746747626055495" lon="12.732052890026539"><ele>304.0</ele><time>2026-05-01T08:57:30Z</time></trkpt><trkpt lat="42.74665520977973" lon="12.7321566432412"><ele>304.0</ele><time>2026-05-01T08:57:31Z</time></trkpt><trkpt lat="42.74656414511408" lon="12.732256842117936"><ele>304.0</ele><time>2026-05-01T08:57:32Z</time></trkpt><trkpt lat="42.74647627720329" lon="12.73235288609421"><ele>304.0</ele><time>2026-05-01T08:57:33Z</time></trkpt><trkpt lat="42.746387734484664" lon="12.732446434698835"><ele>304.0</ele><time>2026-05-01T08:57:34Z</time></trkpt><trkpt lat="42.74629923533491" lon="12.732533569222081"><ele>304.0</ele><time>2026-05-01T08:57:35Z</time></trkpt><trkpt lat="42.74621453157826" lon="12.73262415803539"><ele>304.0</ele><time>2026-05-01T08:57:36Z</time></trkpt><trkpt lat="42.74612495075892" lon="12.732710583523994"><ele>304.0</ele><time>2026-05-01T08:57:37Z</time></trkpt><trkpt lat="42.74604179756513" lon="12.732795906367548"><ele>304.0</ele><time>2026-05-01T08:57:38Z</time></trkpt><trkpt lat="42.745960253138385" lon="12.732880426374944"><ele>304.59999999999997</ele><time>2026-05-01T08:57:39Z</time></trkpt><trkpt lat="42.74587629090787" lon="12.73295798963847"><ele>305.2</ele><time>2026-05-01T08:57:40Z</time></trkpt><trkpt lat="42.745797587415254" lon="12.733037118600748"><ele>305.79999999999995</ele><time>2026-05-01T08:57:41Z</time></trkpt><trkpt lat="42.745718543283665" lon="12.733113868366996"><ele>306.4</ele><time>2026-05-01T08:57:42Z</time></trkpt><trkpt lat="42.74564504820351" lon="12.733185202188851"><ele>307.0</ele><time>2026-05-01T08:57:43Z</time></trkpt><trkpt lat="42.745579777889056" lon="12.733242336619362"><ele>307.0</ele><time>2026-05-01T08:57:44Z</time></trkpt><trkpt lat="42.74552607037328" lon="12.733291115894971"><ele>307.0</ele><time>2026-05-01T08:57:45Z</time></trkpt><trkpt lat="42.745413537085376" lon="12.733379844679844"><ele>307.0</ele><time>2026-05-01T08:57:47Z</time></trkpt><trkpt lat="42.7452950944626" lon="12.733438503955728"><ele>307.0</ele><time>2026-05-01T08:57:49Z</time></trkpt><trkpt lat="42.745228415080916" lon="12.733531775412386"><ele>307.0</ele><time>2026-05-01T08:57:50Z</time></trkpt><trkpt lat="42.745155603003056" lon="12.73364088417564"><ele>307.25</ele><time>2026-05-01T08:57:51Z</time></trkpt><trkpt lat="42.745048106436386" lon="12.733746994813467"><ele>307.5</ele><time>2026-05-01T08:57:52Z</time></trkpt><trkpt lat="42.744931252908366" lon="12.733843790034182"><ele>307.75</ele><time>2026-05-01T08:57:53Z</time></trkpt><trkpt lat="42.744808026740756" lon="12.733945186866281"><ele>308.0</ele><time>2026-05-01T08:57:54Z</time></trkpt><trkpt lat="42.74468762536784" lon="12.734046437562162"><ele>308.0</ele><time>2026-05-01T08:57:55Z</time></trkpt><trkpt lat="42.744572356404454" lon="12.734132369867892"><ele>308.0</ele><time>2026-05-01T08:57:56Z</time></trkpt><trkpt lat="42.74445346566067" lon="12.734206981001492"><ele>308.0</ele><time>2026-05-01T08:57:57Z</time></trkpt><trkpt lat="42.74433121708301" lon="12.7342743996946"><ele>308.0</ele><time>2026-05-01T08:57:58Z</time></trkpt><trkpt lat="42.7442014063933" lon="12.734352338925309"><ele>308.25</ele><time>2026-05-01T08:57:59Z</time></trkpt><trkpt lat="42.744072857610064" lon="12.734430010328257"><ele>308.5</ele><time>2026-05-01T08:58:00Z</time></trkpt><trkpt lat="42.74394248613906" lon="12.73451454570189"><ele>308.75</ele><time>2026-05-01T08:58:01Z</time></trkpt><trkpt lat="42.74382956656655" lon="12.73458743887246"><ele>309.0</ele><time>2026-05-01T08:58:02Z</time></trkpt><trkpt lat="42.74370952939942" lon="12.734649658009316"><ele>309.0</ele><time>2026-05-01T08:58:03Z</time></trkpt><trkpt lat="42.743592327134195" lon="12.734692040348877"><ele>309.0</ele><time>2026-05-01T08:58:04Z</time></trkpt><trkpt lat="42.743475832000925" lon="12.73472397407737"><ele>309.0</ele><time>2026-05-01T08:58:05Z</time></trkpt><trkpt lat="42.74337139108471" lon="12.73475909682483"><ele>309.0</ele><time>2026-05-01T08:58:06Z</time></trkpt><trkpt lat="42.743268210392145" lon="12.734819501076817"><ele>309.2</ele><time>2026-05-01T08:58:07Z</time></trkpt><trkpt lat="42.743162951682606" lon="12.734888580679904"><ele>309.4</ele><time>2026-05-01T08:58:08Z</time></trkpt><trkpt lat="42.743072273682785" lon="12.734953331248644"><ele>309.6</ele><time>2026-05-01T08:58:09Z</time></trkpt><trkpt lat="42.74298990192583" lon="12.735012337865347"><ele>309.8</ele><time>2026-05-01T08:58:10Z</time></trkpt><trkpt lat="42.742915096959756" lon="12.73506186822946"><ele>310.0</ele><time>2026-05-01T08:58:11Z</time></trkpt><trkpt lat="42.742847158819465" lon="12.73510535470443"><ele>310.0</ele><time>2026-05-01T08:58:12Z</time></trkpt><trkpt lat="42.742781740365096" lon="12.735145854784882"><ele>310.0</ele><time>2026-05-01T08:58:13Z</time></trkpt><trkpt lat="42.742713824903284" lon="12.735192788864644"><ele>310.0</ele><time>2026-05-01T08:58:14Z</time></trkpt><trkpt lat="42.742651847170556" lon="12.735236798780745"><ele>310.0</ele><time>2026-05-01T08:58:15Z</time></trkpt><trkpt lat="42.742588037912114" lon="12.735279545777168"><ele>310.0</ele><time>2026-05-01T08:58:16Z</time></trkpt><trkpt lat="42.742509936375555" lon="12.73533616340152"><ele>310.0</ele><time>2026-05-01T08:58:17Z</time></trkpt><trkpt lat="42.742422662264076" lon="12.73539981273759"><ele>310.4</ele><time>2026-05-01T08:58:18Z</time></trkpt><trkpt lat="42.74232908620854" lon="12.73547065355196"><ele>310.8</ele><time>2026-05-01T08:58:19Z</time></trkpt><trkpt lat="42.74223353438532" lon="12.735548209473471"><ele>311.2</ele><time>2026-05-01T08:58:20Z</time></trkpt><trkpt lat="42.74216458470692" lon="12.735614023502508"><ele>311.6</ele><time>2026-05-01T08:58:21Z</time></trkpt><trkpt lat="42.74209449962193" lon="12.735679701584667"><ele>312.0</ele><time>2026-05-01T08:58:22Z</time></trkpt><trkpt lat="42.74203302268422" lon="12.735740101967986"><ele>312.0</ele><time>2026-05-01T08:58:23Z</time></trkpt><trkpt lat="42.741981675681046" lon="12.735797726366417"><ele>312.0</ele><time>2026-05-01T08:58:24Z</time></trkpt><trkpt lat="42.74193273608698" lon="12.735854052358333"><ele>312.0</ele><time>2026-05-01T08:58:25Z</time></trkpt><trkpt lat="42.74185908181156" lon="12.735925950464527"><ele>312.0</ele><time>2026-05-01T08:58:27Z</time></trkpt><trkpt lat="42.74180726833163" lon="12.736002213776386"><ele>312.0</ele><time>2026-05-01T08:58:30Z</time></trkpt><trkpt lat="42.74173975781079" lon="12.736018674763823"><ele>312.0</ele><time>2026-05-01T08:58:33Z</time></trkpt><trkpt lat="42.74166801177534" lon="12.736056204926752"><ele>312.0</ele><time>2026-05-01T08:58:37Z</time></trkpt><trkpt lat="42.74159438899422" lon="12.736085402360212"><ele>312.8</ele><time>2026-05-01T08:58:42Z</time></trkpt><trkpt lat="42.74151594559322" lon="12.736105500816663"><ele>313.6</ele><time>2026-05-01T08:58:44Z</time></trkpt><trkpt lat="42.74140676256587" lon="12.736112903857014"><ele>314.40000000000003</ele><time>2026-05-01T08:58:46Z</time></trkpt><trkpt lat="42.74128799478918" lon="12.736134652476904"><ele>315.2</ele><time>2026-05-01T08:58:48Z</time></trkpt><trkpt lat="42.7411724954409" lon="12.73614647785552"><ele>316.0</ele><time>2026-05-01T08:58:50Z</time></trkpt><trkpt lat="42.741070590851116" lon="12.736162863552869"><ele>316.66666666666663</ele><time>2026-05-01T08:58:52Z</time></trkpt><trkpt lat="42.74095959298478" lon="12.736168634372337"><ele>317.3333333333333</ele><time>2026-05-01T08:58:54Z</time></trkpt><trkpt lat="42.740885547103126" lon="12.736197166572927"><ele>318.0</ele><time>2026-05-01T08:58:55Z</time></trkpt><trkpt lat="42.74080318623213" lon="12.736223179248483"><ele>318.6666666666667</ele><time>2026-05-01T08:58:56Z</time></trkpt><trkpt lat="42.74072817990139" lon="12.736240404476177"><ele>319.33333333333337</ele><time>2026-05-01T08:58:57Z</time></trkpt><trkpt lat="42.74066276256203" lon="12.73631686426052"><ele>320.0</ele><time>2026-05-01T08:58:58Z</time></trkpt><trkpt lat="42.74061660007527" lon="12.736450409742586"><ele>320.0</ele><time>2026-05-01T08:58:59Z</time></trkpt><trkpt lat="42.74057668602987" lon="12.736560292507429"><ele>320.0</ele><time>2026-05-01T08:59:00Z</time></trkpt><trkpt lat="42.74053670337489" lon="12.736665798690325"><ele>320.0</ele><time>2026-05-01T08:59:01Z</time></trkpt><trkpt lat="42.74050043195877" lon="12.73676111214689"><ele>320.0</ele><time>2026-05-01T08:59:02Z</time></trkpt><trkpt lat="42.74046637308556" lon="12.736850611278316"><ele>320.0</ele><time>2026-05-01T08:59:03Z</time></trkpt><trkpt lat="42.74042678886931" lon="12.7369546266082"><ele>320.0</ele><time>2026-05-01T08:59:04Z</time></trkpt><trkpt lat="42.740383956630374" lon="12.737056183389777"><ele>320.5</ele><time>2026-05-01T08:59:05Z</time></trkpt><trkpt lat="42.74036129903578" lon="12.737158708061502"><ele>321.0</ele><time>2026-05-01T08:59:06Z</time></trkpt><trkpt lat="42.74029467119275" lon="12.737279269390099"><ele>321.5</ele><time>2026-05-01T08:59:08Z</time></trkpt><trkpt lat="42.74026978634867" lon="12.73738192118219"><ele>322.0</ele><time>2026-05-01T08:59:10Z</time></trkpt><trkpt lat="42.74029208679866" lon="12.737475142567284"><ele>322.5</ele><time>2026-05-01T08:59:12Z</time></trkpt><trkpt lat="42.74030921948047" lon="12.737598987902357"><ele>323.0</ele><time>2026-05-01T08:59:14Z</time></trkpt><trkpt lat="42.74028156517161" lon="12.737734424208078"><ele>323.2</ele><time>2026-05-01T08:59:16Z</time></trkpt><trkpt lat="42.74032383782211" lon="12.737830578158691"><ele>323.4</ele><time>2026-05-01T08:59:18Z</time></trkpt><trkpt lat="42.74039304881254" lon="12.737856824393122"><ele>323.59999999999997</ele><time>2026-05-01T08:59:20Z</time></trkpt><trkpt lat="42.74045460797161" lon="12.737892460761348"><ele>323.79999999999995</ele><time>2026-05-01T08:59:23Z</time></trkpt><trkpt lat="42.74058387747218" lon="12.737992421165696"><ele>324.0</ele><time>2026-05-01T08:59:29Z</time></trkpt><trkpt lat="42.74066886682705" lon="12.73805498059903"><ele>324.0</ele><time>2026-05-01T08:59:32Z</time></trkpt><trkpt lat="42.74073597122343" lon="12.738100469418507"><ele>324.0</ele><time>2026-05-01T08:59:34Z</time></trkpt><trkpt lat="42.74080619924112" lon="12.738176548750097"><ele>324.0</ele><time>2026-05-01T08:59:37Z</time></trkpt><trkpt lat="42.74085885254336" lon="12.738231011107219"><ele>324.0</ele><time>2026-05-01T08:59:40Z</time></trkpt><trkpt lat="42.74091617575787" lon="12.738295402442265"><ele>324.0</ele><time>2026-05-01T08:59:43Z</time></trkpt><trkpt lat="42.740991586034696" lon="12.73837468597903"><ele>324.0</ele><time>2026-05-01T08:59:46Z</time></trkpt><trkpt lat="42.741064217461556" lon="12.73844997366612"><ele>323.6</ele><time>2026-05-01T08:59:49Z</time></trkpt><trkpt lat="42.74112350623824" lon="12.738535214623097"><ele>323.2</ele><time>2026-05-01T08:59:52Z</time></trkpt><trkpt lat="42.741177233789195" lon="12.738647317865505"><ele>322.8</ele><time>2026-05-01T08:59:54Z</time></trkpt><trkpt lat="42.74124264058195" lon="12.738757028512966"><ele>322.40000000000003</ele><time>2026-05-01T08:59:56Z</time></trkpt><trkpt lat="42.74129281912777" lon="12.738862732258768"><ele>322.0</ele><time>2026-05-01T08:59:58Z</time></trkpt><trkpt lat="42.7413272227582" lon="12.738959524932937"><ele>322.8333333333333</ele><time>2026-05-01T09:00:00Z</time></trkpt><trkpt lat="42.74136638109848" lon="12.739050884168384"><ele>323.66666666666663</ele><time>2026-05-01T09:00:02Z</time></trkpt><trkpt lat="42.741407778590755" lon="12.73914009943762"><ele>324.5</ele><time>2026-05-01T09:00:04Z</time></trkpt><trkpt lat="42.74145614066523" lon="12.739245697985721"><ele>325.3333333333333</ele><time>2026-05-01T09:00:06Z</time></trkpt><trkpt lat="42.7415008896162" lon="12.7393448061968"><ele>326.1666666666667</ele><time>2026-05-01T09:00:08Z</time></trkpt><trkpt lat="42.74154481525541" lon="12.739463482044615"><ele>327.0</ele><time>2026-05-01T09:00:10Z</time></trkpt><trkpt lat="42.74158570277008" lon="12.739570432311453"><ele>327.40000000000003</ele><time>2026-05-01T09:00:12Z</time></trkpt><trkpt lat="42.741633809862165" lon="12.739660310755742"><ele>327.8</ele><time>2026-05-01T09:00:14Z</time></trkpt><trkpt lat="42.74167400407773" lon="12.739735101866362"><ele>328.2</ele><time>2026-05-01T09:00:16Z</time></trkpt><trkpt lat="42.74171412297267" lon="12.739826791070598"><ele>328.6</ele><time>2026-05-01T09:00:18Z</time></trkpt><trkpt lat="42.74176838773571" lon="12.739944831215544"><ele>329.0</ele><time>2026-05-01T09:00:20Z</time></trkpt><trkpt lat="42.74183804785979" lon="12.740090351176244"><ele>329.0</ele><time>2026-05-01T09:00:22Z</time></trkpt><trkpt lat="42.74187640312632" lon="12.74018853986514"><ele>329.0</ele><time>2026-05-01T09:00:23Z</time></trkpt><trkpt lat="42.74192338924917" lon="12.740297551566279"><ele>329.0</ele><time>2026-05-01T09:00:24Z</time></trkpt><trkpt lat="42.741966550765184" lon="12.740404049884965"><ele>329.0</ele><time>2026-05-01T09:00:25Z</time></trkpt><trkpt lat="42.74201112560501" lon="12.740511364287201"><ele>329.0</ele><time>2026-05-01T09:00:26Z</time></trkpt><trkpt lat="42.74205638638883" lon="12.740623576147605"><ele>329.0</ele><time>2026-05-01T09:00:27Z</time></trkpt><trkpt lat="42.742108298581414" lon="12.740739335369254"><ele>330.0</ele><time>2026-05-01T09:00:28Z</time></trkpt><trkpt lat="42.74215512674013" lon="12.7408543673761"><ele>331.0</ele><time>2026-05-01T09:00:29Z</time></trkpt><trkpt lat="42.742202279428064" lon="12.740961728934895"><ele>332.0</ele><time>2026-05-01T09:00:30Z</time></trkpt><trkpt lat="42.74224993114436" lon="12.741056699355015"><ele>333.0</ele><time>2026-05-01T09:00:31Z</time></trkpt><trkpt lat="42.742284653064075" lon="12.741147076735016"><ele>334.0</ele><time>2026-05-01T09:00:32Z</time></trkpt><trkpt lat="42.742346545198814" lon="12.741212200704878"><ele>335.0</ele><time>2026-05-01T09:00:33Z</time></trkpt><trkpt lat="42.74240714160971" lon="12.74125749344095"><ele>335.0</ele><time>2026-05-01T09:00:34Z</time></trkpt><trkpt lat="42.742467770885" lon="12.741306107236674"><ele>335.0</ele><time>2026-05-01T09:00:35Z</time></trkpt><trkpt lat="42.74253476196265" lon="12.741342356149657"><ele>335.0</ele><time>2026-05-01T09:00:36Z</time></trkpt><trkpt lat="42.742610732934146" lon="12.741379891800127"><ele>335.0</ele><time>2026-05-01T09:00:37Z</time></trkpt><trkpt lat="42.74268905572372" lon="12.741405808561911"><ele>335.0</ele><time>2026-05-01T09:00:38Z</time></trkpt><trkpt lat="42.74276186361066" lon="12.741435183658446"><ele>335.0</ele><time>2026-05-01T09:00:39Z</time></trkpt><trkpt lat="42.7428313845165" lon="12.741459417931912"><ele>334.5</ele><time>2026-05-01T09:00:40Z</time></trkpt><trkpt lat="42.742899773220884" lon="12.741482952205095"><ele>334.0</ele><time>2026-05-01T09:00:41Z</time></trkpt><trkpt lat="42.74297217652974" lon="12.741516771714865"><ele>333.5</ele><time>2026-05-01T09:00:42Z</time></trkpt><trkpt lat="42.74303844245155" lon="12.741560760072002"><ele>333.0</ele><time>2026-05-01T09:00:43Z</time></trkpt><trkpt lat="42.74311623488581" lon="12.741612881564846"><ele>332.5</ele><time>2026-05-01T09:00:44Z</time></trkpt><trkpt lat="42.743196496129585" lon="12.741660939869986"><ele>332.0</ele><time>2026-05-01T09:00:45Z</time></trkpt><trkpt lat="42.74327400283439" lon="12.741701427400896"><ele>332.0</ele><time>2026-05-01T09:00:46Z</time></trkpt><trkpt lat="42.743352096822626" lon="12.74173790431587"><ele>332.0</ele><time>2026-05-01T09:00:47Z</time></trkpt><trkpt lat="42.74342956766536" lon="12.741765722867052"><ele>332.0</ele><time>2026-05-01T09:00:48Z</time></trkpt><trkpt lat="42.743501821774274" lon="12.741786923335154"><ele>332.0</ele><time>2026-05-01T09:00:49Z</time></trkpt><trkpt lat="42.74357822055858" lon="12.741806056643243"><ele>332.0</ele><time>2026-05-01T09:00:50Z</time></trkpt><trkpt lat="42.74365173708944" lon="12.741798361932707"><ele>332.0</ele><time>2026-05-01T09:00:51Z</time></trkpt><trkpt lat="42.74371991814915" lon="12.741753999619558"><ele>331.33333333333337</ele><time>2026-05-01T09:00:52Z</time></trkpt><trkpt lat="42.74378974099586" lon="12.7416708066248"><ele>330.6666666666667</ele><time>2026-05-01T09:00:53Z</time></trkpt><trkpt lat="42.74384690579871" lon="12.74157312204941"><ele>330.0</ele><time>2026-05-01T09:00:54Z</time></trkpt><trkpt lat="42.74388472464651" lon="12.741481319041373"><ele>329.3333333333333</ele><time>2026-05-01T09:00:55Z</time></trkpt><trkpt lat="42.74392502300294" lon="12.741404911054197"><ele>328.66666666666663</ele><time>2026-05-01T09:00:56Z</time></trkpt><trkpt lat="42.74396419908897" lon="12.74133083414077"><ele>328.0</ele><time>2026-05-01T09:00:57Z</time></trkpt><trkpt lat="42.744111332781436" lon="12.74138982745984"><ele>328.0</ele><time>2026-05-01T09:00:58Z</time></trkpt><trkpt lat="42.74419799739751" lon="12.741398424188898"><ele>328.0</ele><time>2026-05-01T09:00:59Z</time></trkpt><trkpt lat="42.74428572353005" lon="12.74144034142024"><ele>328.0</ele><time>2026-05-01T09:01:00Z</time></trkpt><trkpt lat="42.744366942063024" lon="12.741479100758513"><ele>328.0</ele><time>2026-05-01T09:01:01Z</time></trkpt><trkpt lat="42.74443744469462" lon="12.741573938229372"><ele>328.0</ele><time>2026-05-01T09:01:02Z</time></trkpt><trkpt lat="42.74451686710759" lon="12.741648858503657"><ele>327.79999999999995</ele><time>2026-05-01T09:01:03Z</time></trkpt><trkpt lat="42.74460408920613" lon="12.741721987372786"><ele>327.6</ele><time>2026-05-01T09:01:04Z</time></trkpt><trkpt lat="42.74470069515671" lon="12.741805108796306"><ele>327.4</ele><time>2026-05-01T09:01:05Z</time></trkpt><trkpt lat="42.74478726363131" lon="12.741877238826197"><ele>327.20000000000005</ele><time>2026-05-01T09:01:06Z</time></trkpt><trkpt lat="42.74487701149712" lon="12.741960662840222"><ele>327.0</ele><time>2026-05-01T09:01:07Z</time></trkpt><trkpt lat="42.744969345359564" lon="12.742038606870366"><ele>327.0</ele><time>2026-05-01T09:01:08Z</time></trkpt><trkpt lat="42.74506308512218" lon="12.74210886556255"><ele>327.0</ele><time>2026-05-01T09:01:09Z</time></trkpt><trkpt lat="42.745150526226865" lon="12.742171261780385"><ele>327.0</ele><time>2026-05-01T09:01:10Z</time></trkpt><trkpt lat="42.7452407953526" lon="12.742245045176404"><ele>327.0</ele><time>2026-05-01T09:01:11Z</time></trkpt><trkpt lat="42.74532766428054" lon="12.742313943572723"><ele>327.0</ele><time>2026-05-01T09:01:12Z</time></trkpt><trkpt lat="42.74541029321312" lon="12.742381605311753"><ele>326.3333333333333</ele><time>2026-05-01T09:01:13Z</time></trkpt><trkpt lat="42.74547865233915" lon="12.742441210115171"><ele>325.6666666666667</ele><time>2026-05-01T09:01:14Z</time></trkpt><trkpt lat="42.74553854141083" lon="12.742501259274151"><ele>325.0</ele><time>2026-05-01T09:01:15Z</time></trkpt><trkpt lat="42.745597378897365" lon="12.742549914703805"><ele>324.33333333333337</ele><time>2026-05-01T09:01:16Z</time></trkpt><trkpt lat="42.74565151206002" lon="12.742608708534831"><ele>323.6666666666667</ele><time>2026-05-01T09:01:17Z</time></trkpt><trkpt lat="42.745701195088" lon="12.742679757378484"><ele>323.0</ele><time>2026-05-01T09:01:18Z</time></trkpt><trkpt lat="42.74574124959116" lon="12.742784948851034"><ele>323.0</ele><time>2026-05-01T09:01:20Z</time></trkpt><trkpt lat="42.745739528770606" lon="12.742874746329328"><ele>323.0</ele><time>2026-05-01T09:01:23Z</time></trkpt><trkpt lat="42.74571779986094" lon="12.743034890585895"><ele>323.0</ele><time>2026-05-01T09:01:25Z</time></trkpt><trkpt lat="42.745678843282356" lon="12.743133831838602"><ele>323.0</ele><time>2026-05-01T09:01:26Z</time></trkpt><trkpt lat="42.745621083781224" lon="12.743233391047323"><ele>323.0</ele><time>2026-05-01T09:01:27Z</time></trkpt><trkpt lat="42.74555720263159" lon="12.743341604490286"><ele>323.0</ele><time>2026-05-01T09:01:28Z</time></trkpt><trkpt lat="42.74549769580495" lon="12.743439416405955"><ele>323.0</ele><time>2026-05-01T09:01:29Z</time></trkpt><trkpt lat="42.745446287390244" lon="12.743547723404106"><ele>323.0</ele><time>2026-05-01T09:01:30Z</time></trkpt><trkpt lat="42.74539518077481" lon="12.743658088660876"><ele>323.0</ele><time>2026-05-01T09:01:31Z</time></trkpt><trkpt lat="42.74534862556471" lon="12.743773588086992"><ele>323.0</ele><time>2026-05-01T09:01:32Z</time></trkpt><trkpt lat="42.74529887135017" lon="12.743908676849742"><ele>323.25</ele><time>2026-05-01T09:01:33Z</time></trkpt><trkpt lat="42.74524477037319" lon="12.744057955691378"><ele>323.5</ele><time>2026-05-01T09:01:34Z</time></trkpt><trkpt lat="42.74518569689343" lon="12.744205466825044"><ele>323.75</ele><time>2026-05-01T09:01:35Z</time></trkpt><trkpt lat="42.74511695260831" lon="12.744314041512654"><ele>324.0</ele><time>2026-05-01T09:01:36Z</time></trkpt><trkpt lat="42.74502557407415" lon="12.74438887122981"><ele>325.5</ele><time>2026-05-01T09:01:37Z</time></trkpt><trkpt lat="42.7449175822676" lon="12.7444530736773"><ele>327.0</ele><time>2026-05-01T09:01:38Z</time></trkpt><trkpt lat="42.74479586393061" lon="12.74441408652634"><ele>328.5</ele><time>2026-05-01T09:01:39Z</time></trkpt><trkpt lat="42.74468628075597" lon="12.744338603505728"><ele>330.0</ele><time>2026-05-01T09:01:40Z</time></trkpt><trkpt lat="42.744582876466765" lon="12.744215290679554"><ele>330.0</ele><time>2026-05-01T09:01:41Z</time></trkpt><trkpt lat="42.74446994356236" lon="12.744036049689676"><ele>330.0</ele><time>2026-05-01T09:01:42Z</time></trkpt><trkpt lat="42.74435926287086" lon="12.743816420694642"><ele>330.0</ele><time>2026-05-01T09:01:43Z</time></trkpt><trkpt lat="42.7442389061758" lon="12.74358146793659"><ele>331.0</ele><time>2026-05-01T09:01:44Z</time></trkpt><trkpt lat="42.744114120150584" lon="12.743385304268386"><ele>332.0</ele><time>2026-05-01T09:01:45Z</time></trkpt><trkpt lat="42.743994665897056" lon="12.74325975381723"><ele>333.0</ele><time>2026-05-01T09:01:46Z</time></trkpt><trkpt lat="42.74386891674151" lon="12.743183120825316"><ele>333.0</ele><time>2026-05-01T09:01:47Z</time></trkpt><trkpt lat="42.74373153419655" lon="12.743182603291059"><ele>333.0</ele><time>2026-05-01T09:01:48Z</time></trkpt><trkpt lat="42.74359443805857" lon="12.743246436206684"><ele>333.0</ele><time>2026-05-01T09:01:49Z</time></trkpt><trkpt lat="42.74347228488388" lon="12.743371986604496"><ele>333.0</ele><time>2026-05-01T09:01:50Z</time></trkpt><trkpt lat="42.743392083845045" lon="12.743536995041543"><ele>338.3333333333333</ele><time>2026-05-01T09:01:51Z</time></trkpt><trkpt lat="42.7433731814541" lon="12.743729655222221"><ele>343.66666666666663</ele><time>2026-05-01T09:01:52Z</time></trkpt><trkpt lat="42.74340663935417" lon="12.743940102571917"><ele>349.0</ele><time>2026-05-01T09:01:53Z</time></trkpt><trkpt lat="42.743498926248826" lon="12.74415513048947"><ele>348.3333333333333</ele><time>2026-05-01T09:01:54Z</time></trkpt><trkpt lat="42.74359289916733" lon="12.744407364821372"><ele>347.6666666666667</ele><time>2026-05-01T09:01:55Z</time></trkpt><trkpt lat="42.743696794201966" lon="12.74466597461669"><ele>347.0</ele><time>2026-05-01T09:01:56Z</time></trkpt><trkpt lat="42.74381849913417" lon="12.744931185243386"><ele>354.5</ele><time>2026-05-01T09:01:57Z</time></trkpt><trkpt lat="42.74395996370851" lon="12.745213390327258"><ele>362.0</ele><time>2026-05-01T09:01:58Z</time></trkpt><trkpt lat="42.74413776938559" lon="12.745495300470296"><ele>362.0</ele><time>2026-05-01T09:01:59Z</time></trkpt><trkpt lat="42.744311562309136" lon="12.745759375907406"><ele>362.0</ele><time>2026-05-01T09:02:00Z</time></trkpt><trkpt lat="42.74444859088986" lon="12.74599350379054"><ele>356.6666666666667</ele><time>2026-05-01T09:02:01Z</time></trkpt><trkpt lat="42.744549561339454" lon="12.746226808859971"><ele>351.3333333333333</ele><time>2026-05-01T09:02:02Z</time></trkpt><trkpt lat="42.744620284812115" lon="12.746487893893597"><ele>346.0</ele><time>2026-05-01T09:02:03Z</time></trkpt><trkpt lat="42.7446425814784" lon="12.74676880896932"><ele>347.3333333333333</ele><time>2026-05-01T09:02:04Z</time></trkpt><trkpt lat="42.74460210866646" lon="12.747013934636357"><ele>348.6666666666667</ele><time>2026-05-01T09:02:05Z</time></trkpt><trkpt lat="42.74454576407342" lon="12.747214459408868"><ele>350.0</ele><time>2026-05-01T09:02:06Z</time></trkpt><trkpt lat="42.744470616887725" lon="12.747421460904626"><ele>350.0</ele><time>2026-05-01T09:02:07Z</time></trkpt><trkpt lat="42.744405177674814" lon="12.747615659635459"><ele>350.0</ele><time>2026-05-01T09:02:08Z</time></trkpt><trkpt lat="42.7443750343489" lon="12.747798464613606"><ele>350.0</ele><time>2026-05-01T09:02:09Z</time></trkpt><trkpt lat="42.74438042911304" lon="12.747958963139297"><ele>350.0</ele><time>2026-05-01T09:02:10Z</time></trkpt><trkpt lat="42.744451762369806" lon="12.748091546521573"><ele>353.25</ele><time>2026-05-01T09:02:11Z</time></trkpt><trkpt lat="42.74451623265981" lon="12.748226256911954"><ele>356.5</ele><time>2026-05-01T09:02:12Z</time></trkpt><trkpt lat="42.74458258025531" lon="12.748353819706505"><ele>359.75</ele><time>2026-05-01T09:02:13Z</time></trkpt><trkpt lat="42.744678548120525" lon="12.748476821089119"><ele>363.0</ele><time>2026-05-01T09:02:14Z</time></trkpt><trkpt lat="42.74483908585229" lon="12.748591421131906"><ele>359.6666666666667</ele><time>2026-05-01T09:02:15Z</time></trkpt><trkpt lat="42.74503087182803" lon="12.748703951834113"><ele>356.33333333333337</ele><time>2026-05-01T09:02:16Z</time></trkpt><trkpt lat="42.74518382995302" lon="12.74882201276434"><ele>353.0</ele><time>2026-05-01T09:02:17Z</time></trkpt><trkpt lat="42.74529552388835" lon="12.748970689342672"><ele>353.0</ele><time>2026-05-01T09:02:18Z</time></trkpt><trkpt lat="42.74534269987059" lon="12.749141323762702"><ele>353.0</ele><time>2026-05-01T09:02:19Z</time></trkpt><trkpt lat="42.74537232013013" lon="12.749344243958705"><ele>353.0</ele><time>2026-05-01T09:02:20Z</time></trkpt><trkpt lat="42.74529335329037" lon="12.749546092841285"><ele>362.33333333333337</ele><time>2026-05-01T09:02:21Z</time></trkpt><trkpt lat="42.74518600912307" lon="12.749782533846377"><ele>371.6666666666667</ele><time>2026-05-01T09:02:22Z</time></trkpt><trkpt lat="42.74505971646321" lon="12.750011842750546"><ele>381.0</ele><time>2026-05-01T09:02:23Z</time></trkpt><trkpt lat="42.74493215258797" lon="12.750274563240104"><ele>381.0</ele><time>2026-05-01T09:02:24Z</time></trkpt><trkpt lat="42.74481514868641" lon="12.750493351896163"><ele>381.0</ele><time>2026-05-01T09:02:25Z</time></trkpt><trkpt lat="42.74476375734175" lon="12.750709543422332"><ele>381.0</ele><time>2026-05-01T09:02:26Z</time></trkpt><trkpt lat="42.74474457588303" lon="12.750898159519407"><ele>386.25</ele><time>2026-05-01T09:02:27Z</time></trkpt><trkpt lat="42.744783084172994" lon="12.751062296951902"><ele>391.5</ele><time>2026-05-01T09:02:28Z</time></trkpt><trkpt lat="42.744874501579446" lon="12.751193635158398"><ele>396.75</ele><time>2026-05-01T09:02:29Z</time></trkpt><trkpt lat="42.745015404170836" lon="12.751274422552092"><ele>402.0</ele><time>2026-05-01T09:02:30Z</time></trkpt><trkpt lat="42.745197420865196" lon="12.751350163177975"><ele>399.0</ele><time>2026-05-01T09:02:31Z</time></trkpt><trkpt lat="42.74540765985943" lon="12.751404161839137"><ele>396.0</ele><time>2026-05-01T09:02:32Z</time></trkpt><trkpt lat="42.74563381529505" lon="12.751498654227412"><ele>396.0</ele><time>2026-05-01T09:02:33Z</time></trkpt><trkpt lat="42.74585722618741" lon="12.751567053019881"><ele>396.0</ele><time>2026-05-01T09:02:34Z</time></trkpt><trkpt lat="42.746066067724854" lon="12.751660436319872"><ele>396.0</ele><time>2026-05-01T09:02:35Z</time></trkpt><trkpt lat="42.74624144208831" lon="12.751809444245216"><ele>400.66666666666663</ele><time>2026-05-01T09:02:36Z</time></trkpt><trkpt lat="42.74639833815332" lon="12.751968609579425"><ele>405.3333333333333</ele><time>2026-05-01T09:02:37Z</time></trkpt><trkpt lat="42.74657625491114" lon="12.75202390646079"><ele>410.0</ele><time>2026-05-01T09:02:38Z</time></trkpt><trkpt lat="42.746768942438905" lon="12.752010174023376"><ele>409.0</ele><time>2026-05-01T09:02:39Z</time></trkpt><trkpt lat="42.74695252092018" lon="12.751987282658586"><ele>408.0</ele><time>2026-05-01T09:02:40Z</time></trkpt><trkpt lat="42.747129572844635" lon="12.751982864793305"><ele>407.0</ele><time>2026-05-01T09:02:41Z</time></trkpt><trkpt lat="42.74729764946385" lon="12.75210242692851"><ele>407.0</ele><time>2026-05-01T09:02:42Z</time></trkpt><trkpt lat="42.74747848004555" lon="12.752238481338482"><ele>407.0</ele><time>2026-05-01T09:02:43Z</time></trkpt><trkpt lat="42.74767421246607" lon="12.752362984781001"><ele>407.0</ele><time>2026-05-01T09:02:44Z</time></trkpt><trkpt lat="42.74787276871573" lon="12.752411944440293"><ele>404.75</ele><time>2026-05-01T09:02:45Z</time></trkpt><trkpt lat="42.748026819107714" lon="12.752471237714467"><ele>402.5</ele><time>2026-05-01T09:02:46Z</time></trkpt><trkpt lat="42.748143614799766" lon="12.752592143906748"><ele>400.25</ele><time>2026-05-01T09:02:47Z</time></trkpt><trkpt lat="42.74822125170637" lon="12.752744322551505"><ele>398.0</ele><time>2026-05-01T09:02:48Z</time></trkpt><trkpt lat="42.74824541536283" lon="12.752926398255191"><ele>398.0</ele><time>2026-05-01T09:02:49Z</time></trkpt><trkpt lat="42.74822767548268" lon="12.75310233137286"><ele>398.0</ele><time>2026-05-01T09:02:50Z</time></trkpt><trkpt lat="42.74812795921892" lon="12.753233159613627"><ele>398.0</ele><time>2026-05-01T09:02:51Z</time></trkpt><trkpt lat="42.74799499871995" lon="12.75336929689844"><ele>398.0</ele><time>2026-05-01T09:02:52Z</time></trkpt><trkpt lat="42.747794083677164" lon="12.753443702337941"><ele>402.5</ele><time>2026-05-01T09:02:53Z</time></trkpt><trkpt lat="42.747574229254525" lon="12.753404567484543"><ele>407.0</ele><time>2026-05-01T09:02:54Z</time></trkpt><trkpt lat="42.747340109067665" lon="12.753333148263216"><ele>407.0</ele><time>2026-05-01T09:02:55Z</time></trkpt><trkpt lat="42.74708239863451" lon="12.753245282881538"><ele>407.0</ele><time>2026-05-01T09:02:56Z</time></trkpt><trkpt lat="42.746805931960225" lon="12.753172024551558"><ele>408.5</ele><time>2026-05-01T09:02:57Z</time></trkpt><trkpt lat="42.74653093395323" lon="12.753079107746993"><ele>410.0</ele><time>2026-05-01T09:02:58Z</time></trkpt><trkpt lat="42.7462328451772" lon="12.753100120479095"><ele>414.5</ele><time>2026-05-01T09:02:59Z</time></trkpt><trkpt lat="42.74593364669036" lon="12.753162912598803"><ele>419.0</ele><time>2026-05-01T09:03:00Z</time></trkpt><trkpt lat="42.74566371224261" lon="12.753201975319982"><ele>419.0</ele><time>2026-05-01T09:03:01Z</time></trkpt><trkpt lat="42.7453791047845" lon="12.753171038548583"><ele>419.0</ele><time>2026-05-01T09:03:02Z</time></trkpt><trkpt lat="42.745102225161695" lon="12.753149790966154"><ele>420.0</ele><time>2026-05-01T09:03:03Z</time></trkpt><trkpt lat="42.74483318713417" lon="12.753215114006139"><ele>421.0</ele><time>2026-05-01T09:03:04Z</time></trkpt><trkpt lat="42.74455718828176" lon="12.75327495719398"><ele>427.0</ele><time>2026-05-01T09:03:05Z</time></trkpt><trkpt lat="42.74428324778812" lon="12.753325192799137"><ele>433.0</ele><time>2026-05-01T09:03:06Z</time></trkpt><trkpt lat="42.744019273605275" lon="12.753384752190874"><ele>433.0</ele><time>2026-05-01T09:03:07Z</time></trkpt><trkpt lat="42.74375333866892" lon="12.753449856109597"><ele>433.0</ele><time>2026-05-01T09:03:08Z</time></trkpt><trkpt lat="42.743478197645764" lon="12.753523055900517"><ele>430.0</ele><time>2026-05-01T09:03:09Z</time></trkpt><trkpt lat="42.74319319854901" lon="12.753604267095305"><ele>427.0</ele><time>2026-05-01T09:03:10Z</time></trkpt><trkpt lat="42.74293762510223" lon="12.753707852681893"><ele>427.0</ele><time>2026-05-01T09:03:11Z</time></trkpt><trkpt lat="42.742746391501434" lon="12.753814004780503"><ele>427.0</ele><time>2026-05-01T09:03:12Z</time></trkpt><trkpt lat="42.74257201554097" lon="12.7538832823054"><ele>427.0</ele><time>2026-05-01T09:03:13Z</time></trkpt><trkpt lat="42.74243918050627" lon="12.75401668531796"><ele>434.0</ele><time>2026-05-01T09:03:14Z</time></trkpt><trkpt lat="42.74235290191717" lon="12.754210786086967"><ele>441.0</ele><time>2026-05-01T09:03:15Z</time></trkpt><trkpt lat="42.74233822697614" lon="12.754463659866161"><ele>448.0</ele><time>2026-05-01T09:03:16Z</time></trkpt><trkpt lat="42.74228640653757" lon="12.754715857059404"><ele>448.0</ele><time>2026-05-01T09:03:17Z</time></trkpt><trkpt lat="42.742206983969716" lon="12.754950868900975"><ele>448.0</ele><time>2026-05-01T09:03:18Z</time></trkpt><trkpt lat="42.742084604555906" lon="12.755159512294554"><ele>448.0</ele><time>2026-05-01T09:03:19Z</time></trkpt><trkpt lat="42.741911439924046" lon="12.755385427697991"><ele>452.6666666666667</ele><time>2026-05-01T09:03:20Z</time></trkpt><trkpt lat="42.74176409031622" lon="12.755559377605206"><ele>457.33333333333337</ele><time>2026-05-01T09:03:21Z</time></trkpt><trkpt lat="42.74166577334111" lon="12.755720604072724"><ele>462.0</ele><time>2026-05-01T09:03:22Z</time></trkpt><trkpt lat="42.74163464243577" lon="12.75588784598391"><ele>461.33333333333337</ele><time>2026-05-01T09:03:23Z</time></trkpt><trkpt lat="42.741681510578836" lon="12.75610136012045"><ele>460.6666666666667</ele><time>2026-05-01T09:03:24Z</time></trkpt><trkpt lat="42.74176712500579" lon="12.756272616544022"><ele>460.0</ele><time>2026-05-01T09:03:25Z</time></trkpt><trkpt lat="42.74191656789917" lon="12.756382508914896"><ele>460.0</ele><time>2026-05-01T09:03:26Z</time></trkpt><trkpt lat="42.74208489129582" lon="12.756398465082764"><ele>460.0</ele><time>2026-05-01T09:03:27Z</time></trkpt><trkpt lat="42.74222047670175" lon="12.756335090285335"><ele>460.0</ele><time>2026-05-01T09:03:28Z</time></trkpt><trkpt lat="42.74238697560658" lon="12.756190165868313"><ele>460.0</ele><time>2026-05-01T09:03:29Z</time></trkpt><trkpt lat="42.742539411359644" lon="12.75610116838193"><ele>460.0</ele><time>2026-05-01T09:03:30Z</time></trkpt><trkpt lat="42.74268325114064" lon="12.75608956424501"><ele>460.0</ele><time>2026-05-01T09:03:31Z</time></trkpt><trkpt lat="42.74280680254442" lon="12.75616223338984"><ele>460.0</ele><time>2026-05-01T09:03:32Z</time></trkpt><trkpt lat="42.742937507666156" lon="12.756211241087765"><ele>457.75</ele><time>2026-05-01T09:03:33Z</time></trkpt><trkpt lat="42.7429511000872" lon="12.756456687472088"><ele>455.5</ele><time>2026-05-01T09:03:34Z</time></trkpt><trkpt lat="42.742937390545436" lon="12.756606088002954"><ele>453.25</ele><time>2026-05-01T09:03:35Z</time></trkpt><trkpt lat="42.74289766369157" lon="12.756742084387398"><ele>451.0</ele><time>2026-05-01T09:03:36Z</time></trkpt><trkpt lat="42.7428187849815" lon="12.756835014602757"><ele>449.0</ele><time>2026-05-01T09:03:37Z</time></trkpt><trkpt lat="42.74268815377151" lon="12.756902244041205"><ele>447.0</ele><time>2026-05-01T09:03:38Z</time></trkpt><trkpt lat="42.74250345821989" lon="12.75695962687758"><ele>445.0</ele><time>2026-05-01T09:03:39Z</time></trkpt><trkpt lat="42.74228722795202" lon="12.757004165460392"><ele>445.0</ele><time>2026-05-01T09:03:40Z</time></trkpt><trkpt lat="42.74209128176007" lon="12.757112701955743"><ele>445.0</ele><time>2026-05-01T09:03:41Z</time></trkpt><trkpt lat="42.74193137996019" lon="12.757293359802322"><ele>445.0</ele><time>2026-05-01T09:03:42Z</time></trkpt><trkpt lat="42.741800877289904" lon="12.757465711671255"><ele>440.0</ele><time>2026-05-01T09:03:43Z</time></trkpt><trkpt lat="42.74169680461848" lon="12.757601131082346"><ele>435.0</ele><time>2026-05-01T09:03:44Z</time></trkpt><trkpt lat="42.74155857418409" lon="12.757690746788624"><ele>430.0</ele><time>2026-05-01T09:03:45Z</time></trkpt><trkpt lat="42.7413963590446" lon="12.757712480804125"><ele>430.0</ele><time>2026-05-01T09:03:46Z</time></trkpt><trkpt lat="42.741250152236894" lon="12.757738521203793"><ele>430.0</ele><time>2026-05-01T09:03:47Z</time></trkpt><trkpt lat="42.74112688941333" lon="12.757800163286966"><ele>430.0</ele><time>2026-05-01T09:03:48Z</time></trkpt><trkpt lat="42.74097623928217" lon="12.757886905525721"><ele>430.0</ele><time>2026-05-01T09:03:49Z</time></trkpt><trkpt lat="42.740834546828324" lon="12.75811229183673"><ele>437.33333333333337</ele><time>2026-05-01T09:03:50Z</time></trkpt><trkpt lat="42.74071623932766" lon="12.758292217571581"><ele>444.66666666666663</ele><time>2026-05-01T09:03:51Z</time></trkpt><trkpt lat="42.74055651272295" lon="12.758395914705702"><ele>452.0</ele><time>2026-05-01T09:03:52Z</time></trkpt><trkpt lat="42.740334464177664" lon="12.758487710993016"><ele>449.5</ele><time>2026-05-01T09:03:53Z</time></trkpt><trkpt lat="42.74008468392437" lon="12.758575287020845"><ele>447.0</ele><time>2026-05-01T09:03:54Z</time></trkpt><trkpt lat="42.739829629657415" lon="12.758716480589694"><ele>447.0</ele><time>2026-05-01T09:03:55Z</time></trkpt><trkpt lat="42.739567801873704" lon="12.758911801959009"><ele>447.0</ele><time>2026-05-01T09:03:56Z</time></trkpt><trkpt lat="42.73931750649296" lon="12.75911287056288"><ele>449.33333333333337</ele><time>2026-05-01T09:03:57Z</time></trkpt><trkpt lat="42.73913810451925" lon="12.75926082348728"><ele>451.6666666666667</ele><time>2026-05-01T09:03:58Z</time></trkpt><trkpt lat="42.738967973843174" lon="12.75939690447294"><ele>454.0</ele><time>2026-05-01T09:03:59Z</time></trkpt><trkpt lat="42.73881636534986" lon="12.759577883181816"><ele>454.0</ele><time>2026-05-01T09:04:00Z</time></trkpt><trkpt lat="42.73864391646449" lon="12.759768741500231"><ele>454.0</ele><time>2026-05-01T09:04:01Z</time></trkpt><trkpt lat="42.73847335742219" lon="12.759976549044241"><ele>460.0</ele><time>2026-05-01T09:04:02Z</time></trkpt><trkpt lat="42.73850622744911" lon="12.76042883302312"><ele>466.0</ele><time>2026-05-01T09:04:03Z</time></trkpt><trkpt lat="42.73842843172081" lon="12.760624706901798"><ele>466.0</ele><time>2026-05-01T09:04:04Z</time></trkpt><trkpt lat="42.73838837751405" lon="12.760843645335687"><ele>466.0</ele><time>2026-05-01T09:04:05Z</time></trkpt><trkpt lat="42.738408147614514" lon="12.76101399529588"><ele>466.0</ele><time>2026-05-01T09:04:06Z</time></trkpt><trkpt lat="42.738462754786454" lon="12.7611535666796"><ele>466.0</ele><time>2026-05-01T09:04:07Z</time></trkpt><trkpt lat="42.73856310119843" lon="12.761202742098284"><ele>467.5</ele><time>2026-05-01T09:04:08Z</time></trkpt><trkpt lat="42.73868228811463" lon="12.76116277407475"><ele>469.0</ele><time>2026-05-01T09:04:09Z</time></trkpt><trkpt lat="42.738785574320154" lon="12.76106058211244"><ele>470.5</ele><time>2026-05-01T09:04:10Z</time></trkpt><trkpt lat="42.73893256438762" lon="12.760878555663105"><ele>472.0</ele><time>2026-05-01T09:04:11Z</time></trkpt><trkpt lat="42.73910777830276" lon="12.760680428280947"><ele>472.0</ele><time>2026-05-01T09:04:12Z</time></trkpt><trkpt lat="42.73927862999539" lon="12.760490719377938"><ele>472.0</ele><time>2026-05-01T09:04:13Z</time></trkpt><trkpt lat="42.73942944939847" lon="12.760341696995326"><ele>472.0</ele><time>2026-05-01T09:04:14Z</time></trkpt><trkpt lat="42.739599368854456" lon="12.760212828449925"><ele>465.33333333333337</ele><time>2026-05-01T09:04:15Z</time></trkpt><trkpt lat="42.73978900622033" lon="12.760138606320236"><ele>458.66666666666663</ele><time>2026-05-01T09:04:16Z</time></trkpt><trkpt lat="42.739999857714935" lon="12.760106575000654"><ele>452.0</ele><time>2026-05-01T09:04:17Z</time></trkpt><trkpt lat="42.740207478561324" lon="12.760117946704696"><ele>450.0</ele><time>2026-05-01T09:04:18Z</time></trkpt><trkpt lat="42.74040446150751" lon="12.760132745263054"><ele>448.0</ele><time>2026-05-01T09:04:19Z</time></trkpt><trkpt lat="42.74055966712121" lon="12.760210263852816"><ele>446.0</ele><time>2026-05-01T09:04:20Z</time></trkpt><trkpt lat="42.74070490986664" lon="12.760449076348147"><ele>459.0</ele><time>2026-05-01T09:04:21Z</time></trkpt><trkpt lat="42.74093909415897" lon="12.760730555050582"><ele>472.0</ele><time>2026-05-01T09:04:22Z</time></trkpt><trkpt lat="42.74118902205707" lon="12.760741848275261"><ele>472.0</ele><time>2026-05-01T09:04:23Z</time></trkpt><trkpt lat="42.741435740881116" lon="12.760694962595514"><ele>472.0</ele><time>2026-05-01T09:04:24Z</time></trkpt><trkpt lat="42.741617435732756" lon="12.76061320356772"><ele>472.0</ele><time>2026-05-01T09:04:25Z</time></trkpt><trkpt lat="42.74177059302647" lon="12.760461318550245"><ele>469.6666666666667</ele><time>2026-05-01T09:04:26Z</time></trkpt><trkpt lat="42.74189061731525" lon="12.760255536043106"><ele>467.33333333333337</ele><time>2026-05-01T09:04:27Z</time></trkpt><trkpt lat="42.74198166735308" lon="12.76009987487898"><ele>465.0</ele><time>2026-05-01T09:04:28Z</time></trkpt><trkpt lat="42.7420836578419" lon="12.760038761741935"><ele>465.0</ele><time>2026-05-01T09:04:29Z</time></trkpt><trkpt lat="42.742183269383695" lon="12.760061262229614"><ele>465.0</ele><time>2026-05-01T09:04:30Z</time></trkpt><trkpt lat="42.74223808054347" lon="12.760155810634961"><ele>465.0</ele><time>2026-05-01T09:04:31Z</time></trkpt><trkpt lat="42.742267457683006" lon="12.760303076958479"><ele>465.0</ele><time>2026-05-01T09:04:32Z</time></trkpt><trkpt lat="42.742230109360506" lon="12.76047363363637"><ele>465.0</ele><time>2026-05-01T09:04:33Z</time></trkpt><trkpt lat="42.742081434410885" lon="12.760658111207285"><ele>464.5</ele><time>2026-05-01T09:04:34Z</time></trkpt><trkpt lat="42.741894796406555" lon="12.76086505789751"><ele>464.0</ele><time>2026-05-01T09:04:35Z</time></trkpt><trkpt lat="42.74168530497441" lon="12.761060678210681"><ele>467.3333333333333</ele><time>2026-05-01T09:04:36Z</time></trkpt><trkpt lat="42.7415206692947" lon="12.761226417062916"><ele>470.66666666666663</ele><time>2026-05-01T09:04:37Z</time></trkpt><trkpt lat="42.74135522435452" lon="12.761275671088697"><ele>474.0</ele><time>2026-05-01T09:04:38Z</time></trkpt><trkpt lat="42.741183491587655" lon="12.761255076406606"><ele>478.33333333333337</ele><time>2026-05-01T09:04:39Z</time></trkpt><trkpt lat="42.74097137206345" lon="12.761219208604079"><ele>482.6666666666667</ele><time>2026-05-01T09:04:40Z</time></trkpt><trkpt lat="42.74079869337332" lon="12.761215027503095"><ele>487.0</ele><time>2026-05-01T09:04:41Z</time></trkpt><trkpt lat="42.74065305216907" lon="12.761260820795197"><ele>487.0</ele><time>2026-05-01T09:04:42Z</time></trkpt><trkpt lat="42.74054026930224" lon="12.76138798914408"><ele>487.0</ele><time>2026-05-01T09:04:43Z</time></trkpt><trkpt lat="42.74042989405947" lon="12.76161335077208"><ele>487.0</ele><time>2026-05-01T09:04:44Z</time></trkpt><trkpt lat="42.740337857728605" lon="12.761984216803455"><ele>485.0</ele><time>2026-05-01T09:04:45Z</time></trkpt><trkpt lat="42.74026937221839" lon="12.762310870730479"><ele>483.0</ele><time>2026-05-01T09:04:46Z</time></trkpt><trkpt lat="42.74020041508907" lon="12.762632515620846"><ele>494.0</ele><time>2026-05-01T09:04:47Z</time></trkpt><trkpt lat="42.74011913856406" lon="12.762964249313098"><ele>505.0</ele><time>2026-05-01T09:04:48Z</time></trkpt><trkpt lat="42.740066284190874" lon="12.76334600506285"><ele>506.0</ele><time>2026-05-01T09:04:49Z</time></trkpt><trkpt lat="42.73999376910536" lon="12.763709549253035"><ele>507.0</ele><time>2026-05-01T09:04:50Z</time></trkpt><trkpt lat="42.73992660686371" lon="12.764049797255952"><ele>507.0</ele><time>2026-05-01T09:04:51Z</time></trkpt><trkpt lat="42.73987015727546" lon="12.764335828071204"><ele>507.0</ele><time>2026-05-01T09:04:52Z</time></trkpt><trkpt lat="42.73981985099893" lon="12.764565641917425"><ele>507.0</ele><time>2026-05-01T09:04:53Z</time></trkpt><trkpt lat="42.73978120833469" lon="12.76468618662798"><ele>506.5</ele><time>2026-05-01T09:04:54Z</time></trkpt><trkpt lat="42.73972410838789" lon="12.764780123309341"><ele>506.0</ele><time>2026-05-01T09:04:55Z</time></trkpt><trkpt lat="42.73958854660191" lon="12.764749258426086"><ele>505.5</ele><time>2026-05-01T09:04:57Z</time></trkpt><trkpt lat="42.73955856123667" lon="12.764623978458356"><ele>505.0</ele><time>2026-05-01T09:04:58Z</time></trkpt><trkpt lat="42.739586029865166" lon="12.764420816259634"><ele>505.6666666666667</ele><time>2026-05-01T09:04:59Z</time></trkpt><trkpt lat="42.73961863419209" lon="12.764161320443337"><ele>506.33333333333337</ele><time>2026-05-01T09:05:00Z</time></trkpt><trkpt lat="42.73967680123058" lon="12.763878555023336"><ele>507.0</ele><time>2026-05-01T09:05:01Z</time></trkpt><trkpt lat="42.73971501465341" lon="12.763586229445632"><ele>506.6</ele><time>2026-05-01T09:05:02Z</time></trkpt><trkpt lat="42.739731669893835" lon="12.763381837713332"><ele>506.20000000000005</ele><time>2026-05-01T09:05:03Z</time></trkpt><trkpt lat="42.73970464200045" lon="12.763285793495479"><ele>505.8</ele><time>2026-05-01T09:05:04Z</time></trkpt><trkpt lat="42.73964015052781" lon="12.763152707427318"><ele>505.4</ele><time>2026-05-01T09:05:05Z</time></trkpt><trkpt lat="42.73955743290046" lon="12.763105075896087"><ele>505.0</ele><time>2026-05-01T09:05:06Z</time></trkpt><trkpt lat="42.73945804652267" lon="12.763121275036525"><ele>505.0</ele><time>2026-05-01T09:05:07Z</time></trkpt><trkpt lat="42.73939710436725" lon="12.763276015081539"><ele>505.0</ele><time>2026-05-01T09:05:08Z</time></trkpt><trkpt lat="42.739331619142106" lon="12.763527202661033"><ele>505.0</ele><time>2026-05-01T09:05:09Z</time></trkpt><trkpt lat="42.739309409927785" lon="12.763801711808693"><ele>517.0</ele><time>2026-05-01T09:05:10Z</time></trkpt><trkpt lat="42.73927836433943" lon="12.764119500067705"><ele>529.0</ele><time>2026-05-01T09:05:11Z</time></trkpt><trkpt lat="42.73925496408063" lon="12.764486326888292"><ele>529.0</ele><time>2026-05-01T09:05:12Z</time></trkpt><trkpt lat="42.73926116445258" lon="12.76487516440192"><ele>529.0</ele><time>2026-05-01T09:05:13Z</time></trkpt><trkpt lat="42.7393238256429" lon="12.765255762527925"><ele>520.5</ele><time>2026-05-01T09:05:14Z</time></trkpt><trkpt lat="42.739386881754484" lon="12.765595680539937"><ele>512.0</ele><time>2026-05-01T09:05:15Z</time></trkpt><trkpt lat="42.739417117263876" lon="12.765908343540424"><ele>516.3333333333333</ele><time>2026-05-01T09:05:16Z</time></trkpt><trkpt lat="42.73945047585756" lon="12.76616040085923"><ele>520.6666666666666</ele><time>2026-05-01T09:05:17Z</time></trkpt><trkpt lat="42.73948495333241" lon="12.766409506428907"><ele>525.0</ele><time>2026-05-01T09:05:18Z</time></trkpt><trkpt lat="42.73953140512818" lon="12.766639539591356"><ele>525.0</ele><time>2026-05-01T09:05:19Z</time></trkpt><trkpt lat="42.739547846499036" lon="12.766836166644834"><ele>525.0</ele><time>2026-05-01T09:05:20Z</time></trkpt><trkpt lat="42.73958461883125" lon="12.767008091230094"><ele>525.0</ele><time>2026-05-01T09:05:21Z</time></trkpt><trkpt lat="42.73960158968798" lon="12.767188818715297"><ele>525.0</ele><time>2026-05-01T09:05:22Z</time></trkpt><trkpt lat="42.73963501539741" lon="12.767356548229902"><ele>527.3333333333334</ele><time>2026-05-01T09:05:23Z</time></trkpt><trkpt lat="42.739665597103134" lon="12.767543729358179"><ele>529.6666666666667</ele><time>2026-05-01T09:05:24Z</time></trkpt><trkpt lat="42.73970231080789" lon="12.767731040702351"><ele>532.0</ele><time>2026-05-01T09:05:25Z</time></trkpt><trkpt lat="42.739753350511684" lon="12.767974705844145"><ele>533.0</ele><time>2026-05-01T09:05:26Z</time></trkpt><trkpt lat="42.73980363286875" lon="12.768275601305737"><ele>534.0</ele><time>2026-05-01T09:05:27Z</time></trkpt><trkpt lat="42.73987236076285" lon="12.768521438868907"><ele>535.0</ele><time>2026-05-01T09:05:28Z</time></trkpt><trkpt lat="42.739927808911" lon="12.76872343173745"><ele>535.0</ele><time>2026-05-01T09:05:29Z</time></trkpt><trkpt lat="42.73996654128019" lon="12.768913969445533"><ele>535.0</ele><time>2026-05-01T09:05:30Z</time></trkpt><trkpt lat="42.73999480342267" lon="12.769118612002623"><ele>535.0</ele><time>2026-05-01T09:05:31Z</time></trkpt><trkpt lat="42.74000040576129" lon="12.769298153063891"><ele>535.0</ele><time>2026-05-01T09:05:32Z</time></trkpt><trkpt lat="42.739997743154554" lon="12.769476652110887"><ele>535.25</ele><time>2026-05-01T09:05:33Z</time></trkpt><trkpt lat="42.739990651823945" lon="12.769661591569049"><ele>535.5</ele><time>2026-05-01T09:05:34Z</time></trkpt><trkpt lat="42.739988828653885" lon="12.769834656225827"><ele>535.75</ele><time>2026-05-01T09:05:35Z</time></trkpt><trkpt lat="42.739987370771885" lon="12.770007736666168"><ele>536.0</ele><time>2026-05-01T09:05:36Z</time></trkpt><trkpt lat="42.73997852914766" lon="12.770187270711316"><ele>536.75</ele><time>2026-05-01T09:05:37Z</time></trkpt><trkpt lat="42.73996645935444" lon="12.770353883743962"><ele>537.5</ele><time>2026-05-01T09:05:38Z</time></trkpt><trkpt lat="42.73996556785059" lon="12.77051485419669"><ele>538.25</ele><time>2026-05-01T09:05:39Z</time></trkpt><trkpt lat="42.73996626331806" lon="12.77068317478038"><ele>539.0</ele><time>2026-05-01T09:05:40Z</time></trkpt><trkpt lat="42.739971105694295" lon="12.770855580644279"><ele>539.75</ele><time>2026-05-01T09:05:41Z</time></trkpt><trkpt lat="42.73997175519297" lon="12.771037901486496"><ele>540.5</ele><time>2026-05-01T09:05:42Z</time></trkpt><trkpt lat="42.73997467576157" lon="12.771203624750044"><ele>541.25</ele><time>2026-05-01T09:05:43Z</time></trkpt><trkpt lat="42.739995555246814" lon="12.77137774069817"><ele>542.0</ele><time>2026-05-01T09:05:44Z</time></trkpt><trkpt lat="42.740019774688776" lon="12.771607378266973"><ele>541.6666666666666</ele><time>2026-05-01T09:05:45Z</time></trkpt><trkpt lat="42.74004453414882" lon="12.771905447489372"><ele>541.3333333333334</ele><time>2026-05-01T09:05:46Z</time></trkpt><trkpt lat="42.740073519944474" lon="12.772156988551659"><ele>541.0</ele><time>2026-05-01T09:05:47Z</time></trkpt><trkpt lat="42.74009895496241" lon="12.772375742235557"><ele>541.0</ele><time>2026-05-01T09:05:48Z</time></trkpt><trkpt lat="42.740125876232554" lon="12.772575521656249"><ele>541.0</ele><time>2026-05-01T09:05:49Z</time></trkpt><trkpt lat="42.74014945322654" lon="12.772786875866124"><ele>541.0</ele><time>2026-05-01T09:05:50Z</time></trkpt><trkpt lat="42.74018159829863" lon="12.772999490480242"><ele>553.6666666666667</ele><time>2026-05-01T09:05:51Z</time></trkpt><trkpt lat="42.74021727547214" lon="12.773278569163445"><ele>566.3333333333334</ele><time>2026-05-01T09:05:52Z</time></trkpt><trkpt lat="42.740254338830304" lon="12.77359932026754"><ele>579.0</ele><time>2026-05-01T09:05:53Z</time></trkpt><trkpt lat="42.74029682218304" lon="12.773923521787264"><ele>579.0</ele><time>2026-05-01T09:05:54Z</time></trkpt><trkpt lat="42.740325078529125" lon="12.77418775596143"><ele>579.0</ele><time>2026-05-01T09:05:55Z</time></trkpt><trkpt lat="42.74034362467328" lon="12.774414475705901"><ele>579.0</ele><time>2026-05-01T09:05:56Z</time></trkpt><trkpt lat="42.740365640823214" lon="12.774652235763977"><ele>579.0</ele><time>2026-05-01T09:05:57Z</time></trkpt><trkpt lat="42.740373046515735" lon="12.774923892431731"><ele>579.0</ele><time>2026-05-01T09:05:58Z</time></trkpt><trkpt lat="42.74035343908711" lon="12.775217295573444"><ele>579.0</ele><time>2026-05-01T09:05:59Z</time></trkpt><trkpt lat="42.74031314032471" lon="12.77552487963275"><ele>580.5</ele><time>2026-05-01T09:06:00Z</time></trkpt><trkpt lat="42.74026221552373" lon="12.775838810633774"><ele>582.0</ele><time>2026-05-01T09:06:01Z</time></trkpt><trkpt lat="42.740219312431336" lon="12.776167595177219"><ele>567.0</ele><time>2026-05-01T09:06:02Z</time></trkpt><trkpt lat="42.74018950375375" lon="12.77653840350876"><ele>552.0</ele><time>2026-05-01T09:06:03Z</time></trkpt><trkpt lat="42.74019262836019" lon="12.776929089024131"><ele>552.0</ele><time>2026-05-01T09:06:04Z</time></trkpt><trkpt lat="42.740168551896986" lon="12.777358016019987"><ele>552.0</ele><time>2026-05-01T09:06:05Z</time></trkpt><trkpt lat="42.74010982913794" lon="12.777803290639383"><ele>554.5</ele><time>2026-05-01T09:06:06Z</time></trkpt><trkpt lat="42.74006557811673" lon="12.778265833874407"><ele>557.0</ele><time>2026-05-01T09:06:07Z</time></trkpt><trkpt lat="42.74007234315992" lon="12.77873563331127"><ele>557.0</ele><time>2026-05-01T09:06:08Z</time></trkpt><trkpt lat="42.74010626761961" lon="12.779115231246552"><ele>557.0</ele><time>2026-05-01T09:06:09Z</time></trkpt><trkpt lat="42.74012608929845" lon="12.779477119339468"><ele>558.0</ele><time>2026-05-01T09:06:10Z</time></trkpt><trkpt lat="42.740144932767286" lon="12.779794769482752"><ele>559.0</ele><time>2026-05-01T09:06:11Z</time></trkpt><trkpt lat="42.740165226204375" lon="12.780080368783409"><ele>560.0</ele><time>2026-05-01T09:06:12Z</time></trkpt><trkpt lat="42.74019283573442" lon="12.780371727659691"><ele>564.3333333333333</ele><time>2026-05-01T09:06:13Z</time></trkpt><trkpt lat="42.740237277606454" lon="12.780660907873003"><ele>568.6666666666666</ele><time>2026-05-01T09:06:14Z</time></trkpt><trkpt lat="42.7403356894938" lon="12.780904417920286"><ele>573.0</ele><time>2026-05-01T09:06:15Z</time></trkpt><trkpt lat="42.74047184127443" lon="12.78113777276667"><ele>573.0</ele><time>2026-05-01T09:06:16Z</time></trkpt><trkpt lat="42.74062481633374" lon="12.78138856111293"><ele>573.0</ele><time>2026-05-01T09:06:17Z</time></trkpt><trkpt lat="42.740769277721974" lon="12.781699220313019"><ele>570.5</ele><time>2026-05-01T09:06:18Z</time></trkpt><trkpt lat="42.740893643839286" lon="12.782045225374594"><ele>568.0</ele><time>2026-05-01T09:06:19Z</time></trkpt><trkpt lat="42.74097974974635" lon="12.782432464588133"><ele>567.5</ele><time>2026-05-01T09:06:20Z</time></trkpt><trkpt lat="42.74105105874746" lon="12.782787579150705"><ele>567.0</ele><time>2026-05-01T09:06:21Z</time></trkpt><trkpt lat="42.741100323320644" lon="12.783083205594723"><ele>567.0</ele><time>2026-05-01T09:06:22Z</time></trkpt><trkpt lat="42.7411388856831" lon="12.783336507035093"><ele>567.0</ele><time>2026-05-01T09:06:23Z</time></trkpt><trkpt lat="42.74118671995469" lon="12.783540733955991"><ele>567.0</ele><time>2026-05-01T09:06:24Z</time></trkpt><trkpt lat="42.74126205206661" lon="12.783751861322198"><ele>571.0</ele><time>2026-05-01T09:06:25Z</time></trkpt><trkpt lat="42.74138487312842" lon="12.783919394912113"><ele>575.0</ele><time>2026-05-01T09:06:26Z</time></trkpt><trkpt lat="42.74157666427948" lon="12.78404073350371"><ele>579.0</ele><time>2026-05-01T09:06:27Z</time></trkpt><trkpt lat="42.74179040187105" lon="12.78411684613579"><ele>576.0</ele><time>2026-05-01T09:06:28Z</time></trkpt><trkpt lat="42.742022091472556" lon="12.78424090148215"><ele>573.0</ele><time>2026-05-01T09:06:29Z</time></trkpt><trkpt lat="42.7422480824049" lon="12.784232959431774"><ele>573.0</ele><time>2026-05-01T09:06:30Z</time></trkpt><trkpt lat="42.742406084571634" lon="12.784259010663888"><ele>573.0</ele><time>2026-05-01T09:06:31Z</time></trkpt><trkpt lat="42.7425251707803" lon="12.784287183839366"><ele>573.0</ele><time>2026-05-01T09:06:32Z</time></trkpt><trkpt lat="42.74262312513528" lon="12.784319249488332"><ele>573.0</ele><time>2026-05-01T09:06:33Z</time></trkpt><trkpt lat="42.74266924777978" lon="12.784421518060777"><ele>584.6666666666666</ele><time>2026-05-01T09:06:34Z</time></trkpt><trkpt lat="42.742559086637854" lon="12.784602823166109"><ele>596.3333333333333</ele><time>2026-05-01T09:06:36Z</time></trkpt><trkpt lat="42.742452065154914" lon="12.784624140368717"><ele>608.0</ele><time>2026-05-01T09:06:37Z</time></trkpt><trkpt lat="42.74225778793514" lon="12.784503607910194"><ele>608.0</ele><time>2026-05-01T09:06:38Z</time></trkpt><trkpt lat="42.74207760821681" lon="12.784448894371225"><ele>608.0</ele><time>2026-05-01T09:06:39Z</time></trkpt><trkpt lat="42.741858080538584" lon="12.784448175482183"><ele>608.0</ele><time>2026-05-01T09:06:40Z</time></trkpt><trkpt lat="42.741610304702334" lon="12.784459474931161"><ele>606.0</ele><time>2026-05-01T09:06:41Z</time></trkpt><trkpt lat="42.7414110197173" lon="12.784480389469492"><ele>604.0</ele><time>2026-05-01T09:06:42Z</time></trkpt><trkpt lat="42.7412463756815" lon="12.784536702186594"><ele>602.0</ele><time>2026-05-01T09:06:43Z</time></trkpt><trkpt lat="42.74110079827119" lon="12.78466810890373"><ele>596.5</ele><time>2026-05-01T09:06:44Z</time></trkpt><trkpt lat="42.74095317901099" lon="12.784881805779527"><ele>591.0</ele><time>2026-05-01T09:06:45Z</time></trkpt><trkpt lat="42.740805395353654" lon="12.78514841705433"><ele>595.6666666666666</ele><time>2026-05-01T09:06:46Z</time></trkpt><trkpt lat="42.74066738551372" lon="12.785422833903564"><ele>600.3333333333333</ele><time>2026-05-01T09:06:47Z</time></trkpt><trkpt lat="42.740547033811445" lon="12.785640963453746"><ele>605.0</ele><time>2026-05-01T09:06:48Z</time></trkpt><trkpt lat="42.74041879752167" lon="12.785756893959585"><ele>605.0</ele><time>2026-05-01T09:06:49Z</time></trkpt><trkpt lat="42.7402435024796" lon="12.78578488807628"><ele>605.0</ele><time>2026-05-01T09:06:50Z</time></trkpt><trkpt lat="42.74003585585634" lon="12.78586010608997"><ele>605.0</ele><time>2026-05-01T09:06:51Z</time></trkpt><trkpt lat="42.739853149054454" lon="12.78599768593772"><ele>608.0</ele><time>2026-05-01T09:06:52Z</time></trkpt><trkpt lat="42.73968832801234" lon="12.786165707942315"><ele>611.0</ele><time>2026-05-01T09:06:53Z</time></trkpt><trkpt lat="42.73957187735023" lon="12.786453539018202"><ele>614.0</ele><time>2026-05-01T09:06:54Z</time></trkpt><trkpt lat="42.73954104066657" lon="12.78672691060198"><ele>617.0</ele><time>2026-05-01T09:06:55Z</time></trkpt><trkpt lat="42.73958165782395" lon="12.7870344811209"><ele>620.0</ele><time>2026-05-01T09:06:56Z</time></trkpt><trkpt lat="42.739674281477825" lon="12.787365567333312"><ele>621.0</ele><time>2026-05-01T09:06:57Z</time></trkpt><trkpt lat="42.739787269160665" lon="12.7877010209184"><ele>622.0</ele><time>2026-05-01T09:06:58Z</time></trkpt><trkpt lat="42.7399083715824" lon="12.788025223402457"><ele>622.0</ele><time>2026-05-01T09:06:59Z</time></trkpt><trkpt lat="42.739994512740196" lon="12.78824726003803"><ele>622.0</ele><time>2026-05-01T09:07:00Z</time></trkpt><trkpt lat="42.740066189631364" lon="12.788402769166359"><ele>622.0</ele><time>2026-05-01T09:07:01Z</time></trkpt><trkpt lat="42.74010460460996" lon="12.78850006611868"><ele>622.0</ele><time>2026-05-01T09:07:02Z</time></trkpt><trkpt lat="42.74034063387915" lon="12.788361510980083"><ele>622.0</ele><time>2026-05-01T09:07:04Z</time></trkpt><trkpt lat="42.74035201006695" lon="12.788179021393397"><ele>622.0</ele><time>2026-05-01T09:07:05Z</time></trkpt><trkpt lat="42.74031921953595" lon="12.788001647944577"><ele>622.0</ele><time>2026-05-01T09:07:06Z</time></trkpt><trkpt lat="42.74020234177116" lon="12.787793976751516"><ele>621.3333333333334</ele><time>2026-05-01T09:07:07Z</time></trkpt><trkpt lat="42.740066286145826" lon="12.787550527808246"><ele>620.6666666666666</ele><time>2026-05-01T09:07:08Z</time></trkpt><trkpt lat="42.739989651234815" lon="12.78730920658878"><ele>620.0</ele><time>2026-05-01T09:07:09Z</time></trkpt><trkpt lat="42.73998155342119" lon="12.787120735047711"><ele>620.0</ele><time>2026-05-01T09:07:10Z</time></trkpt><trkpt lat="42.73999803641327" lon="12.786929931214"><ele>620.0</ele><time>2026-05-01T09:07:11Z</time></trkpt><trkpt lat="42.74009667984218" lon="12.786765460575301"><ele>620.0</ele><time>2026-05-01T09:07:12Z</time></trkpt><trkpt lat="42.74025852755351" lon="12.786654707685246"><ele>621.6666666666666</ele><time>2026-05-01T09:07:13Z</time></trkpt><trkpt lat="42.74045927004455" lon="12.78661789714672"><ele>623.3333333333334</ele><time>2026-05-01T09:07:14Z</time></trkpt><trkpt lat="42.740683775332734" lon="12.786610678805264"><ele>625.0</ele><time>2026-05-01T09:07:15Z</time></trkpt><trkpt lat="42.740941204792065" lon="12.78662268126661"><ele>629.0</ele><time>2026-05-01T09:07:16Z</time></trkpt><trkpt lat="42.741173126319346" lon="12.786679063128073"><ele>633.0</ele><time>2026-05-01T09:07:17Z</time></trkpt><trkpt lat="42.741416803385334" lon="12.786724870530877"><ele>633.0</ele><time>2026-05-01T09:07:18Z</time></trkpt><trkpt lat="42.741623086441784" lon="12.786737375704444"><ele>633.0</ele><time>2026-05-01T09:07:19Z</time></trkpt><trkpt lat="42.741774084179035" lon="12.78669333570459"><ele>633.0</ele><time>2026-05-01T09:07:20Z</time></trkpt><trkpt lat="42.741897965156156" lon="12.786545195035986"><ele>633.6666666666666</ele><time>2026-05-01T09:07:21Z</time></trkpt><trkpt lat="42.74200778097941" lon="12.786334878241247"><ele>634.3333333333333</ele><time>2026-05-01T09:07:22Z</time></trkpt><trkpt lat="42.742119069072274" lon="12.786134438352848"><ele>635.0</ele><time>2026-05-01T09:07:23Z</time></trkpt><trkpt lat="42.742258195171615" lon="12.785941343724907"><ele>635.0</ele><time>2026-05-01T09:07:24Z</time></trkpt><trkpt lat="42.74248301478655" lon="12.785852709602127"><ele>635.0</ele><time>2026-05-01T09:07:25Z</time></trkpt><trkpt lat="42.74272848411663" lon="12.785807687103768"><ele>637.5</ele><time>2026-05-01T09:07:26Z</time></trkpt><trkpt lat="42.742988421630216" lon="12.785813911281581"><ele>640.0</ele><time>2026-05-01T09:07:27Z</time></trkpt><trkpt lat="42.74324055484452" lon="12.785896879213773"><ele>640.0</ele><time>2026-05-01T09:07:28Z</time></trkpt><trkpt lat="42.7435204026433" lon="12.785985914588094"><ele>640.0</ele><time>2026-05-01T09:07:29Z</time></trkpt><trkpt lat="42.74373838714412" lon="12.786129130951219"><ele>646.5</ele><time>2026-05-01T09:07:30Z</time></trkpt><trkpt lat="42.74394839988584" lon="12.786340051259277"><ele>653.0</ele><time>2026-05-01T09:07:31Z</time></trkpt><trkpt lat="42.744138327576934" lon="12.786603206252744"><ele>653.0</ele><time>2026-05-01T09:07:32Z</time></trkpt><trkpt lat="42.74433626945211" lon="12.786871393088456"><ele>653.0</ele><time>2026-05-01T09:07:33Z</time></trkpt><trkpt lat="42.744561686075926" lon="12.787095727604456"><ele>653.0</ele><time>2026-05-01T09:07:34Z</time></trkpt><trkpt lat="42.7448012142339" lon="12.787317974471959"><ele>653.0</ele><time>2026-05-01T09:07:35Z</time></trkpt><trkpt lat="42.74500416460742" lon="12.787569570377448"><ele>659.6666666666666</ele><time>2026-05-01T09:07:36Z</time></trkpt><trkpt lat="42.7451527107248" lon="12.787791185999309"><ele>666.3333333333334</ele><time>2026-05-01T09:07:37Z</time></trkpt><trkpt lat="42.74528824754139" lon="12.78796753600932"><ele>673.0</ele><time>2026-05-01T09:07:38Z</time></trkpt><trkpt lat="42.74540081815863" lon="12.788119489633454"><ele>673.0</ele><time>2026-05-01T09:07:39Z</time></trkpt><trkpt lat="42.745496718436364" lon="12.78821863990508"><ele>673.0</ele><time>2026-05-01T09:07:40Z</time></trkpt><trkpt lat="42.74556770033997" lon="12.788292025316904"><ele>673.0</ele><time>2026-05-01T09:07:41Z</time></trkpt><trkpt lat="42.74577096406496" lon="12.788135810055161"><ele>673.0</ele><time>2026-05-01T09:07:42Z</time></trkpt><trkpt lat="42.74593889970164" lon="12.787962709178474"><ele>675.6666666666667</ele><time>2026-05-01T09:07:43Z</time></trkpt><trkpt lat="42.74611423448494" lon="12.787752397472966"><ele>678.3333333333334</ele><time>2026-05-01T09:07:44Z</time></trkpt><trkpt lat="42.74628334095744" lon="12.787615953623527"><ele>681.0</ele><time>2026-05-01T09:07:45Z</time></trkpt><trkpt lat="42.74644125835724" lon="12.787533576971246"><ele>674.0</ele><time>2026-05-01T09:07:46Z</time></trkpt><trkpt lat="42.74660655460918" lon="12.787521360571901"><ele>667.0</ele><time>2026-05-01T09:07:47Z</time></trkpt><trkpt lat="42.74673752702656" lon="12.787631081677572"><ele>660.0</ele><time>2026-05-01T09:07:48Z</time></trkpt><trkpt lat="42.74689576834945" lon="12.787784609633055"><ele>656.5</ele><time>2026-05-01T09:07:49Z</time></trkpt><trkpt lat="42.74704499247781" lon="12.787980805278728"><ele>653.0</ele><time>2026-05-01T09:07:50Z</time></trkpt><trkpt lat="42.74722272424543" lon="12.788307586565129"><ele>660.5</ele><time>2026-05-01T09:07:51Z</time></trkpt><trkpt lat="42.747316402338114" lon="12.788645648566353"><ele>668.0</ele><time>2026-05-01T09:07:52Z</time></trkpt><trkpt lat="42.74736663251885" lon="12.789000434497602"><ele>676.0</ele><time>2026-05-01T09:07:53Z</time></trkpt><trkpt lat="42.74743778848016" lon="12.78937815035762"><ele>684.0</ele><time>2026-05-01T09:07:54Z</time></trkpt><trkpt lat="42.74752234625729" lon="12.789712954512442"><ele>684.0</ele><time>2026-05-01T09:07:55Z</time></trkpt><trkpt lat="42.74757893070376" lon="12.790003015322089"><ele>684.0</ele><time>2026-05-01T09:07:56Z</time></trkpt><trkpt lat="42.747631345733" lon="12.790260264068534"><ele>684.0</ele><time>2026-05-01T09:07:57Z</time></trkpt><trkpt lat="42.74770138808052" lon="12.790488323176424"><ele>684.0</ele><time>2026-05-01T09:07:58Z</time></trkpt><trkpt lat="42.74777933334551" lon="12.79072429394049"><ele>684.0</ele><time>2026-05-01T09:07:59Z</time></trkpt><trkpt lat="42.74787246363026" lon="12.790946146182279"><ele>684.0</ele><time>2026-05-01T09:08:00Z</time></trkpt><trkpt lat="42.74797330790951" lon="12.791160615926973"><ele>684.0</ele><time>2026-05-01T09:08:01Z</time></trkpt><trkpt lat="42.74809750819346" lon="12.791368512021998"><ele>684.0</ele><time>2026-05-01T09:08:02Z</time></trkpt><trkpt lat="42.748236666313275" lon="12.791559892471907"><ele>684.0</ele><time>2026-05-01T09:08:03Z</time></trkpt><trkpt lat="42.74837536609176" lon="12.79173370873607"><ele>682.0</ele><time>2026-05-01T09:08:04Z</time></trkpt><trkpt lat="42.74850554614215" lon="12.791892639163217"><ele>680.0</ele><time>2026-05-01T09:08:05Z</time></trkpt><trkpt lat="42.74861148900292" lon="12.79205634281008"><ele>678.0</ele><time>2026-05-01T09:08:06Z</time></trkpt><trkpt lat="42.748708387784596" lon="12.792193474137498"><ele>678.0</ele><time>2026-05-01T09:08:07Z</time></trkpt><trkpt lat="42.748788360274226" lon="12.792313733379638"><ele>678.0</ele><time>2026-05-01T09:08:08Z</time></trkpt><trkpt lat="42.74886096481254" lon="12.792427043625919"><ele>678.0</ele><time>2026-05-01T09:08:09Z</time></trkpt><trkpt lat="42.748942326290845" lon="12.79255465900474"><ele>678.0</ele><time>2026-05-01T09:08:10Z</time></trkpt><trkpt lat="42.74903546958672" lon="12.79267303761647"><ele>683.5</ele><time>2026-05-01T09:08:11Z</time></trkpt><trkpt lat="42.74910206542047" lon="12.792828490276367"><ele>689.0</ele><time>2026-05-01T09:08:12Z</time></trkpt><trkpt lat="42.74918655986862" lon="12.792981548020915"><ele>694.5</ele><time>2026-05-01T09:08:13Z</time></trkpt><trkpt lat="42.74926747450193" lon="12.793146099023295"><ele>700.0</ele><time>2026-05-01T09:08:14Z</time></trkpt><trkpt lat="42.74935067957649" lon="12.793303235019934"><ele>698.0</ele><time>2026-05-01T09:08:15Z</time></trkpt><trkpt lat="42.749438379277095" lon="12.793472897684207"><ele>696.0</ele><time>2026-05-01T09:08:16Z</time></trkpt><trkpt lat="42.74954171876223" lon="12.793676856857966"><ele>694.0</ele><time>2026-05-01T09:08:17Z</time></trkpt><trkpt lat="42.749680863688546" lon="12.793923841761313"><ele>694.0</ele><time>2026-05-01T09:08:18Z</time></trkpt><trkpt lat="42.749786375840024" lon="12.794128707727095"><ele>694.0</ele><time>2026-05-01T09:08:19Z</time></trkpt><trkpt lat="42.74987670674286" lon="12.794306263130196"><ele>694.0</ele><time>2026-05-01T09:08:20Z</time></trkpt><trkpt lat="42.74993390032301" lon="12.794508329950677"><ele>696.0</ele><time>2026-05-01T09:08:21Z</time></trkpt><trkpt lat="42.749969968883455" lon="12.794720550811176"><ele>698.0</ele><time>2026-05-01T09:08:22Z</time></trkpt><trkpt lat="42.74994672380443" lon="12.794947888368227"><ele>700.0</ele><time>2026-05-01T09:08:23Z</time></trkpt><trkpt lat="42.74995350500838" lon="12.795173174110104"><ele>701.0</ele><time>2026-05-01T09:08:24Z</time></trkpt><trkpt lat="42.7499658617871" lon="12.795405424032413"><ele>702.0</ele><time>2026-05-01T09:08:25Z</time></trkpt><trkpt lat="42.75000828372666" lon="12.795629305388434"><ele>703.0</ele><time>2026-05-01T09:08:26Z</time></trkpt><trkpt lat="42.75003328637851" lon="12.795875144923041"><ele>705.6666666666667</ele><time>2026-05-01T09:08:27Z</time></trkpt><trkpt lat="42.750047848336656" lon="12.796127325184578"><ele>708.3333333333334</ele><time>2026-05-01T09:08:28Z</time></trkpt><trkpt lat="42.75002782061949" lon="12.796331873144801"><ele>711.0</ele><time>2026-05-01T09:08:29Z</time></trkpt><trkpt lat="42.749983103087615" lon="12.796557215535385"><ele>711.0</ele><time>2026-05-01T09:08:30Z</time></trkpt><trkpt lat="42.74996373326225" lon="12.796801979109333"><ele>711.0</ele><time>2026-05-01T09:08:31Z</time></trkpt><trkpt lat="42.74993712707832" lon="12.797052326735898"><ele>711.0</ele><time>2026-05-01T09:08:32Z</time></trkpt><trkpt lat="42.74999488940221" lon="12.797333846548073"><ele>716.0</ele><time>2026-05-01T09:08:33Z</time></trkpt><trkpt lat="42.75007438098806" lon="12.797617270937131"><ele>721.0</ele><time>2026-05-01T09:08:34Z</time></trkpt><trkpt lat="42.750189852172966" lon="12.797903465040372"><ele>718.5</ele><time>2026-05-01T09:08:35Z</time></trkpt><trkpt lat="42.75030368847017" lon="12.798212916776885"><ele>716.0</ele><time>2026-05-01T09:08:36Z</time></trkpt><trkpt lat="42.750400893548864" lon="12.798529840640184"><ele>716.0</ele><time>2026-05-01T09:08:37Z</time></trkpt><trkpt lat="42.75049696592527" lon="12.798854734885836"><ele>716.0</ele><time>2026-05-01T09:08:38Z</time></trkpt><trkpt lat="42.75062184054639" lon="12.799115195749584"><ele>716.0</ele><time>2026-05-01T09:08:39Z</time></trkpt><trkpt lat="42.75080328862104" lon="12.799322628246346"><ele>716.0</ele><time>2026-05-01T09:08:40Z</time></trkpt><trkpt lat="42.75098454196081" lon="12.79954590408004"><ele>715.0</ele><time>2026-05-01T09:08:41Z</time></trkpt><trkpt lat="42.75115795349053" lon="12.799800086642959"><ele>714.0</ele><time>2026-05-01T09:08:42Z</time></trkpt><trkpt lat="42.7513194765279" lon="12.80005529034975"><ele>720.5</ele><time>2026-05-01T09:08:43Z</time></trkpt><trkpt lat="42.751458797033415" lon="12.800360407106481"><ele>727.0</ele><time>2026-05-01T09:08:44Z</time></trkpt><trkpt lat="42.75160958381458" lon="12.800700467551602"><ele>727.0</ele><time>2026-05-01T09:08:45Z</time></trkpt><trkpt lat="42.75175282850923" lon="12.800926197891176"><ele>727.0</ele><time>2026-05-01T09:08:46Z</time></trkpt><trkpt lat="42.75192034110646" lon="12.801096463081164"><ele>727.0</ele><time>2026-05-01T09:08:47Z</time></trkpt><trkpt lat="42.752094471785036" lon="12.801232889610501"><ele>727.3333333333334</ele><time>2026-05-01T09:08:48Z</time></trkpt><trkpt lat="42.75222126209184" lon="12.801405288695422"><ele>727.6666666666666</ele><time>2026-05-01T09:08:49Z</time></trkpt><trkpt lat="42.7523244633592" lon="12.801620435177686"><ele>728.0</ele><time>2026-05-01T09:08:50Z</time></trkpt><trkpt lat="42.75241130081713" lon="12.801883342559114"><ele>728.0</ele><time>2026-05-01T09:08:51Z</time></trkpt><trkpt lat="42.752503609093694" lon="12.802191790426319"><ele>728.0</ele><time>2026-05-01T09:08:52Z</time></trkpt><trkpt lat="42.752602177422716" lon="12.802533835518735"><ele>729.0</ele><time>2026-05-01T09:08:53Z</time></trkpt><trkpt lat="42.75272100689567" lon="12.802895992536135"><ele>730.0</ele><time>2026-05-01T09:08:54Z</time></trkpt><trkpt lat="42.75286355315832" lon="12.803274493921874"><ele>725.0</ele><time>2026-05-01T09:08:55Z</time></trkpt><trkpt lat="42.75300463319167" lon="12.803652192094482"><ele>720.0</ele><time>2026-05-01T09:08:56Z</time></trkpt><trkpt lat="42.75312520354797" lon="12.803934498937393"><ele>720.0</ele><time>2026-05-01T09:08:57Z</time></trkpt><trkpt lat="42.753233355270545" lon="12.804191733319247"><ele>720.0</ele><time>2026-05-01T09:08:58Z</time></trkpt><trkpt lat="42.753334890661556" lon="12.804423312045442"><ele>720.0</ele><time>2026-05-01T09:08:59Z</time></trkpt><trkpt lat="42.753421218187675" lon="12.80460187401468"><ele>719.75</ele><time>2026-05-01T09:09:00Z</time></trkpt><trkpt lat="42.75349476029074" lon="12.804741806412366"><ele>719.5</ele><time>2026-05-01T09:09:01Z</time></trkpt><trkpt lat="42.753575185396244" lon="12.804894835442514"><ele>719.25</ele><time>2026-05-01T09:09:02Z</time></trkpt><trkpt lat="42.75361061751882" lon="12.805034814534993"><ele>719.0</ele><time>2026-05-01T09:09:03Z</time></trkpt><trkpt lat="42.75355949451681" lon="12.805225353114604"><ele>720.0</ele><time>2026-05-01T09:09:04Z</time></trkpt><trkpt lat="42.75346671654655" lon="12.805390526242165"><ele>721.0</ele><time>2026-05-01T09:09:05Z</time></trkpt><trkpt lat="42.75331725813857" lon="12.805621000478364"><ele>722.0</ele><time>2026-05-01T09:09:06Z</time></trkpt><trkpt lat="42.75316692956464" lon="12.805877983064137"><ele>726.0</ele><time>2026-05-01T09:09:07Z</time></trkpt><trkpt lat="42.75302807203412" lon="12.806171359020926"><ele>730.0</ele><time>2026-05-01T09:09:08Z</time></trkpt><trkpt lat="42.752882831491355" lon="12.80645886109981"><ele>730.0</ele><time>2026-05-01T09:09:09Z</time></trkpt><trkpt lat="42.752756045773964" lon="12.806707118901041"><ele>730.0</ele><time>2026-05-01T09:09:10Z</time></trkpt><trkpt lat="42.75267301839843" lon="12.80697029456693"><ele>730.0</ele><time>2026-05-01T09:09:11Z</time></trkpt><trkpt lat="42.75264168235023" lon="12.807274624275426"><ele>714.0</ele><time>2026-05-01T09:09:12Z</time></trkpt><trkpt lat="42.75264188157321" lon="12.80761439367622"><ele>698.0</ele><time>2026-05-01T09:09:13Z</time></trkpt><trkpt lat="42.752634404635394" lon="12.80794997818749"><ele>698.0</ele><time>2026-05-01T09:09:14Z</time></trkpt><trkpt lat="42.752587993532785" lon="12.8082932753806"><ele>698.0</ele><time>2026-05-01T09:09:15Z</time></trkpt><trkpt lat="42.75250715957667" lon="12.80865829920808"><ele>699.5</ele><time>2026-05-01T09:09:16Z</time></trkpt><trkpt lat="42.7524074617096" lon="12.809045154781309"><ele>701.0</ele><time>2026-05-01T09:09:17Z</time></trkpt><trkpt lat="42.75229537097552" lon="12.809453897108547"><ele>708.0</ele><time>2026-05-01T09:09:18Z</time></trkpt><trkpt lat="42.75215259629999" lon="12.809853369489701"><ele>715.0</ele><time>2026-05-01T09:09:19Z</time></trkpt><trkpt lat="42.75203426048931" lon="12.810169941536156"><ele>718.5</ele><time>2026-05-01T09:09:20Z</time></trkpt><trkpt lat="42.75194692176823" lon="12.810487825296605"><ele>722.0</ele><time>2026-05-01T09:09:21Z</time></trkpt><trkpt lat="42.75189134506574" lon="12.810832589140434"><ele>698.5</ele><time>2026-05-01T09:09:22Z</time></trkpt><trkpt lat="42.7518556395588" lon="12.811149018568395"><ele>675.0</ele><time>2026-05-01T09:09:23Z</time></trkpt><trkpt lat="42.751814637914244" lon="12.811438971933335"><ele>675.0</ele><time>2026-05-01T09:09:24Z</time></trkpt><trkpt lat="42.75174619049962" lon="12.811698367225855"><ele>675.0</ele><time>2026-05-01T09:09:25Z</time></trkpt><trkpt lat="42.75168351314323" lon="12.811944377371862"><ele>675.0</ele><time>2026-05-01T09:09:26Z</time></trkpt><trkpt lat="42.75166063488611" lon="12.812204355228749"><ele>674.3333333333334</ele><time>2026-05-01T09:09:27Z</time></trkpt><trkpt lat="42.75168642085641" lon="12.812444958499244"><ele>673.6666666666667</ele><time>2026-05-01T09:09:28Z</time></trkpt><trkpt lat="42.75175202094428" lon="12.812670207987308"><ele>673.0</ele><time>2026-05-01T09:09:29Z</time></trkpt><trkpt lat="42.7518646375674" lon="12.812866969211784"><ele>674.6666666666667</ele><time>2026-05-01T09:09:30Z</time></trkpt><trkpt lat="42.75204256318701" lon="12.81301830392421"><ele>676.3333333333334</ele><time>2026-05-01T09:09:31Z</time></trkpt><trkpt lat="42.75225182197268" lon="12.8131210613109"><ele>678.0</ele><time>2026-05-01T09:09:32Z</time></trkpt><trkpt lat="42.752414439598155" lon="12.813189119868696"><ele>678.0</ele><time>2026-05-01T09:09:33Z</time></trkpt><trkpt lat="42.752569925293855" lon="12.813326971487394"><ele>678.0</ele><time>2026-05-01T09:09:34Z</time></trkpt><trkpt lat="42.75267203521371" lon="12.813509003410218"><ele>678.0</ele><time>2026-05-01T09:09:35Z</time></trkpt><trkpt lat="42.75271551309369" lon="12.813728572394048"><ele>674.75</ele><time>2026-05-01T09:09:36Z</time></trkpt><trkpt lat="42.752699054439006" lon="12.813931093669853"><ele>671.5</ele><time>2026-05-01T09:09:37Z</time></trkpt><trkpt lat="42.75272284001605" lon="12.814118724725613"><ele>668.25</ele><time>2026-05-01T09:09:38Z</time></trkpt><trkpt lat="42.752790718006" lon="12.814264942205625"><ele>665.0</ele><time>2026-05-01T09:09:39Z</time></trkpt><trkpt lat="42.75289518417106" lon="12.814324557420177"><ele>665.0</ele><time>2026-05-01T09:09:40Z</time></trkpt><trkpt lat="42.75302736063424" lon="12.814306337456554"><ele>665.0</ele><time>2026-05-01T09:09:41Z</time></trkpt><trkpt lat="42.75319779227116" lon="12.814208925487565"><ele>665.0</ele><time>2026-05-01T09:09:42Z</time></trkpt><trkpt lat="42.753394146811395" lon="12.814053666065014"><ele>660.0</ele><time>2026-05-01T09:09:43Z</time></trkpt><trkpt lat="42.75363329194144" lon="12.813938188067532"><ele>655.0</ele><time>2026-05-01T09:09:44Z</time></trkpt><trkpt lat="42.753886109770804" lon="12.813872524459319"><ele>655.0</ele><time>2026-05-01T09:09:45Z</time></trkpt><trkpt lat="42.75411368417535" lon="12.813880685259878"><ele>655.0</ele><time>2026-05-01T09:09:46Z</time></trkpt><trkpt lat="42.754305765142405" lon="12.813932827415055"><ele>655.0</ele><time>2026-05-01T09:09:47Z</time></trkpt><trkpt lat="42.754493010932244" lon="12.81392830578737"><ele>657.6666666666667</ele><time>2026-05-01T09:09:48Z</time></trkpt><trkpt lat="42.754649862329714" lon="12.813856012378688"><ele>660.3333333333334</ele><time>2026-05-01T09:09:49Z</time></trkpt><trkpt lat="42.7547715676808" lon="12.813650934092125"><ele>663.0</ele><time>2026-05-01T09:09:50Z</time></trkpt><trkpt lat="42.75489338509463" lon="12.813381646914163"><ele>663.0</ele><time>2026-05-01T09:09:51Z</time></trkpt><trkpt lat="42.75495944464642" lon="12.813122768100198"><ele>663.0</ele><time>2026-05-01T09:09:52Z</time></trkpt><trkpt lat="42.75499111462952" lon="12.81293221362111"><ele>663.0</ele><time>2026-05-01T09:09:53Z</time></trkpt><trkpt lat="42.75502598535236" lon="12.812794177088323"><ele>663.0</ele><time>2026-05-01T09:09:54Z</time></trkpt><trkpt lat="42.75508934654313" lon="12.81270799761588"><ele>663.0</ele><time>2026-05-01T09:09:55Z</time></trkpt><trkpt lat="42.75518057338031" lon="12.812696085818002"><ele>663.0</ele><time>2026-05-01T09:09:56Z</time></trkpt><trkpt lat="42.75526954744268" lon="12.812783498789106"><ele>663.0</ele><time>2026-05-01T09:09:57Z</time></trkpt><trkpt lat="42.755369653383774" lon="12.81293056166182"><ele>663.0</ele><time>2026-05-01T09:09:58Z</time></trkpt><trkpt lat="42.75546643001022" lon="12.813147815170696"><ele>662.5</ele><time>2026-05-01T09:09:59Z</time></trkpt><trkpt lat="42.75562190923844" lon="12.813371045089564"><ele>662.0</ele><time>2026-05-01T09:10:00Z</time></trkpt><trkpt lat="42.7558229384811" lon="12.813528775499442"><ele>659.0</ele><time>2026-05-01T09:10:01Z</time></trkpt><trkpt lat="42.75606081580416" lon="12.813675162713315"><ele>656.0</ele><time>2026-05-01T09:10:02Z</time></trkpt><trkpt lat="42.75626274656278" lon="12.813801934593215"><ele>656.0</ele><time>2026-05-01T09:10:03Z</time></trkpt><trkpt lat="42.75642430418441" lon="12.813904690724032"><ele>656.0</ele><time>2026-05-01T09:10:04Z</time></trkpt><trkpt lat="42.75655231551693" lon="12.813993994398874"><ele>656.0</ele><time>2026-05-01T09:10:05Z</time></trkpt><trkpt lat="42.75666714914438" lon="12.81409441912654"><ele>656.0</ele><time>2026-05-01T09:10:06Z</time></trkpt><trkpt lat="42.75672060163356" lon="12.814242327864248"><ele>656.0</ele><time>2026-05-01T09:10:07Z</time></trkpt><trkpt lat="42.75670413027936" lon="12.814379678630639"><ele>656.0</ele><time>2026-05-01T09:10:08Z</time></trkpt><trkpt lat="42.7566677219498" lon="12.814502350116289"><ele>656.0</ele><time>2026-05-01T09:10:09Z</time></trkpt><trkpt lat="42.75652685574984" lon="12.814572026840532"><ele>660.6666666666666</ele><time>2026-05-01T09:10:10Z</time></trkpt><trkpt lat="42.75634675544729" lon="12.814697276148852"><ele>665.3333333333334</ele><time>2026-05-01T09:10:11Z</time></trkpt><trkpt lat="42.756142077798266" lon="12.814862592769499"><ele>670.0</ele><time>2026-05-01T09:10:12Z</time></trkpt><trkpt lat="42.75593481626014" lon="12.81505975234441"><ele>667.5</ele><time>2026-05-01T09:10:13Z</time></trkpt><trkpt lat="42.75572285797142" lon="12.815275287329346"><ele>665.0</ele><time>2026-05-01T09:10:14Z</time></trkpt><trkpt lat="42.75552046917247" lon="12.8155119060354"><ele>665.0</ele><time>2026-05-01T09:10:15Z</time></trkpt><trkpt lat="42.755303021918024" lon="12.815754247089476"><ele>665.0</ele><time>2026-05-01T09:10:16Z</time></trkpt><trkpt lat="42.75511962305368" lon="12.815994384823195"><ele>653.0</ele><time>2026-05-01T09:10:17Z</time></trkpt><trkpt lat="42.75496909587787" lon="12.816263476776728"><ele>641.0</ele><time>2026-05-01T09:10:18Z</time></trkpt><trkpt lat="42.75486074835184" lon="12.816523834924345"><ele>645.5</ele><time>2026-05-01T09:10:19Z</time></trkpt><trkpt lat="42.75480779144894" lon="12.816823998860892"><ele>650.0</ele><time>2026-05-01T09:10:20Z</time></trkpt><trkpt lat="42.75480238180235" lon="12.817161870232125"><ele>650.0</ele><time>2026-05-01T09:10:21Z</time></trkpt><trkpt lat="42.75479866404981" lon="12.817432961848183"><ele>650.0</ele><time>2026-05-01T09:10:22Z</time></trkpt><trkpt lat="42.754772042970195" lon="12.817700143855038"><ele>650.0</ele><time>2026-05-01T09:10:23Z</time></trkpt><trkpt lat="42.75468704547056" lon="12.817973104647772"><ele>655.5</ele><time>2026-05-01T09:10:24Z</time></trkpt><trkpt lat="42.75456359737105" lon="12.818268540186375"><ele>661.0</ele><time>2026-05-01T09:10:25Z</time></trkpt><trkpt lat="42.754414522316544" lon="12.818548557120675"><ele>649.0</ele><time>2026-05-01T09:10:26Z</time></trkpt><trkpt lat="42.754267578873126" lon="12.818733221795581"><ele>637.0</ele><time>2026-05-01T09:10:27Z</time></trkpt><trkpt lat="42.75414243358967" lon="12.818943529581873"><ele>625.0</ele><time>2026-05-01T09:10:28Z</time></trkpt><trkpt lat="42.75407367271716" lon="12.819192638945703"><ele>628.25</ele><time>2026-05-01T09:10:29Z</time></trkpt><trkpt lat="42.75404009200177" lon="12.819423340282379"><ele>631.5</ele><time>2026-05-01T09:10:30Z</time></trkpt><trkpt lat="42.75402255599384" lon="12.819604761088096"><ele>634.75</ele><time>2026-05-01T09:10:31Z</time></trkpt><trkpt lat="42.753988229866486" lon="12.819750904247993"><ele>638.0</ele><time>2026-05-01T09:10:32Z</time></trkpt><trkpt lat="42.75391612506491" lon="12.819847145441997"><ele>638.0</ele><time>2026-05-01T09:10:33Z</time></trkpt><trkpt lat="42.753826280570884" lon="12.819886482267918"><ele>638.0</ele><time>2026-05-01T09:10:34Z</time></trkpt><trkpt lat="42.75372533260911" lon="12.819900818192481"><ele>638.0</ele><time>2026-05-01T09:10:35Z</time></trkpt><trkpt lat="42.75362382301726" lon="12.819898696129902"><ele>638.0</ele><time>2026-05-01T09:10:36Z</time></trkpt><trkpt lat="42.753512397841064" lon="12.819904340596242"><ele>638.0</ele><time>2026-05-01T09:10:37Z</time></trkpt><trkpt lat="42.75338822006268" lon="12.819886228024913"><ele>633.0</ele><time>2026-05-01T09:10:38Z</time></trkpt><trkpt lat="42.753250731248855" lon="12.819850962409884"><ele>628.0</ele><time>2026-05-01T09:10:39Z</time></trkpt><trkpt lat="42.753108344502785" lon="12.819806408029224"><ele>623.0</ele><time>2026-05-01T09:10:40Z</time></trkpt><trkpt lat="42.75293809976649" lon="12.819777497167994"><ele>623.0</ele><time>2026-05-01T09:10:41Z</time></trkpt><trkpt lat="42.75275317524045" lon="12.819804597985017"><ele>623.0</ele><time>2026-05-01T09:10:42Z</time></trkpt><trkpt lat="42.75255830158928" lon="12.819896939533534"><ele>623.0</ele><time>2026-05-01T09:10:43Z</time></trkpt><trkpt lat="42.75235907808375" lon="12.820025538934761"><ele>617.5</ele><time>2026-05-01T09:10:44Z</time></trkpt><trkpt lat="42.752125910151726" lon="12.82013975361859"><ele>612.0</ele><time>2026-05-01T09:10:45Z</time></trkpt><trkpt lat="42.75188295378513" lon="12.820292853161378"><ele>614.5</ele><time>2026-05-01T09:10:46Z</time></trkpt><trkpt lat="42.75163618716528" lon="12.82045996476544"><ele>617.0</ele><time>2026-05-01T09:10:47Z</time></trkpt><trkpt lat="42.751446157498286" lon="12.820605423385786"><ele>617.0</ele><time>2026-05-01T09:10:48Z</time></trkpt><trkpt lat="42.751308227191586" lon="12.820753634571743"><ele>617.0</ele><time>2026-05-01T09:10:49Z</time></trkpt><trkpt lat="42.751208879087365" lon="12.82088233494357"><ele>617.0</ele><time>2026-05-01T09:10:50Z</time></trkpt><trkpt lat="42.751158599807255" lon="12.82103098938686"><ele>617.0</ele><time>2026-05-01T09:10:51Z</time></trkpt><trkpt lat="42.75116626925541" lon="12.821195882507523"><ele>619.3333333333333</ele><time>2026-05-01T09:10:52Z</time></trkpt><trkpt lat="42.751231146599395" lon="12.821381519096482"><ele>621.6666666666666</ele><time>2026-05-01T09:10:53Z</time></trkpt><trkpt lat="42.751376939137685" lon="12.821584313696784"><ele>624.0</ele><time>2026-05-01T09:10:54Z</time></trkpt><trkpt lat="42.75144049969563" lon="12.82181871444809"><ele>618.3333333333334</ele><time>2026-05-01T09:10:55Z</time></trkpt><trkpt lat="42.75144452605444" lon="12.822090168187437"><ele>612.6666666666667</ele><time>2026-05-01T09:10:56Z</time></trkpt><trkpt lat="42.751421767688356" lon="12.822378652666924"><ele>607.0</ele><time>2026-05-01T09:10:57Z</time></trkpt><trkpt lat="42.751441578103766" lon="12.82260365438517"><ele>601.0</ele><time>2026-05-01T09:10:58Z</time></trkpt><trkpt lat="42.75150630933769" lon="12.822877264025285"><ele>595.0</ele><time>2026-05-01T09:10:59Z</time></trkpt><trkpt lat="42.75162828807536" lon="12.823138108913172"><ele>589.0</ele><time>2026-05-01T09:11:00Z</time></trkpt><trkpt lat="42.751795017245584" lon="12.82340709649263"><ele>598.5</ele><time>2026-05-01T09:11:01Z</time></trkpt><trkpt lat="42.751958038371804" lon="12.82371247237179"><ele>608.0</ele><time>2026-05-01T09:11:02Z</time></trkpt><trkpt lat="42.75210334526575" lon="12.823973458313075"><ele>608.0</ele><time>2026-05-01T09:11:03Z</time></trkpt><trkpt lat="42.7522171858707" lon="12.824241657689704"><ele>608.0</ele><time>2026-05-01T09:11:04Z</time></trkpt><trkpt lat="42.75230185998506" lon="12.824504992951853"><ele>608.0</ele><time>2026-05-01T09:11:05Z</time></trkpt><trkpt lat="42.75239068264031" lon="12.824742918025018"><ele>600.6666666666666</ele><time>2026-05-01T09:11:06Z</time></trkpt><trkpt lat="42.75247171170859" lon="12.824975847451237"><ele>593.3333333333334</ele><time>2026-05-01T09:11:07Z</time></trkpt><trkpt lat="42.75254882009715" lon="12.825198613317742"><ele>586.0</ele><time>2026-05-01T09:11:08Z</time></trkpt><trkpt lat="42.75262358674769" lon="12.8254042505026"><ele>587.3333333333334</ele><time>2026-05-01T09:11:09Z</time></trkpt><trkpt lat="42.75270579752075" lon="12.825621169706615"><ele>588.6666666666666</ele><time>2026-05-01T09:11:10Z</time></trkpt><trkpt lat="42.75279163390237" lon="12.825848185937593"><ele>590.0</ele><time>2026-05-01T09:11:11Z</time></trkpt><trkpt lat="42.75288248639745" lon="12.826074288324763"><ele>590.0</ele><time>2026-05-01T09:11:12Z</time></trkpt><trkpt lat="42.75291782023711" lon="12.826325617937089"><ele>590.0</ele><time>2026-05-01T09:11:13Z</time></trkpt><trkpt lat="42.75296204287018" lon="12.82654571972585"><ele>590.0</ele><time>2026-05-01T09:11:14Z</time></trkpt><trkpt lat="42.753029079067055" lon="12.826775989647965"><ele>585.6666666666666</ele><time>2026-05-01T09:11:15Z</time></trkpt><trkpt lat="42.75308165431623" lon="12.827023722558394"><ele>581.3333333333334</ele><time>2026-05-01T09:11:16Z</time></trkpt><trkpt lat="42.753150064855184" lon="12.827279101518537"><ele>577.0</ele><time>2026-05-01T09:11:17Z</time></trkpt><trkpt lat="42.75322432884029" lon="12.827502807242162"><ele>575.3333333333334</ele><time>2026-05-01T09:11:18Z</time></trkpt><trkpt lat="42.75328902675355" lon="12.827716342388314"><ele>573.6666666666666</ele><time>2026-05-01T09:11:19Z</time></trkpt><trkpt lat="42.753335220354614" lon="12.8279152532645"><ele>572.0</ele><time>2026-05-01T09:11:20Z</time></trkpt><trkpt lat="42.75335651404819" lon="12.82808724729077"><ele>572.0</ele><time>2026-05-01T09:11:21Z</time></trkpt><trkpt lat="42.7533379639414" lon="12.828257463807274"><ele>572.0</ele><time>2026-05-01T09:11:22Z</time></trkpt><trkpt lat="42.75327723425336" lon="12.828386332452325"><ele>572.0</ele><time>2026-05-01T09:11:23Z</time></trkpt><trkpt lat="42.7531622863417" lon="12.82851228073191"><ele>572.0</ele><time>2026-05-01T09:11:24Z</time></trkpt><trkpt lat="42.753001706721534" lon="12.828553257123659"><ele>573.3333333333333</ele><time>2026-05-01T09:11:25Z</time></trkpt><trkpt lat="42.75282958924555" lon="12.828582508363263"><ele>574.6666666666666</ele><time>2026-05-01T09:11:26Z</time></trkpt><trkpt lat="42.75262684085214" lon="12.828638069241356"><ele>576.0</ele><time>2026-05-01T09:11:27Z</time></trkpt><trkpt lat="42.75240170501552" lon="12.828676621010056"><ele>576.0</ele><time>2026-05-01T09:11:28Z</time></trkpt><trkpt lat="42.752231447653365" lon="12.828786598903449"><ele>576.0</ele><time>2026-05-01T09:11:29Z</time></trkpt><trkpt lat="42.752086315012605" lon="12.828922471140608"><ele>576.0</ele><time>2026-05-01T09:11:30Z</time></trkpt><trkpt lat="42.7519713625602" lon="12.82909352907628"><ele>576.0</ele><time>2026-05-01T09:11:31Z</time></trkpt><trkpt lat="42.75189830769603" lon="12.829273978357376"><ele>576.0</ele><time>2026-05-01T09:11:32Z</time></trkpt><trkpt lat="42.75187200475977" lon="12.829454464251887"><ele>576.0</ele><time>2026-05-01T09:11:33Z</time></trkpt><trkpt lat="42.751899961199086" lon="12.829628777664144"><ele>576.0</ele><time>2026-05-01T09:11:34Z</time></trkpt><trkpt lat="42.75199558085821" lon="12.829773296167359"><ele>573.3333333333334</ele><time>2026-05-01T09:11:35Z</time></trkpt><trkpt lat="42.75214693826367" lon="12.829893193073245"><ele>570.6666666666667</ele><time>2026-05-01T09:11:36Z</time></trkpt><trkpt lat="42.752328325624354" lon="12.830030544661838"><ele>568.0</ele><time>2026-05-01T09:11:37Z</time></trkpt><trkpt lat="42.75252567178488" lon="12.830202155533845"><ele>566.0</ele><time>2026-05-01T09:11:38Z</time></trkpt><trkpt lat="42.75273786638537" lon="12.830394886396688"><ele>564.0</ele><time>2026-05-01T09:11:39Z</time></trkpt><trkpt lat="42.75295215400655" lon="12.830624537140691"><ele>564.0</ele><time>2026-05-01T09:11:40Z</time></trkpt><trkpt lat="42.753170851929376" lon="12.83088481307151"><ele>564.0</ele><time>2026-05-01T09:11:41Z</time></trkpt><trkpt lat="42.75338071816559" lon="12.831154282538145"><ele>566.0</ele><time>2026-05-01T09:11:42Z</time></trkpt><trkpt lat="42.75354784068121" lon="12.831408196210896"><ele>568.0</ele><time>2026-05-01T09:11:43Z</time></trkpt><trkpt lat="42.753676612031214" lon="12.831680385891413"><ele>564.0</ele><time>2026-05-01T09:11:44Z</time></trkpt><trkpt lat="42.75381441634715" lon="12.831957528070223"><ele>560.0</ele><time>2026-05-01T09:11:45Z</time></trkpt><trkpt lat="42.75392475674558" lon="12.832269024468472"><ele>560.0</ele><time>2026-05-01T09:11:46Z</time></trkpt><trkpt lat="42.75402006094214" lon="12.832626846617494"><ele>560.0</ele><time>2026-05-01T09:11:47Z</time></trkpt><trkpt lat="42.754104011389046" lon="12.83298042105641"><ele>558.0</ele><time>2026-05-01T09:11:48Z</time></trkpt><trkpt lat="42.754159169105996" lon="12.833290008115261"><ele>556.0</ele><time>2026-05-01T09:11:49Z</time></trkpt><trkpt lat="42.75418211880575" lon="12.833565424546507"><ele>554.0</ele><time>2026-05-01T09:11:50Z</time></trkpt><trkpt lat="42.754160793054375" lon="12.83382075918485"><ele>551.6666666666666</ele><time>2026-05-01T09:11:51Z</time></trkpt><trkpt lat="42.754072260247774" lon="12.834042902128404"><ele>549.3333333333334</ele><time>2026-05-01T09:11:52Z</time></trkpt><trkpt lat="42.75398659578858" lon="12.834304361073542"><ele>547.0</ele><time>2026-05-01T09:11:53Z</time></trkpt><trkpt lat="42.75392563305352" lon="12.834561674992553"><ele>546.0</ele><time>2026-05-01T09:11:54Z</time></trkpt><trkpt lat="42.75394536066824" lon="12.83482091957278"><ele>545.0</ele><time>2026-05-01T09:11:55Z</time></trkpt><trkpt lat="42.7539773928128" lon="12.835099869746282"><ele>544.0</ele><time>2026-05-01T09:11:56Z</time></trkpt><trkpt lat="42.75397847732457" lon="12.835404752361253"><ele>543.5</ele><time>2026-05-01T09:11:57Z</time></trkpt><trkpt lat="42.753872671551164" lon="12.835719939247893"><ele>543.0</ele><time>2026-05-01T09:11:58Z</time></trkpt><trkpt lat="42.75377491144565" lon="12.836043768497504"><ele>544.5</ele><time>2026-05-01T09:11:59Z</time></trkpt><trkpt lat="42.75370918483596" lon="12.836383098660603"><ele>546.0</ele><time>2026-05-01T09:12:00Z</time></trkpt><trkpt lat="42.75367779091128" lon="12.836766646471034"><ele>543.0</ele><time>2026-05-01T09:12:01Z</time></trkpt><trkpt lat="42.75363977378736" lon="12.837049581300548"><ele>540.0</ele><time>2026-05-01T09:12:02Z</time></trkpt><trkpt lat="42.75362105669072" lon="12.83727920502614"><ele>537.0</ele><time>2026-05-01T09:12:03Z</time></trkpt><trkpt lat="42.753591935030606" lon="12.83745368772833"><ele>537.0</ele><time>2026-05-01T09:12:04Z</time></trkpt><trkpt lat="42.753622453792566" lon="12.837605434777325"><ele>537.0</ele><time>2026-05-01T09:12:05Z</time></trkpt><trkpt lat="42.75366089376332" lon="12.83771874584216"><ele>537.0</ele><time>2026-05-01T09:12:06Z</time></trkpt><trkpt lat="42.753794223735234" lon="12.837760151562678"><ele>537.0</ele><time>2026-05-01T09:12:07Z</time></trkpt><trkpt lat="42.75394749665138" lon="12.837796906257353"><ele>535.0</ele><time>2026-05-01T09:12:08Z</time></trkpt><trkpt lat="42.75415227264216" lon="12.837838432509987"><ele>533.0</ele><time>2026-05-01T09:12:09Z</time></trkpt><trkpt lat="42.754383470591954" lon="12.837880308749057"><ele>531.0</ele><time>2026-05-01T09:12:10Z</time></trkpt><trkpt lat="42.75458528748348" lon="12.837922810324768"><ele>531.0</ele><time>2026-05-01T09:12:11Z</time></trkpt><trkpt lat="42.75474803986847" lon="12.838016728058893"><ele>531.0</ele><time>2026-05-01T09:12:12Z</time></trkpt><trkpt lat="42.75490400826298" lon="12.838177026320109"><ele>531.0</ele><time>2026-05-01T09:12:13Z</time></trkpt><trkpt lat="42.755039622284976" lon="12.838383183833034"><ele>531.0</ele><time>2026-05-01T09:12:14Z</time></trkpt><trkpt lat="42.755169259158514" lon="12.838634306129034"><ele>531.0</ele><time>2026-05-01T09:12:15Z</time></trkpt><trkpt lat="42.75531095720821" lon="12.838915403005515"><ele>531.0</ele><time>2026-05-01T09:12:16Z</time></trkpt><trkpt lat="42.75547036884833" lon="12.839135086804149"><ele>531.0</ele><time>2026-05-01T09:12:17Z</time></trkpt><trkpt lat="42.75562284723929" lon="12.839289756217285"><ele>531.0</ele><time>2026-05-01T09:12:18Z</time></trkpt><trkpt lat="42.755805049337745" lon="12.839390771797431"><ele>527.5</ele><time>2026-05-01T09:12:19Z</time></trkpt><trkpt lat="42.75602993692277" lon="12.839446602795517"><ele>524.0</ele><time>2026-05-01T09:12:20Z</time></trkpt><trkpt lat="42.756237155924566" lon="12.839599102759804"><ele>524.0</ele><time>2026-05-01T09:12:21Z</time></trkpt><trkpt lat="42.756410980421904" lon="12.839760607777713"><ele>524.0</ele><time>2026-05-01T09:12:22Z</time></trkpt><trkpt lat="42.75654928895546" lon="12.839897655128212"><ele>524.0</ele><time>2026-05-01T09:12:23Z</time></trkpt><trkpt lat="42.756642657439116" lon="12.840064999437379"><ele>523.25</ele><time>2026-05-01T09:12:24Z</time></trkpt><trkpt lat="42.756707955705295" lon="12.840251018777685"><ele>522.5</ele><time>2026-05-01T09:12:25Z</time></trkpt><trkpt lat="42.75673677958955" lon="12.840404287002555"><ele>521.75</ele><time>2026-05-01T09:12:26Z</time></trkpt><trkpt lat="42.75677666209349" lon="12.840512581196341"><ele>521.0</ele><time>2026-05-01T09:12:27Z</time></trkpt><trkpt lat="42.75656900551697" lon="12.840688547157479"><ele>521.0</ele><time>2026-05-01T09:12:28Z</time></trkpt><trkpt lat="42.7564113973406" lon="12.840805505572282"><ele>521.0</ele><time>2026-05-01T09:12:29Z</time></trkpt><trkpt lat="42.75622223567856" lon="12.84091407615857"><ele>521.0</ele><time>2026-05-01T09:12:30Z</time></trkpt><trkpt lat="42.75603847423748" lon="12.841027508842446"><ele>517.25</ele><time>2026-05-01T09:12:31Z</time></trkpt><trkpt lat="42.75589910306317" lon="12.84114218589153"><ele>513.5</ele><time>2026-05-01T09:12:32Z</time></trkpt><trkpt lat="42.75580952457387" lon="12.841267367231671"><ele>509.75</ele><time>2026-05-01T09:12:33Z</time></trkpt><trkpt lat="42.75576491594931" lon="12.84144794120126"><ele>506.0</ele><time>2026-05-01T09:12:34Z</time></trkpt><trkpt lat="42.7557856054027" lon="12.84164200935111"><ele>505.0</ele><time>2026-05-01T09:12:35Z</time></trkpt><trkpt lat="42.75589143929072" lon="12.841901883749868"><ele>504.0</ele><time>2026-05-01T09:12:36Z</time></trkpt><trkpt lat="42.7560242644319" lon="12.842146335476158"><ele>503.0</ele><time>2026-05-01T09:12:37Z</time></trkpt><trkpt lat="42.7561513477178" lon="12.842389803325037"><ele>503.0</ele><time>2026-05-01T09:12:38Z</time></trkpt><trkpt lat="42.75628961566342" lon="12.842547054253684"><ele>503.0</ele><time>2026-05-01T09:12:39Z</time></trkpt><trkpt lat="42.75644554234839" lon="12.842623713591333"><ele>503.0</ele><time>2026-05-01T09:12:40Z</time></trkpt><trkpt lat="42.75666350899865" lon="12.842642097501617"><ele>500.5</ele><time>2026-05-01T09:12:41Z</time></trkpt><trkpt lat="42.75692207272988" lon="12.842613787587455"><ele>498.0</ele><time>2026-05-01T09:12:42Z</time></trkpt><trkpt lat="42.757172301580866" lon="12.842547285310223"><ele>498.0</ele><time>2026-05-01T09:12:43Z</time></trkpt><trkpt lat="42.75743647616328" lon="12.842477323427767"><ele>498.0</ele><time>2026-05-01T09:12:44Z</time></trkpt><trkpt lat="42.75772092966194" lon="12.842387383908385"><ele>496.0</ele><time>2026-05-01T09:12:45Z</time></trkpt><trkpt lat="42.757953401288" lon="12.842286738697616"><ele>494.0</ele><time>2026-05-01T09:12:46Z</time></trkpt><trkpt lat="42.75818026755568" lon="12.842222132590289"><ele>494.0</ele><time>2026-05-01T09:12:47Z</time></trkpt><trkpt lat="42.75843027848889" lon="12.842228170455877"><ele>494.0</ele><time>2026-05-01T09:12:48Z</time></trkpt><trkpt lat="42.75864717067377" lon="12.842203144146016"><ele>492.0</ele><time>2026-05-01T09:12:49Z</time></trkpt><trkpt lat="42.75885212691555" lon="12.842116902196208"><ele>490.0</ele><time>2026-05-01T09:12:50Z</time></trkpt><trkpt lat="42.75903323589867" lon="12.84200846353835"><ele>488.0</ele><time>2026-05-01T09:12:51Z</time></trkpt><trkpt lat="42.759176374307515" lon="12.841915755885054"><ele>488.0</ele><time>2026-05-01T09:12:52Z</time></trkpt><trkpt lat="42.75931706527226" lon="12.841853205709473"><ele>488.0</ele><time>2026-05-01T09:12:53Z</time></trkpt><trkpt lat="42.759440837856076" lon="12.841833667955289"><ele>488.0</ele><time>2026-05-01T09:12:54Z</time></trkpt><trkpt lat="42.75953381459042" lon="12.841863471234188"><ele>488.0</ele><time>2026-05-01T09:12:55Z</time></trkpt><trkpt lat="42.759618932933655" lon="12.84195873408494"><ele>497.66666666666663</ele><time>2026-05-01T09:12:56Z</time></trkpt><trkpt lat="42.759674267657324" lon="12.842106852791183"><ele>507.33333333333337</ele><time>2026-05-01T09:12:57Z</time></trkpt><trkpt lat="42.759659411560115" lon="12.842319390633877"><ele>517.0</ele><time>2026-05-01T09:12:58Z</time></trkpt><trkpt lat="42.75963184360913" lon="12.842588145747927"><ele>517.0</ele><time>2026-05-01T09:12:59Z</time></trkpt><trkpt lat="42.75960061034245" lon="12.842885973237596"><ele>517.0</ele><time>2026-05-01T09:13:00Z</time></trkpt><trkpt lat="42.75954706413502" lon="12.843205495183502"><ele>514.5</ele><time>2026-05-01T09:13:01Z</time></trkpt><trkpt lat="42.75947091065727" lon="12.843554851680977"><ele>512.0</ele><time>2026-05-01T09:13:02Z</time></trkpt><trkpt lat="42.759364197421775" lon="12.843912379341104"><ele>497.0</ele><time>2026-05-01T09:13:03Z</time></trkpt><trkpt lat="42.75926199504722" lon="12.844249103900067"><ele>482.0</ele><time>2026-05-01T09:13:04Z</time></trkpt><trkpt lat="42.75918613595218" lon="12.844544466881198"><ele>482.0</ele><time>2026-05-01T09:13:05Z</time></trkpt><trkpt lat="42.75913040573139" lon="12.844830049720416"><ele>482.0</ele><time>2026-05-01T09:13:06Z</time></trkpt><trkpt lat="42.75911400168718" lon="12.845112514965141"><ele>482.0</ele><time>2026-05-01T09:13:07Z</time></trkpt><trkpt lat="42.759151724783685" lon="12.845362223732186"><ele>484.66666666666663</ele><time>2026-05-01T09:13:08Z</time></trkpt><trkpt lat="42.759239042082996" lon="12.84560498772525"><ele>487.33333333333337</ele><time>2026-05-01T09:13:09Z</time></trkpt><trkpt lat="42.75938162193487" lon="12.845848919946691"><ele>490.0</ele><time>2026-05-01T09:13:10Z</time></trkpt><trkpt lat="42.75950563951326" lon="12.846064417577388"><ele>490.0</ele><time>2026-05-01T09:13:11Z</time></trkpt><trkpt lat="42.75958896884877" lon="12.846260719253198"><ele>490.0</ele><time>2026-05-01T09:13:12Z</time></trkpt><trkpt lat="42.75963917756981" lon="12.846445335607166"><ele>490.0</ele><time>2026-05-01T09:13:13Z</time></trkpt><trkpt lat="42.759648274288054" lon="12.846623083104458"><ele>490.0</ele><time>2026-05-01T09:13:14Z</time></trkpt><trkpt lat="42.759602332488996" lon="12.846785796293645"><ele>487.33333333333337</ele><time>2026-05-01T09:13:15Z</time></trkpt><trkpt lat="42.75951088859763" lon="12.84693106973994"><ele>484.66666666666663</ele><time>2026-05-01T09:13:16Z</time></trkpt><trkpt lat="42.75936366315846" lon="12.847035474820581"><ele>482.0</ele><time>2026-05-01T09:13:17Z</time></trkpt><trkpt lat="42.75918232185784" lon="12.847121626777163"><ele>482.0</ele><time>2026-05-01T09:13:18Z</time></trkpt><trkpt lat="42.75901428660749" lon="12.847270470668283"><ele>482.0</ele><time>2026-05-01T09:13:19Z</time></trkpt><trkpt lat="42.758846285751225" lon="12.847478758339625"><ele>482.0</ele><time>2026-05-01T09:13:20Z</time></trkpt><trkpt lat="42.758660612262375" lon="12.847724703898256"><ele>478.3333333333333</ele><time>2026-05-01T09:13:21Z</time></trkpt><trkpt lat="42.75848082303726" lon="12.847929010212711"><ele>474.66666666666663</ele><time>2026-05-01T09:13:22Z</time></trkpt><trkpt lat="42.758302886052874" lon="12.84808727397473"><ele>471.0</ele><time>2026-05-01T09:13:23Z</time></trkpt><trkpt lat="42.758145313710344" lon="12.848207223513597"><ele>471.0</ele><time>2026-05-01T09:13:24Z</time></trkpt><trkpt lat="42.75804670788145" lon="12.848340618496911"><ele>471.0</ele><time>2026-05-01T09:13:25Z</time></trkpt><trkpt lat="42.75798889551749" lon="12.848469106687828"><ele>471.0</ele><time>2026-05-01T09:13:26Z</time></trkpt><trkpt lat="42.75805310189602" lon="12.848642730756533"><ele>471.0</ele><time>2026-05-01T09:13:27Z</time></trkpt><trkpt lat="42.758121972732674" lon="12.848844546689904"><ele>471.33333333333337</ele><time>2026-05-01T09:13:28Z</time></trkpt><trkpt lat="42.7582132202439" lon="12.84907936422949"><ele>471.6666666666667</ele><time>2026-05-01T09:13:29Z</time></trkpt><trkpt lat="42.758287653369905" lon="12.849301733002127"><ele>472.0</ele><time>2026-05-01T09:13:30Z</time></trkpt><trkpt lat="42.75832683797124" lon="12.849497186470423"><ele>472.25</ele><time>2026-05-01T09:13:31Z</time></trkpt><trkpt lat="42.75833154775426" lon="12.849662285854901"><ele>472.5</ele><time>2026-05-01T09:13:32Z</time></trkpt><trkpt lat="42.75829855580712" lon="12.84981143966525"><ele>472.75</ele><time>2026-05-01T09:13:33Z</time></trkpt><trkpt lat="42.75823335943527" lon="12.849936421537397"><ele>473.0</ele><time>2026-05-01T09:13:34Z</time></trkpt><trkpt lat="42.758092765373014" lon="12.850009974980672"><ele>473.0</ele><time>2026-05-01T09:13:35Z</time></trkpt><trkpt lat="42.757923856098714" lon="12.850069705622879"><ele>473.0</ele><time>2026-05-01T09:13:36Z</time></trkpt><trkpt lat="42.757714067331044" lon="12.850093205654211"><ele>473.0</ele><time>2026-05-01T09:13:37Z</time></trkpt><trkpt lat="42.7574830941804" lon="12.850093850227397"><ele>465.0</ele><time>2026-05-01T09:13:38Z</time></trkpt><trkpt lat="42.757233617892865" lon="12.8501190249598"><ele>457.0</ele><time>2026-05-01T09:13:39Z</time></trkpt><trkpt lat="42.756998776662485" lon="12.850132629605753"><ele>465.6666666666667</ele><time>2026-05-01T09:13:40Z</time></trkpt><trkpt lat="42.75678470143154" lon="12.850150379677144"><ele>474.33333333333337</ele><time>2026-05-01T09:13:41Z</time></trkpt><trkpt lat="42.7565788804465" lon="12.850211921338385"><ele>483.0</ele><time>2026-05-01T09:13:42Z</time></trkpt><trkpt lat="42.75636622359768" lon="12.850311949919982"><ele>483.0</ele><time>2026-05-01T09:13:43Z</time></trkpt><trkpt lat="42.75614999037255" lon="12.850477463532913"><ele>483.0</ele><time>2026-05-01T09:13:44Z</time></trkpt><trkpt lat="42.7559449429657" lon="12.850655274854141"><ele>477.66666666666663</ele><time>2026-05-01T09:13:45Z</time></trkpt><trkpt lat="42.75576472171477" lon="12.850782574613893"><ele>472.3333333333333</ele><time>2026-05-01T09:13:46Z</time></trkpt><trkpt lat="42.755609434210584" lon="12.850868796792936"><ele>467.0</ele><time>2026-05-01T09:13:47Z</time></trkpt><trkpt lat="42.755509071182985" lon="12.850986739561382"><ele>467.0</ele><time>2026-05-01T09:13:48Z</time></trkpt><trkpt lat="42.75543717052901" lon="12.85117925256422"><ele>467.0</ele><time>2026-05-01T09:13:49Z</time></trkpt><trkpt lat="42.75542472709465" lon="12.851431921211375"><ele>467.0</ele><time>2026-05-01T09:13:50Z</time></trkpt><trkpt lat="42.75547191146732" lon="12.8517405579261"><ele>463.0</ele><time>2026-05-01T09:13:51Z</time></trkpt><trkpt lat="42.75555657582194" lon="12.852067811777186"><ele>459.0</ele><time>2026-05-01T09:13:52Z</time></trkpt><trkpt lat="42.755644059790676" lon="12.852448239339841"><ele>453.5</ele><time>2026-05-01T09:13:53Z</time></trkpt><trkpt lat="42.75572635849292" lon="12.852835099996707"><ele>448.0</ele><time>2026-05-01T09:13:54Z</time></trkpt><trkpt lat="42.755765176380145" lon="12.853153601911645"><ele>448.0</ele><time>2026-05-01T09:13:55Z</time></trkpt><trkpt lat="42.75575838108274" lon="12.85344921799772"><ele>448.0</ele><time>2026-05-01T09:13:56Z</time></trkpt><trkpt lat="42.755785912054854" lon="12.853764562004882"><ele>435.0</ele><time>2026-05-01T09:13:57Z</time></trkpt><trkpt lat="42.755865313609085" lon="12.854073141017567"><ele>422.0</ele><time>2026-05-01T09:13:58Z</time></trkpt><trkpt lat="42.75596131301273" lon="12.854336012252507"><ele>422.0</ele><time>2026-05-01T09:13:59Z</time></trkpt><trkpt lat="42.75609643761381" lon="12.85452839364925"><ele>422.0</ele><time>2026-05-01T09:14:00Z</time></trkpt><trkpt lat="42.75627745464426" lon="12.854683471174233"><ele>422.0</ele><time>2026-05-01T09:14:01Z</time></trkpt><trkpt lat="42.756503834742865" lon="12.854802604359453"><ele>422.0</ele><time>2026-05-01T09:14:02Z</time></trkpt><trkpt lat="42.75673816876819" lon="12.85484947715779"><ele>422.0</ele><time>2026-05-01T09:14:03Z</time></trkpt><trkpt lat="42.75696316750388" lon="12.854928579596201"><ele>415.0</ele><time>2026-05-01T09:14:04Z</time></trkpt><trkpt lat="42.75719403594308" lon="12.855142583963362"><ele>408.0</ele><time>2026-05-01T09:14:05Z</time></trkpt><trkpt lat="42.75745025004376" lon="12.855365202624226"><ele>408.0</ele><time>2026-05-01T09:14:06Z</time></trkpt><trkpt lat="42.75768508147594" lon="12.855553813613048"><ele>408.0</ele><time>2026-05-01T09:14:07Z</time></trkpt><trkpt lat="42.757884622910304" lon="12.85574260244011"><ele>406.0</ele><time>2026-05-01T09:14:08Z</time></trkpt><trkpt lat="42.758079718804055" lon="12.855877062582492"><ele>404.0</ele><time>2026-05-01T09:14:09Z</time></trkpt><trkpt lat="42.75830005190829" lon="12.855933306980004"><ele>402.0</ele><time>2026-05-01T09:14:10Z</time></trkpt><trkpt lat="42.75853581272302" lon="12.85594788076754"><ele>402.0</ele><time>2026-05-01T09:14:11Z</time></trkpt><trkpt lat="42.75873105415564" lon="12.855912119395644"><ele>402.0</ele><time>2026-05-01T09:14:12Z</time></trkpt><trkpt lat="42.75889117082893" lon="12.855830058909948"><ele>402.0</ele><time>2026-05-01T09:14:13Z</time></trkpt><trkpt lat="42.75902852351848" lon="12.855653693874414"><ele>402.0</ele><time>2026-05-01T09:14:14Z</time></trkpt><trkpt lat="42.75915565859681" lon="12.85542042223162"><ele>402.0</ele><time>2026-05-01T09:14:15Z</time></trkpt><trkpt lat="42.7592694801082" lon="12.85524811037895"><ele>402.0</ele><time>2026-05-01T09:14:16Z</time></trkpt><trkpt lat="42.75939270220761" lon="12.85512481937562"><ele>402.0</ele><time>2026-05-01T09:14:17Z</time></trkpt><trkpt lat="42.759513395749146" lon="12.855053660000127"><ele>402.0</ele><time>2026-05-01T09:14:18Z</time></trkpt><trkpt lat="42.75963650935392" lon="12.855045187986622"><ele>402.0</ele><time>2026-05-01T09:14:19Z</time></trkpt><trkpt lat="42.75974023919459" lon="12.855117317628453"><ele>402.0</ele><time>2026-05-01T09:14:20Z</time></trkpt><trkpt lat="42.759838831926025" lon="12.855292392014086"><ele>402.0</ele><time>2026-05-01T09:14:21Z</time></trkpt><trkpt lat="42.759996740505414" lon="12.855501364833449"><ele>402.0</ele><time>2026-05-01T09:14:22Z</time></trkpt><trkpt lat="42.760158835223635" lon="12.855735705446548"><ele>409.0</ele><time>2026-05-01T09:14:23Z</time></trkpt><trkpt lat="42.760341378997424" lon="12.85599215087309"><ele>416.0</ele><time>2026-05-01T09:14:24Z</time></trkpt><trkpt lat="42.76049641880313" lon="12.856223500410323"><ele>416.0</ele><time>2026-05-01T09:14:25Z</time></trkpt><trkpt lat="42.760604350848155" lon="12.856394172191475"><ele>416.0</ele><time>2026-05-01T09:14:26Z</time></trkpt><trkpt lat="42.76066927213972" lon="12.856565855586101"><ele>416.0</ele><time>2026-05-01T09:14:27Z</time></trkpt><trkpt lat="42.76066050724437" lon="12.856743185298596"><ele>416.0</ele><time>2026-05-01T09:14:28Z</time></trkpt><trkpt lat="42.760592706895835" lon="12.856885692267124"><ele>412.3333333333333</ele><time>2026-05-01T09:14:29Z</time></trkpt><trkpt lat="42.760522440380555" lon="12.85710501120499"><ele>408.66666666666663</ele><time>2026-05-01T09:14:30Z</time></trkpt><trkpt lat="42.76046244823706" lon="12.857344876462907"><ele>405.0</ele><time>2026-05-01T09:14:31Z</time></trkpt><trkpt lat="42.76047554311607" lon="12.857545512689375"><ele>393.0</ele><time>2026-05-01T09:14:32Z</time></trkpt><trkpt lat="42.760554870049226" lon="12.85772392991891"><ele>381.0</ele><time>2026-05-01T09:14:33Z</time></trkpt><trkpt lat="42.76071293331313" lon="12.857829776224362"><ele>369.0</ele><time>2026-05-01T09:14:34Z</time></trkpt><trkpt lat="42.760928810734406" lon="12.857941608540996"><ele>382.0</ele><time>2026-05-01T09:14:35Z</time></trkpt><trkpt lat="42.76117164964882" lon="12.858071894787786"><ele>395.0</ele><time>2026-05-01T09:14:36Z</time></trkpt><trkpt lat="42.76146075578604" lon="12.858192385468588"><ele>395.0</ele><time>2026-05-01T09:14:37Z</time></trkpt><trkpt lat="42.76174391064552" lon="12.858341534922214"><ele>395.0</ele><time>2026-05-01T09:14:38Z</time></trkpt><trkpt lat="42.76205983038929" lon="12.858507962690556"><ele>389.5</ele><time>2026-05-01T09:14:39Z</time></trkpt><trkpt lat="42.76239366115471" lon="12.858667432332155"><ele>384.0</ele><time>2026-05-01T09:14:40Z</time></trkpt><trkpt lat="42.762712210390944" lon="12.858807003496539"><ele>384.0</ele><time>2026-05-01T09:14:41Z</time></trkpt><trkpt lat="42.76296445423651" lon="12.858879743602246"><ele>384.0</ele><time>2026-05-01T09:14:42Z</time></trkpt><trkpt lat="42.76318322691882" lon="12.85894908687522"><ele>384.0</ele><time>2026-05-01T09:14:43Z</time></trkpt><trkpt lat="42.76337830750765" lon="12.859080234966338"><ele>384.0</ele><time>2026-05-01T09:14:44Z</time></trkpt><trkpt lat="42.76358889744759" lon="12.859169888066425"><ele>384.0</ele><time>2026-05-01T09:14:45Z</time></trkpt><trkpt lat="42.76381195468216" lon="12.859302102967467"><ele>378.5</ele><time>2026-05-01T09:14:46Z</time></trkpt><trkpt lat="42.76396034407053" lon="12.859802856558245"><ele>373.0</ele><time>2026-05-01T09:14:47Z</time></trkpt><trkpt lat="42.76417527695962" lon="12.860026089360163"><ele>364.66666666666663</ele><time>2026-05-01T09:14:48Z</time></trkpt><trkpt lat="42.76436417558432" lon="12.860189683734827"><ele>356.3333333333333</ele><time>2026-05-01T09:14:49Z</time></trkpt><trkpt lat="42.764545189059874" lon="12.860315635924273"><ele>348.0</ele><time>2026-05-01T09:14:50Z</time></trkpt><trkpt lat="42.76474983101598" lon="12.860333611194639"><ele>348.0</ele><time>2026-05-01T09:14:51Z</time></trkpt><trkpt lat="42.764949824953526" lon="12.860339405990679"><ele>348.0</ele><time>2026-05-01T09:14:52Z</time></trkpt><trkpt lat="42.765113404863804" lon="12.860234560489202"><ele>348.0</ele><time>2026-05-01T09:14:53Z</time></trkpt><trkpt lat="42.7652453037255" lon="12.860129701090598"><ele>348.0</ele><time>2026-05-01T09:14:54Z</time></trkpt><trkpt lat="42.76532894610169" lon="12.860026759545008"><ele>348.0</ele><time>2026-05-01T09:14:55Z</time></trkpt><trkpt lat="42.76540926755997" lon="12.859969156929841"><ele>348.0</ele><time>2026-05-01T09:14:56Z</time></trkpt><trkpt lat="42.76548307937483" lon="12.860009892391906"><ele>348.0</ele><time>2026-05-01T09:14:57Z</time></trkpt><trkpt lat="42.76548518973683" lon="12.860176699562857"><ele>348.0</ele><time>2026-05-01T09:14:58Z</time></trkpt><trkpt lat="42.76547585180307" lon="12.860367340443421"><ele>348.0</ele><time>2026-05-01T09:14:59Z</time></trkpt><trkpt lat="42.76547291156227" lon="12.860538293982202"><ele>348.0</ele><time>2026-05-01T09:15:00Z</time></trkpt><trkpt lat="42.765539007456056" lon="12.860639064649801"><ele>348.0</ele><time>2026-05-01T09:15:01Z</time></trkpt><trkpt lat="42.76564226101695" lon="12.860708519786105"><ele>348.0</ele><time>2026-05-01T09:15:02Z</time></trkpt><trkpt lat="42.765818910412854" lon="12.860729606059008"><ele>352.5</ele><time>2026-05-01T09:15:03Z</time></trkpt><trkpt lat="42.76605526310705" lon="12.860733292809204"><ele>357.0</ele><time>2026-05-01T09:15:04Z</time></trkpt><trkpt lat="42.76632357099943" lon="12.860752136509316"><ele>357.0</ele><time>2026-05-01T09:15:05Z</time></trkpt><trkpt lat="42.76661721709462" lon="12.860779088209986"><ele>357.0</ele><time>2026-05-01T09:15:06Z</time></trkpt><trkpt lat="42.76693191853655" lon="12.860806613329286"><ele>358.5</ele><time>2026-05-01T09:15:07Z</time></trkpt><trkpt lat="42.76724528132651" lon="12.860850800337833"><ele>360.0</ele><time>2026-05-01T09:15:08Z</time></trkpt><trkpt lat="42.76750935266876" lon="12.86090603480717"><ele>348.0</ele><time>2026-05-01T09:15:09Z</time></trkpt><trkpt lat="42.76774791471659" lon="12.860973295535725"><ele>336.0</ele><time>2026-05-01T09:15:10Z</time></trkpt><trkpt lat="42.76797644205913" lon="12.861064327598454"><ele>336.0</ele><time>2026-05-01T09:15:11Z</time></trkpt><trkpt lat="42.76817794384077" lon="12.861171402307658"><ele>336.0</ele><time>2026-05-01T09:15:12Z</time></trkpt><trkpt lat="42.76835330050347" lon="12.861285510359922"><ele>336.0</ele><time>2026-05-01T09:15:13Z</time></trkpt><trkpt lat="42.76851275415319" lon="12.861414618152995"><ele>334.3333333333333</ele><time>2026-05-01T09:15:14Z</time></trkpt><trkpt lat="42.76865940325074" lon="12.861545818252381"><ele>332.66666666666663</ele><time>2026-05-01T09:15:15Z</time></trkpt><trkpt lat="42.76879765115999" lon="12.861674762708299"><ele>331.0</ele><time>2026-05-01T09:15:16Z</time></trkpt><trkpt lat="42.76892624509677" lon="12.861799764200027"><ele>331.0</ele><time>2026-05-01T09:15:17Z</time></trkpt><trkpt lat="42.76904652567049" lon="12.86191459996046"><ele>331.0</ele><time>2026-05-01T09:15:18Z</time></trkpt><trkpt lat="42.76915921109207" lon="12.86203126805394"><ele>331.0</ele><time>2026-05-01T09:15:19Z</time></trkpt><trkpt lat="42.769258503640145" lon="12.862132838644742"><ele>331.0</ele><time>2026-05-01T09:15:20Z</time></trkpt><trkpt lat="42.769336672196644" lon="12.862207793470033"><ele>331.0</ele><time>2026-05-01T09:15:21Z</time></trkpt><trkpt lat="42.76940470705547" lon="12.862263675894205"><ele>331.0</ele><time>2026-05-01T09:15:22Z</time></trkpt><trkpt lat="42.769461346521695" lon="12.862323189156497"><ele>331.0</ele><time>2026-05-01T09:15:23Z</time></trkpt><trkpt lat="42.76947887648515" lon="12.862431595694746"><ele>331.0</ele><time>2026-05-01T09:15:25Z</time></trkpt><trkpt lat="42.76938177996707" lon="12.862480226107362"><ele>331.0</ele><time>2026-05-01T09:15:27Z</time></trkpt><trkpt lat="42.76928566591881" lon="12.862401660504483"><ele>331.0</ele><time>2026-05-01T09:15:28Z</time></trkpt><trkpt lat="42.76917777943205" lon="12.862324052498488"><ele>331.0</ele><time>2026-05-01T09:15:29Z</time></trkpt><trkpt lat="42.769063155918325" lon="12.86222841140884"><ele>331.0</ele><time>2026-05-01T09:15:30Z</time></trkpt><trkpt lat="42.768932940759136" lon="12.862108950757678"><ele>331.0</ele><time>2026-05-01T09:15:31Z</time></trkpt><trkpt lat="42.768793268906165" lon="12.861977313421015"><ele>331.0</ele><time>2026-05-01T09:15:32Z</time></trkpt><trkpt lat="42.76864685860435" lon="12.861836354269187"><ele>331.0</ele><time>2026-05-01T09:15:33Z</time></trkpt><trkpt lat="42.76848512971832" lon="12.861696641489146"><ele>331.0</ele><time>2026-05-01T09:15:34Z</time></trkpt><trkpt lat="42.76830557799531" lon="12.86156959179597"><ele>332.66666666666663</ele><time>2026-05-01T09:15:35Z</time></trkpt><trkpt lat="42.76812864025491" lon="12.861459455366127"><ele>334.3333333333333</ele><time>2026-05-01T09:15:36Z</time></trkpt><trkpt lat="42.76794909725383" lon="12.861374848432634"><ele>336.0</ele><time>2026-05-01T09:15:37Z</time></trkpt><trkpt lat="42.76778174020635" lon="12.861311033685269"><ele>332.0</ele><time>2026-05-01T09:15:38Z</time></trkpt><trkpt lat="42.7676199901278" lon="12.861269081685105"><ele>328.0</ele><time>2026-05-01T09:15:39Z</time></trkpt><trkpt lat="42.76746001256795" lon="12.861254644646221"><ele>324.0</ele><time>2026-05-01T09:15:40Z</time></trkpt><trkpt lat="42.76731244814518" lon="12.861258351270113"><ele>324.0</ele><time>2026-05-01T09:15:41Z</time></trkpt><trkpt lat="42.76716010630878" lon="12.861283771661787"><ele>324.0</ele><time>2026-05-01T09:15:42Z</time></trkpt><trkpt lat="42.76702823504647" lon="12.861293673877169"><ele>324.0</ele><time>2026-05-01T09:15:43Z</time></trkpt><trkpt lat="42.7668953539708" lon="12.861305358598605"><ele>324.0</ele><time>2026-05-01T09:15:44Z</time></trkpt><trkpt lat="42.76675660736768" lon="12.861323104335897"><ele>322.8</ele><time>2026-05-01T09:15:45Z</time></trkpt><trkpt lat="42.76664487772757" lon="12.861322197048517"><ele>321.59999999999997</ele><time>2026-05-01T09:15:46Z</time></trkpt><trkpt lat="42.766535378191186" lon="12.861333748811266"><ele>320.4</ele><time>2026-05-01T09:15:47Z</time></trkpt><trkpt lat="42.76643241189845" lon="12.861352077148222"><ele>319.2</ele><time>2026-05-01T09:15:48Z</time></trkpt><trkpt lat="42.766355092718" lon="12.861340844576883"><ele>318.0</ele><time>2026-05-01T09:15:49Z</time></trkpt><trkpt lat="42.76625945528212" lon="12.86134978981298"><ele>318.0</ele><time>2026-05-01T09:15:51Z</time></trkpt><trkpt lat="42.76616354607098" lon="12.861368613658543"><ele>318.0</ele><time>2026-05-01T09:15:53Z</time></trkpt><trkpt lat="42.76626442098404" lon="12.86170391404384"><ele>318.0</ele><time>2026-05-01T09:16:39Z</time></trkpt><trkpt lat="42.766207396628865" lon="12.861606287038558"><ele>318.0</ele><time>2026-05-01T09:25:41Z</time></trkpt><trkpt lat="42.76620828296522" lon="12.861475182643025"><ele>318.0</ele><time>2026-05-01T09:25:44Z</time></trkpt><trkpt lat="42.76621223879495" lon="12.861389389328165"><ele>318.0</ele><time>2026-05-01T09:25:47Z</time></trkpt><trkpt lat="42.76612819577338" lon="12.861334537726835"><ele>318.0</ele><time>2026-05-01T09:25:49Z</time></trkpt><trkpt lat="42.766046654217604" lon="12.861348285513483"><ele>318.0</ele><time>2026-05-01T09:25:50Z</time></trkpt><trkpt lat="42.765964138448446" lon="12.861377015624068"><ele>318.0</ele><time>2026-05-01T09:25:51Z</time></trkpt><trkpt lat="42.765900411306134" lon="12.861415471406632"><ele>317.4</ele><time>2026-05-01T09:25:52Z</time></trkpt><trkpt lat="42.76584870053481" lon="12.861504246336416"><ele>316.8</ele><time>2026-05-01T09:25:54Z</time></trkpt><trkpt lat="42.76587686151201" lon="12.861619200780968"><ele>316.2</ele><time>2026-05-01T09:25:58Z</time></trkpt><trkpt lat="42.76593983156809" lon="12.861758699688018"><ele>315.6</ele><time>2026-05-01T09:26:00Z</time></trkpt><trkpt lat="42.76601030611091" lon="12.861822054953928"><ele>315.0</ele><time>2026-05-01T09:26:01Z</time></trkpt><trkpt lat="42.76610693475355" lon="12.86188835468998"><ele>314.25</ele><time>2026-05-01T09:26:02Z</time></trkpt><trkpt lat="42.76622392629742" lon="12.861965438214748"><ele>313.5</ele><time>2026-05-01T09:26:03Z</time></trkpt><trkpt lat="42.766353126557064" lon="12.862052543068094"><ele>312.75</ele><time>2026-05-01T09:26:04Z</time></trkpt><trkpt lat="42.7664909715114" lon="12.862137311655099"><ele>312.0</ele><time>2026-05-01T09:26:05Z</time></trkpt><trkpt lat="42.766632533603186" lon="12.862226623358824"><ele>312.0</ele><time>2026-05-01T09:26:06Z</time></trkpt><trkpt lat="42.76678015303795" lon="12.862320567214562"><ele>312.0</ele><time>2026-05-01T09:26:07Z</time></trkpt><trkpt lat="42.76692110496305" lon="12.862416546602148"><ele>312.0</ele><time>2026-05-01T09:26:08Z</time></trkpt><trkpt lat="42.767066215376026" lon="12.862524911386368"><ele>311.3333333333333</ele><time>2026-05-01T09:26:09Z</time></trkpt><trkpt lat="42.767220377975896" lon="12.862621678297579"><ele>310.66666666666663</ele><time>2026-05-01T09:26:10Z</time></trkpt><trkpt lat="42.76737141185042" lon="12.86272199420589"><ele>310.0</ele><time>2026-05-01T09:26:11Z</time></trkpt><trkpt lat="42.76751340087136" lon="12.862820206604367"><ele>310.0</ele><time>2026-05-01T09:26:12Z</time></trkpt><trkpt lat="42.76766013236116" lon="12.862919596096193"><ele>310.0</ele><time>2026-05-01T09:26:13Z</time></trkpt><trkpt lat="42.76780949858263" lon="12.863022306827366"><ele>310.0</ele><time>2026-05-01T09:26:14Z</time></trkpt><trkpt lat="42.76796109819609" lon="12.863125968846743"><ele>311.3333333333333</ele><time>2026-05-01T09:26:15Z</time></trkpt><trkpt lat="42.76811072658085" lon="12.863227901093595"><ele>312.6666666666667</ele><time>2026-05-01T09:26:16Z</time></trkpt><trkpt lat="42.7682521203442" lon="12.863321269899235"><ele>314.0</ele><time>2026-05-01T09:26:17Z</time></trkpt><trkpt lat="42.76839032683657" lon="12.863412058723267"><ele>314.25</ele><time>2026-05-01T09:26:18Z</time></trkpt><trkpt lat="42.76852108470148" lon="12.863501325676372"><ele>314.5</ele><time>2026-05-01T09:26:19Z</time></trkpt><trkpt lat="42.76864563896427" lon="12.863581449214752"><ele>314.75</ele><time>2026-05-01T09:26:20Z</time></trkpt><trkpt lat="42.76879143514175" lon="12.863677377988386"><ele>315.0</ele><time>2026-05-01T09:26:21Z</time></trkpt><trkpt lat="42.76895182025662" lon="12.863786748722523"><ele>315.0</ele><time>2026-05-01T09:26:22Z</time></trkpt><trkpt lat="42.76911713472461" lon="12.863900209473675"><ele>315.0</ele><time>2026-05-01T09:26:23Z</time></trkpt><trkpt lat="42.76927754950073" lon="12.864008647872373"><ele>315.0</ele><time>2026-05-01T09:26:24Z</time></trkpt><trkpt lat="42.769437772845315" lon="12.864120757333149"><ele>316.6666666666667</ele><time>2026-05-01T09:26:25Z</time></trkpt><trkpt lat="42.7696013592027" lon="12.864228136548373"><ele>318.33333333333337</ele><time>2026-05-01T09:26:26Z</time></trkpt><trkpt lat="42.76976906435467" lon="12.864337479857223"><ele>320.0</ele><time>2026-05-01T09:26:27Z</time></trkpt><trkpt lat="42.76994486629958" lon="12.864444269307878"><ele>320.0</ele><time>2026-05-01T09:26:28Z</time></trkpt><trkpt lat="42.770128741922875" lon="12.864548153264684"><ele>320.0</ele><time>2026-05-01T09:26:29Z</time></trkpt><trkpt lat="42.77031079661741" lon="12.864648520209544"><ele>320.0</ele><time>2026-05-01T09:26:30Z</time></trkpt><trkpt lat="42.77049504315532" lon="12.86475150169143"><ele>321.6666666666667</ele><time>2026-05-01T09:26:31Z</time></trkpt><trkpt lat="42.770684172446764" lon="12.864859849089852"><ele>323.3333333333333</ele><time>2026-05-01T09:26:32Z</time></trkpt><trkpt lat="42.770866472907436" lon="12.86496551860431"><ele>325.0</ele><time>2026-05-01T09:26:33Z</time></trkpt><trkpt lat="42.77103061697311" lon="12.86505748298171"><ele>322.66666666666663</ele><time>2026-05-01T09:26:34Z</time></trkpt><trkpt lat="42.7711833268757" lon="12.865141902231063"><ele>320.3333333333333</ele><time>2026-05-01T09:26:35Z</time></trkpt><trkpt lat="42.77133997885804" lon="12.86522925568255"><ele>318.0</ele><time>2026-05-01T09:26:36Z</time></trkpt><trkpt lat="42.77151211381128" lon="12.865323321087498"><ele>318.0</ele><time>2026-05-01T09:26:37Z</time></trkpt><trkpt lat="42.77171069959497" lon="12.865417125941327"><ele>318.0</ele><time>2026-05-01T09:26:38Z</time></trkpt><trkpt lat="42.77191926069159" lon="12.865555990066783"><ele>318.0</ele><time>2026-05-01T09:26:39Z</time></trkpt><trkpt lat="42.77214634078356" lon="12.865683971292666"><ele>318.3333333333333</ele><time>2026-05-01T09:26:40Z</time></trkpt><trkpt lat="42.77235640226805" lon="12.865789321438685"><ele>318.66666666666663</ele><time>2026-05-01T09:26:41Z</time></trkpt><trkpt lat="42.77254280347943" lon="12.865899703859872"><ele>319.0</ele><time>2026-05-01T09:26:42Z</time></trkpt><trkpt lat="42.77271507573616" lon="12.865991916012588"><ele>319.0</ele><time>2026-05-01T09:26:43Z</time></trkpt><trkpt lat="42.772881966472404" lon="12.866074968445364"><ele>319.0</ele><time>2026-05-01T09:26:44Z</time></trkpt><trkpt lat="42.773045299933194" lon="12.866167012773605"><ele>319.0</ele><time>2026-05-01T09:26:45Z</time></trkpt><trkpt lat="42.77320637535767" lon="12.866258608290856"><ele>319.0</ele><time>2026-05-01T09:26:46Z</time></trkpt><trkpt lat="42.77337820829404" lon="12.866330015374265"><ele>319.0</ele><time>2026-05-01T09:26:47Z</time></trkpt><trkpt lat="42.77356108271714" lon="12.866391538157442"><ele>319.0</ele><time>2026-05-01T09:26:48Z</time></trkpt><trkpt lat="42.77377779608261" lon="12.866441092085026"><ele>321.0</ele><time>2026-05-01T09:26:49Z</time></trkpt><trkpt lat="42.77401784268393" lon="12.866480848270399"><ele>323.0</ele><time>2026-05-01T09:26:50Z</time></trkpt><trkpt lat="42.77426699028774" lon="12.866517798121684"><ele>327.5</ele><time>2026-05-01T09:26:51Z</time></trkpt><trkpt lat="42.77460682824592" lon="12.866548656083655"><ele>332.0</ele><time>2026-05-01T09:26:52Z</time></trkpt><trkpt lat="42.77489073901319" lon="12.866620937686926"><ele>332.0</ele><time>2026-05-01T09:26:53Z</time></trkpt><trkpt lat="42.77506995092875" lon="12.86667977682"><ele>332.0</ele><time>2026-05-01T09:26:54Z</time></trkpt><trkpt lat="42.77521671374226" lon="12.866726204689673"><ele>332.0</ele><time>2026-05-01T09:26:55Z</time></trkpt><trkpt lat="42.77537766694146" lon="12.866803320500585"><ele>327.6666666666667</ele><time>2026-05-01T09:26:56Z</time></trkpt><trkpt lat="42.77554872444843" lon="12.866867895459238"><ele>323.3333333333333</ele><time>2026-05-01T09:26:57Z</time></trkpt><trkpt lat="42.77571976988228" lon="12.866927754577619"><ele>319.0</ele><time>2026-05-01T09:26:58Z</time></trkpt><trkpt lat="42.77588117165566" lon="12.866988532406232"><ele>323.0</ele><time>2026-05-01T09:26:59Z</time></trkpt><trkpt lat="42.77604957281345" lon="12.867056102881921"><ele>327.0</ele><time>2026-05-01T09:27:00Z</time></trkpt><trkpt lat="42.776198724060265" lon="12.867137759949687"><ele>331.0</ele><time>2026-05-01T09:27:01Z</time></trkpt><trkpt lat="42.77632978255887" lon="12.86722922363531"><ele>331.0</ele><time>2026-05-01T09:27:02Z</time></trkpt><trkpt lat="42.77643671260187" lon="12.867330352258515"><ele>331.0</ele><time>2026-05-01T09:27:03Z</time></trkpt><trkpt lat="42.77661752251187" lon="12.867486069199327"><ele>331.0</ele><time>2026-05-01T09:27:04Z</time></trkpt><trkpt lat="42.7767949202882" lon="12.867700805875279"><ele>328.66666666666663</ele><time>2026-05-01T09:27:05Z</time></trkpt><trkpt lat="42.77701999083436" lon="12.867844664044833"><ele>326.3333333333333</ele><time>2026-05-01T09:27:06Z</time></trkpt><trkpt lat="42.77718068818052" lon="12.867975544833403"><ele>324.0</ele><time>2026-05-01T09:27:07Z</time></trkpt><trkpt lat="42.77726863709872" lon="12.867960107962348"><ele>324.0</ele><time>2026-05-01T09:27:08Z</time></trkpt><trkpt lat="42.77737590769537" lon="12.86799648182448"><ele>324.0</ele><time>2026-05-01T09:27:09Z</time></trkpt><trkpt lat="42.77751933111057" lon="12.867998295456019"><ele>324.0</ele><time>2026-05-01T09:27:10Z</time></trkpt><trkpt lat="42.777740460590266" lon="12.867985401636668"><ele>324.0</ele><time>2026-05-01T09:27:11Z</time></trkpt><trkpt lat="42.77792907799301" lon="12.867953903220252"><ele>324.0</ele><time>2026-05-01T09:27:12Z</time></trkpt><trkpt lat="42.77817279539292" lon="12.867951869795457"><ele>324.0</ele><time>2026-05-01T09:27:13Z</time></trkpt><trkpt lat="42.778384045846934" lon="12.867949024588519"><ele>325.25</ele><time>2026-05-01T09:27:14Z</time></trkpt><trkpt lat="42.77852577513876" lon="12.867963665484023"><ele>326.5</ele><time>2026-05-01T09:27:15Z</time></trkpt><trkpt lat="42.778645544104194" lon="12.868001516357124"><ele>327.75</ele><time>2026-05-01T09:27:16Z</time></trkpt><trkpt lat="42.778808593088144" lon="12.868052699770205"><ele>329.0</ele><time>2026-05-01T09:27:17Z</time></trkpt><trkpt lat="42.77895152246047" lon="12.868099130789311"><ele>329.0</ele><time>2026-05-01T09:27:18Z</time></trkpt><trkpt lat="42.779140793750074" lon="12.868160615938502"><ele>329.0</ele><time>2026-05-01T09:27:19Z</time></trkpt><trkpt lat="42.779360096549034" lon="12.86823232219013"><ele>329.0</ele><time>2026-05-01T09:27:20Z</time></trkpt><trkpt lat="42.779693854571015" lon="12.868342496497387"><ele>330.5</ele><time>2026-05-01T09:27:21Z</time></trkpt><trkpt lat="42.77996989157842" lon="12.868432617865617"><ele>332.0</ele><time>2026-05-01T09:27:22Z</time></trkpt><trkpt lat="42.78021293571809" lon="12.868511349011829"><ele>328.6666666666667</ele><time>2026-05-01T09:27:23Z</time></trkpt><trkpt lat="42.780441516656246" lon="12.868585662374091"><ele>325.3333333333333</ele><time>2026-05-01T09:27:24Z</time></trkpt><trkpt lat="42.780622738367775" lon="12.868644900801401"><ele>322.0</ele><time>2026-05-01T09:27:25Z</time></trkpt><trkpt lat="42.780803324241234" lon="12.86870393139664"><ele>322.0</ele><time>2026-05-01T09:27:26Z</time></trkpt><trkpt lat="42.780980728077886" lon="12.868762140418184"><ele>322.0</ele><time>2026-05-01T09:27:27Z</time></trkpt><trkpt lat="42.7811540285404" lon="12.868807654472606"><ele>322.0</ele><time>2026-05-01T09:27:28Z</time></trkpt><trkpt lat="42.78132802572277" lon="12.8687954557668"><ele>322.75</ele><time>2026-05-01T09:27:29Z</time></trkpt><trkpt lat="42.78148354064292" lon="12.868786857565464"><ele>323.5</ele><time>2026-05-01T09:27:30Z</time></trkpt><trkpt lat="42.781631407334125" lon="12.868811298434968"><ele>324.25</ele><time>2026-05-01T09:27:31Z</time></trkpt><trkpt lat="42.78176673980778" lon="12.868849884410952"><ele>325.0</ele><time>2026-05-01T09:27:32Z</time></trkpt><trkpt lat="42.78189305090499" lon="12.86891999517024"><ele>324.66666666666663</ele><time>2026-05-01T09:27:33Z</time></trkpt><trkpt lat="42.78200552913912" lon="12.869025346853503"><ele>324.3333333333333</ele><time>2026-05-01T09:27:34Z</time></trkpt><trkpt lat="42.78211936343373" lon="12.869156979200929"><ele>324.0</ele><time>2026-05-01T09:27:35Z</time></trkpt><trkpt lat="42.78226122613808" lon="12.869310832149376"><ele>324.0</ele><time>2026-05-01T09:27:36Z</time></trkpt><trkpt lat="42.78246422428481" lon="12.86950420547623"><ele>324.0</ele><time>2026-05-01T09:27:37Z</time></trkpt><trkpt lat="42.78266795482621" lon="12.86966470520215"><ele>326.0</ele><time>2026-05-01T09:27:38Z</time></trkpt><trkpt lat="42.78281622954214" lon="12.869816961180844"><ele>328.0</ele><time>2026-05-01T09:27:39Z</time></trkpt><trkpt lat="42.78294592229224" lon="12.86996020271654"><ele>330.0</ele><time>2026-05-01T09:27:40Z</time></trkpt><trkpt lat="42.78303377051807" lon="12.870144918451825"><ele>331.3333333333333</ele><time>2026-05-01T09:27:41Z</time></trkpt><trkpt lat="42.783102347182215" lon="12.870322773028356"><ele>332.66666666666663</ele><time>2026-05-01T09:27:42Z</time></trkpt><trkpt lat="42.7831757336204" lon="12.870547812831441"><ele>334.0</ele><time>2026-05-01T09:27:43Z</time></trkpt><trkpt lat="42.783262710505376" lon="12.87083558957448"><ele>333.3333333333333</ele><time>2026-05-01T09:27:44Z</time></trkpt><trkpt lat="42.78335466545062" lon="12.871129231563248"><ele>332.6666666666667</ele><time>2026-05-01T09:27:45Z</time></trkpt><trkpt lat="42.78343275077526" lon="12.871352790746478"><ele>332.0</ele><time>2026-05-01T09:27:46Z</time></trkpt><trkpt lat="42.78347853480443" lon="12.871565229635664"><ele>332.0</ele><time>2026-05-01T09:27:47Z</time></trkpt><trkpt lat="42.78347461085587" lon="12.871837965909787"><ele>332.0</ele><time>2026-05-01T09:27:48Z</time></trkpt><trkpt lat="42.783472910087916" lon="12.872162260315397"><ele>332.0</ele><time>2026-05-01T09:27:49Z</time></trkpt><trkpt lat="42.783468390332395" lon="12.872504584747798"><ele>330.6666666666667</ele><time>2026-05-01T09:27:50Z</time></trkpt><trkpt lat="42.78346200247518" lon="12.872796614620984"><ele>329.3333333333333</ele><time>2026-05-01T09:27:51Z</time></trkpt><trkpt lat="42.7834671447962" lon="12.873030197653794"><ele>328.0</ele><time>2026-05-01T09:27:52Z</time></trkpt><trkpt lat="42.78352937863451" lon="12.873242787305593"><ele>327.0</ele><time>2026-05-01T09:27:53Z</time></trkpt><trkpt lat="42.78364913966705" lon="12.873446099770447"><ele>326.0</ele><time>2026-05-01T09:27:54Z</time></trkpt><trkpt lat="42.78382369911489" lon="12.873634014768749"><ele>325.0</ele><time>2026-05-01T09:27:55Z</time></trkpt><trkpt lat="42.78405247003243" lon="12.873789246319065"><ele>325.0</ele><time>2026-05-01T09:27:56Z</time></trkpt><trkpt lat="42.784276899210745" lon="12.873890718035332"><ele>325.0</ele><time>2026-05-01T09:27:57Z</time></trkpt><trkpt lat="42.78452309936917" lon="12.873922603934917"><ele>327.5</ele><time>2026-05-01T09:27:58Z</time></trkpt><trkpt lat="42.784830630136305" lon="12.873887744243834"><ele>330.0</ele><time>2026-05-01T09:27:59Z</time></trkpt><trkpt lat="42.78510982902843" lon="12.87385744299294"><ele>332.5</ele><time>2026-05-01T09:28:00Z</time></trkpt><trkpt lat="42.78535219761485" lon="12.873887596965378"><ele>335.0</ele><time>2026-05-01T09:28:01Z</time></trkpt><trkpt lat="42.78556748959647" lon="12.873937755419282"><ele>335.0</ele><time>2026-05-01T09:28:02Z</time></trkpt><trkpt lat="42.785740624483324" lon="12.874009826642526"><ele>335.0</ele><time>2026-05-01T09:28:03Z</time></trkpt><trkpt lat="42.785894488364846" lon="12.874092214025072"><ele>335.0</ele><time>2026-05-01T09:28:04Z</time></trkpt><trkpt lat="42.786038510049735" lon="12.874172958376539"><ele>336.0</ele><time>2026-05-01T09:28:05Z</time></trkpt><trkpt lat="42.78616186890603" lon="12.874246044375013"><ele>337.0</ele><time>2026-05-01T09:28:06Z</time></trkpt><trkpt lat="42.78627986437618" lon="12.874326522546943"><ele>338.0</ele><time>2026-05-01T09:28:07Z</time></trkpt><trkpt lat="42.786388020472145" lon="12.874423599648695"><ele>339.0</ele><time>2026-05-01T09:28:08Z</time></trkpt><trkpt lat="42.786485757729764" lon="12.874533418410966"><ele>339.0</ele><time>2026-05-01T09:28:09Z</time></trkpt><trkpt lat="42.78657608956297" lon="12.87466487446344"><ele>339.0</ele><time>2026-05-01T09:28:10Z</time></trkpt><trkpt lat="42.78666438803392" lon="12.874794050579602"><ele>339.0</ele><time>2026-05-01T09:28:11Z</time></trkpt><trkpt lat="42.78672342278994" lon="12.874959598393172"><ele>339.0</ele><time>2026-05-01T09:28:12Z</time></trkpt><trkpt lat="42.78677538292762" lon="12.875152308185502"><ele>338.0</ele><time>2026-05-01T09:28:13Z</time></trkpt><trkpt lat="42.786819098855965" lon="12.87534849795795"><ele>337.0</ele><time>2026-05-01T09:28:14Z</time></trkpt><trkpt lat="42.78685972585425" lon="12.875531888834589"><ele>336.0</ele><time>2026-05-01T09:28:15Z</time></trkpt><trkpt lat="42.78689596389763" lon="12.875698114328038"><ele>335.0</ele><time>2026-05-01T09:28:16Z</time></trkpt><trkpt lat="42.78693223477438" lon="12.87587486021161"><ele>347.6666666666667</ele><time>2026-05-01T09:28:17Z</time></trkpt><trkpt lat="42.786970893897234" lon="12.87606366183173"><ele>360.3333333333333</ele><time>2026-05-01T09:28:18Z</time></trkpt><trkpt lat="42.787010422820266" lon="12.876250331065746"><ele>373.0</ele><time>2026-05-01T09:28:19Z</time></trkpt><trkpt lat="42.78705731989075" lon="12.876463849595742"><ele>373.0</ele><time>2026-05-01T09:28:20Z</time></trkpt><trkpt lat="42.78712372441695" lon="12.876721004081574"><ele>373.0</ele><time>2026-05-01T09:28:21Z</time></trkpt><trkpt lat="42.78720177571374" lon="12.876991264422115"><ele>373.0</ele><time>2026-05-01T09:28:22Z</time></trkpt><trkpt lat="42.787281775889085" lon="12.877249925761763"><ele>359.5</ele><time>2026-05-01T09:28:23Z</time></trkpt><trkpt lat="42.78737491354513" lon="12.877549789482801"><ele>346.0</ele><time>2026-05-01T09:28:24Z</time></trkpt><trkpt lat="42.78757568149286" lon="12.878195735759103"><ele>359.0</ele><time>2026-05-01T09:28:25Z</time></trkpt><trkpt lat="42.78769557928357" lon="12.878582212775218"><ele>372.0</ele><time>2026-05-01T09:28:26Z</time></trkpt><trkpt lat="42.78779838497185" lon="12.878913275251776"><ele>372.0</ele><time>2026-05-01T09:28:27Z</time></trkpt><trkpt lat="42.787888109703665" lon="12.879201950392122"><ele>372.0</ele><time>2026-05-01T09:28:28Z</time></trkpt><trkpt lat="42.787975346364924" lon="12.879482620498063"><ele>360.5</ele><time>2026-05-01T09:28:29Z</time></trkpt><trkpt lat="42.788073775630465" lon="12.879797903059645"><ele>349.0</ele><time>2026-05-01T09:28:30Z</time></trkpt><trkpt lat="42.7881748189807" lon="12.880074757075272"><ele>345.0</ele><time>2026-05-01T09:28:31Z</time></trkpt><trkpt lat="42.78832269685704" lon="12.880277477594491"><ele>341.0</ele><time>2026-05-01T09:28:32Z</time></trkpt><trkpt lat="42.78848254240027" lon="12.880448295353744"><ele>337.0</ele><time>2026-05-01T09:28:33Z</time></trkpt><trkpt lat="42.78867637957764" lon="12.880564897907547"><ele>337.0</ele><time>2026-05-01T09:28:34Z</time></trkpt><trkpt lat="42.78891052881628" lon="12.880646624842502"><ele>337.0</ele><time>2026-05-01T09:28:35Z</time></trkpt><trkpt lat="42.78916478462879" lon="12.880744809400994"><ele>341.5</ele><time>2026-05-01T09:28:36Z</time></trkpt><trkpt lat="42.78939813823557" lon="12.880973213173785"><ele>346.0</ele><time>2026-05-01T09:28:37Z</time></trkpt><trkpt lat="42.789623120091896" lon="12.881238542097671"><ele>346.0</ele><time>2026-05-01T09:28:38Z</time></trkpt><trkpt lat="42.7898311920943" lon="12.881490957126275"><ele>346.0</ele><time>2026-05-01T09:28:39Z</time></trkpt><trkpt lat="42.790003616219124" lon="12.881700425863471"><ele>345.0</ele><time>2026-05-01T09:28:40Z</time></trkpt><trkpt lat="42.79016806125439" lon="12.881899837009973"><ele>344.0</ele><time>2026-05-01T09:28:41Z</time></trkpt><trkpt lat="42.790323199531834" lon="12.882096745412694"><ele>343.0</ele><time>2026-05-01T09:28:42Z</time></trkpt><trkpt lat="42.790466706745214" lon="12.882303085700928"><ele>342.66666666666663</ele><time>2026-05-01T09:28:43Z</time></trkpt><trkpt lat="42.79060311754943" lon="12.88252865708068"><ele>342.3333333333333</ele><time>2026-05-01T09:28:44Z</time></trkpt><trkpt lat="42.79073981460933" lon="12.882761246187364"><ele>342.0</ele><time>2026-05-01T09:28:45Z</time></trkpt><trkpt lat="42.79086169568319" lon="12.882980747498168"><ele>342.0</ele><time>2026-05-01T09:28:46Z</time></trkpt><trkpt lat="42.790968907908585" lon="12.883200237071092"><ele>342.0</ele><time>2026-05-01T09:28:47Z</time></trkpt><trkpt lat="42.79103267109954" lon="12.883468888879003"><ele>342.0</ele><time>2026-05-01T09:28:48Z</time></trkpt><trkpt lat="42.79104777445074" lon="12.883733447329865"><ele>359.5</ele><time>2026-05-01T09:28:49Z</time></trkpt><trkpt lat="42.79104943419561" lon="12.88405047635206"><ele>377.0</ele><time>2026-05-01T09:28:50Z</time></trkpt><trkpt lat="42.791047422583816" lon="12.884366102127847"><ele>377.33333333333337</ele><time>2026-05-01T09:28:51Z</time></trkpt><trkpt lat="42.79104391480868" lon="12.884649540856659"><ele>377.6666666666667</ele><time>2026-05-01T09:28:52Z</time></trkpt><trkpt lat="42.791040391753036" lon="12.88489472483269"><ele>378.0</ele><time>2026-05-01T09:28:53Z</time></trkpt><trkpt lat="42.79105306975599" lon="12.885120137729208"><ele>371.6666666666667</ele><time>2026-05-01T09:28:54Z</time></trkpt><trkpt lat="42.79105702786898" lon="12.885335945619255"><ele>365.33333333333337</ele><time>2026-05-01T09:28:55Z</time></trkpt><trkpt lat="42.79108200919493" lon="12.885554803316895"><ele>359.0</ele><time>2026-05-01T09:28:56Z</time></trkpt><trkpt lat="42.791155135110834" lon="12.885754270622105"><ele>359.0</ele><time>2026-05-01T09:28:57Z</time></trkpt><trkpt lat="42.791264463782554" lon="12.885921631007253"><ele>359.0</ele><time>2026-05-01T09:28:58Z</time></trkpt><trkpt lat="42.791421221187875" lon="12.886070952658041"><ele>359.0</ele><time>2026-05-01T09:28:59Z</time></trkpt><trkpt lat="42.791592927256325" lon="12.886268227789705"><ele>365.0</ele><time>2026-05-01T09:29:00Z</time></trkpt><trkpt lat="42.791800686935744" lon="12.886492983766829"><ele>371.0</ele><time>2026-05-01T09:29:01Z</time></trkpt><trkpt lat="42.79203201751675" lon="12.886743563424911"><ele>356.0</ele><time>2026-05-01T09:29:02Z</time></trkpt><trkpt lat="42.792280031677784" lon="12.886981351494017"><ele>341.0</ele><time>2026-05-01T09:29:03Z</time></trkpt><trkpt lat="42.7925146835982" lon="12.887247282177212"><ele>346.0</ele><time>2026-05-01T09:29:04Z</time></trkpt><trkpt lat="42.7927616154646" lon="12.887495889388674"><ele>351.0</ele><time>2026-05-01T09:29:05Z</time></trkpt><trkpt lat="42.79311918208591" lon="12.887560157036782"><ele>345.0</ele><time>2026-05-01T09:29:06Z</time></trkpt><trkpt lat="42.793434765527145" lon="12.887667425381665"><ele>339.0</ele><time>2026-05-01T09:29:07Z</time></trkpt><trkpt lat="42.79372499478594" lon="12.887758180131433"><ele>339.0</ele><time>2026-05-01T09:29:08Z</time></trkpt><trkpt lat="42.79397929666816" lon="12.887835901678777"><ele>339.0</ele><time>2026-05-01T09:29:09Z</time></trkpt><trkpt lat="42.79422715735645" lon="12.88792949733877"><ele>341.0</ele><time>2026-05-01T09:29:10Z</time></trkpt><trkpt lat="42.79447711959344" lon="12.888016818296835"><ele>343.0</ele><time>2026-05-01T09:29:11Z</time></trkpt><trkpt lat="42.79472207826684" lon="12.888098056361418"><ele>343.0</ele><time>2026-05-01T09:29:12Z</time></trkpt><trkpt lat="42.794966230205766" lon="12.88818552796758"><ele>343.0</ele><time>2026-05-01T09:29:13Z</time></trkpt><trkpt lat="42.79520951744778" lon="12.888266736407298"><ele>347.5</ele><time>2026-05-01T09:29:14Z</time></trkpt><trkpt lat="42.795449697703475" lon="12.88834298990781"><ele>352.0</ele><time>2026-05-01T09:29:15Z</time></trkpt><trkpt lat="42.79569192044139" lon="12.888402106047282"><ele>348.0</ele><time>2026-05-01T09:29:16Z</time></trkpt><trkpt lat="42.79595009377994" lon="12.888433991620412"><ele>344.0</ele><time>2026-05-01T09:29:17Z</time></trkpt><trkpt lat="42.796205970873174" lon="12.888489673319155"><ele>344.0</ele><time>2026-05-01T09:29:18Z</time></trkpt><trkpt lat="42.79645985651978" lon="12.888633040378682"><ele>344.0</ele><time>2026-05-01T09:29:19Z</time></trkpt><trkpt lat="42.79670917062559" lon="12.888833378454967"><ele>354.5</ele><time>2026-05-01T09:29:20Z</time></trkpt><trkpt lat="42.79692328719778" lon="12.88904995636981"><ele>365.0</ele><time>2026-05-01T09:29:21Z</time></trkpt><trkpt lat="42.79711357844027" lon="12.889241318308608"><ele>355.0</ele><time>2026-05-01T09:29:22Z</time></trkpt><trkpt lat="42.797315273756766" lon="12.889409407833352"><ele>345.0</ele><time>2026-05-01T09:29:23Z</time></trkpt><trkpt lat="42.79753755982824" lon="12.889582032807438"><ele>352.5</ele><time>2026-05-01T09:29:24Z</time></trkpt><trkpt lat="42.797768937500656" lon="12.889767728614162"><ele>360.0</ele><time>2026-05-01T09:29:25Z</time></trkpt><trkpt lat="42.79797368156047" lon="12.889976299707875"><ele>362.0</ele><time>2026-05-01T09:29:26Z</time></trkpt><trkpt lat="42.79813708611996" lon="12.890209762593942"><ele>364.0</ele><time>2026-05-01T09:29:27Z</time></trkpt><trkpt lat="42.79827210903806" lon="12.890467649122117"><ele>364.0</ele><time>2026-05-01T09:29:28Z</time></trkpt><trkpt lat="42.798380600305606" lon="12.890749279269926"><ele>364.0</ele><time>2026-05-01T09:29:29Z</time></trkpt><trkpt lat="42.798476527335275" lon="12.891069708336326"><ele>376.5</ele><time>2026-05-01T09:29:30Z</time></trkpt><trkpt lat="42.79856604292921" lon="12.891422370271348"><ele>389.0</ele><time>2026-05-01T09:29:31Z</time></trkpt><trkpt lat="42.798659100250966" lon="12.89179492082931"><ele>389.0</ele><time>2026-05-01T09:29:32Z</time></trkpt><trkpt lat="42.79872975282295" lon="12.892213630183377"><ele>389.0</ele><time>2026-05-01T09:29:33Z</time></trkpt><trkpt lat="42.798769424958415" lon="12.892656771080713"><ele>387.0</ele><time>2026-05-01T09:29:34Z</time></trkpt><trkpt lat="42.798790484210855" lon="12.893145349720946"><ele>385.0</ele><time>2026-05-01T09:29:35Z</time></trkpt><trkpt lat="42.79880174357716" lon="12.893619817103772"><ele>381.5</ele><time>2026-05-01T09:29:36Z</time></trkpt><trkpt lat="42.79880532709428" lon="12.894038585972696"><ele>378.0</ele><time>2026-05-01T09:29:37Z</time></trkpt><trkpt lat="42.79881421827745" lon="12.894366414460348"><ele>368.5</ele><time>2026-05-01T09:29:38Z</time></trkpt><trkpt lat="42.79886412053038" lon="12.894649562685498"><ele>359.0</ele><time>2026-05-01T09:29:39Z</time></trkpt><trkpt lat="42.798970150559995" lon="12.894946054120306"><ele>357.5</ele><time>2026-05-01T09:29:40Z</time></trkpt><trkpt lat="42.799132772933596" lon="12.895241786525329"><ele>356.0</ele><time>2026-05-01T09:29:41Z</time></trkpt><trkpt lat="42.79934521508528" lon="12.895547540484767"><ele>356.0</ele><time>2026-05-01T09:29:42Z</time></trkpt><trkpt lat="42.79955070818686" lon="12.895813336531887"><ele>356.0</ele><time>2026-05-01T09:29:43Z</time></trkpt><trkpt lat="42.79976009065641" lon="12.896034017100845"><ele>352.0</ele><time>2026-05-01T09:29:44Z</time></trkpt><trkpt lat="42.80000280319712" lon="12.896193970556947"><ele>348.0</ele><time>2026-05-01T09:29:45Z</time></trkpt><trkpt lat="42.8002690865458" lon="12.896301742360707"><ele>346.5</ele><time>2026-05-01T09:29:46Z</time></trkpt><trkpt lat="42.80056850770525" lon="12.896351730387408"><ele>345.0</ele><time>2026-05-01T09:29:47Z</time></trkpt><trkpt lat="42.80087536966707" lon="12.896367003832028"><ele>345.5</ele><time>2026-05-01T09:29:48Z</time></trkpt><trkpt lat="42.80121171100993" lon="12.89637222375781"><ele>346.0</ele><time>2026-05-01T09:29:49Z</time></trkpt><trkpt lat="42.80156317865306" lon="12.896343485946801"><ele>349.0</ele><time>2026-05-01T09:29:50Z</time></trkpt><trkpt lat="42.80187892287282" lon="12.896275332467138"><ele>352.0</ele><time>2026-05-01T09:29:51Z</time></trkpt><trkpt lat="42.802115379549655" lon="12.89619133034729"><ele>352.0</ele><time>2026-05-01T09:29:52Z</time></trkpt><trkpt lat="42.80231493493417" lon="12.896149375742386"><ele>352.0</ele><time>2026-05-01T09:29:53Z</time></trkpt><trkpt lat="42.80249234430037" lon="12.896162769664414"><ele>352.0</ele><time>2026-05-01T09:29:54Z</time></trkpt><trkpt lat="42.80267466532691" lon="12.896236359318575"><ele>366.0</ele><time>2026-05-01T09:29:55Z</time></trkpt><trkpt lat="42.80286294121343" lon="12.896393783555613"><ele>380.0</ele><time>2026-05-01T09:29:56Z</time></trkpt><trkpt lat="42.803014288537014" lon="12.896635860108754"><ele>366.0</ele><time>2026-05-01T09:29:57Z</time></trkpt><trkpt lat="42.8031607040148" lon="12.896942967917857"><ele>352.0</ele><time>2026-05-01T09:29:58Z</time></trkpt><trkpt lat="42.8033168103961" lon="12.897292134628039"><ele>351.0</ele><time>2026-05-01T09:29:59Z</time></trkpt><trkpt lat="42.80346866243379" lon="12.897587669054575"><ele>350.0</ele><time>2026-05-01T09:30:00Z</time></trkpt><trkpt lat="42.803605109036496" lon="12.897812742021223"><ele>350.0</ele><time>2026-05-01T09:30:01Z</time></trkpt><trkpt lat="42.8037492858716" lon="12.897958947452912"><ele>350.0</ele><time>2026-05-01T09:30:02Z</time></trkpt><trkpt lat="42.80393507450451" lon="12.898051990813183"><ele>350.0</ele><time>2026-05-01T09:30:03Z</time></trkpt><trkpt lat="42.80417362785043" lon="12.89806344458876"><ele>351.0</ele><time>2026-05-01T09:30:04Z</time></trkpt><trkpt lat="42.804437949541764" lon="12.89801486616988"><ele>352.0</ele><time>2026-05-01T09:30:05Z</time></trkpt><trkpt lat="42.804711121612556" lon="12.897944604431707"><ele>352.0</ele><time>2026-05-01T09:30:06Z</time></trkpt><trkpt lat="42.805002486367826" lon="12.897919638409775"><ele>352.0</ele><time>2026-05-01T09:30:07Z</time></trkpt><trkpt lat="42.80529843268965" lon="12.897931804615256"><ele>350.0</ele><time>2026-05-01T09:30:08Z</time></trkpt><trkpt lat="42.8056317719175" lon="12.897922748915011"><ele>348.0</ele><time>2026-05-01T09:30:09Z</time></trkpt><trkpt lat="42.80595117633393" lon="12.897874033692762"><ele>349.5</ele><time>2026-05-01T09:30:10Z</time></trkpt><trkpt lat="42.80624751426482" lon="12.89787518440061"><ele>351.0</ele><time>2026-05-01T09:30:11Z</time></trkpt><trkpt lat="42.80655562789172" lon="12.897955638162681"><ele>352.5</ele><time>2026-05-01T09:30:12Z</time></trkpt><trkpt lat="42.80687751775857" lon="12.89806454058564"><ele>354.0</ele><time>2026-05-01T09:30:13Z</time></trkpt><trkpt lat="42.80716631831234" lon="12.898143805272474"><ele>354.0</ele><time>2026-05-01T09:30:14Z</time></trkpt><trkpt lat="42.807411601276264" lon="12.898217385732183"><ele>354.0</ele><time>2026-05-01T09:30:15Z</time></trkpt><trkpt lat="42.80762813110286" lon="12.898279762442057"><ele>354.3333333333333</ele><time>2026-05-01T09:30:16Z</time></trkpt><trkpt lat="42.80783121117991" lon="12.898333764087242"><ele>354.66666666666663</ele><time>2026-05-01T09:30:17Z</time></trkpt><trkpt lat="42.8080150944402" lon="12.898383583773324"><ele>355.0</ele><time>2026-05-01T09:30:18Z</time></trkpt><trkpt lat="42.808183928248795" lon="12.89843132618491"><ele>355.0</ele><time>2026-05-01T09:30:19Z</time></trkpt><trkpt lat="42.80836577654793" lon="12.898500652189467"><ele>355.0</ele><time>2026-05-01T09:30:20Z</time></trkpt><trkpt lat="42.80854314357725" lon="12.898606229654703"><ele>355.0</ele><time>2026-05-01T09:30:21Z</time></trkpt><trkpt lat="42.808709341271026" lon="12.89873227411669"><ele>356.3333333333333</ele><time>2026-05-01T09:30:22Z</time></trkpt><trkpt lat="42.80885238112915" lon="12.898897087025238"><ele>357.6666666666667</ele><time>2026-05-01T09:30:23Z</time></trkpt><trkpt lat="42.80898169890211" lon="12.899081661561798"><ele>359.0</ele><time>2026-05-01T09:30:24Z</time></trkpt><trkpt lat="42.809083726174194" lon="12.899280424610165"><ele>359.0</ele><time>2026-05-01T09:30:25Z</time></trkpt><trkpt lat="42.80914974754463" lon="12.899489690955539"><ele>359.0</ele><time>2026-05-01T09:30:26Z</time></trkpt><trkpt lat="42.80920660477666" lon="12.899709295079518"><ele>359.0</ele><time>2026-05-01T09:30:27Z</time></trkpt><trkpt lat="42.809239450890125" lon="12.899942721362809"><ele>362.0</ele><time>2026-05-01T09:30:28Z</time></trkpt><trkpt lat="42.80923718918419" lon="12.900167404402685"><ele>365.0</ele><time>2026-05-01T09:30:29Z</time></trkpt><trkpt lat="42.80921177395693" lon="12.900388799493049"><ele>368.0</ele><time>2026-05-01T09:30:30Z</time></trkpt><trkpt lat="42.809153925542965" lon="12.90061931104145"><ele>368.0</ele><time>2026-05-01T09:30:31Z</time></trkpt><trkpt lat="42.809070622301554" lon="12.900833484482364"><ele>368.0</ele><time>2026-05-01T09:30:32Z</time></trkpt><trkpt lat="42.80898753324855" lon="12.90102522672381"><ele>368.0</ele><time>2026-05-01T09:30:33Z</time></trkpt><trkpt lat="42.80891241214306" lon="12.901229652899248"><ele>371.33333333333337</ele><time>2026-05-01T09:30:34Z</time></trkpt><trkpt lat="42.8088532988799" lon="12.901445440507633"><ele>374.6666666666667</ele><time>2026-05-01T09:30:35Z</time></trkpt><trkpt lat="42.80881013987898" lon="12.901666395359113"><ele>378.0</ele><time>2026-05-01T09:30:36Z</time></trkpt><trkpt lat="42.80879806565851" lon="12.901905367063224"><ele>378.0</ele><time>2026-05-01T09:30:37Z</time></trkpt><trkpt lat="42.808816761609705" lon="12.90216296046716"><ele>378.0</ele><time>2026-05-01T09:30:38Z</time></trkpt><trkpt lat="42.8088649747878" lon="12.902459674595983"><ele>378.0</ele><time>2026-05-01T09:30:39Z</time></trkpt><trkpt lat="42.80892478708122" lon="12.902794943870461"><ele>375.5</ele><time>2026-05-01T09:30:40Z</time></trkpt><trkpt lat="42.80896382169952" lon="12.903180221666382"><ele>373.0</ele><time>2026-05-01T09:30:41Z</time></trkpt><trkpt lat="42.808981813097425" lon="12.903520946898666"><ele>372.5</ele><time>2026-05-01T09:30:42Z</time></trkpt><trkpt lat="42.80898500363433" lon="12.903838875150438"><ele>372.0</ele><time>2026-05-01T09:30:43Z</time></trkpt><trkpt lat="42.80895779637911" lon="12.904155581488814"><ele>372.5</ele><time>2026-05-01T09:30:44Z</time></trkpt><trkpt lat="42.80890751519659" lon="12.904499170531157"><ele>373.0</ele><time>2026-05-01T09:30:45Z</time></trkpt><trkpt lat="42.80885853495492" lon="12.904860541675037"><ele>371.0</ele><time>2026-05-01T09:30:46Z</time></trkpt><trkpt lat="42.80885300695441" lon="12.905168871222205"><ele>369.0</ele><time>2026-05-01T09:30:47Z</time></trkpt><trkpt lat="42.80888689542531" lon="12.9054613589431"><ele>367.0</ele><time>2026-05-01T09:30:48Z</time></trkpt><trkpt lat="42.80896842389987" lon="12.905716464956136"><ele>363.66666666666663</ele><time>2026-05-01T09:30:49Z</time></trkpt><trkpt lat="42.80907874818936" lon="12.905937198169378"><ele>360.3333333333333</ele><time>2026-05-01T09:30:50Z</time></trkpt><trkpt lat="42.80919956291222" lon="12.906097336941306"><ele>357.0</ele><time>2026-05-01T09:30:51Z</time></trkpt><trkpt lat="42.80930355033788" lon="12.906253200915039"><ele>362.5</ele><time>2026-05-01T09:30:52Z</time></trkpt><trkpt lat="42.8093883682219" lon="12.906409696982006"><ele>368.0</ele><time>2026-05-01T09:30:53Z</time></trkpt><trkpt lat="42.80945252675813" lon="12.906566977631758"><ele>373.5</ele><time>2026-05-01T09:30:54Z</time></trkpt><trkpt lat="42.809511255696606" lon="12.906722778589183"><ele>379.0</ele><time>2026-05-01T09:30:55Z</time></trkpt><trkpt lat="42.80956243752073" lon="12.90688814773533"><ele>379.0</ele><time>2026-05-01T09:30:56Z</time></trkpt><trkpt lat="42.80960065705226" lon="12.907057466074521"><ele>379.0</ele><time>2026-05-01T09:30:57Z</time></trkpt><trkpt lat="42.80962401565346" lon="12.907251665317707"><ele>379.0</ele><time>2026-05-01T09:30:58Z</time></trkpt><trkpt lat="42.80965011187757" lon="12.907429676051176"><ele>379.0</ele><time>2026-05-01T09:30:59Z</time></trkpt><trkpt lat="42.809677288051134" lon="12.907594695712776"><ele>377.25</ele><time>2026-05-01T09:31:00Z</time></trkpt><trkpt lat="42.80969632893063" lon="12.907774085647212"><ele>375.5</ele><time>2026-05-01T09:31:01Z</time></trkpt><trkpt lat="42.809716935803344" lon="12.907962705716045"><ele>373.75</ele><time>2026-05-01T09:31:02Z</time></trkpt><trkpt lat="42.809740536311516" lon="12.908121179235998"><ele>372.0</ele><time>2026-05-01T09:31:03Z</time></trkpt><trkpt lat="42.80976962660543" lon="12.908308381850027"><ele>370.0</ele><time>2026-05-01T09:31:04Z</time></trkpt><trkpt lat="42.80979790210572" lon="12.908489600906883"><ele>368.0</ele><time>2026-05-01T09:31:05Z</time></trkpt><trkpt lat="42.80982938839302" lon="12.908684128236477"><ele>366.0</ele><time>2026-05-01T09:31:06Z</time></trkpt><trkpt lat="42.80986026063342" lon="12.90888309666446"><ele>364.0</ele><time>2026-05-01T09:31:07Z</time></trkpt><trkpt lat="42.80991497522531" lon="12.909049369208024"><ele>364.0</ele><time>2026-05-01T09:31:08Z</time></trkpt><trkpt lat="42.80999607745431" lon="12.909187844984396"><ele>364.0</ele><time>2026-05-01T09:31:09Z</time></trkpt><trkpt lat="42.81008361021883" lon="12.90931316066347"><ele>364.0</ele><time>2026-05-01T09:31:10Z</time></trkpt><trkpt lat="42.81017576592704" lon="12.909395907929701"><ele>364.0</ele><time>2026-05-01T09:31:11Z</time></trkpt><trkpt lat="42.81025773580865" lon="12.909472874439206"><ele>369.2</ele><time>2026-05-01T09:31:12Z</time></trkpt><trkpt lat="42.81032736113782" lon="12.909570751536137"><ele>374.4</ele><time>2026-05-01T09:31:13Z</time></trkpt><trkpt lat="42.81040133962147" lon="12.909672558495714"><ele>379.6</ele><time>2026-05-01T09:31:14Z</time></trkpt><trkpt lat="42.810459416217675" lon="12.90978877842677"><ele>384.8</ele><time>2026-05-01T09:31:15Z</time></trkpt><trkpt lat="42.81049648374535" lon="12.909923649561055"><ele>390.0</ele><time>2026-05-01T09:31:16Z</time></trkpt><trkpt lat="42.81052696211271" lon="12.910049723714437"><ele>387.5</ele><time>2026-05-01T09:31:17Z</time></trkpt><trkpt lat="42.81053253879683" lon="12.910195359259856"><ele>385.0</ele><time>2026-05-01T09:31:18Z</time></trkpt><trkpt lat="42.81050586270556" lon="12.91037611245771"><ele>382.5</ele><time>2026-05-01T09:31:19Z</time></trkpt><trkpt lat="42.81046663948952" lon="12.910591237312406"><ele>380.0</ele><time>2026-05-01T09:31:20Z</time></trkpt><trkpt lat="42.810417847180425" lon="12.910850350261086"><ele>378.5</ele><time>2026-05-01T09:31:21Z</time></trkpt><trkpt lat="42.81039944684959" lon="12.911163104896643"><ele>377.0</ele><time>2026-05-01T09:31:22Z</time></trkpt><trkpt lat="42.810369339137466" lon="12.911496222004576"><ele>373.0</ele><time>2026-05-01T09:31:23Z</time></trkpt><trkpt lat="42.810357940493525" lon="12.911773891969034"><ele>369.0</ele><time>2026-05-01T09:31:24Z</time></trkpt><trkpt lat="42.810377000010384" lon="12.911997964820989"><ele>365.0</ele><time>2026-05-01T09:31:25Z</time></trkpt><trkpt lat="42.81043883632325" lon="12.912181559166731"><ele>365.0</ele><time>2026-05-01T09:31:26Z</time></trkpt><trkpt lat="42.810572793224836" lon="12.912332513186406"><ele>365.0</ele><time>2026-05-01T09:31:27Z</time></trkpt><trkpt lat="42.8107639240572" lon="12.91246189323573"><ele>365.0</ele><time>2026-05-01T09:31:28Z</time></trkpt><trkpt lat="42.81098413627402" lon="12.912586143697048"><ele>365.5</ele><time>2026-05-01T09:31:29Z</time></trkpt><trkpt lat="42.81121452119962" lon="12.91274633671094"><ele>366.0</ele><time>2026-05-01T09:31:30Z</time></trkpt><trkpt lat="42.81141792620239" lon="12.912981350963998"><ele>366.0</ele><time>2026-05-01T09:31:31Z</time></trkpt><trkpt lat="42.811577903430695" lon="12.913206976321211"><ele>366.0</ele><time>2026-05-01T09:31:32Z</time></trkpt><trkpt lat="42.81171175463468" lon="12.9133733225091"><ele>366.0</ele><time>2026-05-01T09:31:33Z</time></trkpt><trkpt lat="42.81184764625523" lon="12.91349647594972"><ele>364.0</ele><time>2026-05-01T09:31:34Z</time></trkpt><trkpt lat="42.811986183121796" lon="12.913573781547965"><ele>362.0</ele><time>2026-05-01T09:31:35Z</time></trkpt><trkpt lat="42.81211241382314" lon="12.913620688747367"><ele>360.0</ele><time>2026-05-01T09:31:36Z</time></trkpt><trkpt lat="42.812222305734146" lon="12.913650574973513"><ele>358.0</ele><time>2026-05-01T09:31:37Z</time></trkpt><trkpt lat="42.81232096057529" lon="12.913688590441733"><ele>358.0</ele><time>2026-05-01T09:31:38Z</time></trkpt><trkpt lat="42.812415302952424" lon="12.913727161358874"><ele>358.0</ele><time>2026-05-01T09:31:39Z</time></trkpt><trkpt lat="42.81250593694633" lon="12.91376606628571"><ele>358.0</ele><time>2026-05-01T09:31:40Z</time></trkpt><trkpt lat="42.812597061922375" lon="12.91380075507924"><ele>358.0</ele><time>2026-05-01T09:31:41Z</time></trkpt><trkpt lat="42.81268958470477" lon="12.913838665033813"><ele>358.0</ele><time>2026-05-01T09:31:42Z</time></trkpt><trkpt lat="42.81279038948949" lon="12.913878818390696"><ele>360.25</ele><time>2026-05-01T09:31:43Z</time></trkpt><trkpt lat="42.81290781571687" lon="12.91392256247393"><ele>362.5</ele><time>2026-05-01T09:31:44Z</time></trkpt><trkpt lat="42.813031898238215" lon="12.913966035831281"><ele>364.75</ele><time>2026-05-01T09:31:45Z</time></trkpt><trkpt lat="42.81316453356887" lon="12.914020103742224"><ele>367.0</ele><time>2026-05-01T09:31:46Z</time></trkpt><trkpt lat="42.81330211406882" lon="12.914072708217823"><ele>367.0</ele><time>2026-05-01T09:31:47Z</time></trkpt><trkpt lat="42.81343158587312" lon="12.914122677072784"><ele>367.0</ele><time>2026-05-01T09:31:48Z</time></trkpt><trkpt lat="42.81353943815753" lon="12.914165729901796"><ele>367.0</ele><time>2026-05-01T09:31:49Z</time></trkpt><trkpt lat="42.8136493440567" lon="12.914206941048908"><ele>367.0</ele><time>2026-05-01T09:31:50Z</time></trkpt><trkpt lat="42.81376932960579" lon="12.914269144656378"><ele>364.5</ele><time>2026-05-01T09:31:51Z</time></trkpt><trkpt lat="42.81389771924827" lon="12.914342658588335"><ele>362.0</ele><time>2026-05-01T09:31:52Z</time></trkpt><trkpt lat="42.81402479385874" lon="12.914430870130557"><ele>359.5</ele><time>2026-05-01T09:31:53Z</time></trkpt><trkpt lat="42.81414240580402" lon="12.914518426255226"><ele>357.0</ele><time>2026-05-01T09:31:54Z</time></trkpt><trkpt lat="42.814233005277345" lon="12.914607904798368"><ele>357.0</ele><time>2026-05-01T09:31:55Z</time></trkpt><trkpt lat="42.81431218687759" lon="12.914685681617106"><ele>357.0</ele><time>2026-05-01T09:31:56Z</time></trkpt><trkpt lat="42.81437534016296" lon="12.914740367480833"><ele>357.0</ele><time>2026-05-01T09:31:57Z</time></trkpt><trkpt lat="42.814448386011684" lon="12.914793876901781"><ele>357.0</ele><time>2026-05-01T09:31:59Z</time></trkpt><trkpt lat="42.8144991235855" lon="12.914847089015748"><ele>357.0</ele><time>2026-05-01T09:32:03Z</time></trkpt><trkpt lat="42.81456571911741" lon="12.914737604877995"><ele>357.0</ele><time>2026-05-01T09:32:04Z</time></trkpt><trkpt lat="42.81463214996738" lon="12.914645647354863"><ele>357.5</ele><time>2026-05-01T09:32:05Z</time></trkpt><trkpt lat="42.814668684556075" lon="12.914550473446317"><ele>358.0</ele><time>2026-05-01T09:32:06Z</time></trkpt><trkpt lat="42.81468261246049" lon="12.914438240217809"><ele>358.5</ele><time>2026-05-01T09:32:08Z</time></trkpt><trkpt lat="42.81462550229796" lon="12.91437979218831"><ele>359.0</ele><time>2026-05-01T09:32:10Z</time></trkpt><trkpt lat="42.81453384088313" lon="12.914494400464095"><ele>359.5</ele><time>2026-05-01T09:32:12Z</time></trkpt><trkpt lat="42.814474072994464" lon="12.91458813646998"><ele>360.0</ele><time>2026-05-01T09:32:13Z</time></trkpt><trkpt lat="42.814446894302385" lon="12.914689163597314"><ele>360.0</ele><time>2026-05-01T09:32:15Z</time></trkpt><trkpt lat="42.81432553082956" lon="12.91460823796032"><ele>360.0</ele><time>2026-05-01T09:32:17Z</time></trkpt><trkpt lat="42.814264131156854" lon="12.914577024746531"><ele>360.0</ele><time>2026-05-01T09:32:18Z</time></trkpt><trkpt lat="42.814191544963364" lon="12.9145279298294"><ele>360.0</ele><time>2026-05-01T09:32:19Z</time></trkpt><trkpt lat="42.8141011144299" lon="12.914453922406727"><ele>360.0</ele><time>2026-05-01T09:32:20Z</time></trkpt><trkpt lat="42.81400500132194" lon="12.914377132934405"><ele>359.25</ele><time>2026-05-01T09:32:21Z</time></trkpt><trkpt lat="42.813892154633" lon="12.914283999295717"><ele>358.5</ele><time>2026-05-01T09:32:22Z</time></trkpt><trkpt lat="42.813769297740905" lon="12.914205794447808"><ele>357.75</ele><time>2026-05-01T09:32:23Z</time></trkpt><trkpt lat="42.81363207724132" lon="12.914138586612554"><ele>357.0</ele><time>2026-05-01T09:32:24Z</time></trkpt><trkpt lat="42.81347953298206" lon="12.914070357601156"><ele>360.3333333333333</ele><time>2026-05-01T09:32:25Z</time></trkpt><trkpt lat="42.81330349020856" lon="12.914016713603882"><ele>363.66666666666663</ele><time>2026-05-01T09:32:26Z</time></trkpt><trkpt lat="42.81313796205576" lon="12.91394493123152"><ele>367.0</ele><time>2026-05-01T09:32:27Z</time></trkpt><trkpt lat="42.812990744077666" lon="12.913881699953453"><ele>367.0</ele><time>2026-05-01T09:32:28Z</time></trkpt><trkpt lat="42.81286490474741" lon="12.9138267791287"><ele>367.0</ele><time>2026-05-01T09:32:29Z</time></trkpt><trkpt lat="42.8127585066489" lon="12.91378243296168"><ele>367.0</ele><time>2026-05-01T09:32:30Z</time></trkpt><trkpt lat="42.81267248051953" lon="12.913747592188503"><ele>367.0</ele><time>2026-05-01T09:32:31Z</time></trkpt><trkpt lat="42.81259922972591" lon="12.913727034929066"><ele>367.0</ele><time>2026-05-01T09:32:32Z</time></trkpt><trkpt lat="42.812537578721944" lon="12.913703634289652"><ele>365.5</ele><time>2026-05-01T09:32:33Z</time></trkpt><trkpt lat="42.8124749840372" lon="12.913679479822264"><ele>364.0</ele><time>2026-05-01T09:32:34Z</time></trkpt><trkpt lat="42.81240560263017" lon="12.913654731847448"><ele>362.5</ele><time>2026-05-01T09:32:35Z</time></trkpt><trkpt lat="42.81232451498566" lon="12.913622595398449"><ele>361.0</ele><time>2026-05-01T09:32:36Z</time></trkpt><trkpt lat="42.812232971234884" lon="12.913591098979298"><ele>359.5</ele><time>2026-05-01T09:32:37Z</time></trkpt><trkpt lat="42.81214522928544" lon="12.913552493368979"><ele>358.0</ele><time>2026-05-01T09:32:38Z</time></trkpt><trkpt lat="42.81203620584268" lon="12.913521660822228"><ele>358.0</ele><time>2026-05-01T09:32:39Z</time></trkpt><trkpt lat="42.8119036333461" lon="12.91346240428655"><ele>358.0</ele><time>2026-05-01T09:32:40Z</time></trkpt><trkpt lat="42.81174253669419" lon="12.913350909561043"><ele>358.0</ele><time>2026-05-01T09:32:41Z</time></trkpt><trkpt lat="42.81159337668739" lon="12.913152896713806"><ele>360.66666666666663</ele><time>2026-05-01T09:32:42Z</time></trkpt><trkpt lat="42.81143005068394" lon="12.912958555378776"><ele>363.3333333333333</ele><time>2026-05-01T09:32:43Z</time></trkpt><trkpt lat="42.81126824499316" lon="12.912752920655162"><ele>366.0</ele><time>2026-05-01T09:32:44Z</time></trkpt><trkpt lat="42.81111309763929" lon="12.912605718187152"><ele>365.75</ele><time>2026-05-01T09:32:45Z</time></trkpt><trkpt lat="42.810969333697734" lon="12.912488412874923"><ele>365.5</ele><time>2026-05-01T09:32:46Z</time></trkpt><trkpt lat="42.81083726645927" lon="12.912404330410169"><ele>365.25</ele><time>2026-05-01T09:32:47Z</time></trkpt><trkpt lat="42.810718919369386" lon="12.912332072137296"><ele>365.0</ele><time>2026-05-01T09:32:48Z</time></trkpt><trkpt lat="42.81061521768183" lon="12.91227135267171"><ele>365.0</ele><time>2026-05-01T09:32:49Z</time></trkpt><trkpt lat="42.810527289085194" lon="12.912200921055094"><ele>365.0</ele><time>2026-05-01T09:32:50Z</time></trkpt><trkpt lat="42.81046348234844" lon="12.912102304324431"><ele>365.0</ele><time>2026-05-01T09:32:51Z</time></trkpt><trkpt lat="42.81042087073648" lon="12.911986407959368"><ele>365.0</ele><time>2026-05-01T09:32:52Z</time></trkpt><trkpt lat="42.81040185245718" lon="12.911859523242986"><ele>365.0</ele><time>2026-05-01T09:32:53Z</time></trkpt><trkpt lat="42.810410275954176" lon="12.911719266618494"><ele>369.0</ele><time>2026-05-01T09:32:54Z</time></trkpt><trkpt lat="42.81040975235618" lon="12.911553832158715"><ele>373.0</ele><time>2026-05-01T09:32:55Z</time></trkpt><trkpt lat="42.810413269729736" lon="12.911317398564462"><ele>377.0</ele><time>2026-05-01T09:32:56Z</time></trkpt><trkpt lat="42.81042558357057" lon="12.911046466567587"><ele>378.0</ele><time>2026-05-01T09:32:57Z</time></trkpt><trkpt lat="42.8104707663083" lon="12.910748982983026"><ele>379.0</ele><time>2026-05-01T09:32:58Z</time></trkpt><trkpt lat="42.81051507359912" lon="12.910447507611291"><ele>380.0</ele><time>2026-05-01T09:32:59Z</time></trkpt><trkpt lat="42.81055585709566" lon="12.910166731924223"><ele>383.33333333333337</ele><time>2026-05-01T09:33:00Z</time></trkpt><trkpt lat="42.81053808946489" lon="12.909904354529841"><ele>386.6666666666667</ele><time>2026-05-01T09:33:01Z</time></trkpt><trkpt lat="42.81045533001173" lon="12.909659869550035"><ele>390.0</ele><time>2026-05-01T09:33:02Z</time></trkpt><trkpt lat="42.81030382944557" lon="12.909420683238398"><ele>381.3333333333333</ele><time>2026-05-01T09:33:03Z</time></trkpt><trkpt lat="42.81012606563368" lon="12.909244626293589"><ele>372.66666666666663</ele><time>2026-05-01T09:33:04Z</time></trkpt><trkpt lat="42.809982847023484" lon="12.909047540604202"><ele>364.0</ele><time>2026-05-01T09:33:05Z</time></trkpt><trkpt lat="42.80988341250156" lon="12.908795750907311"><ele>364.0</ele><time>2026-05-01T09:33:06Z</time></trkpt><trkpt lat="42.80983282724129" lon="12.90846843264337"><ele>364.0</ele><time>2026-05-01T09:33:07Z</time></trkpt><trkpt lat="42.80976130450987" lon="12.908090720208762"><ele>368.0</ele><time>2026-05-01T09:33:08Z</time></trkpt><trkpt lat="42.809711256052466" lon="12.907671856066873"><ele>372.0</ele><time>2026-05-01T09:33:09Z</time></trkpt><trkpt lat="42.809643104441356" lon="12.907256924056428"><ele>375.5</ele><time>2026-05-01T09:33:10Z</time></trkpt><trkpt lat="42.809562150074754" lon="12.906828320295816"><ele>379.0</ele><time>2026-05-01T09:33:11Z</time></trkpt><trkpt lat="42.80945489514151" lon="12.906437213126697"><ele>373.0</ele><time>2026-05-01T09:33:12Z</time></trkpt><trkpt lat="42.809280048482556" lon="12.906064041225125"><ele>367.0</ele><time>2026-05-01T09:33:13Z</time></trkpt><trkpt lat="42.809083092877565" lon="12.905787099999358"><ele>367.0</ele><time>2026-05-01T09:33:14Z</time></trkpt><trkpt lat="42.808968960009054" lon="12.905521267959704"><ele>367.0</ele><time>2026-05-01T09:33:15Z</time></trkpt><trkpt lat="42.80888922712639" lon="12.905285791054595"><ele>367.0</ele><time>2026-05-01T09:33:16Z</time></trkpt><trkpt lat="42.80886814128021" lon="12.904993112614287"><ele>369.5</ele><time>2026-05-01T09:33:17Z</time></trkpt><trkpt lat="42.80889222758099" lon="12.904645377988993"><ele>372.0</ele><time>2026-05-01T09:33:18Z</time></trkpt><trkpt lat="42.80895323252018" lon="12.904243544530804"><ele>372.0</ele><time>2026-05-01T09:33:19Z</time></trkpt><trkpt lat="42.80900905682081" lon="12.903841536793097"><ele>372.0</ele><time>2026-05-01T09:33:20Z</time></trkpt><trkpt lat="42.809012605914596" lon="12.903398567478412"><ele>372.5</ele><time>2026-05-01T09:33:21Z</time></trkpt><trkpt lat="42.80898138237596" lon="12.902955561707007"><ele>373.0</ele><time>2026-05-01T09:33:22Z</time></trkpt><trkpt lat="42.808907968356756" lon="12.90257462413667"><ele>375.5</ele><time>2026-05-01T09:33:23Z</time></trkpt><trkpt lat="42.8088463202536" lon="12.902242373969212"><ele>378.0</ele><time>2026-05-01T09:33:24Z</time></trkpt><trkpt lat="42.80884135238208" lon="12.901926642929451"><ele>378.0</ele><time>2026-05-01T09:33:25Z</time></trkpt><trkpt lat="42.80886050268176" lon="12.901610664955967"><ele>378.0</ele><time>2026-05-01T09:33:26Z</time></trkpt><trkpt lat="42.80892923347952" lon="12.901288961848978"><ele>378.0</ele><time>2026-05-01T09:33:27Z</time></trkpt><trkpt lat="42.80903084805207" lon="12.900980020564711"><ele>378.0</ele><time>2026-05-01T09:33:28Z</time></trkpt><trkpt lat="42.8091382524659" lon="12.900651335535951"><ele>374.6666666666667</ele><time>2026-05-01T09:33:29Z</time></trkpt><trkpt lat="42.809225997171595" lon="12.900368847766602"><ele>371.33333333333337</ele><time>2026-05-01T09:33:30Z</time></trkpt><trkpt lat="42.80926337479754" lon="12.900083390370742"><ele>368.0</ele><time>2026-05-01T09:33:31Z</time></trkpt><trkpt lat="42.809241541614035" lon="12.899794602623784"><ele>372.0</ele><time>2026-05-01T09:33:32Z</time></trkpt><trkpt lat="42.80917503116851" lon="12.899480193772284"><ele>376.0</ele><time>2026-05-01T09:33:33Z</time></trkpt><trkpt lat="42.80909666298401" lon="12.899157678973689"><ele>376.0</ele><time>2026-05-01T09:33:34Z</time></trkpt><trkpt lat="42.80902823457896" lon="12.898842264942004"><ele>376.0</ele><time>2026-05-01T09:33:35Z</time></trkpt><trkpt lat="42.80895383575097" lon="12.898535572006265"><ele>355.0</ele><time>2026-05-01T09:33:36Z</time></trkpt><trkpt lat="42.808401465581774" lon="12.898465485892002"><ele>370.5</ele><time>2026-05-01T09:33:37Z</time></trkpt><trkpt lat="42.80811353116057" lon="12.898318654549428"><ele>386.0</ele><time>2026-05-01T09:33:38Z</time></trkpt><trkpt lat="42.807833282034395" lon="12.898271570305589"><ele>370.0</ele><time>2026-05-01T09:33:39Z</time></trkpt><trkpt lat="42.8075564512331" lon="12.89823654554799"><ele>354.0</ele><time>2026-05-01T09:33:40Z</time></trkpt><trkpt lat="42.80725393202235" lon="12.89817943250173"><ele>354.0</ele><time>2026-05-01T09:33:41Z</time></trkpt><trkpt lat="42.80693064485927" lon="12.898098025922646"><ele>354.0</ele><time>2026-05-01T09:33:42Z</time></trkpt><trkpt lat="42.80661982800732" lon="12.897990778253284"><ele>352.5</ele><time>2026-05-01T09:33:43Z</time></trkpt><trkpt lat="42.80635219444577" lon="12.897900886018382"><ele>351.0</ele><time>2026-05-01T09:33:44Z</time></trkpt><trkpt lat="42.806099106293985" lon="12.897844560189244"><ele>349.5</ele><time>2026-05-01T09:33:45Z</time></trkpt><trkpt lat="42.805836420756876" lon="12.897831890614368"><ele>348.0</ele><time>2026-05-01T09:33:46Z</time></trkpt><trkpt lat="42.80555927303856" lon="12.89787015775379"><ele>348.0</ele><time>2026-05-01T09:33:47Z</time></trkpt><trkpt lat="42.8052674446449" lon="12.897902246016555"><ele>348.0</ele><time>2026-05-01T09:33:48Z</time></trkpt><trkpt lat="42.8049652253666" lon="12.897898937025179"><ele>350.0</ele><time>2026-05-01T09:33:49Z</time></trkpt><trkpt lat="42.80467056832105" lon="12.897900246468073"><ele>352.0</ele><time>2026-05-01T09:33:50Z</time></trkpt><trkpt lat="42.80442273513047" lon="12.89794873405595"><ele>351.3333333333333</ele><time>2026-05-01T09:33:51Z</time></trkpt><trkpt lat="42.80420107031979" lon="12.897995947549116"><ele>350.6666666666667</ele><time>2026-05-01T09:33:52Z</time></trkpt><trkpt lat="42.80401120272305" lon="12.89800240848657"><ele>350.0</ele><time>2026-05-01T09:33:53Z</time></trkpt><trkpt lat="42.803820429513536" lon="12.897969146613644"><ele>350.0</ele><time>2026-05-01T09:33:54Z</time></trkpt><trkpt lat="42.80362882640507" lon="12.897887838402623"><ele>350.0</ele><time>2026-05-01T09:33:55Z</time></trkpt><trkpt lat="42.80351980764807" lon="12.897712428394879"><ele>350.0</ele><time>2026-05-01T09:33:56Z</time></trkpt><trkpt lat="42.80339699688305" lon="12.897464842422574"><ele>351.0</ele><time>2026-05-01T09:33:57Z</time></trkpt><trkpt lat="42.80325901800188" lon="12.8971772863386"><ele>352.0</ele><time>2026-05-01T09:33:58Z</time></trkpt><trkpt lat="42.80309428750917" lon="12.896867951273714"><ele>366.0</ele><time>2026-05-01T09:33:59Z</time></trkpt><trkpt lat="42.802940697887756" lon="12.896578445676283"><ele>380.0</ele><time>2026-05-01T09:34:00Z</time></trkpt><trkpt lat="42.802795629801004" lon="12.896350710367468"><ele>370.6666666666667</ele><time>2026-05-01T09:34:01Z</time></trkpt><trkpt lat="42.80262209956335" lon="12.896184857101003"><ele>361.3333333333333</ele><time>2026-05-01T09:34:02Z</time></trkpt><trkpt lat="42.80240929690286" lon="12.896062272242721"><ele>352.0</ele><time>2026-05-01T09:34:03Z</time></trkpt><trkpt lat="42.802173036146094" lon="12.896054775693344"><ele>352.0</ele><time>2026-05-01T09:34:04Z</time></trkpt><trkpt lat="42.80190856672017" lon="12.896145032313491"><ele>352.0</ele><time>2026-05-01T09:34:05Z</time></trkpt><trkpt lat="42.801636261687534" lon="12.896259734811007"><ele>349.0</ele><time>2026-05-01T09:34:06Z</time></trkpt><trkpt lat="42.801337168300044" lon="12.896324416881281"><ele>346.0</ele><time>2026-05-01T09:34:07Z</time></trkpt><trkpt lat="42.80099127475279" lon="12.896336149559074"><ele>345.5</ele><time>2026-05-01T09:34:08Z</time></trkpt><trkpt lat="42.80066742864008" lon="12.896306454874303"><ele>345.0</ele><time>2026-05-01T09:34:09Z</time></trkpt><trkpt lat="42.800395846980834" lon="12.896265784012725"><ele>346.5</ele><time>2026-05-01T09:34:10Z</time></trkpt><trkpt lat="42.80014823858095" lon="12.896210935279388"><ele>348.0</ele><time>2026-05-01T09:34:11Z</time></trkpt><trkpt lat="42.79992440900364" lon="12.896116710813736"><ele>348.0</ele><time>2026-05-01T09:34:12Z</time></trkpt><trkpt lat="42.79972115103807" lon="12.895963619215019"><ele>348.0</ele><time>2026-05-01T09:34:13Z</time></trkpt><trkpt lat="42.79951929045036" lon="12.895782255984717"><ele>346.0</ele><time>2026-05-01T09:34:14Z</time></trkpt><trkpt lat="42.79933281497501" lon="12.895553723286902"><ele>344.0</ele><time>2026-05-01T09:34:15Z</time></trkpt><trkpt lat="42.79918745052977" lon="12.895242983221161"><ele>351.5</ele><time>2026-05-01T09:34:16Z</time></trkpt><trkpt lat="42.799027670549904" lon="12.894953899543653"><ele>359.0</ele><time>2026-05-01T09:34:17Z</time></trkpt><trkpt lat="42.79890396364057" lon="12.894693101119818"><ele>359.0</ele><time>2026-05-01T09:34:18Z</time></trkpt><trkpt lat="42.79883103583084" lon="12.89443188248037"><ele>359.0</ele><time>2026-05-01T09:34:19Z</time></trkpt><trkpt lat="42.798793773133035" lon="12.894122350797934"><ele>359.0</ele><time>2026-05-01T09:34:20Z</time></trkpt><trkpt lat="42.798822285824976" lon="12.893778559641836"><ele>372.0</ele><time>2026-05-01T09:34:21Z</time></trkpt><trkpt lat="42.79881806362936" lon="12.893395428509823"><ele>385.0</ele><time>2026-05-01T09:34:22Z</time></trkpt><trkpt lat="42.79879518767743" lon="12.892971682887927"><ele>387.0</ele><time>2026-05-01T09:34:23Z</time></trkpt><trkpt lat="42.79877146428778" lon="12.892515681697352"><ele>389.0</ele><time>2026-05-01T09:34:24Z</time></trkpt><trkpt lat="42.79872107674737" lon="12.892033668626604"><ele>391.5</ele><time>2026-05-01T09:34:25Z</time></trkpt><trkpt lat="42.79864255956376" lon="12.891561826533989"><ele>394.0</ele><time>2026-05-01T09:34:26Z</time></trkpt><trkpt lat="42.798528564077024" lon="12.891122572456073"><ele>379.0</ele><time>2026-05-01T09:34:27Z</time></trkpt><trkpt lat="42.798403947722875" lon="12.890727568474517"><ele>364.0</ele><time>2026-05-01T09:34:28Z</time></trkpt><trkpt lat="42.798269650340636" lon="12.89040055506844"><ele>364.0</ele><time>2026-05-01T09:34:29Z</time></trkpt><trkpt lat="42.7981168437762" lon="12.890138093237038"><ele>364.0</ele><time>2026-05-01T09:34:30Z</time></trkpt><trkpt lat="42.797948590481724" lon="12.889911870654975"><ele>362.0</ele><time>2026-05-01T09:34:31Z</time></trkpt><trkpt lat="42.79775904436467" lon="12.88971608526065"><ele>360.0</ele><time>2026-05-01T09:34:32Z</time></trkpt><trkpt lat="42.797567449989955" lon="12.889572037989357"><ele>361.6666666666667</ele><time>2026-05-01T09:34:33Z</time></trkpt><trkpt lat="42.79738599210139" lon="12.88944447427237"><ele>363.33333333333337</ele><time>2026-05-01T09:34:34Z</time></trkpt><trkpt lat="42.79722002798731" lon="12.889303143382994"><ele>365.0</ele><time>2026-05-01T09:34:35Z</time></trkpt><trkpt lat="42.7970702574495" lon="12.889170778899633"><ele>365.0</ele><time>2026-05-01T09:34:36Z</time></trkpt><trkpt lat="42.79692056861695" lon="12.889040929601947"><ele>365.0</ele><time>2026-05-01T09:34:37Z</time></trkpt><trkpt lat="42.796764050864" lon="12.888925402209226"><ele>365.0</ele><time>2026-05-01T09:34:38Z</time></trkpt><trkpt lat="42.796608564237104" lon="12.888787942308653"><ele>358.0</ele><time>2026-05-01T09:34:39Z</time></trkpt><trkpt lat="42.796458333837684" lon="12.88865594412372"><ele>351.0</ele><time>2026-05-01T09:34:40Z</time></trkpt><trkpt lat="42.796293555722364" lon="12.888544960472025"><ele>344.0</ele><time>2026-05-01T09:34:41Z</time></trkpt><trkpt lat="42.79612360893724" lon="12.88845056523184"><ele>346.6666666666667</ele><time>2026-05-01T09:34:42Z</time></trkpt><trkpt lat="42.795952207069185" lon="12.888399768805604"><ele>349.3333333333333</ele><time>2026-05-01T09:34:43Z</time></trkpt><trkpt lat="42.79579312669608" lon="12.888378954122594"><ele>352.0</ele><time>2026-05-01T09:34:44Z</time></trkpt><trkpt lat="42.795631189706576" lon="12.888356019991067"><ele>352.0</ele><time>2026-05-01T09:34:45Z</time></trkpt><trkpt lat="42.795454692543615" lon="12.88832880639353"><ele>352.0</ele><time>2026-05-01T09:34:46Z</time></trkpt><trkpt lat="42.79524406540444" lon="12.888274497992077"><ele>352.0</ele><time>2026-05-01T09:34:47Z</time></trkpt><trkpt lat="42.7950123398002" lon="12.888208614060574"><ele>347.5</ele><time>2026-05-01T09:34:48Z</time></trkpt><trkpt lat="42.79476138806306" lon="12.888124711553674"><ele>343.0</ele><time>2026-05-01T09:34:49Z</time></trkpt><trkpt lat="42.794493304599946" lon="12.888017262996753"><ele>341.0</ele><time>2026-05-01T09:34:50Z</time></trkpt><trkpt lat="42.794226164795084" lon="12.887913673570159"><ele>339.0</ele><time>2026-05-01T09:34:51Z</time></trkpt><trkpt lat="42.79398837304703" lon="12.8878238186721"><ele>339.0</ele><time>2026-05-01T09:34:52Z</time></trkpt><trkpt lat="42.79375653484357" lon="12.88774022792846"><ele>339.0</ele><time>2026-05-01T09:34:53Z</time></trkpt><trkpt lat="42.79349669885686" lon="12.887655867620413"><ele>345.0</ele><time>2026-05-01T09:34:54Z</time></trkpt><trkpt lat="42.79325689552708" lon="12.887565295081316"><ele>351.0</ele><time>2026-05-01T09:34:55Z</time></trkpt><trkpt lat="42.79306158016684" lon="12.887487452825024"><ele>351.0</ele><time>2026-05-01T09:34:56Z</time></trkpt><trkpt lat="42.79288262165436" lon="12.887411859730996"><ele>351.0</ele><time>2026-05-01T09:34:57Z</time></trkpt><trkpt lat="42.79270553898999" lon="12.887311488263409"><ele>351.0</ele><time>2026-05-01T09:34:58Z</time></trkpt><trkpt lat="42.79254216430386" lon="12.88719885274944"><ele>347.6666666666667</ele><time>2026-05-01T09:34:59Z</time></trkpt><trkpt lat="42.79239544377508" lon="12.887079526358027"><ele>344.33333333333337</ele><time>2026-05-01T09:35:00Z</time></trkpt><trkpt lat="42.79225170319018" lon="12.886938432423381"><ele>341.0</ele><time>2026-05-01T09:35:01Z</time></trkpt><trkpt lat="42.79210704989525" lon="12.88677742730257"><ele>341.6666666666667</ele><time>2026-05-01T09:35:02Z</time></trkpt><trkpt lat="42.791967011198786" lon="12.886629819953777"><ele>342.3333333333333</ele><time>2026-05-01T09:35:03Z</time></trkpt><trkpt lat="42.79183811417133" lon="12.886481435519173"><ele>343.0</ele><time>2026-05-01T09:35:04Z</time></trkpt><trkpt lat="42.791709265969104" lon="12.886340757051821"><ele>343.0</ele><time>2026-05-01T09:35:05Z</time></trkpt><trkpt lat="42.791583185906205" lon="12.886209323462142"><ele>343.0</ele><time>2026-05-01T09:35:06Z</time></trkpt><trkpt lat="42.79146313821713" lon="12.886079562425056"><ele>343.0</ele><time>2026-05-01T09:35:07Z</time></trkpt><trkpt lat="42.791354361915296" lon="12.885959950866752"><ele>347.0</ele><time>2026-05-01T09:35:08Z</time></trkpt><trkpt lat="42.79126111082656" lon="12.885852145870597"><ele>351.0</ele><time>2026-05-01T09:35:09Z</time></trkpt><trkpt lat="42.791176188800605" lon="12.885753643143573"><ele>355.0</ele><time>2026-05-01T09:35:10Z</time></trkpt><trkpt lat="42.79110248395197" lon="12.885611403548829"><ele>359.0</ele><time>2026-05-01T09:35:11Z</time></trkpt><trkpt lat="42.79105343784738" lon="12.885448591847135"><ele>359.0</ele><time>2026-05-01T09:35:12Z</time></trkpt><trkpt lat="42.79104104542067" lon="12.885241388029064"><ele>359.0</ele><time>2026-05-01T09:35:13Z</time></trkpt><trkpt lat="42.791039918954326" lon="12.88499391500687"><ele>359.0</ele><time>2026-05-01T09:35:14Z</time></trkpt><trkpt lat="42.791048362320126" lon="12.884714496912675"><ele>365.0</ele><time>2026-05-01T09:35:15Z</time></trkpt><trkpt lat="42.79106392817865" lon="12.884493563461373"><ele>371.0</ele><time>2026-05-01T09:35:16Z</time></trkpt><trkpt lat="42.79107360161255" lon="12.88429450856712"><ele>377.0</ele><time>2026-05-01T09:35:17Z</time></trkpt><trkpt lat="42.79107812325064" lon="12.884095010932942"><ele>377.0</ele><time>2026-05-01T09:35:18Z</time></trkpt><trkpt lat="42.79107771191399" lon="12.883880252429538"><ele>377.0</ele><time>2026-05-01T09:35:19Z</time></trkpt><trkpt lat="42.791077769395066" lon="12.883689659219367"><ele>377.0</ele><time>2026-05-01T09:35:20Z</time></trkpt><trkpt lat="42.791072437585" lon="12.883512192281493"><ele>377.0</ele><time>2026-05-01T09:35:21Z</time></trkpt><trkpt lat="42.79104800750453" lon="12.883329804579997"><ele>368.25</ele><time>2026-05-01T09:35:22Z</time></trkpt><trkpt lat="42.79099204848973" lon="12.883150255893707"><ele>359.5</ele><time>2026-05-01T09:35:23Z</time></trkpt><trkpt lat="42.79091775284228" lon="12.882982237849948"><ele>350.75</ele><time>2026-05-01T09:35:24Z</time></trkpt><trkpt lat="42.79082878602169" lon="12.882830413610348"><ele>342.0</ele><time>2026-05-01T09:35:25Z</time></trkpt><trkpt lat="42.79072719835093" lon="12.88267041273947"><ele>346.3333333333333</ele><time>2026-05-01T09:35:26Z</time></trkpt><trkpt lat="42.79061812201664" lon="12.882489544842866"><ele>350.66666666666663</ele><time>2026-05-01T09:35:27Z</time></trkpt><trkpt lat="42.79051630092513" lon="12.882319743073694"><ele>355.0</ele><time>2026-05-01T09:35:28Z</time></trkpt><trkpt lat="42.790408873947236" lon="12.882149187771002"><ele>355.0</ele><time>2026-05-01T09:35:29Z</time></trkpt><trkpt lat="42.79029649702748" lon="12.881990140461266"><ele>355.0</ele><time>2026-05-01T09:35:30Z</time></trkpt><trkpt lat="42.79017798754863" lon="12.88184226094189"><ele>355.0</ele><time>2026-05-01T09:35:31Z</time></trkpt><trkpt lat="42.79005809223553" lon="12.88170385634013"><ele>352.0</ele><time>2026-05-01T09:35:32Z</time></trkpt><trkpt lat="42.789939338539156" lon="12.881561094258949"><ele>349.0</ele><time>2026-05-01T09:35:33Z</time></trkpt><trkpt lat="42.78982350370903" lon="12.881415457039992"><ele>346.0</ele><time>2026-05-01T09:35:34Z</time></trkpt><trkpt lat="42.7897008224816" lon="12.881262611323953"><ele>346.0</ele><time>2026-05-01T09:35:35Z</time></trkpt><trkpt lat="42.78958083727881" lon="12.881119638304414"><ele>346.0</ele><time>2026-05-01T09:35:36Z</time></trkpt><trkpt lat="42.789466235279896" lon="12.880982297568393"><ele>346.0</ele><time>2026-05-01T09:35:37Z</time></trkpt><trkpt lat="42.78934623691474" lon="12.880848145948452"><ele>343.0</ele><time>2026-05-01T09:35:38Z</time></trkpt><trkpt lat="42.78922087462033" lon="12.880729838379475"><ele>340.0</ele><time>2026-05-01T09:35:39Z</time></trkpt><trkpt lat="42.78907842255472" lon="12.880640398337597"><ele>337.0</ele><time>2026-05-01T09:35:40Z</time></trkpt><trkpt lat="42.78893640530777" lon="12.880579944569629"><ele>337.0</ele><time>2026-05-01T09:35:41Z</time></trkpt><trkpt lat="42.788792646858" lon="12.880530214598696"><ele>337.0</ele><time>2026-05-01T09:35:42Z</time></trkpt><trkpt lat="42.78866033083094" lon="12.880471641736353"><ele>337.0</ele><time>2026-05-01T09:35:43Z</time></trkpt><trkpt lat="42.78853971246134" lon="12.880407143126995"><ele>337.0</ele><time>2026-05-01T09:35:44Z</time></trkpt><trkpt lat="42.788424174365154" lon="12.880333632321136"><ele>336.5</ele><time>2026-05-01T09:35:45Z</time></trkpt><trkpt lat="42.78830880482269" lon="12.880224041502155"><ele>336.0</ele><time>2026-05-01T09:35:46Z</time></trkpt><trkpt lat="42.78821198228382" lon="12.88006822829796"><ele>335.5</ele><time>2026-05-01T09:35:47Z</time></trkpt><trkpt lat="42.7881375926698" lon="12.879902348749692"><ele>335.0</ele><time>2026-05-01T09:35:48Z</time></trkpt><trkpt lat="42.78806649401078" lon="12.879687225625743"><ele>339.6666666666667</ele><time>2026-05-01T09:35:49Z</time></trkpt><trkpt lat="42.78798740958056" lon="12.879448359524902"><ele>344.3333333333333</ele><time>2026-05-01T09:35:50Z</time></trkpt><trkpt lat="42.787904696444855" lon="12.879162404630229"><ele>349.0</ele><time>2026-05-01T09:35:51Z</time></trkpt><trkpt lat="42.78780828776065" lon="12.878854980267063"><ele>341.0</ele><time>2026-05-01T09:35:52Z</time></trkpt><trkpt lat="42.787711029955105" lon="12.878532190228674"><ele>333.0</ele><time>2026-05-01T09:35:53Z</time></trkpt><trkpt lat="42.7876212381828" lon="12.878212652615558"><ele>333.0</ele><time>2026-05-01T09:35:54Z</time></trkpt><trkpt lat="42.787536610609244" lon="12.877902627974995"><ele>333.0</ele><time>2026-05-01T09:35:55Z</time></trkpt><trkpt lat="42.78744356682471" lon="12.877602020999136"><ele>339.5</ele><time>2026-05-01T09:35:56Z</time></trkpt><trkpt lat="42.78734907718949" lon="12.877304061861931"><ele>346.0</ele><time>2026-05-01T09:35:57Z</time></trkpt><trkpt lat="42.787254675348365" lon="12.876999853872327"><ele>359.5</ele><time>2026-05-01T09:35:58Z</time></trkpt><trkpt lat="42.78715823924538" lon="12.87668389810143"><ele>373.0</ele><time>2026-05-01T09:35:59Z</time></trkpt><trkpt lat="42.78708593601005" lon="12.876384378508964"><ele>373.0</ele><time>2026-05-01T09:36:00Z</time></trkpt><trkpt lat="42.78700081943709" lon="12.876079533285607"><ele>373.0</ele><time>2026-05-01T09:36:01Z</time></trkpt><trkpt lat="42.78694077944435" lon="12.875641106557216"><ele>378.5</ele><time>2026-05-01T09:36:02Z</time></trkpt><trkpt lat="42.786862763675195" lon="12.87525770697163"><ele>384.0</ele><time>2026-05-01T09:36:03Z</time></trkpt><trkpt lat="42.786772640884294" lon="12.8749365215967"><ele>361.5</ele><time>2026-05-01T09:36:04Z</time></trkpt><trkpt lat="42.78665981347371" lon="12.874660014366947"><ele>339.0</ele><time>2026-05-01T09:36:05Z</time></trkpt><trkpt lat="42.78650148019138" lon="12.874410257200868"><ele>353.0</ele><time>2026-05-01T09:36:06Z</time></trkpt><trkpt lat="42.786289471844945" lon="12.874227493691619"><ele>367.0</ele><time>2026-05-01T09:36:07Z</time></trkpt><trkpt lat="42.78602915778625" lon="12.874075798568137"><ele>351.0</ele><time>2026-05-01T09:36:08Z</time></trkpt><trkpt lat="42.78573807830888" lon="12.873959033687497"><ele>335.0</ele><time>2026-05-01T09:36:09Z</time></trkpt><trkpt lat="42.78544927195218" lon="12.873853806667107"><ele>335.0</ele><time>2026-05-01T09:36:10Z</time></trkpt><trkpt lat="42.78518788831927" lon="12.873805634528198"><ele>335.0</ele><time>2026-05-01T09:36:11Z</time></trkpt><trkpt lat="42.78490345772215" lon="12.873814623008672"><ele>332.5</ele><time>2026-05-01T09:36:12Z</time></trkpt><trkpt lat="42.784647347942744" lon="12.873843296635831"><ele>330.0</ele><time>2026-05-01T09:36:13Z</time></trkpt><trkpt lat="42.78441815050648" lon="12.873835536661739"><ele>328.3333333333333</ele><time>2026-05-01T09:36:14Z</time></trkpt><trkpt lat="42.78421628906649" lon="12.873831555293645"><ele>326.66666666666663</ele><time>2026-05-01T09:36:15Z</time></trkpt><trkpt lat="42.78401951812715" lon="12.873705500449663"><ele>325.0</ele><time>2026-05-01T09:36:16Z</time></trkpt><trkpt lat="42.7838262906367" lon="12.87353092844499"><ele>334.3333333333333</ele><time>2026-05-01T09:36:17Z</time></trkpt><trkpt lat="42.78364698937438" lon="12.873348864423392"><ele>343.6666666666667</ele><time>2026-05-01T09:36:18Z</time></trkpt><trkpt lat="42.78353450989275" lon="12.87315509252551"><ele>353.0</ele><time>2026-05-01T09:36:19Z</time></trkpt><trkpt lat="42.78352428444532" lon="12.872915254519341"><ele>342.5</ele><time>2026-05-01T09:36:20Z</time></trkpt><trkpt lat="42.78350514428334" lon="12.87260112711572"><ele>332.0</ele><time>2026-05-01T09:36:21Z</time></trkpt><trkpt lat="42.783542620943514" lon="12.872233754955614"><ele>355.0</ele><time>2026-05-01T09:36:22Z</time></trkpt><trkpt lat="42.78355272061653" lon="12.87184281249786"><ele>378.0</ele><time>2026-05-01T09:36:23Z</time></trkpt><trkpt lat="42.78352656718144" lon="12.871428305044285"><ele>356.0</ele><time>2026-05-01T09:36:24Z</time></trkpt><trkpt lat="42.783429283997215" lon="12.871005786647972"><ele>334.0</ele><time>2026-05-01T09:36:25Z</time></trkpt><trkpt lat="42.78329562490649" lon="12.870610591265857"><ele>334.0</ele><time>2026-05-01T09:36:26Z</time></trkpt><trkpt lat="42.78317167218279" lon="12.87028509349404"><ele>334.0</ele><time>2026-05-01T09:36:27Z</time></trkpt><trkpt lat="42.7830686916225" lon="12.870022511265404"><ele>332.66666666666663</ele><time>2026-05-01T09:36:28Z</time></trkpt><trkpt lat="42.78293739207447" lon="12.869831886705567"><ele>331.3333333333333</ele><time>2026-05-01T09:36:29Z</time></trkpt><trkpt lat="42.78278311820264" lon="12.869672726964252"><ele>330.0</ele><time>2026-05-01T09:36:30Z</time></trkpt><trkpt lat="42.78262209693466" lon="12.869571621275062"><ele>328.0</ele><time>2026-05-01T09:36:31Z</time></trkpt><trkpt lat="42.782472563825394" lon="12.869462417594733"><ele>326.0</ele><time>2026-05-01T09:36:32Z</time></trkpt><trkpt lat="42.78234066046385" lon="12.86934283298209"><ele>324.0</ele><time>2026-05-01T09:36:33Z</time></trkpt><trkpt lat="42.78222192039871" lon="12.869226049220368"><ele>328.3333333333333</ele><time>2026-05-01T09:36:34Z</time></trkpt><trkpt lat="42.782106518636226" lon="12.869091497680856"><ele>332.66666666666663</ele><time>2026-05-01T09:36:35Z</time></trkpt><trkpt lat="42.781987119820634" lon="12.868949211406045"><ele>337.0</ele><time>2026-05-01T09:36:36Z</time></trkpt><trkpt lat="42.78185865834958" lon="12.86883603940049"><ele>333.0</ele><time>2026-05-01T09:36:37Z</time></trkpt><trkpt lat="42.78171351042416" lon="12.868776034788059"><ele>329.0</ele><time>2026-05-01T09:36:38Z</time></trkpt><trkpt lat="42.78155590252648" lon="12.868760182554226"><ele>325.0</ele><time>2026-05-01T09:36:39Z</time></trkpt><trkpt lat="42.78139744759154" lon="12.86877057009712"><ele>325.0</ele><time>2026-05-01T09:36:40Z</time></trkpt><trkpt lat="42.78122962358907" lon="12.86877743990991"><ele>325.0</ele><time>2026-05-01T09:36:41Z</time></trkpt><trkpt lat="42.781053591997306" lon="12.86873900408436"><ele>325.0</ele><time>2026-05-01T09:36:42Z</time></trkpt><trkpt lat="42.780844024976545" lon="12.868670730274816"><ele>323.5</ele><time>2026-05-01T09:36:43Z</time></trkpt><trkpt lat="42.780604997920335" lon="12.868592596357981"><ele>322.0</ele><time>2026-05-01T09:36:44Z</time></trkpt><trkpt lat="42.78034335646776" lon="12.868507113696275"><ele>327.0</ele><time>2026-05-01T09:36:45Z</time></trkpt><trkpt lat="42.78004940067847" lon="12.868433102467526"><ele>332.0</ele><time>2026-05-01T09:36:46Z</time></trkpt><trkpt lat="42.779739261450814" lon="12.868303190757247"><ele>332.0</ele><time>2026-05-01T09:36:47Z</time></trkpt><trkpt lat="42.77942856483513" lon="12.868199184376975"><ele>332.0</ele><time>2026-05-01T09:36:48Z</time></trkpt><trkpt lat="42.77912276946462" lon="12.86810352117424"><ele>330.5</ele><time>2026-05-01T09:36:49Z</time></trkpt><trkpt lat="42.77885374493295" lon="12.868018230370923"><ele>329.0</ele><time>2026-05-01T09:36:50Z</time></trkpt><trkpt lat="42.77861547210667" lon="12.867951598912416"><ele>326.5</ele><time>2026-05-01T09:36:51Z</time></trkpt><trkpt lat="42.77839052846039" lon="12.867901780713126"><ele>324.0</ele><time>2026-05-01T09:36:52Z</time></trkpt><trkpt lat="42.77815949633817" lon="12.867908828191318"><ele>324.0</ele><time>2026-05-01T09:36:53Z</time></trkpt><trkpt lat="42.777928061892204" lon="12.867937427348282"><ele>324.0</ele><time>2026-05-01T09:36:54Z</time></trkpt><trkpt lat="42.77768406083275" lon="12.867966674607695"><ele>324.0</ele><time>2026-05-01T09:36:55Z</time></trkpt><trkpt lat="42.77744600826433" lon="12.867963356619306"><ele>324.0</ele><time>2026-05-01T09:36:56Z</time></trkpt><trkpt lat="42.77721991873674" lon="12.867867658984794"><ele>324.0</ele><time>2026-05-01T09:36:57Z</time></trkpt><trkpt lat="42.77698673853448" lon="12.86770554966294"><ele>324.0</ele><time>2026-05-01T09:36:58Z</time></trkpt><trkpt lat="42.77670478889443" lon="12.867493024559906"><ele>327.5</ele><time>2026-05-01T09:36:59Z</time></trkpt><trkpt lat="42.77641173557175" lon="12.86724316506751"><ele>331.0</ele><time>2026-05-01T09:37:00Z</time></trkpt><trkpt lat="42.776092581467935" lon="12.867025979677763"><ele>325.0</ele><time>2026-05-01T09:37:01Z</time></trkpt><trkpt lat="42.7757512400417" lon="12.866852943248366"><ele>319.0</ele><time>2026-05-01T09:37:02Z</time></trkpt><trkpt lat="42.77538867350113" lon="12.866718965443559"><ele>325.5</ele><time>2026-05-01T09:37:03Z</time></trkpt><trkpt lat="42.77503410739959" lon="12.86660684560905"><ele>332.0</ele><time>2026-05-01T09:37:04Z</time></trkpt><trkpt lat="42.774728806442425" lon="12.86652668412818"><ele>332.0</ele><time>2026-05-01T09:37:05Z</time></trkpt><trkpt lat="42.774448485428806" lon="12.866467517885159"><ele>332.0</ele><time>2026-05-01T09:37:06Z</time></trkpt><trkpt lat="42.77419889907589" lon="12.866451204011819"><ele>327.5</ele><time>2026-05-01T09:37:07Z</time></trkpt><trkpt lat="42.77395261284113" lon="12.866423914947354"><ele>323.0</ele><time>2026-05-01T09:37:08Z</time></trkpt><trkpt lat="42.77371847829981" lon="12.86638939219793"><ele>321.0</ele><time>2026-05-01T09:37:09Z</time></trkpt><trkpt lat="42.77349043496487" lon="12.866328801920181"><ele>319.0</ele><time>2026-05-01T09:37:10Z</time></trkpt><trkpt lat="42.77326334168694" lon="12.866243404698327"><ele>319.0</ele><time>2026-05-01T09:37:11Z</time></trkpt><trkpt lat="42.7730559954425" lon="12.866148039404877"><ele>319.0</ele><time>2026-05-01T09:37:12Z</time></trkpt><trkpt lat="42.77284208274616" lon="12.866028217876279"><ele>320.0</ele><time>2026-05-01T09:37:13Z</time></trkpt><trkpt lat="42.7726383132567" lon="12.865914479508582"><ele>321.0</ele><time>2026-05-01T09:37:14Z</time></trkpt><trkpt lat="42.772427880432915" lon="12.865796622712548"><ele>322.0</ele><time>2026-05-01T09:37:15Z</time></trkpt><trkpt lat="42.77221823953458" lon="12.865678669021902"><ele>322.0</ele><time>2026-05-01T09:37:16Z</time></trkpt><trkpt lat="42.77200412461912" lon="12.865559747334345"><ele>322.0</ele><time>2026-05-01T09:37:17Z</time></trkpt><trkpt lat="42.77179359266326" lon="12.865441720704855"><ele>320.0</ele><time>2026-05-01T09:37:18Z</time></trkpt><trkpt lat="42.77158270331377" lon="12.865327067629394"><ele>318.0</ele><time>2026-05-01T09:37:19Z</time></trkpt><trkpt lat="42.771371921731834" lon="12.865209043221286"><ele>321.5</ele><time>2026-05-01T09:37:20Z</time></trkpt><trkpt lat="42.77116132930565" lon="12.865085397572969"><ele>325.0</ele><time>2026-05-01T09:37:21Z</time></trkpt><trkpt lat="42.770949417723365" lon="12.86496905941174"><ele>325.0</ele><time>2026-05-01T09:37:22Z</time></trkpt><trkpt lat="42.7707473252529" lon="12.864856014102479"><ele>325.0</ele><time>2026-05-01T09:37:23Z</time></trkpt><trkpt lat="42.77055137874322" lon="12.864745553514222"><ele>325.0</ele><time>2026-05-01T09:37:24Z</time></trkpt><trkpt lat="42.77036023889798" lon="12.8646411722305"><ele>323.3333333333333</ele><time>2026-05-01T09:37:25Z</time></trkpt><trkpt lat="42.77016767136663" lon="12.86452603121262"><ele>321.6666666666667</ele><time>2026-05-01T09:37:26Z</time></trkpt><trkpt lat="42.76997558352942" lon="12.864413848012891"><ele>320.0</ele><time>2026-05-01T09:37:27Z</time></trkpt><trkpt lat="42.76977771059744" lon="12.864286123021662"><ele>318.33333333333337</ele><time>2026-05-01T09:37:28Z</time></trkpt><trkpt lat="42.76958007886106" lon="12.86415450944586"><ele>316.6666666666667</ele><time>2026-05-01T09:37:29Z</time></trkpt><trkpt lat="42.769383530532046" lon="12.864024812888735"><ele>315.0</ele><time>2026-05-01T09:37:30Z</time></trkpt><trkpt lat="42.76918833399381" lon="12.863887246458237"><ele>315.0</ele><time>2026-05-01T09:37:31Z</time></trkpt><trkpt lat="42.76899657065719" lon="12.863766879343187"><ele>315.0</ele><time>2026-05-01T09:37:32Z</time></trkpt><trkpt lat="42.768796662732534" lon="12.863633663619481"><ele>315.0</ele><time>2026-05-01T09:37:33Z</time></trkpt><trkpt lat="42.76860488323617" lon="12.86350727604845"><ele>314.6666666666667</ele><time>2026-05-01T09:37:34Z</time></trkpt><trkpt lat="42.76841432352223" lon="12.863375657181276"><ele>314.33333333333337</ele><time>2026-05-01T09:37:35Z</time></trkpt><trkpt lat="42.76822261839277" lon="12.863242248935673"><ele>314.0</ele><time>2026-05-01T09:37:36Z</time></trkpt><trkpt lat="42.76803362408481" lon="12.863109316180436"><ele>314.0</ele><time>2026-05-01T09:37:37Z</time></trkpt><trkpt lat="42.76785109004463" lon="12.862979633330143"><ele>314.0</ele><time>2026-05-01T09:37:38Z</time></trkpt><trkpt lat="42.76767326479823" lon="12.862853214686925"><ele>314.0</ele><time>2026-05-01T09:37:39Z</time></trkpt><trkpt lat="42.767493871313754" lon="12.862733314734687"><ele>314.0</ele><time>2026-05-01T09:37:40Z</time></trkpt><trkpt lat="42.76731359922353" lon="12.862622241220487"><ele>314.0</ele><time>2026-05-01T09:37:41Z</time></trkpt><trkpt lat="42.7671352702974" lon="12.862504905051921"><ele>314.0</ele><time>2026-05-01T09:37:42Z</time></trkpt><trkpt lat="42.76696269089732" lon="12.86238096885972"><ele>313.33333333333337</ele><time>2026-05-01T09:37:43Z</time></trkpt><trkpt lat="42.76679165570052" lon="12.862264375106415"><ele>312.6666666666667</ele><time>2026-05-01T09:37:44Z</time></trkpt><trkpt lat="42.766620510339926" lon="12.862151774659322"><ele>312.0</ele><time>2026-05-01T09:37:45Z</time></trkpt><trkpt lat="42.76646778220875" lon="12.862050188939726"><ele>312.0</ele><time>2026-05-01T09:37:46Z</time></trkpt><trkpt lat="42.76633016456338" lon="12.861949975337058"><ele>312.0</ele><time>2026-05-01T09:37:47Z</time></trkpt><trkpt lat="42.76621349031152" lon="12.861859913698996"><ele>312.0</ele><time>2026-05-01T09:37:48Z</time></trkpt><trkpt lat="42.76611877482306" lon="12.861793681211545"><ele>312.0</ele><time>2026-05-01T09:37:49Z</time></trkpt><trkpt lat="42.76605983749692" lon="12.861739854402359"><ele>312.6</ele><time>2026-05-01T09:37:50Z</time></trkpt><trkpt lat="42.76600744492262" lon="12.861620626411748"><ele>313.2</ele><time>2026-05-01T09:37:52Z</time></trkpt><trkpt lat="42.76600214546712" lon="12.861460111181765"><ele>313.8</ele><time>2026-05-01T09:37:54Z</time></trkpt><trkpt lat="42.76611854671835" lon="12.861420684900311"><ele>314.4</ele><time>2026-05-01T09:37:56Z</time></trkpt><trkpt lat="42.76618237223302" lon="12.86140544136199"><ele>315.0</ele><time>2026-05-01T09:37:57Z</time></trkpt><trkpt lat="42.76626067115839" lon="12.861403920359344"><ele>315.6</ele><time>2026-05-01T09:37:58Z</time></trkpt><trkpt lat="42.766360324899274" lon="12.861397076265273"><ele>316.2</ele><time>2026-05-01T09:37:59Z</time></trkpt><trkpt lat="42.76647111696881" lon="12.861382641615052"><ele>316.8</ele><time>2026-05-01T09:38:00Z</time></trkpt><trkpt lat="42.766560246532386" lon="12.86137651393438"><ele>317.4</ele><time>2026-05-01T09:38:01Z</time></trkpt><trkpt lat="42.76666248713182" lon="12.861381338102827"><ele>318.0</ele><time>2026-05-01T09:38:03Z</time></trkpt><trkpt lat="42.76681112816895" lon="12.861294248269163"><ele>320.0</ele><time>2026-05-01T09:39:46Z</time></trkpt><trkpt lat="42.766950256253565" lon="12.86126494646129"><ele>322.0</ele><time>2026-05-01T09:39:47Z</time></trkpt><trkpt lat="42.767136793832485" lon="12.86125197166463"><ele>324.0</ele><time>2026-05-01T09:39:48Z</time></trkpt><trkpt lat="42.76734579011042" lon="12.86130010047558"><ele>324.0</ele><time>2026-05-01T09:39:49Z</time></trkpt><trkpt lat="42.767569747069" lon="12.861306283716441"><ele>324.0</ele><time>2026-05-01T09:39:50Z</time></trkpt><trkpt lat="42.76780514228731" lon="12.861354304795707"><ele>330.0</ele><time>2026-05-01T09:39:51Z</time></trkpt><trkpt lat="42.76805611773857" lon="12.861459379190523"><ele>336.0</ele><time>2026-05-01T09:39:52Z</time></trkpt><trkpt lat="42.76830267068997" lon="12.861602858624899"><ele>333.5</ele><time>2026-05-01T09:39:53Z</time></trkpt><trkpt lat="42.768542136036906" lon="12.861793058901474"><ele>331.0</ele><time>2026-05-01T09:39:54Z</time></trkpt><trkpt lat="42.76873835245169" lon="12.861973936643144"><ele>331.0</ele><time>2026-05-01T09:39:55Z</time></trkpt><trkpt lat="42.76889276061129" lon="12.862119120749828"><ele>331.0</ele><time>2026-05-01T09:39:56Z</time></trkpt><trkpt lat="42.76903866972165" lon="12.862251950441383"><ele>331.0</ele><time>2026-05-01T09:39:57Z</time></trkpt><trkpt lat="42.769159062255376" lon="12.862330103924869"><ele>331.0</ele><time>2026-05-01T09:39:58Z</time></trkpt><trkpt lat="42.76925147036073" lon="12.8624135686643"><ele>331.0</ele><time>2026-05-01T09:39:59Z</time></trkpt><trkpt lat="42.769334073827466" lon="12.862466841301742"><ele>331.0</ele><time>2026-05-01T09:40:00Z</time></trkpt><trkpt lat="42.76940608843199" lon="12.862497027483888"><ele>331.0</ele><time>2026-05-01T09:40:01Z</time></trkpt><trkpt lat="42.76947109748432" lon="12.862506277535418"><ele>331.0</ele><time>2026-05-01T09:40:02Z</time></trkpt><trkpt lat="42.769535528649975" lon="12.862394444897497"><ele>331.0</ele><time>2026-05-01T09:40:04Z</time></trkpt><trkpt lat="42.76943834196479" lon="12.86225934299557"><ele>331.0</ele><time>2026-05-01T09:40:06Z</time></trkpt><trkpt lat="42.76934401657741" lon="12.862183787265598"><ele>331.0</ele><time>2026-05-01T09:40:07Z</time></trkpt><trkpt lat="42.76925587426939" lon="12.862090380012733"><ele>331.0</ele><time>2026-05-01T09:40:08Z</time></trkpt><trkpt lat="42.76916139882053" lon="12.861995659106462"><ele>331.0</ele><time>2026-05-01T09:40:09Z</time></trkpt><trkpt lat="42.76905083598195" lon="12.861896679323314"><ele>339.66666666666663</ele><time>2026-05-01T09:40:10Z</time></trkpt><trkpt lat="42.768915880718744" lon="12.861757071968569"><ele>348.3333333333333</ele><time>2026-05-01T09:40:11Z</time></trkpt><trkpt lat="42.76874643896534" lon="12.861589818036073"><ele>357.0</ele><time>2026-05-01T09:40:12Z</time></trkpt><trkpt lat="42.768543964267984" lon="12.861401658838856"><ele>350.0</ele><time>2026-05-01T09:40:13Z</time></trkpt><trkpt lat="42.76833525355633" lon="12.86122289064482"><ele>343.0</ele><time>2026-05-01T09:40:14Z</time></trkpt><trkpt lat="42.76816064934176" lon="12.86108196969668"><ele>336.0</ele><time>2026-05-01T09:40:15Z</time></trkpt><trkpt lat="42.76800799152655" lon="12.86099153173918"><ele>336.0</ele><time>2026-05-01T09:40:16Z</time></trkpt><trkpt lat="42.767859889118846" lon="12.860955863204733"><ele>336.0</ele><time>2026-05-01T09:40:17Z</time></trkpt><trkpt lat="42.76769899946644" lon="12.860907962294858"><ele>336.0</ele><time>2026-05-01T09:40:18Z</time></trkpt><trkpt lat="42.76751433185065" lon="12.860866171090555"><ele>344.0</ele><time>2026-05-01T09:40:19Z</time></trkpt><trkpt lat="42.76732396939297" lon="12.860824868641302"><ele>352.0</ele><time>2026-05-01T09:40:20Z</time></trkpt><trkpt lat="42.767132747926965" lon="12.86079072461036"><ele>360.0</ele><time>2026-05-01T09:40:21Z</time></trkpt><trkpt lat="42.76693790482164" lon="12.860768114528373"><ele>359.0</ele><time>2026-05-01T09:40:22Z</time></trkpt><trkpt lat="42.766737627244304" lon="12.860748702054236"><ele>358.0</ele><time>2026-05-01T09:40:23Z</time></trkpt><trkpt lat="42.766534956704966" lon="12.860731531689622"><ele>357.0</ele><time>2026-05-01T09:40:24Z</time></trkpt><trkpt lat="42.76632621629199" lon="12.860702513669558"><ele>357.0</ele><time>2026-05-01T09:40:25Z</time></trkpt><trkpt lat="42.766112277716616" lon="12.860679064524126"><ele>357.0</ele><time>2026-05-01T09:40:26Z</time></trkpt><trkpt lat="42.76591412713245" lon="12.860663605880898"><ele>357.0</ele><time>2026-05-01T09:40:27Z</time></trkpt><trkpt lat="42.7657555216442" lon="12.860656542059312"><ele>354.75</ele><time>2026-05-01T09:40:28Z</time></trkpt><trkpt lat="42.765632682202124" lon="12.860640918609572"><ele>352.5</ele><time>2026-05-01T09:40:29Z</time></trkpt><trkpt lat="42.765525566459445" lon="12.860592424994683"><ele>350.25</ele><time>2026-05-01T09:40:30Z</time></trkpt><trkpt lat="42.76545538463416" lon="12.860506204615902"><ele>348.0</ele><time>2026-05-01T09:40:31Z</time></trkpt><trkpt lat="42.765497626425336" lon="12.860348976093862"><ele>348.0</ele><time>2026-05-01T09:40:32Z</time></trkpt><trkpt lat="42.76551630757308" lon="12.86021675893409"><ele>348.0</ele><time>2026-05-01T09:40:33Z</time></trkpt><trkpt lat="42.76550253624713" lon="12.86006829963068"><ele>348.0</ele><time>2026-05-01T09:40:34Z</time></trkpt><trkpt lat="42.76544114272749" lon="12.859953646700303"><ele>348.0</ele><time>2026-05-01T09:40:35Z</time></trkpt><trkpt lat="42.76534888222433" lon="12.859916821357155"><ele>348.0</ele><time>2026-05-01T09:40:36Z</time></trkpt><trkpt lat="42.76523960716378" lon="12.859978920862918"><ele>348.0</ele><time>2026-05-01T09:40:37Z</time></trkpt><trkpt lat="42.76513341467069" lon="12.86011107647313"><ele>348.0</ele><time>2026-05-01T09:40:38Z</time></trkpt><trkpt lat="42.76498781707082" lon="12.860221686233668"><ele>348.0</ele><time>2026-05-01T09:40:39Z</time></trkpt><trkpt lat="42.76479360188509" lon="12.86023379733397"><ele>348.0</ele><time>2026-05-01T09:40:40Z</time></trkpt><trkpt lat="42.76456571712847" lon="12.860228558282767"><ele>348.0</ele><time>2026-05-01T09:40:41Z</time></trkpt><trkpt lat="42.76435571165542" lon="12.860111445183392"><ele>360.5</ele><time>2026-05-01T09:40:42Z</time></trkpt><trkpt lat="42.7641584272026" lon="12.859924791491563"><ele>373.0</ele><time>2026-05-01T09:40:43Z</time></trkpt><trkpt lat="42.76395107710189" lon="12.85970364997059"><ele>373.0</ele><time>2026-05-01T09:40:44Z</time></trkpt><trkpt lat="42.76373539900095" lon="12.859482955968478"><ele>373.0</ele><time>2026-05-01T09:40:45Z</time></trkpt><trkpt lat="42.76351169559537" lon="12.85921312653111"><ele>376.66666666666663</ele><time>2026-05-01T09:40:46Z</time></trkpt><trkpt lat="42.76332571101735" lon="12.859009361545658"><ele>380.3333333333333</ele><time>2026-05-01T09:40:47Z</time></trkpt><trkpt lat="42.763162325803016" lon="12.858846906769552"><ele>384.0</ele><time>2026-05-01T09:40:48Z</time></trkpt><trkpt lat="42.76296116063213" lon="12.858759917931563"><ele>384.0</ele><time>2026-05-01T09:40:49Z</time></trkpt><trkpt lat="42.76272862525565" lon="12.85871217148041"><ele>384.0</ele><time>2026-05-01T09:40:50Z</time></trkpt><trkpt lat="42.762472390892746" lon="12.85865060189618"><ele>376.0</ele><time>2026-05-01T09:40:51Z</time></trkpt><trkpt lat="42.76223096288582" lon="12.85853267739736"><ele>368.0</ele><time>2026-05-01T09:40:52Z</time></trkpt><trkpt lat="42.76201210386179" lon="12.858419040693011"><ele>377.0</ele><time>2026-05-01T09:40:53Z</time></trkpt><trkpt lat="42.76181441358515" lon="12.85832175371709"><ele>386.0</ele><time>2026-05-01T09:40:54Z</time></trkpt><trkpt lat="42.76161854938779" lon="12.85822254048519"><ele>395.0</ele><time>2026-05-01T09:40:55Z</time></trkpt><trkpt lat="42.76141889645514" lon="12.8581207447682"><ele>395.0</ele><time>2026-05-01T09:40:56Z</time></trkpt><trkpt lat="42.761209785597885" lon="12.85802491733058"><ele>395.0</ele><time>2026-05-01T09:40:57Z</time></trkpt><trkpt lat="42.760998406779386" lon="12.857926399931143"><ele>395.0</ele><time>2026-05-01T09:40:58Z</time></trkpt><trkpt lat="42.760817883903826" lon="12.857812979860235"><ele>398.3333333333333</ele><time>2026-05-01T09:40:59Z</time></trkpt><trkpt lat="42.76066446864641" lon="12.857718257736076"><ele>401.66666666666663</ele><time>2026-05-01T09:41:00Z</time></trkpt><trkpt lat="42.76055092237357" lon="12.857589601296771"><ele>405.0</ele><time>2026-05-01T09:41:01Z</time></trkpt><trkpt lat="42.760481174406046" lon="12.857419396429682"><ele>405.0</ele><time>2026-05-01T09:41:02Z</time></trkpt><trkpt lat="42.76052000873925" lon="12.857241197502141"><ele>405.0</ele><time>2026-05-01T09:41:03Z</time></trkpt><trkpt lat="42.76058505182722" lon="12.857017919632106"><ele>405.0</ele><time>2026-05-01T09:41:04Z</time></trkpt><trkpt lat="42.76065211727457" lon="12.856763231852876"><ele>408.66666666666663</ele><time>2026-05-01T09:41:05Z</time></trkpt><trkpt lat="42.7607173251613" lon="12.856584812015736"><ele>412.3333333333333</ele><time>2026-05-01T09:41:06Z</time></trkpt><trkpt lat="42.76067508715519" lon="12.856417177379955"><ele>416.0</ele><time>2026-05-01T09:41:07Z</time></trkpt><trkpt lat="42.760568989363506" lon="12.856214260020833"><ele>416.0</ele><time>2026-05-01T09:41:08Z</time></trkpt><trkpt lat="42.76040017177424" lon="12.85601734295686"><ele>416.0</ele><time>2026-05-01T09:41:09Z</time></trkpt><trkpt lat="42.760224308750466" lon="12.855798661588551"><ele>409.0</ele><time>2026-05-01T09:41:10Z</time></trkpt><trkpt lat="42.7600559936947" lon="12.855558424579703"><ele>402.0</ele><time>2026-05-01T09:41:11Z</time></trkpt><trkpt lat="42.759902741980504" lon="12.855326699494201"><ele>402.0</ele><time>2026-05-01T09:41:12Z</time></trkpt><trkpt lat="42.75977687528944" lon="12.855133543045875"><ele>402.0</ele><time>2026-05-01T09:41:13Z</time></trkpt><trkpt lat="42.759677942520405" lon="12.855004210809886"><ele>402.0</ele><time>2026-05-01T09:41:14Z</time></trkpt><trkpt lat="42.7595635004605" lon="12.854957851686386"><ele>402.0</ele><time>2026-05-01T09:41:15Z</time></trkpt><trkpt lat="42.759422756329165" lon="12.854999722724086"><ele>402.0</ele><time>2026-05-01T09:41:16Z</time></trkpt><trkpt lat="42.75928621686492" lon="12.855157988088328"><ele>402.0</ele><time>2026-05-01T09:41:17Z</time></trkpt><trkpt lat="42.75911675101797" lon="12.8553689307662"><ele>402.0</ele><time>2026-05-01T09:41:18Z</time></trkpt><trkpt lat="42.75897361405157" lon="12.855629460403971"><ele>402.0</ele><time>2026-05-01T09:41:19Z</time></trkpt><trkpt lat="42.75882575388028" lon="12.855836267271071"><ele>402.0</ele><time>2026-05-01T09:41:20Z</time></trkpt><trkpt lat="42.758701339594154" lon="12.855892043180065"><ele>402.0</ele><time>2026-05-01T09:41:21Z</time></trkpt><trkpt lat="42.75851745838461" lon="12.855880501711654"><ele>412.0</ele><time>2026-05-01T09:41:22Z</time></trkpt><trkpt lat="42.75826718323869" lon="12.85584699011965"><ele>422.0</ele><time>2026-05-01T09:41:23Z</time></trkpt><trkpt lat="42.758018964656515" lon="12.855795375831597"><ele>422.0</ele><time>2026-05-01T09:41:24Z</time></trkpt><trkpt lat="42.75783011890394" lon="12.85564215256906"><ele>422.0</ele><time>2026-05-01T09:41:25Z</time></trkpt><trkpt lat="42.75762722093183" lon="12.855460694943329"><ele>415.0</ele><time>2026-05-01T09:41:26Z</time></trkpt><trkpt lat="42.757436763153834" lon="12.855250410726422"><ele>408.0</ele><time>2026-05-01T09:41:27Z</time></trkpt><trkpt lat="42.75721784220438" lon="12.855065634503857"><ele>412.66666666666663</ele><time>2026-05-01T09:41:28Z</time></trkpt><trkpt lat="42.7570115113987" lon="12.854894165552047"><ele>417.3333333333333</ele><time>2026-05-01T09:41:29Z</time></trkpt><trkpt lat="42.756824618559044" lon="12.854783637787"><ele>422.0</ele><time>2026-05-01T09:41:30Z</time></trkpt><trkpt lat="42.7566304824855" lon="12.854720970452261"><ele>422.0</ele><time>2026-05-01T09:41:31Z</time></trkpt><trkpt lat="42.756424554194375" lon="12.854654678190526"><ele>422.0</ele><time>2026-05-01T09:41:32Z</time></trkpt><trkpt lat="42.756238718405996" lon="12.854582136829958"><ele>422.0</ele><time>2026-05-01T09:41:33Z</time></trkpt><trkpt lat="42.756085688789305" lon="12.854420306959689"><ele>422.0</ele><time>2026-05-01T09:41:34Z</time></trkpt><trkpt lat="42.755954690848526" lon="12.854200049796606"><ele>422.0</ele><time>2026-05-01T09:41:35Z</time></trkpt><trkpt lat="42.75587330691267" lon="12.853926289443114"><ele>422.0</ele><time>2026-05-01T09:41:36Z</time></trkpt><trkpt lat="42.75579780128822" lon="12.853639519538792"><ele>430.66666666666663</ele><time>2026-05-01T09:41:37Z</time></trkpt><trkpt lat="42.75579334945857" lon="12.853382441958683"><ele>439.33333333333337</ele><time>2026-05-01T09:41:38Z</time></trkpt><trkpt lat="42.75579567463153" lon="12.853063573196925"><ele>448.0</ele><time>2026-05-01T09:41:39Z</time></trkpt><trkpt lat="42.75577326284838" lon="12.852758877392699"><ele>453.5</ele><time>2026-05-01T09:41:40Z</time></trkpt><trkpt lat="42.75570090297698" lon="12.852426234364632"><ele>459.0</ele><time>2026-05-01T09:41:41Z</time></trkpt><trkpt lat="42.75561200075565" lon="12.852085738553686"><ele>459.0</ele><time>2026-05-01T09:41:42Z</time></trkpt><trkpt lat="42.75554281150394" lon="12.85179755666981"><ele>459.0</ele><time>2026-05-01T09:41:43Z</time></trkpt><trkpt lat="42.75549354765689" lon="12.851579116024547"><ele>459.0</ele><time>2026-05-01T09:41:44Z</time></trkpt><trkpt lat="42.755467455475" lon="12.85138642930359"><ele>461.0</ele><time>2026-05-01T09:41:45Z</time></trkpt><trkpt lat="42.75549240601596" lon="12.85118899952317"><ele>463.0</ele><time>2026-05-01T09:41:46Z</time></trkpt><trkpt lat="42.75552123408506" lon="12.85098677833887"><ele>465.0</ele><time>2026-05-01T09:41:47Z</time></trkpt><trkpt lat="42.755653399358565" lon="12.850889674416672"><ele>467.0</ele><time>2026-05-01T09:41:48Z</time></trkpt><trkpt lat="42.75579268303801" lon="12.850796352225034"><ele>461.66666666666663</ele><time>2026-05-01T09:41:49Z</time></trkpt><trkpt lat="42.75597245688106" lon="12.850671691284749"><ele>456.33333333333337</ele><time>2026-05-01T09:41:50Z</time></trkpt><trkpt lat="42.75618612810575" lon="12.850506493497935"><ele>451.0</ele><time>2026-05-01T09:41:51Z</time></trkpt><trkpt lat="42.75634969753007" lon="12.850399049297966"><ele>461.6666666666667</ele><time>2026-05-01T09:41:52Z</time></trkpt><trkpt lat="42.75649876453203" lon="12.850284637280055"><ele>472.33333333333337</ele><time>2026-05-01T09:41:53Z</time></trkpt><trkpt lat="42.75668129280121" lon="12.850222908484513"><ele>483.0</ele><time>2026-05-01T09:41:54Z</time></trkpt><trkpt lat="42.756880637657105" lon="12.850175083867121"><ele>491.0</ele><time>2026-05-01T09:41:55Z</time></trkpt><trkpt lat="42.757092658160936" lon="12.850176324296568"><ele>499.0</ele><time>2026-05-01T09:41:56Z</time></trkpt><trkpt lat="42.7573447480388" lon="12.850159740331112"><ele>499.0</ele><time>2026-05-01T09:41:57Z</time></trkpt><trkpt lat="42.75759251274688" lon="12.850137264826559"><ele>499.0</ele><time>2026-05-01T09:41:58Z</time></trkpt><trkpt lat="42.75783508670447" lon="12.850107960489801"><ele>490.33333333333337</ele><time>2026-05-01T09:41:59Z</time></trkpt><trkpt lat="42.75802648584534" lon="12.850074361656434"><ele>481.66666666666663</ele><time>2026-05-01T09:42:00Z</time></trkpt><trkpt lat="42.75817907041942" lon="12.850016370574899"><ele>473.0</ele><time>2026-05-01T09:42:01Z</time></trkpt><trkpt lat="42.75830473407169" lon="12.84991532977693"><ele>473.0</ele><time>2026-05-01T09:42:02Z</time></trkpt><trkpt lat="42.75837793607205" lon="12.849748729789923"><ele>473.0</ele><time>2026-05-01T09:42:03Z</time></trkpt><trkpt lat="42.758403896652716" lon="12.849545189501768"><ele>473.0</ele><time>2026-05-01T09:42:04Z</time></trkpt><trkpt lat="42.75833965479585" lon="12.849298079140178"><ele>472.66666666666663</ele><time>2026-05-01T09:42:05Z</time></trkpt><trkpt lat="42.758268354269426" lon="12.84903297142905"><ele>472.33333333333337</ele><time>2026-05-01T09:42:06Z</time></trkpt><trkpt lat="42.75814744102976" lon="12.84877973281269"><ele>472.0</ele><time>2026-05-01T09:42:07Z</time></trkpt><trkpt lat="42.758054131752985" lon="12.848555966416473"><ele>471.75</ele><time>2026-05-01T09:42:08Z</time></trkpt><trkpt lat="42.75801978441789" lon="12.84839802964607"><ele>471.5</ele><time>2026-05-01T09:42:09Z</time></trkpt><trkpt lat="42.75806025664215" lon="12.848292894182075"><ele>471.25</ele><time>2026-05-01T09:42:10Z</time></trkpt><trkpt lat="42.758172834181465" lon="12.848222147814472"><ele>471.0</ele><time>2026-05-01T09:42:11Z</time></trkpt><trkpt lat="42.758332497603064" lon="12.848103219574641"><ele>471.0</ele><time>2026-05-01T09:42:12Z</time></trkpt><trkpt lat="42.75851024020193" lon="12.847932856048986"><ele>471.0</ele><time>2026-05-01T09:42:13Z</time></trkpt><trkpt lat="42.75869478548165" lon="12.8477436873942"><ele>471.0</ele><time>2026-05-01T09:42:14Z</time></trkpt><trkpt lat="42.758873332169465" lon="12.847506329269256"><ele>476.5</ele><time>2026-05-01T09:42:15Z</time></trkpt><trkpt lat="42.75903946199262" lon="12.847282929152222"><ele>482.0</ele><time>2026-05-01T09:42:16Z</time></trkpt><trkpt lat="42.75923749299001" lon="12.847149471951827"><ele>489.66666666666663</ele><time>2026-05-01T09:42:17Z</time></trkpt><trkpt lat="42.75943150717237" lon="12.847029492822497"><ele>497.33333333333337</ele><time>2026-05-01T09:42:18Z</time></trkpt><trkpt lat="42.7595766524668" lon="12.84693316474138"><ele>505.0</ele><time>2026-05-01T09:42:19Z</time></trkpt><trkpt lat="42.75966781468563" lon="12.84682632279476"><ele>500.0</ele><time>2026-05-01T09:42:20Z</time></trkpt><trkpt lat="42.75969819789471" lon="12.846649270153813"><ele>495.0</ele><time>2026-05-01T09:42:21Z</time></trkpt><trkpt lat="42.75969716872074" lon="12.846425555661682"><ele>490.0</ele><time>2026-05-01T09:42:22Z</time></trkpt><trkpt lat="42.759602222634555" lon="12.846175609897678"><ele>497.0</ele><time>2026-05-01T09:42:23Z</time></trkpt><trkpt lat="42.75946134364329" lon="12.845921695940858"><ele>504.0</ele><time>2026-05-01T09:42:24Z</time></trkpt><trkpt lat="42.759307688684586" lon="12.845656453330818"><ele>496.66666666666663</ele><time>2026-05-01T09:42:25Z</time></trkpt><trkpt lat="42.759215387205266" lon="12.845417286570779"><ele>489.3333333333333</ele><time>2026-05-01T09:42:26Z</time></trkpt><trkpt lat="42.75916459537575" lon="12.845212837961592"><ele>482.0</ele><time>2026-05-01T09:42:27Z</time></trkpt><trkpt lat="42.759150584030635" lon="12.844964834939898"><ele>482.0</ele><time>2026-05-01T09:42:28Z</time></trkpt><trkpt lat="42.759191597720616" lon="12.844700415644956"><ele>482.0</ele><time>2026-05-01T09:42:29Z</time></trkpt><trkpt lat="42.75926683119475" lon="12.844409280851904"><ele>482.0</ele><time>2026-05-01T09:42:30Z</time></trkpt><trkpt lat="42.75935829679684" lon="12.844078328871365"><ele>497.0</ele><time>2026-05-01T09:42:31Z</time></trkpt><trkpt lat="42.75945653304119" lon="12.843723785538483"><ele>512.0</ele><time>2026-05-01T09:42:32Z</time></trkpt><trkpt lat="42.759556349514874" lon="12.84337217396495"><ele>514.5</ele><time>2026-05-01T09:42:33Z</time></trkpt><trkpt lat="42.75962840732134" lon="12.842994523099712"><ele>517.0</ele><time>2026-05-01T09:42:34Z</time></trkpt><trkpt lat="42.75967420671661" lon="12.842635593013886"><ele>517.0</ele><time>2026-05-01T09:42:35Z</time></trkpt><trkpt lat="42.75970661276948" lon="12.842341429330919"><ele>517.0</ele><time>2026-05-01T09:42:36Z</time></trkpt><trkpt lat="42.75971888935204" lon="12.842110386107883"><ele>517.0</ele><time>2026-05-01T09:42:37Z</time></trkpt><trkpt lat="42.759681815476384" lon="12.841949749716285"><ele>517.0</ele><time>2026-05-01T09:42:38Z</time></trkpt><trkpt lat="42.75959571424954" lon="12.841824987243706"><ele>517.0</ele><time>2026-05-01T09:42:39Z</time></trkpt><trkpt lat="42.759471934163145" lon="12.841751394556491"><ele>517.0</ele><time>2026-05-01T09:42:40Z</time></trkpt><trkpt lat="42.75930372573813" lon="12.841787529610318"><ele>517.0</ele><time>2026-05-01T09:42:41Z</time></trkpt><trkpt lat="42.759113698227544" lon="12.841890073587031"><ele>502.5</ele><time>2026-05-01T09:42:42Z</time></trkpt><trkpt lat="42.7589212150035" lon="12.842058331416151"><ele>488.0</ele><time>2026-05-01T09:42:43Z</time></trkpt><trkpt lat="42.75866220493216" lon="12.842160343275662"><ele>491.0</ele><time>2026-05-01T09:42:44Z</time></trkpt><trkpt lat="42.758426711745045" lon="12.84220109555043"><ele>494.0</ele><time>2026-05-01T09:42:45Z</time></trkpt><trkpt lat="42.758174263993304" lon="12.842209851757463"><ele>494.0</ele><time>2026-05-01T09:42:46Z</time></trkpt><trkpt lat="42.75791618801753" lon="12.842252683756593"><ele>494.0</ele><time>2026-05-01T09:42:47Z</time></trkpt><trkpt lat="42.757641556232" lon="12.842359442671457"><ele>496.0</ele><time>2026-05-01T09:42:48Z</time></trkpt><trkpt lat="42.75735695880754" lon="12.842482900479299"><ele>498.0</ele><time>2026-05-01T09:42:49Z</time></trkpt><trkpt lat="42.757062447890476" lon="12.842516986406617"><ele>500.5</ele><time>2026-05-01T09:42:50Z</time></trkpt><trkpt lat="42.75681221894677" lon="12.842550106581777"><ele>503.0</ele><time>2026-05-01T09:42:51Z</time></trkpt><trkpt lat="42.7565984181691" lon="12.84254802768235"><ele>503.0</ele><time>2026-05-01T09:42:52Z</time></trkpt><trkpt lat="42.75639400429494" lon="12.842524863564979"><ele>503.0</ele><time>2026-05-01T09:42:53Z</time></trkpt><trkpt lat="42.75622884265434" lon="12.842401609186142"><ele>503.0</ele><time>2026-05-01T09:42:54Z</time></trkpt><trkpt lat="42.756089040422346" lon="12.842251321244232"><ele>504.0</ele><time>2026-05-01T09:42:55Z</time></trkpt><trkpt lat="42.755985732418935" lon="12.842007415869737"><ele>505.0</ele><time>2026-05-01T09:42:56Z</time></trkpt><trkpt lat="42.755893179677024" lon="12.841747566574947"><ele>506.0</ele><time>2026-05-01T09:42:57Z</time></trkpt><trkpt lat="42.75581196452751" lon="12.841550155027338"><ele>506.0</ele><time>2026-05-01T09:42:58Z</time></trkpt><trkpt lat="42.75579356379814" lon="12.84139433607401"><ele>506.0</ele><time>2026-05-01T09:42:59Z</time></trkpt><trkpt lat="42.75584817790956" lon="12.84125418947209"><ele>506.0</ele><time>2026-05-01T09:43:00Z</time></trkpt><trkpt lat="42.75598752846194" lon="12.841139959454269"><ele>506.0</ele><time>2026-05-01T09:43:01Z</time></trkpt><trkpt lat="42.75615742595022" lon="12.84102440816789"><ele>513.5</ele><time>2026-05-01T09:43:02Z</time></trkpt><trkpt lat="42.7563627774821" lon="12.840895284429225"><ele>521.0</ele><time>2026-05-01T09:43:03Z</time></trkpt><trkpt lat="42.75658342183969" lon="12.840749883010417"><ele>521.0</ele><time>2026-05-01T09:43:04Z</time></trkpt><trkpt lat="42.75672260387619" lon="12.840576268499646"><ele>521.0</ele><time>2026-05-01T09:43:05Z</time></trkpt><trkpt lat="42.756783629584085" lon="12.840404543738494"><ele>521.0</ele><time>2026-05-01T09:43:06Z</time></trkpt><trkpt lat="42.75675284213384" lon="12.840234029769968"><ele>522.0</ele><time>2026-05-01T09:43:07Z</time></trkpt><trkpt lat="42.75668907860652" lon="12.840037330305755"><ele>523.0</ele><time>2026-05-01T09:43:08Z</time></trkpt><trkpt lat="42.75654978692747" lon="12.839831946315895"><ele>524.0</ele><time>2026-05-01T09:43:09Z</time></trkpt><trkpt lat="42.75637011535166" lon="12.839634776388019"><ele>524.0</ele><time>2026-05-01T09:43:10Z</time></trkpt><trkpt lat="42.75615994678224" lon="12.839472739514019"><ele>524.0</ele><time>2026-05-01T09:43:11Z</time></trkpt><trkpt lat="42.75590540796513" lon="12.839343001381343"><ele>526.3333333333333</ele><time>2026-05-01T09:43:12Z</time></trkpt><trkpt lat="42.75567941366578" lon="12.839282934591642"><ele>528.6666666666666</ele><time>2026-05-01T09:43:13Z</time></trkpt><trkpt lat="42.755516653861996" lon="12.839151049202345"><ele>531.0</ele><time>2026-05-01T09:43:14Z</time></trkpt><trkpt lat="42.755368514426976" lon="12.838953430958522"><ele>531.0</ele><time>2026-05-01T09:43:15Z</time></trkpt><trkpt lat="42.755236380193764" lon="12.838692867736913"><ele>531.0</ele><time>2026-05-01T09:43:16Z</time></trkpt><trkpt lat="42.755096320302705" lon="12.838411320744097"><ele>531.0</ele><time>2026-05-01T09:43:17Z</time></trkpt><trkpt lat="42.754958547031485" lon="12.838170603518082"><ele>531.0</ele><time>2026-05-01T09:43:18Z</time></trkpt><trkpt lat="42.75478284178824" lon="12.837978513840088"><ele>531.0</ele><time>2026-05-01T09:43:19Z</time></trkpt><trkpt lat="42.754598704591366" lon="12.837850875324884"><ele>525.0</ele><time>2026-05-01T09:43:20Z</time></trkpt><trkpt lat="42.75437111323628" lon="12.837797303158064"><ele>519.0</ele><time>2026-05-01T09:43:21Z</time></trkpt><trkpt lat="42.75410547324189" lon="12.83778863449996"><ele>519.0</ele><time>2026-05-01T09:43:22Z</time></trkpt><trkpt lat="42.75385632244742" lon="12.837736854756512"><ele>519.0</ele><time>2026-05-01T09:43:23Z</time></trkpt><trkpt lat="42.75368618951019" lon="12.837674927540535"><ele>519.0</ele><time>2026-05-01T09:43:24Z</time></trkpt><trkpt lat="42.75358554195587" lon="12.837613865373932"><ele>522.6</ele><time>2026-05-01T09:43:25Z</time></trkpt><trkpt lat="42.75359001942796" lon="12.837493698023723"><ele>526.2</ele><time>2026-05-01T09:43:26Z</time></trkpt><trkpt lat="42.75363393306059" lon="12.837351131214513"><ele>529.8000000000001</ele><time>2026-05-01T09:43:28Z</time></trkpt><trkpt lat="42.75364130768876" lon="12.837234995422438"><ele>533.4</ele><time>2026-05-01T09:43:29Z</time></trkpt><trkpt lat="42.75367832390746" lon="12.837104989031838"><ele>537.0</ele><time>2026-05-01T09:43:30Z</time></trkpt><trkpt lat="42.75370288711761" lon="12.83693330367893"><ele>540.0</ele><time>2026-05-01T09:43:31Z</time></trkpt><trkpt lat="42.753720134329896" lon="12.83674895495937"><ele>543.0</ele><time>2026-05-01T09:43:32Z</time></trkpt><trkpt lat="42.753738496524164" lon="12.836536541741577"><ele>546.0</ele><time>2026-05-01T09:43:33Z</time></trkpt><trkpt lat="42.75376093999571" lon="12.836307216726683"><ele>546.0</ele><time>2026-05-01T09:43:34Z</time></trkpt><trkpt lat="42.75378801828403" lon="12.836075985965184"><ele>546.0</ele><time>2026-05-01T09:43:35Z</time></trkpt><trkpt lat="42.75386680193063" lon="12.835830457018568"><ele>546.0</ele><time>2026-05-01T09:43:36Z</time></trkpt><trkpt lat="42.753954201561086" lon="12.8355629158056"><ele>545.0</ele><time>2026-05-01T09:43:37Z</time></trkpt><trkpt lat="42.75403565903482" lon="12.835251168445014"><ele>544.0</ele><time>2026-05-01T09:43:38Z</time></trkpt><trkpt lat="42.75400472918884" lon="12.834942328855075"><ele>544.0</ele><time>2026-05-01T09:43:39Z</time></trkpt><trkpt lat="42.753968212087194" lon="12.834682759731624"><ele>544.0</ele><time>2026-05-01T09:43:40Z</time></trkpt><trkpt lat="42.75397441147888" lon="12.834408048074886"><ele>544.0</ele><time>2026-05-01T09:43:41Z</time></trkpt><trkpt lat="42.75406661437971" lon="12.834157290343512"><ele>545.0</ele><time>2026-05-01T09:43:42Z</time></trkpt><trkpt lat="42.75416818393024" lon="12.833947689620482"><ele>546.0</ele><time>2026-05-01T09:43:43Z</time></trkpt><trkpt lat="42.754235326351946" lon="12.833699728296098"><ele>547.0</ele><time>2026-05-01T09:43:44Z</time></trkpt><trkpt lat="42.75421053376499" lon="12.83340313407262"><ele>550.5</ele><time>2026-05-01T09:43:45Z</time></trkpt><trkpt lat="42.754159439394414" lon="12.833068792614375"><ele>554.0</ele><time>2026-05-01T09:43:46Z</time></trkpt><trkpt lat="42.75406920372998" lon="12.83271913234605"><ele>557.0</ele><time>2026-05-01T09:43:47Z</time></trkpt><trkpt lat="42.75396663578706" lon="12.83235077148848"><ele>560.0</ele><time>2026-05-01T09:43:48Z</time></trkpt><trkpt lat="42.75385730504958" lon="12.832009438074255"><ele>564.0</ele><time>2026-05-01T09:43:49Z</time></trkpt><trkpt lat="42.75374284612688" lon="12.831737173172352"><ele>568.0</ele><time>2026-05-01T09:43:50Z</time></trkpt><trkpt lat="42.753603440627316" lon="12.831469410839338"><ele>566.0</ele><time>2026-05-01T09:43:51Z</time></trkpt><trkpt lat="42.753436435498415" lon="12.83120123920197"><ele>564.0</ele><time>2026-05-01T09:43:52Z</time></trkpt><trkpt lat="42.75322747350189" lon="12.830913852089067"><ele>564.0</ele><time>2026-05-01T09:43:53Z</time></trkpt><trkpt lat="42.75300517666585" lon="12.83062928799355"><ele>564.0</ele><time>2026-05-01T09:43:54Z</time></trkpt><trkpt lat="42.75276452210242" lon="12.830346600419354"><ele>566.0</ele><time>2026-05-01T09:43:55Z</time></trkpt><trkpt lat="42.75252270173802" lon="12.83011183929616"><ele>568.0</ele><time>2026-05-01T09:43:56Z</time></trkpt><trkpt lat="42.75231421383197" lon="12.829943840746271"><ele>568.0</ele><time>2026-05-01T09:43:57Z</time></trkpt><trkpt lat="42.75216544953969" lon="12.829821175409538"><ele>568.0</ele><time>2026-05-01T09:43:58Z</time></trkpt><trkpt lat="42.752008628925005" lon="12.829723264751014"><ele>568.0</ele><time>2026-05-01T09:43:59Z</time></trkpt><trkpt lat="42.75192881316141" lon="12.829590916258391"><ele>568.0</ele><time>2026-05-01T09:44:00Z</time></trkpt><trkpt lat="42.751884275272644" lon="12.82946523900858"><ele>568.0</ele><time>2026-05-01T09:44:01Z</time></trkpt><trkpt lat="42.75191105360574" lon="12.82929121983599"><ele>568.0</ele><time>2026-05-01T09:44:02Z</time></trkpt><trkpt lat="42.751968790054015" lon="12.829152903469355"><ele>568.0</ele><time>2026-05-01T09:44:03Z</time></trkpt><trkpt lat="42.75208692788596" lon="12.828983926182714"><ele>570.6666666666667</ele><time>2026-05-01T09:44:04Z</time></trkpt><trkpt lat="42.7522546558495" lon="12.828799845443767"><ele>573.3333333333334</ele><time>2026-05-01T09:44:05Z</time></trkpt><trkpt lat="42.7524566147002" lon="12.828697515194989"><ele>576.0</ele><time>2026-05-01T09:44:06Z</time></trkpt><trkpt lat="42.752673854760324" lon="12.828573290573067"><ele>578.6666666666666</ele><time>2026-05-01T09:44:07Z</time></trkpt><trkpt lat="42.75291215240705" lon="12.828599009560772"><ele>581.3333333333333</ele><time>2026-05-01T09:44:08Z</time></trkpt><trkpt lat="42.75310806992016" lon="12.828581217281867"><ele>584.0</ele><time>2026-05-01T09:44:09Z</time></trkpt><trkpt lat="42.75325287363625" lon="12.828506963798748"><ele>581.0</ele><time>2026-05-01T09:44:10Z</time></trkpt><trkpt lat="42.753352351947186" lon="12.828397910788835"><ele>578.0</ele><time>2026-05-01T09:44:11Z</time></trkpt><trkpt lat="42.753403591897985" lon="12.828222064259942"><ele>575.0</ele><time>2026-05-01T09:44:12Z</time></trkpt><trkpt lat="42.75340704272055" lon="12.827991392032772"><ele>572.0</ele><time>2026-05-01T09:44:13Z</time></trkpt><trkpt lat="42.75333549217691" lon="12.827750080965634"><ele>574.5</ele><time>2026-05-01T09:44:14Z</time></trkpt><trkpt lat="42.75324596886449" lon="12.827469768091174"><ele>577.0</ele><time>2026-05-01T09:44:15Z</time></trkpt><trkpt lat="42.75313913800239" lon="12.82714121952203"><ele>583.5</ele><time>2026-05-01T09:44:16Z</time></trkpt><trkpt lat="42.7530515921451" lon="12.826798057732711"><ele>590.0</ele><time>2026-05-01T09:44:17Z</time></trkpt><trkpt lat="42.752963582937745" lon="12.826454128569427"><ele>590.0</ele><time>2026-05-01T09:44:18Z</time></trkpt><trkpt lat="42.75291106925676" lon="12.82613730444618"><ele>590.0</ele><time>2026-05-01T09:44:19Z</time></trkpt><trkpt lat="42.7528426167775" lon="12.82586891688668"><ele>590.0</ele><time>2026-05-01T09:44:20Z</time></trkpt><trkpt lat="42.75273895366441" lon="12.825595957715752"><ele>588.0</ele><time>2026-05-01T09:44:21Z</time></trkpt><trkpt lat="42.75261246039793" lon="12.825294770810707"><ele>586.0</ele><time>2026-05-01T09:44:22Z</time></trkpt><trkpt lat="42.75250613012806" lon="12.825003276252108"><ele>586.0</ele><time>2026-05-01T09:44:23Z</time></trkpt><trkpt lat="42.75239420172244" lon="12.824681560915499"><ele>586.0</ele><time>2026-05-01T09:44:24Z</time></trkpt><trkpt lat="42.7522767002861" lon="12.824371023829142"><ele>597.0</ele><time>2026-05-01T09:44:25Z</time></trkpt><trkpt lat="42.752147950447885" lon="12.824059354131071"><ele>608.0</ele><time>2026-05-01T09:44:26Z</time></trkpt><trkpt lat="42.75200621024913" lon="12.823726559402688"><ele>598.5</ele><time>2026-05-01T09:44:27Z</time></trkpt><trkpt lat="42.75182014402848" lon="12.823405727753762"><ele>589.0</ele><time>2026-05-01T09:44:28Z</time></trkpt><trkpt lat="42.751658620852076" lon="12.82312927561279"><ele>589.0</ele><time>2026-05-01T09:44:29Z</time></trkpt><trkpt lat="42.751536850875716" lon="12.822875960360514"><ele>589.0</ele><time>2026-05-01T09:44:30Z</time></trkpt><trkpt lat="42.75146068315481" lon="12.82261231963477"><ele>589.0</ele><time>2026-05-01T09:44:31Z</time></trkpt><trkpt lat="42.751455647945846" lon="12.822362685425084"><ele>595.0</ele><time>2026-05-01T09:44:32Z</time></trkpt><trkpt lat="42.75147521791026" lon="12.822132515634054"><ele>601.0</ele><time>2026-05-01T09:44:33Z</time></trkpt><trkpt lat="42.75147412209452" lon="12.821853473027602"><ele>607.0</ele><time>2026-05-01T09:44:34Z</time></trkpt><trkpt lat="42.751428825834715" lon="12.82158998034107"><ele>612.6666666666667</ele><time>2026-05-01T09:44:35Z</time></trkpt><trkpt lat="42.75131354427919" lon="12.821355436864682"><ele>618.3333333333334</ele><time>2026-05-01T09:44:36Z</time></trkpt><trkpt lat="42.751210893732924" lon="12.82118951747126"><ele>624.0</ele><time>2026-05-01T09:44:37Z</time></trkpt><trkpt lat="42.75116743518776" lon="12.821027823865233"><ele>622.25</ele><time>2026-05-01T09:44:38Z</time></trkpt><trkpt lat="42.75121198173079" lon="12.820903610217606"><ele>620.5</ele><time>2026-05-01T09:44:39Z</time></trkpt><trkpt lat="42.75129661998072" lon="12.82079002044156"><ele>618.75</ele><time>2026-05-01T09:44:40Z</time></trkpt><trkpt lat="42.751459167757055" lon="12.820647933635936"><ele>617.0</ele><time>2026-05-01T09:44:41Z</time></trkpt><trkpt lat="42.75162963320728" lon="12.820481047397928"><ele>617.0</ele><time>2026-05-01T09:44:42Z</time></trkpt><trkpt lat="42.75185157412081" lon="12.820336175325696"><ele>617.0</ele><time>2026-05-01T09:44:43Z</time></trkpt><trkpt lat="42.752094065857335" lon="12.820205894348591"><ele>614.5</ele><time>2026-05-01T09:44:44Z</time></trkpt><trkpt lat="42.75234666385709" lon="12.820042031107088"><ele>612.0</ele><time>2026-05-01T09:44:45Z</time></trkpt><trkpt lat="42.75259266745074" lon="12.819895968834482"><ele>617.5</ele><time>2026-05-01T09:44:46Z</time></trkpt><trkpt lat="42.752824107945926" lon="12.819830962997004"><ele>623.0</ele><time>2026-05-01T09:44:47Z</time></trkpt><trkpt lat="42.75304487885389" lon="12.819845919036943"><ele>623.0</ele><time>2026-05-01T09:44:48Z</time></trkpt><trkpt lat="42.7532839574659" lon="12.81991472587479"><ele>623.0</ele><time>2026-05-01T09:44:49Z</time></trkpt><trkpt lat="42.753509057930245" lon="12.819938145407006"><ele>628.0</ele><time>2026-05-01T09:44:50Z</time></trkpt><trkpt lat="42.753683695833985" lon="12.819962132352407"><ele>633.0</ele><time>2026-05-01T09:44:51Z</time></trkpt><trkpt lat="42.75383277469412" lon="12.819931217484914"><ele>638.0</ele><time>2026-05-01T09:44:52Z</time></trkpt><trkpt lat="42.75395414968176" lon="12.819873291111442"><ele>638.0</ele><time>2026-05-01T09:44:53Z</time></trkpt><trkpt lat="42.754042645179" lon="12.819759885026025"><ele>638.0</ele><time>2026-05-01T09:44:54Z</time></trkpt><trkpt lat="42.754085571839404" lon="12.819597230574425"><ele>638.0</ele><time>2026-05-01T09:44:55Z</time></trkpt><trkpt lat="42.75409362105347" lon="12.819388441050144"><ele>638.0</ele><time>2026-05-01T09:44:56Z</time></trkpt><trkpt lat="42.75409805199521" lon="12.819155794509493"><ele>633.6666666666666</ele><time>2026-05-01T09:44:57Z</time></trkpt><trkpt lat="42.75414915568719" lon="12.81894213312145"><ele>629.3333333333334</ele><time>2026-05-01T09:44:58Z</time></trkpt><trkpt lat="42.754281364562544" lon="12.818758444973401"><ele>625.0</ele><time>2026-05-01T09:44:59Z</time></trkpt><trkpt lat="42.754450100004846" lon="12.818534187095368"><ele>643.0</ele><time>2026-05-01T09:45:00Z</time></trkpt><trkpt lat="42.754594428509805" lon="12.818278366341431"><ele>661.0</ele><time>2026-05-01T09:45:01Z</time></trkpt><trkpt lat="42.754729538063046" lon="12.817995896597925"><ele>661.0</ele><time>2026-05-01T09:45:02Z</time></trkpt><trkpt lat="42.75483562716181" lon="12.817664158489315"><ele>661.0</ele><time>2026-05-01T09:45:03Z</time></trkpt><trkpt lat="42.75485135584608" lon="12.817307380186927"><ele>655.5</ele><time>2026-05-01T09:45:04Z</time></trkpt><trkpt lat="42.75486663183997" lon="12.816958406789748"><ele>650.0</ele><time>2026-05-01T09:45:05Z</time></trkpt><trkpt lat="42.75484582283102" lon="12.81667284511521"><ele>647.0</ele><time>2026-05-01T09:45:06Z</time></trkpt><trkpt lat="42.7549207811779" lon="12.816447905472803"><ele>644.0</ele><time>2026-05-01T09:45:07Z</time></trkpt><trkpt lat="42.75502555222062" lon="12.81620191101444"><ele>641.0</ele><time>2026-05-01T09:45:08Z</time></trkpt><trkpt lat="42.75516675849772" lon="12.81596735570743"><ele>653.0</ele><time>2026-05-01T09:45:09Z</time></trkpt><trkpt lat="42.75534921263949" lon="12.815736753099815"><ele>665.0</ele><time>2026-05-01T09:45:10Z</time></trkpt><trkpt lat="42.75554408840402" lon="12.81550447710724"><ele>665.0</ele><time>2026-05-01T09:45:11Z</time></trkpt><trkpt lat="42.75578236277436" lon="12.815275796703311"><ele>665.0</ele><time>2026-05-01T09:45:12Z</time></trkpt><trkpt lat="42.75602252953961" lon="12.815040301921288"><ele>667.5</ele><time>2026-05-01T09:45:13Z</time></trkpt><trkpt lat="42.75625760263837" lon="12.814825363277743"><ele>670.0</ele><time>2026-05-01T09:45:14Z</time></trkpt><trkpt lat="42.75645777912323" lon="12.81466557297469"><ele>670.0</ele><time>2026-05-01T09:45:15Z</time></trkpt><trkpt lat="42.756623751208735" lon="12.81454989172116"><ele>670.0</ele><time>2026-05-01T09:45:16Z</time></trkpt><trkpt lat="42.75671468874712" lon="12.814452865346839"><ele>670.0</ele><time>2026-05-01T09:45:17Z</time></trkpt><trkpt lat="42.756742763063336" lon="12.814346454154935"><ele>670.0</ele><time>2026-05-01T09:45:18Z</time></trkpt><trkpt lat="42.75672278023277" lon="12.81421320093654"><ele>665.3333333333334</ele><time>2026-05-01T09:45:19Z</time></trkpt><trkpt lat="42.75665679156895" lon="12.814062131831067"><ele>660.6666666666666</ele><time>2026-05-01T09:45:20Z</time></trkpt><trkpt lat="42.75652451264495" lon="12.813946876061081"><ele>656.0</ele><time>2026-05-01T09:45:21Z</time></trkpt><trkpt lat="42.75635915280156" lon="12.813849781710166"><ele>656.0</ele><time>2026-05-01T09:45:22Z</time></trkpt><trkpt lat="42.75616116756913" lon="12.813695452224373"><ele>656.0</ele><time>2026-05-01T09:45:23Z</time></trkpt><trkpt lat="42.75596203305812" lon="12.813560898679"><ele>658.0</ele><time>2026-05-01T09:45:24Z</time></trkpt><trkpt lat="42.75579442897536" lon="12.813446999630798"><ele>660.0</ele><time>2026-05-01T09:45:25Z</time></trkpt><trkpt lat="42.75566315421131" lon="12.813352685736275"><ele>662.0</ele><time>2026-05-01T09:45:26Z</time></trkpt><trkpt lat="42.75555806962817" lon="12.813238392041626"><ele>662.0</ele><time>2026-05-01T09:45:27Z</time></trkpt><trkpt lat="42.75544664686005" lon="12.81307362380656"><ele>662.0</ele><time>2026-05-01T09:45:28Z</time></trkpt><trkpt lat="42.75532281990281" lon="12.812870595140984"><ele>662.0</ele><time>2026-05-01T09:45:29Z</time></trkpt><trkpt lat="42.755243923217975" lon="12.812723968816734"><ele>662.25</ele><time>2026-05-01T09:45:30Z</time></trkpt><trkpt lat="42.75513991565834" lon="12.812653861322223"><ele>662.5</ele><time>2026-05-01T09:45:31Z</time></trkpt><trkpt lat="42.75504628790783" lon="12.812680986915238"><ele>662.75</ele><time>2026-05-01T09:45:32Z</time></trkpt><trkpt lat="42.75496427495216" lon="12.812808338840055"><ele>663.0</ele><time>2026-05-01T09:45:33Z</time></trkpt><trkpt lat="42.754929972302826" lon="12.8130206918173"><ele>663.0</ele><time>2026-05-01T09:45:34Z</time></trkpt><trkpt lat="42.754873955250346" lon="12.81327709451643"><ele>663.0</ele><time>2026-05-01T09:45:35Z</time></trkpt><trkpt lat="42.754797152659044" lon="12.813533131743934"><ele>663.0</ele><time>2026-05-01T09:45:36Z</time></trkpt><trkpt lat="42.75465494690618" lon="12.81373175476729"><ele>660.3333333333334</ele><time>2026-05-01T09:45:37Z</time></trkpt><trkpt lat="42.75452768401456" lon="12.813887127386861"><ele>657.6666666666667</ele><time>2026-05-01T09:45:38Z</time></trkpt><trkpt lat="42.754342881607116" lon="12.813903415431692"><ele>655.0</ele><time>2026-05-01T09:45:39Z</time></trkpt><trkpt lat="42.7541097178981" lon="12.813866085807607"><ele>655.0</ele><time>2026-05-01T09:45:40Z</time></trkpt><trkpt lat="42.75388492367483" lon="12.813874105873806"><ele>655.0</ele><time>2026-05-01T09:45:41Z</time></trkpt><trkpt lat="42.753648152742386" lon="12.813897956762899"><ele>660.0</ele><time>2026-05-01T09:45:42Z</time></trkpt><trkpt lat="42.75339106980978" lon="12.813995636212582"><ele>665.0</ele><time>2026-05-01T09:45:43Z</time></trkpt><trkpt lat="42.75318268517072" lon="12.81414086684689"><ele>665.0</ele><time>2026-05-01T09:45:44Z</time></trkpt><trkpt lat="42.75304068098013" lon="12.814255273112941"><ele>665.0</ele><time>2026-05-01T09:45:45Z</time></trkpt><trkpt lat="42.75289791992563" lon="12.81429659046591"><ele>665.0</ele><time>2026-05-01T09:45:46Z</time></trkpt><trkpt lat="42.752786291543295" lon="12.814292841092678"><ele>665.0</ele><time>2026-05-01T09:45:47Z</time></trkpt><trkpt lat="42.75274140862033" lon="12.814145682180117"><ele>665.0</ele><time>2026-05-01T09:45:48Z</time></trkpt><trkpt lat="42.7527378460607" lon="12.81396632879173"><ele>665.0</ele><time>2026-05-01T09:45:49Z</time></trkpt><trkpt lat="42.75273036421583" lon="12.813736117280726"><ele>665.0</ele><time>2026-05-01T09:45:50Z</time></trkpt><trkpt lat="42.75268308537639" lon="12.81347081600834"><ele>669.3333333333333</ele><time>2026-05-01T09:45:51Z</time></trkpt><trkpt lat="42.75258080584498" lon="12.813238282911168"><ele>673.6666666666666</ele><time>2026-05-01T09:45:52Z</time></trkpt><trkpt lat="42.7523914078389" lon="12.813094135604324"><ele>678.0</ele><time>2026-05-01T09:45:53Z</time></trkpt><trkpt lat="42.75216243913812" lon="12.812990712297053"><ele>678.0</ele><time>2026-05-01T09:45:54Z</time></trkpt><trkpt lat="42.751959148044726" lon="12.81285355555553"><ele>678.0</ele><time>2026-05-01T09:45:55Z</time></trkpt><trkpt lat="42.75180215914558" lon="12.812639112233922"><ele>678.0</ele><time>2026-05-01T09:45:56Z</time></trkpt><trkpt lat="42.75171764849122" lon="12.812404105644857"><ele>677.25</ele><time>2026-05-01T09:45:57Z</time></trkpt><trkpt lat="42.75169757961455" lon="12.81217073337286"><ele>676.5</ele><time>2026-05-01T09:45:58Z</time></trkpt><trkpt lat="42.75171342371417" lon="12.811981483697334"><ele>675.75</ele><time>2026-05-01T09:45:59Z</time></trkpt><trkpt lat="42.75174358904154" lon="12.811810336950103"><ele>675.0</ele><time>2026-05-01T09:46:00Z</time></trkpt><trkpt lat="42.751785394532504" lon="12.81162083373369"><ele>675.0</ele><time>2026-05-01T09:46:01Z</time></trkpt><trkpt lat="42.751840562021314" lon="12.811381501905094"><ele>675.0</ele><time>2026-05-01T09:46:02Z</time></trkpt><trkpt lat="42.75187750891086" lon="12.811185052058965"><ele>675.0</ele><time>2026-05-01T09:46:03Z</time></trkpt><trkpt lat="42.7518917039533" lon="12.811003645334532"><ele>690.6666666666666</ele><time>2026-05-01T09:46:04Z</time></trkpt><trkpt lat="42.75191694636379" lon="12.810833076412694"><ele>706.3333333333333</ele><time>2026-05-01T09:46:05Z</time></trkpt><trkpt lat="42.75195001339048" lon="12.81062619138805"><ele>722.0</ele><time>2026-05-01T09:46:06Z</time></trkpt><trkpt lat="42.7519757167659" lon="12.810389329813605"><ele>722.0</ele><time>2026-05-01T09:46:07Z</time></trkpt><trkpt lat="42.75205568975014" lon="12.810175164879288"><ele>722.0</ele><time>2026-05-01T09:46:08Z</time></trkpt><trkpt lat="42.752125080195675" lon="12.809981450566426"><ele>722.0</ele><time>2026-05-01T09:46:09Z</time></trkpt><trkpt lat="42.75219072818991" lon="12.809801849438337"><ele>719.6666666666666</ele><time>2026-05-01T09:46:10Z</time></trkpt><trkpt lat="42.75224392670196" lon="12.809616549154045"><ele>717.3333333333334</ele><time>2026-05-01T09:46:11Z</time></trkpt><trkpt lat="42.75229715508034" lon="12.80943840606113"><ele>715.0</ele><time>2026-05-01T09:46:12Z</time></trkpt><trkpt lat="42.75235225144985" lon="12.809229748458936"><ele>710.3333333333334</ele><time>2026-05-01T09:46:13Z</time></trkpt><trkpt lat="42.75241564373794" lon="12.809005099556225"><ele>705.6666666666666</ele><time>2026-05-01T09:46:14Z</time></trkpt><trkpt lat="42.752481737072635" lon="12.808764122543725"><ele>701.0</ele><time>2026-05-01T09:46:15Z</time></trkpt><trkpt lat="42.75254156087392" lon="12.808505136538999"><ele>700.0</ele><time>2026-05-01T09:46:16Z</time></trkpt><trkpt lat="42.75260452220882" lon="12.808226021754932"><ele>699.0</ele><time>2026-05-01T09:46:17Z</time></trkpt><trkpt lat="42.752651553352486" lon="12.807941801028708"><ele>698.0</ele><time>2026-05-01T09:46:18Z</time></trkpt><trkpt lat="42.75267445278195" lon="12.807652686380965"><ele>697.6666666666666</ele><time>2026-05-01T09:46:19Z</time></trkpt><trkpt lat="42.752685276986824" lon="12.807347504535871"><ele>697.3333333333334</ele><time>2026-05-01T09:46:20Z</time></trkpt><trkpt lat="42.75270189909432" lon="12.807053211597351"><ele>697.0</ele><time>2026-05-01T09:46:21Z</time></trkpt><trkpt lat="42.75274726886033" lon="12.806787193493381"><ele>708.0</ele><time>2026-05-01T09:46:22Z</time></trkpt><trkpt lat="42.75285809576207" lon="12.806555905644998"><ele>719.0</ele><time>2026-05-01T09:46:23Z</time></trkpt><trkpt lat="42.75298426488375" lon="12.80630551936533"><ele>730.0</ele><time>2026-05-01T09:46:24Z</time></trkpt><trkpt lat="42.75311081146662" lon="12.806054207953476"><ele>727.3333333333334</ele><time>2026-05-01T09:46:25Z</time></trkpt><trkpt lat="42.75322219890226" lon="12.805830855872205"><ele>724.6666666666666</ele><time>2026-05-01T09:46:26Z</time></trkpt><trkpt lat="42.75330323428499" lon="12.805653976561162"><ele>722.0</ele><time>2026-05-01T09:46:27Z</time></trkpt><trkpt lat="42.75336702803319" lon="12.805527836314228"><ele>722.0</ele><time>2026-05-01T09:46:28Z</time></trkpt><trkpt lat="42.75343653906787" lon="12.805406043408254"><ele>722.0</ele><time>2026-05-01T09:46:29Z</time></trkpt><trkpt lat="42.7535213749057" lon="12.805268801290781"><ele>722.0</ele><time>2026-05-01T09:46:30Z</time></trkpt><trkpt lat="42.75360541625537" lon="12.8051110274068"><ele>722.0</ele><time>2026-05-01T09:46:31Z</time></trkpt><trkpt lat="42.75362804929207" lon="12.804929504373348"><ele>721.3333333333333</ele><time>2026-05-01T09:46:32Z</time></trkpt><trkpt lat="42.75357914616303" lon="12.804751592462678"><ele>720.6666666666666</ele><time>2026-05-01T09:46:33Z</time></trkpt><trkpt lat="42.75346246100736" lon="12.80453016978963"><ele>720.0</ele><time>2026-05-01T09:46:34Z</time></trkpt><trkpt lat="42.75330303550035" lon="12.80430859668255"><ele>720.0</ele><time>2026-05-01T09:46:35Z</time></trkpt><trkpt lat="42.753186195025066" lon="12.804023121665534"><ele>720.0</ele><time>2026-05-01T09:46:36Z</time></trkpt><trkpt lat="42.75306830175304" lon="12.803720582961795"><ele>725.0</ele><time>2026-05-01T09:46:37Z</time></trkpt><trkpt lat="42.75293803821296" lon="12.803407333694468"><ele>730.0</ele><time>2026-05-01T09:46:38Z</time></trkpt><trkpt lat="42.752814574342835" lon="12.803087990299836"><ele>729.0</ele><time>2026-05-01T09:46:39Z</time></trkpt><trkpt lat="42.75269537984811" lon="12.802756590414699"><ele>728.0</ele><time>2026-05-01T09:46:40Z</time></trkpt><trkpt lat="42.75260150699621" lon="12.802457377483037"><ele>728.0</ele><time>2026-05-01T09:46:41Z</time></trkpt><trkpt lat="42.75252030246598" lon="12.802160587685497"><ele>728.0</ele><time>2026-05-01T09:46:42Z</time></trkpt><trkpt lat="42.75244873772733" lon="12.801889813855963"><ele>728.0</ele><time>2026-05-01T09:46:43Z</time></trkpt><trkpt lat="42.752368863951816" lon="12.80164071304862"><ele>729.0</ele><time>2026-05-01T09:46:44Z</time></trkpt><trkpt lat="42.75225892213435" lon="12.801407896856729"><ele>730.0</ele><time>2026-05-01T09:46:45Z</time></trkpt><trkpt lat="42.75212655887703" lon="12.801199567175258"><ele>731.0</ele><time>2026-05-01T09:46:46Z</time></trkpt><trkpt lat="42.75194337229242" lon="12.801018591759073"><ele>729.0</ele><time>2026-05-01T09:46:47Z</time></trkpt><trkpt lat="42.7517317627979" lon="12.800843854285185"><ele>727.0</ele><time>2026-05-01T09:46:48Z</time></trkpt><trkpt lat="42.751601796313814" lon="12.80061020382758"><ele>727.0</ele><time>2026-05-01T09:46:49Z</time></trkpt><trkpt lat="42.751477026903636" lon="12.800313040277588"><ele>727.0</ele><time>2026-05-01T09:46:50Z</time></trkpt><trkpt lat="42.75133371660667" lon="12.800025981029572"><ele>729.0</ele><time>2026-05-01T09:46:51Z</time></trkpt><trkpt lat="42.75118365370482" lon="12.799762984529215"><ele>731.0</ele><time>2026-05-01T09:46:52Z</time></trkpt><trkpt lat="42.75099011757272" lon="12.799519968893414"><ele>723.5</ele><time>2026-05-01T09:46:53Z</time></trkpt><trkpt lat="42.75082382650877" lon="12.799292355158"><ele>716.0</ele><time>2026-05-01T09:46:54Z</time></trkpt><trkpt lat="42.75066639063066" lon="12.799064081000536"><ele>716.0</ele><time>2026-05-01T09:46:55Z</time></trkpt><trkpt lat="42.750531299579876" lon="12.798801134482067"><ele>716.0</ele><time>2026-05-01T09:46:56Z</time></trkpt><trkpt lat="42.75041458316294" lon="12.79848436932467"><ele>710.0</ele><time>2026-05-01T09:46:57Z</time></trkpt><trkpt lat="42.75030827817489" lon="12.79812985848435"><ele>704.0</ele><time>2026-05-01T09:46:58Z</time></trkpt><trkpt lat="42.750192023803066" lon="12.79780522842294"><ele>709.6666666666666</ele><time>2026-05-01T09:46:59Z</time></trkpt><trkpt lat="42.750081605118744" lon="12.79754798270826"><ele>715.3333333333334</ele><time>2026-05-01T09:47:00Z</time></trkpt><trkpt lat="42.749994755054125" lon="12.79730253077717"><ele>721.0</ele><time>2026-05-01T09:47:01Z</time></trkpt><trkpt lat="42.7499659640093" lon="12.797004861160865"><ele>716.0</ele><time>2026-05-01T09:47:02Z</time></trkpt><trkpt lat="42.74999197202239" lon="12.796708120755145"><ele>711.0</ele><time>2026-05-01T09:47:03Z</time></trkpt><trkpt lat="42.75005272115754" lon="12.796383695371498"><ele>711.0</ele><time>2026-05-01T09:47:04Z</time></trkpt><trkpt lat="42.750080279107415" lon="12.796109592502603"><ele>711.0</ele><time>2026-05-01T09:47:05Z</time></trkpt><trkpt lat="42.75008353363297" lon="12.795825093167592"><ele>711.0</ele><time>2026-05-01T09:47:06Z</time></trkpt><trkpt lat="42.75002134634117" lon="12.795493420153564"><ele>705.5</ele><time>2026-05-01T09:47:07Z</time></trkpt><trkpt lat="42.749972583952804" lon="12.795116139099079"><ele>700.0</ele><time>2026-05-01T09:47:08Z</time></trkpt><trkpt lat="42.74996949982964" lon="12.794795579472122"><ele>700.0</ele><time>2026-05-01T09:47:09Z</time></trkpt><trkpt lat="42.74995022889081" lon="12.794504210082735"><ele>700.0</ele><time>2026-05-01T09:47:10Z</time></trkpt><trkpt lat="42.749876179330386" lon="12.794234916012961"><ele>700.0</ele><time>2026-05-01T09:47:11Z</time></trkpt><trkpt lat="42.74974097741839" lon="12.793971261604819"><ele>697.0</ele><time>2026-05-01T09:47:12Z</time></trkpt><trkpt lat="42.74956973953187" lon="12.793697597710734"><ele>694.0</ele><time>2026-05-01T09:47:13Z</time></trkpt><trkpt lat="42.74940321060016" lon="12.79337648749274"><ele>697.0</ele><time>2026-05-01T09:47:14Z</time></trkpt><trkpt lat="42.74924073438182" lon="12.793045822126588"><ele>700.0</ele><time>2026-05-01T09:47:15Z</time></trkpt><trkpt lat="42.74906124711268" lon="12.792706187080253"><ele>689.0</ele><time>2026-05-01T09:47:16Z</time></trkpt><trkpt lat="42.74885612521821" lon="12.792381069311313"><ele>678.0</ele><time>2026-05-01T09:47:17Z</time></trkpt><trkpt lat="42.74864819894514" lon="12.792042473505104"><ele>681.0</ele><time>2026-05-01T09:47:18Z</time></trkpt><trkpt lat="42.74844372714541" lon="12.791767504227655"><ele>684.0</ele><time>2026-05-01T09:47:19Z</time></trkpt><trkpt lat="42.74826305829957" lon="12.791531808554485"><ele>684.0</ele><time>2026-05-01T09:47:20Z</time></trkpt><trkpt lat="42.748101208803114" lon="12.79128926306222"><ele>684.0</ele><time>2026-05-01T09:47:21Z</time></trkpt><trkpt lat="42.74795779517515" lon="12.791044885844459"><ele>670.0</ele><time>2026-05-01T09:47:22Z</time></trkpt><trkpt lat="42.74785081624951" lon="12.79079837882689"><ele>656.0</ele><time>2026-05-01T09:47:23Z</time></trkpt><trkpt lat="42.74774207051561" lon="12.790485960994252"><ele>670.0</ele><time>2026-05-01T09:47:24Z</time></trkpt><trkpt lat="42.74764182135969" lon="12.790152560166431"><ele>684.0</ele><time>2026-05-01T09:47:25Z</time></trkpt><trkpt lat="42.74757457034138" lon="12.789862231670313"><ele>684.0</ele><time>2026-05-01T09:47:26Z</time></trkpt><trkpt lat="42.74751489801051" lon="12.78957117058718"><ele>684.0</ele><time>2026-05-01T09:47:27Z</time></trkpt><trkpt lat="42.747451132944875" lon="12.789300212079203"><ele>684.0</ele><time>2026-05-01T09:47:28Z</time></trkpt><trkpt lat="42.74740523163613" lon="12.789036771355388"><ele>678.6666666666666</ele><time>2026-05-01T09:47:29Z</time></trkpt><trkpt lat="42.7473680248516" lon="12.788767956110895"><ele>673.3333333333333</ele><time>2026-05-01T09:47:30Z</time></trkpt><trkpt lat="42.74731247769683" lon="12.788487069706429"><ele>668.0</ele><time>2026-05-01T09:47:31Z</time></trkpt><trkpt lat="42.747212299666174" lon="12.788232574904315"><ele>660.5</ele><time>2026-05-01T09:47:32Z</time></trkpt><trkpt lat="42.74706627299214" lon="12.787971955559298"><ele>653.0</ele><time>2026-05-01T09:47:33Z</time></trkpt><trkpt lat="42.74691437816937" lon="12.787766985640745"><ele>655.3333333333333</ele><time>2026-05-01T09:47:34Z</time></trkpt><trkpt lat="42.746749727008826" lon="12.787613606619969"><ele>657.6666666666666</ele><time>2026-05-01T09:47:35Z</time></trkpt><trkpt lat="42.74658999694431" lon="12.787517312921938"><ele>660.0</ele><time>2026-05-01T09:47:36Z</time></trkpt><trkpt lat="42.7464253466903" lon="12.787493957631314"><ele>660.0</ele><time>2026-05-01T09:47:37Z</time></trkpt><trkpt lat="42.74625785030307" lon="12.787540335885097"><ele>660.0</ele><time>2026-05-01T09:47:38Z</time></trkpt><trkpt lat="42.74609178697312" lon="12.787678094375357"><ele>660.0</ele><time>2026-05-01T09:47:39Z</time></trkpt><trkpt lat="42.74591622221314" lon="12.787871801345787"><ele>664.3333333333334</ele><time>2026-05-01T09:47:40Z</time></trkpt><trkpt lat="42.74576084787801" lon="12.787999775218648"><ele>668.6666666666667</ele><time>2026-05-01T09:47:41Z</time></trkpt><trkpt lat="42.74563735995398" lon="12.788107517307871"><ele>673.0</ele><time>2026-05-01T09:47:42Z</time></trkpt><trkpt lat="42.745503526180656" lon="12.788148342810787"><ele>673.0</ele><time>2026-05-01T09:47:43Z</time></trkpt><trkpt lat="42.74540053649076" lon="12.788073824791292"><ele>673.0</ele><time>2026-05-01T09:47:44Z</time></trkpt><trkpt lat="42.74530959098561" lon="12.787950706484427"><ele>673.0</ele><time>2026-05-01T09:47:45Z</time></trkpt><trkpt lat="42.74514632783776" lon="12.787756686227995"><ele>663.0</ele><time>2026-05-01T09:47:46Z</time></trkpt><trkpt lat="42.74500137617535" lon="12.787515845040588"><ele>653.0</ele><time>2026-05-01T09:47:47Z</time></trkpt><trkpt lat="42.74482763275152" lon="12.78730010771147"><ele>653.0</ele><time>2026-05-01T09:47:48Z</time></trkpt><trkpt lat="42.744595519055395" lon="12.787086195291916"><ele>653.0</ele><time>2026-05-01T09:47:49Z</time></trkpt><trkpt lat="42.74436176534288" lon="12.786868828919578"><ele>653.0</ele><time>2026-05-01T09:47:50Z</time></trkpt><trkpt lat="42.74414239607811" lon="12.78658957410006"><ele>653.0</ele><time>2026-05-01T09:47:51Z</time></trkpt><trkpt lat="42.74399316941794" lon="12.78635512818101"><ele>653.0</ele><time>2026-05-01T09:47:52Z</time></trkpt><trkpt lat="42.74382789437038" lon="12.786147918304867"><ele>653.0</ele><time>2026-05-01T09:47:53Z</time></trkpt><trkpt lat="42.74361534060901" lon="12.785987564058411"><ele>646.5</ele><time>2026-05-01T09:47:54Z</time></trkpt><trkpt lat="42.74335769570939" lon="12.785877860024645"><ele>640.0</ele><time>2026-05-01T09:47:55Z</time></trkpt><trkpt lat="42.74313236681252" lon="12.785811392823422"><ele>640.0</ele><time>2026-05-01T09:47:56Z</time></trkpt><trkpt lat="42.742919895170836" lon="12.785766469288161"><ele>640.0</ele><time>2026-05-01T09:47:57Z</time></trkpt><trkpt lat="42.74268614486436" lon="12.785777010733987"><ele>640.0</ele><time>2026-05-01T09:47:58Z</time></trkpt><trkpt lat="42.742462614992284" lon="12.785821187630319"><ele>638.3333333333334</ele><time>2026-05-01T09:47:59Z</time></trkpt><trkpt lat="42.74228543368681" lon="12.785904211592365"><ele>636.6666666666666</ele><time>2026-05-01T09:48:00Z</time></trkpt><trkpt lat="42.74213363216608" lon="12.786044726137268"><ele>635.0</ele><time>2026-05-01T09:48:01Z</time></trkpt><trkpt lat="42.741984289239944" lon="12.786260035461796"><ele>634.3333333333333</ele><time>2026-05-01T09:48:02Z</time></trkpt><trkpt lat="42.741870934511944" lon="12.786481243250094"><ele>633.6666666666666</ele><time>2026-05-01T09:48:03Z</time></trkpt><trkpt lat="42.74175228037374" lon="12.786628191969637"><ele>633.0</ele><time>2026-05-01T09:48:04Z</time></trkpt><trkpt lat="42.74161866159681" lon="12.786713539378487"><ele>633.0</ele><time>2026-05-01T09:48:05Z</time></trkpt><trkpt lat="42.74143532189796" lon="12.786682792402308"><ele>633.0</ele><time>2026-05-01T09:48:06Z</time></trkpt><trkpt lat="42.74120951332356" lon="12.786640248668215"><ele>633.0</ele><time>2026-05-01T09:48:07Z</time></trkpt><trkpt lat="42.74098678117208" lon="12.786599311685835"><ele>630.3333333333334</ele><time>2026-05-01T09:48:08Z</time></trkpt><trkpt lat="42.74077358845472" lon="12.78657834863698"><ele>627.6666666666667</ele><time>2026-05-01T09:48:09Z</time></trkpt><trkpt lat="42.74058177229164" lon="12.786578154651464"><ele>625.0</ele><time>2026-05-01T09:48:10Z</time></trkpt><trkpt lat="42.74040650141836" lon="12.78657903495994"><ele>625.0</ele><time>2026-05-01T09:48:11Z</time></trkpt><trkpt lat="42.7402564199525" lon="12.786601425050854"><ele>625.0</ele><time>2026-05-01T09:48:12Z</time></trkpt><trkpt lat="42.74013534879107" lon="12.786669683225517"><ele>625.0</ele><time>2026-05-01T09:48:13Z</time></trkpt><trkpt lat="42.74004107967771" lon="12.786764344686942"><ele>625.0</ele><time>2026-05-01T09:48:14Z</time></trkpt><trkpt lat="42.73996908215122" lon="12.786890259259145"><ele>623.75</ele><time>2026-05-01T09:48:15Z</time></trkpt><trkpt lat="42.73992856483029" lon="12.787034887094729"><ele>622.5</ele><time>2026-05-01T09:48:16Z</time></trkpt><trkpt lat="42.739929987145025" lon="12.787191809209864"><ele>621.25</ele><time>2026-05-01T09:48:17Z</time></trkpt><trkpt lat="42.739954170524975" lon="12.787365864744961"><ele>620.0</ele><time>2026-05-01T09:48:18Z</time></trkpt><trkpt lat="42.74003410487853" lon="12.78751507832868"><ele>620.0</ele><time>2026-05-01T09:48:19Z</time></trkpt><trkpt lat="42.74009628535451" lon="12.787657308243125"><ele>620.0</ele><time>2026-05-01T09:48:20Z</time></trkpt><trkpt lat="42.740148689867496" lon="12.787798959694427"><ele>620.0</ele><time>2026-05-01T09:48:21Z</time></trkpt><trkpt lat="42.74020708196395" lon="12.787915422824398"><ele>620.0</ele><time>2026-05-01T09:48:22Z</time></trkpt><trkpt lat="42.740247806292736" lon="12.788006629574236"><ele>620.0</ele><time>2026-05-01T09:48:23Z</time></trkpt><trkpt lat="42.74028181901708" lon="12.788085968898134"><ele>620.4</ele><time>2026-05-01T09:48:24Z</time></trkpt><trkpt lat="42.74030331865385" lon="12.788172140821192"><ele>620.8</ele><time>2026-05-01T09:48:25Z</time></trkpt><trkpt lat="42.74031416413477" lon="12.788257619740792"><ele>621.2</ele><time>2026-05-01T09:48:26Z</time></trkpt><trkpt lat="42.74015362881379" lon="12.788361546655706"><ele>621.6</ele><time>2026-05-01T09:48:28Z</time></trkpt><trkpt lat="42.74007036888156" lon="12.788296729645717"><ele>622.0</ele><time>2026-05-01T09:48:29Z</time></trkpt><trkpt lat="42.74001034951933" lon="12.788203104920216"><ele>622.0</ele><time>2026-05-01T09:48:30Z</time></trkpt><trkpt lat="42.73996679543611" lon="12.788063749385277"><ele>622.0</ele><time>2026-05-01T09:48:31Z</time></trkpt><trkpt lat="42.73990133350078" lon="12.787893782509409"><ele>622.0</ele><time>2026-05-01T09:48:32Z</time></trkpt><trkpt lat="42.739814991632976" lon="12.78765991665458"><ele>622.0</ele><time>2026-05-01T09:48:33Z</time></trkpt><trkpt lat="42.739718211091" lon="12.787380770703319"><ele>621.3333333333334</ele><time>2026-05-01T09:48:34Z</time></trkpt><trkpt lat="42.7396306236782" lon="12.787133846382954"><ele>620.6666666666666</ele><time>2026-05-01T09:48:35Z</time></trkpt><trkpt lat="42.73957116971212" lon="12.786900933981618"><ele>620.0</ele><time>2026-05-01T09:48:36Z</time></trkpt><trkpt lat="42.739565105050374" lon="12.786669890728968"><ele>618.0</ele><time>2026-05-01T09:48:37Z</time></trkpt><trkpt lat="42.7395761037353" lon="12.786443897081833"><ele>616.0</ele><time>2026-05-01T09:48:38Z</time></trkpt><trkpt lat="42.73965771939636" lon="12.786235860455646"><ele>614.0</ele><time>2026-05-01T09:48:39Z</time></trkpt><trkpt lat="42.7397956391891" lon="12.78605432065146"><ele>609.5</ele><time>2026-05-01T09:48:40Z</time></trkpt><trkpt lat="42.74002402069352" lon="12.785916932430808"><ele>605.0</ele><time>2026-05-01T09:48:41Z</time></trkpt><trkpt lat="42.74024184061712" lon="12.78580262929629"><ele>605.0</ele><time>2026-05-01T09:48:42Z</time></trkpt><trkpt lat="42.74042964926859" lon="12.7857531733313"><ele>605.0</ele><time>2026-05-01T09:48:43Z</time></trkpt><trkpt lat="42.740571337435206" lon="12.785657095457053"><ele>605.0</ele><time>2026-05-01T09:48:44Z</time></trkpt><trkpt lat="42.740725514536024" lon="12.785434803574619"><ele>604.0</ele><time>2026-05-01T09:48:45Z</time></trkpt><trkpt lat="42.74087852436342" lon="12.785165455828785"><ele>603.0</ele><time>2026-05-01T09:48:46Z</time></trkpt><trkpt lat="42.74100612131333" lon="12.784960324242647"><ele>602.0</ele><time>2026-05-01T09:48:47Z</time></trkpt><trkpt lat="42.7411110896788" lon="12.784775737432337"><ele>602.0</ele><time>2026-05-01T09:48:48Z</time></trkpt><trkpt lat="42.741223970492726" lon="12.784622236008499"><ele>602.0</ele><time>2026-05-01T09:48:49Z</time></trkpt><trkpt lat="42.74136135522028" lon="12.784521465912173"><ele>602.0</ele><time>2026-05-01T09:48:50Z</time></trkpt><trkpt lat="42.74154162296962" lon="12.784472280092887"><ele>602.0</ele><time>2026-05-01T09:48:51Z</time></trkpt><trkpt lat="42.74176372900443" lon="12.784500212185074"><ele>602.0</ele><time>2026-05-01T09:48:52Z</time></trkpt><trkpt lat="42.7420197003411" lon="12.784514739909978"><ele>604.0</ele><time>2026-05-01T09:48:53Z</time></trkpt><trkpt lat="42.74224060159323" lon="12.784551362155971"><ele>606.0</ele><time>2026-05-01T09:48:54Z</time></trkpt><trkpt lat="42.74243331276316" lon="12.784581974884762"><ele>608.0</ele><time>2026-05-01T09:48:55Z</time></trkpt><trkpt lat="42.74255318002687" lon="12.784626559222716"><ele>608.0</ele><time>2026-05-01T09:48:56Z</time></trkpt><trkpt lat="42.742641261826904" lon="12.784611972427964"><ele>608.0</ele><time>2026-05-01T09:48:57Z</time></trkpt><trkpt lat="42.74269712576094" lon="12.78451765984819"><ele>608.0</ele><time>2026-05-01T09:48:58Z</time></trkpt><trkpt lat="42.74270004382112" lon="12.784382637994426"><ele>608.0</ele><time>2026-05-01T09:48:59Z</time></trkpt><trkpt lat="42.74262791360626" lon="12.784271346867191"><ele>608.0</ele><time>2026-05-01T09:49:00Z</time></trkpt><trkpt lat="42.74246439815572" lon="12.784204730307325"><ele>598.3333333333333</ele><time>2026-05-01T09:49:01Z</time></trkpt><trkpt lat="42.7422703040728" lon="12.784170975412724"><ele>588.6666666666666</ele><time>2026-05-01T09:49:02Z</time></trkpt><trkpt lat="42.742049148890366" lon="12.784165820643645"><ele>579.0</ele><time>2026-05-01T09:49:03Z</time></trkpt><trkpt lat="42.74184181284678" lon="12.784130929350832"><ele>579.0</ele><time>2026-05-01T09:49:04Z</time></trkpt><trkpt lat="42.74168371287614" lon="12.784028238604204"><ele>579.0</ele><time>2026-05-01T09:49:05Z</time></trkpt><trkpt lat="42.74151279403919" lon="12.783923711865585"><ele>579.0</ele><time>2026-05-01T09:49:06Z</time></trkpt><trkpt lat="42.741332903823476" lon="12.783781340129083"><ele>579.0</ele><time>2026-05-01T09:49:07Z</time></trkpt><trkpt lat="42.741178048251705" lon="12.783675073601163"><ele>579.0</ele><time>2026-05-01T09:49:08Z</time></trkpt><trkpt lat="42.74114731041216" lon="12.783405704032752"><ele>579.0</ele><time>2026-05-01T09:49:09Z</time></trkpt><trkpt lat="42.741105961137194" lon="12.783212472600228"><ele>575.3333333333334</ele><time>2026-05-01T09:49:10Z</time></trkpt><trkpt lat="42.74109654362315" lon="12.782967001894608"><ele>571.6666666666667</ele><time>2026-05-01T09:49:11Z</time></trkpt><trkpt lat="42.74108365718347" lon="12.782735376795122"><ele>568.0</ele><time>2026-05-01T09:49:12Z</time></trkpt><trkpt lat="42.74104895766612" lon="12.782535310161208"><ele>568.0</ele><time>2026-05-01T09:49:13Z</time></trkpt><trkpt lat="42.74100640996784" lon="12.782353092035024"><ele>568.0</ele><time>2026-05-01T09:49:14Z</time></trkpt><trkpt lat="42.74095669186983" lon="12.782163482553475"><ele>568.0</ele><time>2026-05-01T09:49:15Z</time></trkpt><trkpt lat="42.74089163298348" lon="12.781945543040539"><ele>569.6666666666667</ele><time>2026-05-01T09:49:16Z</time></trkpt><trkpt lat="42.74079221462142" lon="12.781707598544982"><ele>571.3333333333334</ele><time>2026-05-01T09:49:17Z</time></trkpt><trkpt lat="42.74067716703467" lon="12.78145794951128"><ele>573.0</ele><time>2026-05-01T09:49:18Z</time></trkpt><trkpt lat="42.74055150903763" lon="12.781219254588827"><ele>574.3333333333334</ele><time>2026-05-01T09:49:19Z</time></trkpt><trkpt lat="42.74042534578894" lon="12.781012051824884"><ele>575.6666666666667</ele><time>2026-05-01T09:49:20Z</time></trkpt><trkpt lat="42.74032582198164" lon="12.780796143991084"><ele>577.0</ele><time>2026-05-01T09:49:21Z</time></trkpt><trkpt lat="42.74024893758132" lon="12.780575405942436"><ele>571.3333333333334</ele><time>2026-05-01T09:49:22Z</time></trkpt><trkpt lat="42.74020831294102" lon="12.780299865394134"><ele>565.6666666666666</ele><time>2026-05-01T09:49:23Z</time></trkpt><trkpt lat="42.74020109509446" lon="12.779972153278075"><ele>560.0</ele><time>2026-05-01T09:49:24Z</time></trkpt><trkpt lat="42.74017631333105" lon="12.779671851000458"><ele>560.0</ele><time>2026-05-01T09:49:25Z</time></trkpt><trkpt lat="42.740159835805756" lon="12.779356253303074"><ele>560.0</ele><time>2026-05-01T09:49:26Z</time></trkpt><trkpt lat="42.74014008133524" lon="12.779080179959829"><ele>560.0</ele><time>2026-05-01T09:49:27Z</time></trkpt><trkpt lat="42.740122683144484" lon="12.778801256314313"><ele>559.0</ele><time>2026-05-01T09:49:28Z</time></trkpt><trkpt lat="42.74011759698526" lon="12.778522358533296"><ele>558.0</ele><time>2026-05-01T09:49:29Z</time></trkpt><trkpt lat="42.74011360387705" lon="12.77826102252384"><ele>557.0</ele><time>2026-05-01T09:49:30Z</time></trkpt><trkpt lat="42.74011970755725" lon="12.777994740421462"><ele>557.0</ele><time>2026-05-01T09:49:31Z</time></trkpt><trkpt lat="42.740142348451236" lon="12.777731000868352"><ele>557.0</ele><time>2026-05-01T09:49:32Z</time></trkpt><trkpt lat="42.740183549461186" lon="12.7774687898502"><ele>557.0</ele><time>2026-05-01T09:49:33Z</time></trkpt><trkpt lat="42.740210771528304" lon="12.777204770636484"><ele>567.6666666666666</ele><time>2026-05-01T09:49:34Z</time></trkpt><trkpt lat="42.74022573276321" lon="12.776941863297038"><ele>578.3333333333334</ele><time>2026-05-01T09:49:35Z</time></trkpt><trkpt lat="42.74022980015071" lon="12.776675429871249"><ele>589.0</ele><time>2026-05-01T09:49:36Z</time></trkpt><trkpt lat="42.740230615423165" lon="12.776417687162036"><ele>589.0</ele><time>2026-05-01T09:49:37Z</time></trkpt><trkpt lat="42.74025085313404" lon="12.776165620611893"><ele>589.0</ele><time>2026-05-01T09:49:38Z</time></trkpt><trkpt lat="42.740280737244234" lon="12.775923474098022"><ele>589.0</ele><time>2026-05-01T09:49:39Z</time></trkpt><trkpt lat="42.740312202415545" lon="12.77567566475194"><ele>586.6666666666667</ele><time>2026-05-01T09:49:40Z</time></trkpt><trkpt lat="42.740344398399124" lon="12.775425750754037"><ele>584.3333333333334</ele><time>2026-05-01T09:49:41Z</time></trkpt><trkpt lat="42.74037404740102" lon="12.77517788230529"><ele>582.0</ele><time>2026-05-01T09:49:42Z</time></trkpt><trkpt lat="42.74039667590057" lon="12.774927778174574"><ele>581.0</ele><time>2026-05-01T09:49:43Z</time></trkpt><trkpt lat="42.74039674105327" lon="12.774668573299614"><ele>580.0</ele><time>2026-05-01T09:49:44Z</time></trkpt><trkpt lat="42.740380900466484" lon="12.77440369975186"><ele>579.0</ele><time>2026-05-01T09:49:45Z</time></trkpt><trkpt lat="42.740350980485815" lon="12.774131856196512"><ele>579.0</ele><time>2026-05-01T09:49:46Z</time></trkpt><trkpt lat="42.740323833111766" lon="12.773856215273936"><ele>579.0</ele><time>2026-05-01T09:49:47Z</time></trkpt><trkpt lat="42.74029936940476" lon="12.773584137553225"><ele>579.0</ele><time>2026-05-01T09:49:48Z</time></trkpt><trkpt lat="42.740269598222945" lon="12.77331324185816"><ele>579.6666666666666</ele><time>2026-05-01T09:49:49Z</time></trkpt><trkpt lat="42.74023335838974" lon="12.773054897957817"><ele>580.3333333333333</ele><time>2026-05-01T09:49:50Z</time></trkpt><trkpt lat="42.74019717955683" lon="12.77280964278947"><ele>581.0</ele><time>2026-05-01T09:49:51Z</time></trkpt><trkpt lat="42.74015959190108" lon="12.772563647992499"><ele>568.0</ele><time>2026-05-01T09:49:52Z</time></trkpt><trkpt lat="42.740142097119936" lon="12.772318682444276"><ele>555.0</ele><time>2026-05-01T09:49:53Z</time></trkpt><trkpt lat="42.74011226522225" lon="12.77207339154406"><ele>542.0</ele><time>2026-05-01T09:49:54Z</time></trkpt><trkpt lat="42.74007840524628" lon="12.771823286098355"><ele>542.0</ele><time>2026-05-01T09:49:55Z</time></trkpt><trkpt lat="42.74005155558247" lon="12.771574185878139"><ele>542.0</ele><time>2026-05-01T09:49:56Z</time></trkpt><trkpt lat="42.74001537147763" lon="12.771312346893382"><ele>542.0</ele><time>2026-05-01T09:49:57Z</time></trkpt><trkpt lat="42.74000699952748" lon="12.771053872061517"><ele>541.0</ele><time>2026-05-01T09:49:58Z</time></trkpt><trkpt lat="42.74000418142819" lon="12.770793451442902"><ele>540.0</ele><time>2026-05-01T09:49:59Z</time></trkpt><trkpt lat="42.740005578098234" lon="12.770532755858834"><ele>539.0</ele><time>2026-05-01T09:50:00Z</time></trkpt><trkpt lat="42.74001548377045" lon="12.77026769328849"><ele>538.0</ele><time>2026-05-01T09:50:01Z</time></trkpt><trkpt lat="42.740025068416365" lon="12.770008160736646"><ele>537.0</ele><time>2026-05-01T09:50:02Z</time></trkpt><trkpt lat="42.74002693992765" lon="12.76974607952926"><ele>536.0</ele><time>2026-05-01T09:50:03Z</time></trkpt><trkpt lat="42.74001936364752" lon="12.769487067803224"><ele>535.6666666666666</ele><time>2026-05-01T09:50:04Z</time></trkpt><trkpt lat="42.74001322616654" lon="12.769232225020152"><ele>535.3333333333334</ele><time>2026-05-01T09:50:05Z</time></trkpt><trkpt lat="42.739999120478394" lon="12.768977904290452"><ele>535.0</ele><time>2026-05-01T09:50:06Z</time></trkpt><trkpt lat="42.73996155424339" lon="12.768719872010204"><ele>535.0</ele><time>2026-05-01T09:50:07Z</time></trkpt><trkpt lat="42.73990310690589" lon="12.76846063377055"><ele>535.0</ele><time>2026-05-01T09:50:08Z</time></trkpt><trkpt lat="42.73982808024593" lon="12.768206565399725"><ele>535.0</ele><time>2026-05-01T09:50:09Z</time></trkpt><trkpt lat="42.73977563928112" lon="12.767930385188752"><ele>534.0</ele><time>2026-05-01T09:50:10Z</time></trkpt><trkpt lat="42.73970755616774" lon="12.767649199110558"><ele>533.0</ele><time>2026-05-01T09:50:11Z</time></trkpt><trkpt lat="42.739664490786076" lon="12.767357727304388"><ele>532.0</ele><time>2026-05-01T09:50:12Z</time></trkpt><trkpt lat="42.73961240313782" lon="12.767056604224843"><ele>528.5</ele><time>2026-05-01T09:50:13Z</time></trkpt><trkpt lat="42.73955856517127" lon="12.766730867800533"><ele>525.0</ele><time>2026-05-01T09:50:14Z</time></trkpt><trkpt lat="42.73950930763075" lon="12.766417055524757"><ele>525.0</ele><time>2026-05-01T09:50:15Z</time></trkpt><trkpt lat="42.73947607346958" lon="12.766133173917535"><ele>525.0</ele><time>2026-05-01T09:50:16Z</time></trkpt><trkpt lat="42.739442709338846" lon="12.765869444741774"><ele>525.0</ele><time>2026-05-01T09:50:17Z</time></trkpt><trkpt lat="42.73940261511233" lon="12.765609820224793"><ele>525.0</ele><time>2026-05-01T09:50:18Z</time></trkpt><trkpt lat="42.73936183948938" lon="12.765347780006469"><ele>525.0</ele><time>2026-05-01T09:50:19Z</time></trkpt><trkpt lat="42.73931885342508" lon="12.765080305807848"><ele>525.0</ele><time>2026-05-01T09:50:20Z</time></trkpt><trkpt lat="42.73930697989484" lon="12.764800749927732"><ele>526.3333333333334</ele><time>2026-05-01T09:50:21Z</time></trkpt><trkpt lat="42.739304002091174" lon="12.76452742565161"><ele>527.6666666666667</ele><time>2026-05-01T09:50:22Z</time></trkpt><trkpt lat="42.73932882172897" lon="12.764238206252433"><ele>529.0</ele><time>2026-05-01T09:50:23Z</time></trkpt><trkpt lat="42.73935699984196" lon="12.763915510438673"><ele>529.25</ele><time>2026-05-01T09:50:24Z</time></trkpt><trkpt lat="42.739364490783345" lon="12.763652984235929"><ele>529.5</ele><time>2026-05-01T09:50:25Z</time></trkpt><trkpt lat="42.739388715246534" lon="12.763459056270852"><ele>529.75</ele><time>2026-05-01T09:50:26Z</time></trkpt><trkpt lat="42.73942435690723" lon="12.763340205197931"><ele>530.0</ele><time>2026-05-01T09:50:27Z</time></trkpt><trkpt lat="42.73947674150984" lon="12.763268454534792"><ele>525.4</ele><time>2026-05-01T09:50:28Z</time></trkpt><trkpt lat="42.739537471135314" lon="12.763199556147871"><ele>520.8</ele><time>2026-05-01T09:50:29Z</time></trkpt><trkpt lat="42.73963632684663" lon="12.76325567725388"><ele>516.2</ele><time>2026-05-01T09:50:30Z</time></trkpt><trkpt lat="42.73968760177773" lon="12.763384636951416"><ele>511.6</ele><time>2026-05-01T09:50:31Z</time></trkpt><trkpt lat="42.73966785213534" lon="12.763561241162607"><ele>507.0</ele><time>2026-05-01T09:50:32Z</time></trkpt><trkpt lat="42.739611486332976" lon="12.763830261164205"><ele>507.0</ele><time>2026-05-01T09:50:33Z</time></trkpt><trkpt lat="42.739556020623475" lon="12.76410604120372"><ele>507.0</ele><time>2026-05-01T09:50:34Z</time></trkpt><trkpt lat="42.73951651642332" lon="12.76439800052508"><ele>507.0</ele><time>2026-05-01T09:50:35Z</time></trkpt><trkpt lat="42.73951850967217" lon="12.764582617893222"><ele>506.6</ele><time>2026-05-01T09:50:36Z</time></trkpt><trkpt lat="42.73954357767032" lon="12.764723066111802"><ele>506.20000000000005</ele><time>2026-05-01T09:50:37Z</time></trkpt><trkpt lat="42.73958652721763" lon="12.764827439648048"><ele>505.8</ele><time>2026-05-01T09:50:38Z</time></trkpt><trkpt lat="42.73967473965806" lon="12.764856479825427"><ele>505.4</ele><time>2026-05-01T09:50:39Z</time></trkpt><trkpt lat="42.73977687039491" lon="12.764811275198445"><ele>505.0</ele><time>2026-05-01T09:50:40Z</time></trkpt><trkpt lat="42.73986904277919" lon="12.764679250040349"><ele>505.0</ele><time>2026-05-01T09:50:41Z</time></trkpt><trkpt lat="42.73989676081149" lon="12.764450989719888"><ele>505.0</ele><time>2026-05-01T09:50:42Z</time></trkpt><trkpt lat="42.73995598878256" lon="12.764210008144007"><ele>505.0</ele><time>2026-05-01T09:50:43Z</time></trkpt><trkpt lat="42.73999152796318" lon="12.76393959136085"><ele>505.0</ele><time>2026-05-01T09:50:44Z</time></trkpt><trkpt lat="42.74004914838652" lon="12.763639732701305"><ele>505.0</ele><time>2026-05-01T09:50:45Z</time></trkpt><trkpt lat="42.74009155518482" lon="12.76339371300531"><ele>505.0</ele><time>2026-05-01T09:50:46Z</time></trkpt><trkpt lat="42.74014423257215" lon="12.763123527301094"><ele>505.0</ele><time>2026-05-01T09:50:47Z</time></trkpt><trkpt lat="42.7401950094042" lon="12.762846232973333"><ele>505.0</ele><time>2026-05-01T09:50:48Z</time></trkpt><trkpt lat="42.74024983533099" lon="12.762549794393893"><ele>505.0</ele><time>2026-05-01T09:50:49Z</time></trkpt><trkpt lat="42.7403144460696" lon="12.762236275782772"><ele>499.0</ele><time>2026-05-01T09:50:50Z</time></trkpt><trkpt lat="42.74037161912576" lon="12.76194875231102"><ele>493.0</ele><time>2026-05-01T09:50:51Z</time></trkpt><trkpt lat="42.74043433559803" lon="12.76170210623907"><ele>487.0</ele><time>2026-05-01T09:50:52Z</time></trkpt><trkpt lat="42.74050680955302" lon="12.761505389940723"><ele>487.0</ele><time>2026-05-01T09:50:53Z</time></trkpt><trkpt lat="42.74060955708061" lon="12.761355207049421"><ele>487.0</ele><time>2026-05-01T09:50:54Z</time></trkpt><trkpt lat="42.74072394013035" lon="12.761255963299952"><ele>487.0</ele><time>2026-05-01T09:50:55Z</time></trkpt><trkpt lat="42.74089168114451" lon="12.761264475136288"><ele>480.5</ele><time>2026-05-01T09:50:56Z</time></trkpt><trkpt lat="42.741175808771786" lon="12.761313432975529"><ele>474.0</ele><time>2026-05-01T09:50:57Z</time></trkpt><trkpt lat="42.74133976200496" lon="12.761343763867549"><ele>474.0</ele><time>2026-05-01T09:50:58Z</time></trkpt><trkpt lat="42.741492300401774" lon="12.761301717583386"><ele>474.0</ele><time>2026-05-01T09:50:59Z</time></trkpt><trkpt lat="42.741629402572315" lon="12.76120340418744"><ele>474.0</ele><time>2026-05-01T09:51:00Z</time></trkpt><trkpt lat="42.74179382326403" lon="12.761006340509773"><ele>470.66666666666663</ele><time>2026-05-01T09:51:01Z</time></trkpt><trkpt lat="42.741977509311425" lon="12.76077517845068"><ele>467.3333333333333</ele><time>2026-05-01T09:51:02Z</time></trkpt><trkpt lat="42.74211637175051" lon="12.760623648159342"><ele>464.0</ele><time>2026-05-01T09:51:03Z</time></trkpt><trkpt lat="42.74222623457748" lon="12.760475475073648"><ele>464.0</ele><time>2026-05-01T09:51:04Z</time></trkpt><trkpt lat="42.74227906644591" lon="12.760335263096334"><ele>464.0</ele><time>2026-05-01T09:51:05Z</time></trkpt><trkpt lat="42.74228906648266" lon="12.760179830622588"><ele>464.0</ele><time>2026-05-01T09:51:06Z</time></trkpt><trkpt lat="42.74222622394685" lon="12.76006139053833"><ele>464.0</ele><time>2026-05-01T09:51:07Z</time></trkpt><trkpt lat="42.742107875476385" lon="12.7599992037486"><ele>464.3333333333333</ele><time>2026-05-01T09:51:08Z</time></trkpt><trkpt lat="42.74195685115629" lon="12.760076039068387"><ele>464.66666666666663</ele><time>2026-05-01T09:51:09Z</time></trkpt><trkpt lat="42.7418380361144" lon="12.760238461922444"><ele>465.0</ele><time>2026-05-01T09:51:10Z</time></trkpt><trkpt lat="42.741708649018854" lon="12.760445082334321"><ele>467.33333333333337</ele><time>2026-05-01T09:51:11Z</time></trkpt><trkpt lat="42.741572875532555" lon="12.760574611766929"><ele>469.6666666666667</ele><time>2026-05-01T09:51:12Z</time></trkpt><trkpt lat="42.74139027325674" lon="12.760646514993695"><ele>472.0</ele><time>2026-05-01T09:51:13Z</time></trkpt><trkpt lat="42.7411668015703" lon="12.760687581848204"><ele>475.0</ele><time>2026-05-01T09:51:14Z</time></trkpt><trkpt lat="42.7409153737934" lon="12.760695564814922"><ele>478.0</ele><time>2026-05-01T09:51:15Z</time></trkpt><trkpt lat="42.740680787170604" lon="12.760592185865553"><ele>478.0</ele><time>2026-05-01T09:51:16Z</time></trkpt><trkpt lat="42.740462189637086" lon="12.760446494628594"><ele>478.0</ele><time>2026-05-01T09:51:17Z</time></trkpt><trkpt lat="42.740299157238816" lon="12.760281555930986"><ele>478.0</ele><time>2026-05-01T09:51:18Z</time></trkpt><trkpt lat="42.74010659367079" lon="12.76016845987622"><ele>465.0</ele><time>2026-05-01T09:51:19Z</time></trkpt><trkpt lat="42.739852120536824" lon="12.760134097313212"><ele>452.0</ele><time>2026-05-01T09:51:20Z</time></trkpt><trkpt lat="42.73958368853306" lon="12.760195457306562"><ele>462.0</ele><time>2026-05-01T09:51:21Z</time></trkpt><trkpt lat="42.73933881044358" lon="12.760302760181427"><ele>472.0</ele><time>2026-05-01T09:51:22Z</time></trkpt><trkpt lat="42.73912918607653" lon="12.760519207070066"><ele>472.0</ele><time>2026-05-01T09:51:23Z</time></trkpt><trkpt lat="42.73893967843053" lon="12.760751360089714"><ele>472.0</ele><time>2026-05-01T09:51:24Z</time></trkpt><trkpt lat="42.73881857878422" lon="12.760920466657883"><ele>472.0</ele><time>2026-05-01T09:51:25Z</time></trkpt><trkpt lat="42.73870295022555" lon="12.76104754836789"><ele>471.40000000000003</ele><time>2026-05-01T09:51:26Z</time></trkpt><trkpt lat="42.73858775384445" lon="12.761124087160873"><ele>470.80000000000007</ele><time>2026-05-01T09:51:27Z</time></trkpt><trkpt lat="42.73848407594991" lon="12.761127652879575"><ele>470.2</ele><time>2026-05-01T09:51:28Z</time></trkpt><trkpt lat="42.7384030942113" lon="12.76105764513911"><ele>469.6</ele><time>2026-05-01T09:51:29Z</time></trkpt><trkpt lat="42.73836482193049" lon="12.760932045889131"><ele>469.0</ele><time>2026-05-01T09:51:30Z</time></trkpt><trkpt lat="42.73839815866889" lon="12.760764782622442"><ele>468.0</ele><time>2026-05-01T09:51:31Z</time></trkpt><trkpt lat="42.73845868345221" lon="12.76054055545188"><ele>467.0</ele><time>2026-05-01T09:51:32Z</time></trkpt><trkpt lat="42.738577674395245" lon="12.760289201736498"><ele>466.0</ele><time>2026-05-01T09:51:33Z</time></trkpt><trkpt lat="42.738701456383865" lon="12.760018154737487"><ele>468.0</ele><time>2026-05-01T09:51:34Z</time></trkpt><trkpt lat="42.73880403495737" lon="12.759737377445376"><ele>470.0</ele><time>2026-05-01T09:51:35Z</time></trkpt><trkpt lat="42.73892675344766" lon="12.759513672486005"><ele>472.0</ele><time>2026-05-01T09:51:36Z</time></trkpt><trkpt lat="42.739104498919794" lon="12.759350268796306"><ele>472.0</ele><time>2026-05-01T09:51:37Z</time></trkpt><trkpt lat="42.73931649657366" lon="12.759157193677092"><ele>472.0</ele><time>2026-05-01T09:51:38Z</time></trkpt><trkpt lat="42.73954769523419" lon="12.758974379055216"><ele>459.5</ele><time>2026-05-01T09:51:39Z</time></trkpt><trkpt lat="42.739776719411005" lon="12.758779893910992"><ele>447.0</ele><time>2026-05-01T09:51:40Z</time></trkpt><trkpt lat="42.740034840988855" lon="12.758626423099756"><ele>449.5</ele><time>2026-05-01T09:51:41Z</time></trkpt><trkpt lat="42.74029117293533" lon="12.758551051565712"><ele>452.0</ele><time>2026-05-01T09:51:42Z</time></trkpt><trkpt lat="42.740499227102596" lon="12.758486558636726"><ele>452.0</ele><time>2026-05-01T09:51:43Z</time></trkpt><trkpt lat="42.74067831248464" lon="12.758400750063078"><ele>452.0</ele><time>2026-05-01T09:51:44Z</time></trkpt><trkpt lat="42.74082798806341" lon="12.75823134412776"><ele>452.0</ele><time>2026-05-01T09:51:45Z</time></trkpt><trkpt lat="42.740955234742565" lon="12.758041406294625"><ele>452.0</ele><time>2026-05-01T09:51:46Z</time></trkpt><trkpt lat="42.74104794953872" lon="12.75787094371454"><ele>452.0</ele><time>2026-05-01T09:51:47Z</time></trkpt><trkpt lat="42.74120427213394" lon="12.757825123213482"><ele>452.0</ele><time>2026-05-01T09:51:48Z</time></trkpt><trkpt lat="42.741371970940556" lon="12.757774059888863"><ele>455.0</ele><time>2026-05-01T09:51:49Z</time></trkpt><trkpt lat="42.74152100048205" lon="12.757746920936064"><ele>458.0</ele><time>2026-05-01T09:51:50Z</time></trkpt><trkpt lat="42.741678479586156" lon="12.757677563767901"><ele>461.0</ele><time>2026-05-01T09:51:51Z</time></trkpt><trkpt lat="42.74183863229787" lon="12.757478403037922"><ele>455.66666666666663</ele><time>2026-05-01T09:51:52Z</time></trkpt><trkpt lat="42.74194198111639" lon="12.757267963816604"><ele>450.33333333333337</ele><time>2026-05-01T09:51:53Z</time></trkpt><trkpt lat="42.74205363304832" lon="12.757126988024995"><ele>445.0</ele><time>2026-05-01T09:51:54Z</time></trkpt><trkpt lat="42.742246731106945" lon="12.757037118571585"><ele>445.0</ele><time>2026-05-01T09:51:55Z</time></trkpt><trkpt lat="42.74246672270813" lon="12.756959666242503"><ele>445.0</ele><time>2026-05-01T09:51:56Z</time></trkpt><trkpt lat="42.742666479521866" lon="12.756950450231649"><ele>445.0</ele><time>2026-05-01T09:51:57Z</time></trkpt><trkpt lat="42.74281443575104" lon="12.756894863526423"><ele>446.5</ele><time>2026-05-01T09:51:58Z</time></trkpt><trkpt lat="42.74291769656101" lon="12.756780944674803"><ele>448.0</ele><time>2026-05-01T09:51:59Z</time></trkpt><trkpt lat="42.74298313694503" lon="12.756617482482966"><ele>449.5</ele><time>2026-05-01T09:52:00Z</time></trkpt><trkpt lat="42.74299369709919" lon="12.756423821927486"><ele>451.0</ele><time>2026-05-01T09:52:01Z</time></trkpt><trkpt lat="42.74291555749329" lon="12.756219211221836"><ele>451.0</ele><time>2026-05-01T09:52:02Z</time></trkpt><trkpt lat="42.74277643173154" lon="12.756063908868843"><ele>451.0</ele><time>2026-05-01T09:52:03Z</time></trkpt><trkpt lat="42.74260884130719" lon="12.756001431499783"><ele>451.0</ele><time>2026-05-01T09:52:04Z</time></trkpt><trkpt lat="42.742455522977366" lon="12.756074705676955"><ele>454.0</ele><time>2026-05-01T09:52:05Z</time></trkpt><trkpt lat="42.742266513406925" lon="12.756179039538608"><ele>457.0</ele><time>2026-05-01T09:52:06Z</time></trkpt><trkpt lat="42.74208960697641" lon="12.756307657963019"><ele>460.0</ele><time>2026-05-01T09:52:07Z</time></trkpt><trkpt lat="42.74197686054967" lon="12.756355095477312"><ele>460.5</ele><time>2026-05-01T09:52:08Z</time></trkpt><trkpt lat="42.74186822540087" lon="12.756360564241758"><ele>461.0</ele><time>2026-05-01T09:52:09Z</time></trkpt><trkpt lat="42.74178919691805" lon="12.756231910210788"><ele>461.5</ele><time>2026-05-01T09:52:10Z</time></trkpt><trkpt lat="42.74170429946582" lon="12.7560986052698"><ele>462.0</ele><time>2026-05-01T09:52:11Z</time></trkpt><trkpt lat="42.74165827085336" lon="12.755952119340769"><ele>462.0</ele><time>2026-05-01T09:52:12Z</time></trkpt><trkpt lat="42.741679978834895" lon="12.75579430936486"><ele>462.0</ele><time>2026-05-01T09:52:13Z</time></trkpt><trkpt lat="42.741728289645835" lon="12.755678401525065"><ele>462.0</ele><time>2026-05-01T09:52:14Z</time></trkpt><trkpt lat="42.741824032749186" lon="12.755555223666015"><ele>462.0</ele><time>2026-05-01T09:52:15Z</time></trkpt><trkpt lat="42.741949440860495" lon="12.755398765493272"><ele>457.33333333333337</ele><time>2026-05-01T09:52:16Z</time></trkpt><trkpt lat="42.742093502575464" lon="12.755199612392213"><ele>452.6666666666667</ele><time>2026-05-01T09:52:17Z</time></trkpt><trkpt lat="42.742245497541894" lon="12.755005049933287"><ele>448.0</ele><time>2026-05-01T09:52:18Z</time></trkpt><trkpt lat="42.74231073146441" lon="12.754799671897171"><ele>448.0</ele><time>2026-05-01T09:52:19Z</time></trkpt><trkpt lat="42.742355964024185" lon="12.754529357594276"><ele>448.0</ele><time>2026-05-01T09:52:20Z</time></trkpt><trkpt lat="42.742366607377285" lon="12.754299294156542"><ele>448.0</ele><time>2026-05-01T09:52:21Z</time></trkpt><trkpt lat="42.742418140167516" lon="12.754107868809603"><ele>448.33333333333337</ele><time>2026-05-01T09:52:22Z</time></trkpt><trkpt lat="42.742539093681714" lon="12.753944097643076"><ele>448.66666666666663</ele><time>2026-05-01T09:52:23Z</time></trkpt><trkpt lat="42.74272356254996" lon="12.753851787463724"><ele>449.0</ele><time>2026-05-01T09:52:24Z</time></trkpt><trkpt lat="42.74295147910052" lon="12.753737729289785"><ele>438.0</ele><time>2026-05-01T09:52:25Z</time></trkpt><trkpt lat="42.743168879025056" lon="12.753664858580613"><ele>427.0</ele><time>2026-05-01T09:52:26Z</time></trkpt><trkpt lat="42.74346960916293" lon="12.753572824677375"><ele>430.0</ele><time>2026-05-01T09:52:27Z</time></trkpt><trkpt lat="42.743779235737364" lon="12.753500969857921"><ele>433.0</ele><time>2026-05-01T09:52:28Z</time></trkpt><trkpt lat="42.744094410384314" lon="12.75341862437798"><ele>433.0</ele><time>2026-05-01T09:52:29Z</time></trkpt><trkpt lat="42.74437302888467" lon="12.753327766268416"><ele>433.0</ele><time>2026-05-01T09:52:30Z</time></trkpt><trkpt lat="42.744621098751715" lon="12.753286835330591"><ele>427.0</ele><time>2026-05-01T09:52:31Z</time></trkpt><trkpt lat="42.7448629346953" lon="12.753239738991843"><ele>421.0</ele><time>2026-05-01T09:52:32Z</time></trkpt><trkpt lat="42.74510630805221" lon="12.7532128672574"><ele>420.0</ele><time>2026-05-01T09:52:33Z</time></trkpt><trkpt lat="42.74536875754313" lon="12.753216614396786"><ele>419.0</ele><time>2026-05-01T09:52:34Z</time></trkpt><trkpt lat="42.74563752461701" lon="12.753241363581477"><ele>419.0</ele><time>2026-05-01T09:52:35Z</time></trkpt><trkpt lat="42.74591029010206" lon="12.753222092134715"><ele>419.0</ele><time>2026-05-01T09:52:36Z</time></trkpt><trkpt lat="42.74616638610526" lon="12.753156596994168"><ele>414.5</ele><time>2026-05-01T09:52:37Z</time></trkpt><trkpt lat="42.74642809361905" lon="12.753121405626546"><ele>410.0</ele><time>2026-05-01T09:52:38Z</time></trkpt><trkpt lat="42.74672449276421" lon="12.753164035947757"><ele>408.5</ele><time>2026-05-01T09:52:39Z</time></trkpt><trkpt lat="42.74701906741518" lon="12.753269295660447"><ele>407.0</ele><time>2026-05-01T09:52:40Z</time></trkpt><trkpt lat="42.74727102130385" lon="12.753374092261044"><ele>407.0</ele><time>2026-05-01T09:52:41Z</time></trkpt><trkpt lat="42.747499050331115" lon="12.75344716925164"><ele>407.0</ele><time>2026-05-01T09:52:42Z</time></trkpt><trkpt lat="42.74770080072511" lon="12.753473623754768"><ele>407.0</ele><time>2026-05-01T09:52:43Z</time></trkpt><trkpt lat="42.74788200855094" lon="12.753448942391842"><ele>404.0</ele><time>2026-05-01T09:52:44Z</time></trkpt><trkpt lat="42.748031091668736" lon="12.753363141272875"><ele>401.0</ele><time>2026-05-01T09:52:45Z</time></trkpt><trkpt lat="42.74816661935559" lon="12.753241484221723"><ele>398.0</ele><time>2026-05-01T09:52:46Z</time></trkpt><trkpt lat="42.748257729781145" lon="12.753086336594196"><ele>398.0</ele><time>2026-05-01T09:52:47Z</time></trkpt><trkpt lat="42.74828510714518" lon="12.752898240490186"><ele>398.0</ele><time>2026-05-01T09:52:48Z</time></trkpt><trkpt lat="42.74824320552676" lon="12.752683808043948"><ele>398.0</ele><time>2026-05-01T09:52:49Z</time></trkpt><trkpt lat="42.748153114163394" lon="12.752508936585775"><ele>396.66666666666663</ele><time>2026-05-01T09:52:50Z</time></trkpt><trkpt lat="42.74799660487035" lon="12.75239795263061"><ele>395.33333333333337</ele><time>2026-05-01T09:52:51Z</time></trkpt><trkpt lat="42.747803732472505" lon="12.75234905423357"><ele>394.0</ele><time>2026-05-01T09:52:52Z</time></trkpt><trkpt lat="42.747621776900075" lon="12.752319925092714"><ele>398.33333333333337</ele><time>2026-05-01T09:52:53Z</time></trkpt><trkpt lat="42.747466852346555" lon="12.752201931343556"><ele>402.66666666666663</ele><time>2026-05-01T09:52:54Z</time></trkpt><trkpt lat="42.74728657887323" lon="12.75202293026845"><ele>407.0</ele><time>2026-05-01T09:52:55Z</time></trkpt><trkpt lat="42.74707830140279" lon="12.751943336253264"><ele>408.0</ele><time>2026-05-01T09:52:56Z</time></trkpt><trkpt lat="42.7468625429248" lon="12.751948083368829"><ele>409.0</ele><time>2026-05-01T09:52:57Z</time></trkpt><trkpt lat="42.74667781137809" lon="12.75199497406951"><ele>410.0</ele><time>2026-05-01T09:52:58Z</time></trkpt><trkpt lat="42.746502395886104" lon="12.751983139282144"><ele>410.0</ele><time>2026-05-01T09:52:59Z</time></trkpt><trkpt lat="42.746343522705864" lon="12.751883291263265"><ele>410.0</ele><time>2026-05-01T09:53:00Z</time></trkpt><trkpt lat="42.74619699378582" lon="12.751732537633597"><ele>410.0</ele><time>2026-05-01T09:53:01Z</time></trkpt><trkpt lat="42.74606414278374" lon="12.751640110003411"><ele>405.3333333333333</ele><time>2026-05-01T09:53:02Z</time></trkpt><trkpt lat="42.74591863282102" lon="12.75159476631297"><ele>400.66666666666663</ele><time>2026-05-01T09:53:03Z</time></trkpt><trkpt lat="42.745751722523366" lon="12.751502512780462"><ele>396.0</ele><time>2026-05-01T09:53:04Z</time></trkpt><trkpt lat="42.7455420772834" lon="12.751447853127804"><ele>396.0</ele><time>2026-05-01T09:53:05Z</time></trkpt><trkpt lat="42.74532609785229" lon="12.751349637208932"><ele>396.0</ele><time>2026-05-01T09:53:06Z</time></trkpt><trkpt lat="42.74514832255474" lon="12.75130005671486"><ele>396.0</ele><time>2026-05-01T09:53:07Z</time></trkpt><trkpt lat="42.74500148321042" lon="12.75123313723217"><ele>397.5</ele><time>2026-05-01T09:53:08Z</time></trkpt><trkpt lat="42.74489283742027" lon="12.751145127362623"><ele>399.0</ele><time>2026-05-01T09:53:09Z</time></trkpt><trkpt lat="42.74482049107182" lon="12.75104012953486"><ele>400.5</ele><time>2026-05-01T09:53:10Z</time></trkpt><trkpt lat="42.744808075392314" lon="12.750918540906621"><ele>402.0</ele><time>2026-05-01T09:53:11Z</time></trkpt><trkpt lat="42.74482892048545" lon="12.750721450442459"><ele>391.5</ele><time>2026-05-01T09:53:12Z</time></trkpt><trkpt lat="42.74491525854348" lon="12.750448431982653"><ele>381.0</ele><time>2026-05-01T09:53:13Z</time></trkpt><trkpt lat="42.74504198715306" lon="12.750179430013123"><ele>381.0</ele><time>2026-05-01T09:53:14Z</time></trkpt><trkpt lat="42.74519321915875" lon="12.749865946402954"><ele>381.0</ele><time>2026-05-01T09:53:15Z</time></trkpt><trkpt lat="42.74531886213561" lon="12.749621961685575"><ele>374.25</ele><time>2026-05-01T09:53:16Z</time></trkpt><trkpt lat="42.74537862908038" lon="12.749451971513603"><ele>367.5</ele><time>2026-05-01T09:53:17Z</time></trkpt><trkpt lat="42.74540781130591" lon="12.74927236316323"><ele>360.75</ele><time>2026-05-01T09:53:18Z</time></trkpt><trkpt lat="42.74539907869668" lon="12.7490834415937"><ele>354.0</ele><time>2026-05-01T09:53:19Z</time></trkpt><trkpt lat="42.74531490765756" lon="12.7488775083279"><ele>357.0</ele><time>2026-05-01T09:53:20Z</time></trkpt><trkpt lat="42.74516762612451" lon="12.748713862887017"><ele>360.0</ele><time>2026-05-01T09:53:21Z</time></trkpt><trkpt lat="42.74498125859598" lon="12.748612069243219"><ele>363.0</ele><time>2026-05-01T09:53:22Z</time></trkpt><trkpt lat="42.74477866476346" lon="12.748517943582641"><ele>363.0</ele><time>2026-05-01T09:53:23Z</time></trkpt><trkpt lat="42.74460836344364" lon="12.748357160122545"><ele>363.0</ele><time>2026-05-01T09:53:24Z</time></trkpt><trkpt lat="42.744481394560715" lon="12.748144102972466"><ele>363.0</ele><time>2026-05-01T09:53:25Z</time></trkpt><trkpt lat="42.74442944357277" lon="12.7479636299966"><ele>363.0</ele><time>2026-05-01T09:53:26Z</time></trkpt><trkpt lat="42.74438872142999" lon="12.747771746993635"><ele>363.0</ele><time>2026-05-01T09:53:27Z</time></trkpt><trkpt lat="42.74443341597165" lon="12.747551462412215"><ele>363.0</ele><time>2026-05-01T09:53:28Z</time></trkpt><trkpt lat="42.74454590728143" lon="12.747274486208115"><ele>356.5</ele><time>2026-05-01T09:53:29Z</time></trkpt><trkpt lat="42.74462723847185" lon="12.746991098681569"><ele>350.0</ele><time>2026-05-01T09:53:30Z</time></trkpt><trkpt lat="42.74465937525321" lon="12.74667560952565"><ele>348.6666666666667</ele><time>2026-05-01T09:53:31Z</time></trkpt><trkpt lat="42.744629848805985" lon="12.746421160077334"><ele>347.3333333333333</ele><time>2026-05-01T09:53:32Z</time></trkpt><trkpt lat="42.74455052183862" lon="12.746136310516512"><ele>346.0</ele><time>2026-05-01T09:53:33Z</time></trkpt><trkpt lat="42.744426183675415" lon="12.745879080088434"><ele>351.3333333333333</ele><time>2026-05-01T09:53:34Z</time></trkpt><trkpt lat="42.74429881898155" lon="12.745669932891476"><ele>356.6666666666667</ele><time>2026-05-01T09:53:35Z</time></trkpt><trkpt lat="42.744172267787235" lon="12.745474654926488"><ele>362.0</ele><time>2026-05-01T09:53:36Z</time></trkpt><trkpt lat="42.744041291547596" lon="12.745295867802573"><ele>357.0</ele><time>2026-05-01T09:53:37Z</time></trkpt><trkpt lat="42.74393823834992" lon="12.745100061925811"><ele>352.0</ele><time>2026-05-01T09:53:38Z</time></trkpt><trkpt lat="42.74384122783492" lon="12.744921928386656"><ele>347.0</ele><time>2026-05-01T09:53:39Z</time></trkpt><trkpt lat="42.74375763807014" lon="12.744742892962774"><ele>347.0</ele><time>2026-05-01T09:53:40Z</time></trkpt><trkpt lat="42.74368197362602" lon="12.744567545225374"><ele>347.0</ele><time>2026-05-01T09:53:41Z</time></trkpt><trkpt lat="42.74361356120615" lon="12.744399702183488"><ele>347.0</ele><time>2026-05-01T09:53:42Z</time></trkpt><trkpt lat="42.74354551175013" lon="12.74422678408672"><ele>347.0</ele><time>2026-05-01T09:53:43Z</time></trkpt><trkpt lat="42.743477963895046" lon="12.744072435080211"><ele>347.5</ele><time>2026-05-01T09:53:44Z</time></trkpt><trkpt lat="42.743412011030145" lon="12.743894673832898"><ele>348.0</ele><time>2026-05-01T09:53:45Z</time></trkpt><trkpt lat="42.74338976535791" lon="12.743701149137602"><ele>348.5</ele><time>2026-05-01T09:53:46Z</time></trkpt><trkpt lat="42.74341743113358" lon="12.743529229082228"><ele>349.0</ele><time>2026-05-01T09:53:47Z</time></trkpt><trkpt lat="42.743499921254234" lon="12.743369666864771"><ele>343.66666666666663</ele><time>2026-05-01T09:53:48Z</time></trkpt><trkpt lat="42.743623576281166" lon="12.743242262116159"><ele>338.3333333333333</ele><time>2026-05-01T09:53:49Z</time></trkpt><trkpt lat="42.743770320316074" lon="12.743205060671007"><ele>333.0</ele><time>2026-05-01T09:53:50Z</time></trkpt><trkpt lat="42.743921261325596" lon="12.743251306365348"><ele>333.0</ele><time>2026-05-01T09:53:51Z</time></trkpt><trkpt lat="42.74405185555418" lon="12.743376474081211"><ele>333.0</ele><time>2026-05-01T09:53:52Z</time></trkpt><trkpt lat="42.74419320649553" lon="12.743604442267644"><ele>333.0</ele><time>2026-05-01T09:53:53Z</time></trkpt><trkpt lat="42.74430409441949" lon="12.743833652105339"><ele>332.0</ele><time>2026-05-01T09:53:54Z</time></trkpt><trkpt lat="42.744406830260296" lon="12.744024383845842"><ele>331.0</ele><time>2026-05-01T09:53:55Z</time></trkpt><trkpt lat="42.744503641846215" lon="12.744193741379446"><ele>330.0</ele><time>2026-05-01T09:53:56Z</time></trkpt><trkpt lat="42.74460109867469" lon="12.74434833071417"><ele>330.4</ele><time>2026-05-01T09:53:57Z</time></trkpt><trkpt lat="42.744698988078646" lon="12.744462365992076"><ele>330.8</ele><time>2026-05-01T09:53:58Z</time></trkpt><trkpt lat="42.744793364435566" lon="12.74452402925407"><ele>331.20000000000005</ele><time>2026-05-01T09:53:59Z</time></trkpt><trkpt lat="42.74489689912624" lon="12.744542704202093"><ele>331.6</ele><time>2026-05-01T09:54:00Z</time></trkpt><trkpt lat="42.74498491734287" lon="12.744509490304383"><ele>332.0</ele><time>2026-05-01T09:54:01Z</time></trkpt><trkpt lat="42.74505753149867" lon="12.744461291704102"><ele>332.0</ele><time>2026-05-01T09:54:02Z</time></trkpt><trkpt lat="42.745118546853305" lon="12.744395971305327"><ele>332.0</ele><time>2026-05-01T09:54:03Z</time></trkpt><trkpt lat="42.74516778046238" lon="12.744317369785536"><ele>332.0</ele><time>2026-05-01T09:54:04Z</time></trkpt><trkpt lat="42.74521387241779" lon="12.74423061592639"><ele>332.0</ele><time>2026-05-01T09:54:05Z</time></trkpt><trkpt lat="42.74525004267109" lon="12.744133159043871"><ele>332.0</ele><time>2026-05-01T09:54:06Z</time></trkpt><trkpt lat="42.745283868124325" lon="12.74404209814436"><ele>332.0</ele><time>2026-05-01T09:54:07Z</time></trkpt><trkpt lat="42.74531900670687" lon="12.74395458757124"><ele>330.85714285714283</ele><time>2026-05-01T09:54:08Z</time></trkpt><trkpt lat="42.74534757792072" lon="12.743871345338672"><ele>329.7142857142857</ele><time>2026-05-01T09:54:09Z</time></trkpt><trkpt lat="42.74538053971615" lon="12.743779133562553"><ele>328.57142857142856</ele><time>2026-05-01T09:54:10Z</time></trkpt><trkpt lat="42.745415544384386" lon="12.743693665268061"><ele>327.42857142857144</ele><time>2026-05-01T09:54:11Z</time></trkpt><trkpt lat="42.74545670493495" lon="12.743602772425959"><ele>326.2857142857143</ele><time>2026-05-01T09:54:12Z</time></trkpt><trkpt lat="42.74550310328951" lon="12.743521767469328"><ele>325.14285714285717</ele><time>2026-05-01T09:54:13Z</time></trkpt><trkpt lat="42.745549837358325" lon="12.743454071590048"><ele>324.0</ele><time>2026-05-01T09:54:14Z</time></trkpt><trkpt lat="42.7456022196397" lon="12.74339632521413"><ele>323.79999999999995</ele><time>2026-05-01T09:54:15Z</time></trkpt><trkpt lat="42.74569866553938" lon="12.743329208571842"><ele>323.59999999999997</ele><time>2026-05-01T09:54:17Z</time></trkpt><trkpt lat="42.745770198281036" lon="12.743305906762892"><ele>323.4</ele><time>2026-05-01T09:54:20Z</time></trkpt><trkpt lat="42.745844269515636" lon="12.743284214011691"><ele>323.2</ele><time>2026-05-01T09:54:22Z</time></trkpt><trkpt lat="42.74596710073004" lon="12.743262233783433"><ele>323.0</ele><time>2026-05-01T09:54:24Z</time></trkpt><trkpt lat="42.746029965874904" lon="12.743207349341969"><ele>323.0</ele><time>2026-05-01T09:54:25Z</time></trkpt><trkpt lat="42.74611440484051" lon="12.743119641988619"><ele>323.0</ele><time>2026-05-01T09:54:27Z</time></trkpt><trkpt lat="42.74604082996288" lon="12.74294034542883"><ele>323.0</ele><time>2026-05-01T09:54:28Z</time></trkpt><trkpt lat="42.746010423156655" lon="12.74283105123625"><ele>323.0</ele><time>2026-05-01T09:54:29Z</time></trkpt><trkpt lat="42.745889410425505" lon="12.742760706398837"><ele>322.5</ele><time>2026-05-01T09:54:30Z</time></trkpt><trkpt lat="42.745782897322655" lon="12.742670033626322"><ele>322.0</ele><time>2026-05-01T09:54:31Z</time></trkpt><trkpt lat="42.74566424220031" lon="12.742555688025899"><ele>321.5</ele><time>2026-05-01T09:54:32Z</time></trkpt><trkpt lat="42.745571321644036" lon="12.742473673620953"><ele>321.0</ele><time>2026-05-01T09:54:33Z</time></trkpt><trkpt lat="42.745485001770255" lon="12.742399690104069"><ele>321.0</ele><time>2026-05-01T09:54:34Z</time></trkpt><trkpt lat="42.74539025792905" lon="12.742317017341"><ele>321.0</ele><time>2026-05-01T09:54:35Z</time></trkpt><trkpt lat="42.74529724655216" lon="12.742239003194534"><ele>321.0</ele><time>2026-05-01T09:54:36Z</time></trkpt><trkpt lat="42.74521508121457" lon="12.742163367475381"><ele>321.0</ele><time>2026-05-01T09:54:37Z</time></trkpt><trkpt lat="42.7451357225516" lon="12.742094420894873"><ele>321.0</ele><time>2026-05-01T09:54:38Z</time></trkpt><trkpt lat="42.74505922773583" lon="12.742031790429891"><ele>321.6666666666667</ele><time>2026-05-01T09:54:39Z</time></trkpt><trkpt lat="42.74498580468669" lon="12.741971099139459"><ele>322.3333333333333</ele><time>2026-05-01T09:54:40Z</time></trkpt><trkpt lat="42.74491294246881" lon="12.74191452637405"><ele>323.0</ele><time>2026-05-01T09:54:41Z</time></trkpt><trkpt lat="42.74484281599274" lon="12.741854754496574"><ele>323.66666666666663</ele><time>2026-05-01T09:54:42Z</time></trkpt><trkpt lat="42.744772420072756" lon="12.74179893366857"><ele>324.3333333333333</ele><time>2026-05-01T09:54:43Z</time></trkpt><trkpt lat="42.74469340968643" lon="12.741738254110928"><ele>325.0</ele><time>2026-05-01T09:54:44Z</time></trkpt><trkpt lat="42.74460895442055" lon="12.741669703773782"><ele>325.0</ele><time>2026-05-01T09:54:45Z</time></trkpt><trkpt lat="42.74452077492374" lon="12.741597058412076"><ele>325.0</ele><time>2026-05-01T09:54:46Z</time></trkpt><trkpt lat="42.744446732503434" lon="12.741529373480576"><ele>325.0</ele><time>2026-05-01T09:54:47Z</time></trkpt><trkpt lat="42.744372673417544" lon="12.741461433772535"><ele>325.0</ele><time>2026-05-01T09:54:48Z</time></trkpt><trkpt lat="42.744297388883744" lon="12.741391689741656"><ele>325.0</ele><time>2026-05-01T09:54:49Z</time></trkpt><trkpt lat="42.74423031010041" lon="12.741334595887711"><ele>325.3333333333333</ele><time>2026-05-01T09:54:50Z</time></trkpt><trkpt lat="42.744165141916405" lon="12.74127376496412"><ele>325.66666666666663</ele><time>2026-05-01T09:54:51Z</time></trkpt><trkpt lat="42.7440928074015" lon="12.741214651493218"><ele>326.0</ele><time>2026-05-01T09:54:52Z</time></trkpt><trkpt lat="42.7440235966166" lon="12.741149262116528"><ele>326.3333333333333</ele><time>2026-05-01T09:54:53Z</time></trkpt><trkpt lat="42.74396577933096" lon="12.74108590725895"><ele>326.6666666666667</ele><time>2026-05-01T09:54:54Z</time></trkpt><trkpt lat="42.74390807924064" lon="12.74102921368508"><ele>327.0</ele><time>2026-05-01T09:54:55Z</time></trkpt><trkpt lat="42.74384271615056" lon="12.740966027550828"><ele>327.0</ele><time>2026-05-01T09:54:56Z</time></trkpt><trkpt lat="42.74377492276691" lon="12.740898826268502"><ele>327.0</ele><time>2026-05-01T09:54:57Z</time></trkpt><trkpt lat="42.743708531667224" lon="12.740829040640113"><ele>327.0</ele><time>2026-05-01T09:54:58Z</time></trkpt><trkpt lat="42.74365346763016" lon="12.740771226529224"><ele>327.0</ele><time>2026-05-01T09:54:59Z</time></trkpt><trkpt lat="42.74360090389316" lon="12.740713409841474"><ele>327.0</ele><time>2026-05-01T09:55:00Z</time></trkpt><trkpt lat="42.743551290780324" lon="12.74065845681227"><ele>327.0</ele><time>2026-05-01T09:55:01Z</time></trkpt><trkpt lat="42.743455157648" lon="12.740568798976835"><ele>327.3333333333333</ele><time>2026-05-01T09:55:03Z</time></trkpt><trkpt lat="42.74340091420757" lon="12.740519242023174"><ele>327.6666666666667</ele><time>2026-05-01T09:55:04Z</time></trkpt><trkpt lat="42.74334425823131" lon="12.740467291938074"><ele>328.0</ele><time>2026-05-01T09:55:05Z</time></trkpt><trkpt lat="42.743294128963186" lon="12.740413014008626"><ele>328.33333333333337</ele><time>2026-05-01T09:55:06Z</time></trkpt><trkpt lat="42.743198921799014" lon="12.740315601418445"><ele>328.6666666666667</ele><time>2026-05-01T09:55:08Z</time></trkpt><trkpt lat="42.74310263993501" lon="12.740221675295661"><ele>329.0</ele><time>2026-05-01T09:55:10Z</time></trkpt><trkpt lat="42.74300860757656" lon="12.740136522205676"><ele>329.0</ele><time>2026-05-01T09:55:12Z</time></trkpt><trkpt lat="42.74292046336457" lon="12.740049374273651"><ele>329.0</ele><time>2026-05-01T09:55:14Z</time></trkpt><trkpt lat="42.742821535232984" lon="12.739966664313894"><ele>329.0</ele><time>2026-05-01T09:55:16Z</time></trkpt><trkpt lat="42.74272803639778" lon="12.739887736725176"><ele>329.0</ele><time>2026-05-01T09:55:18Z</time></trkpt><trkpt lat="42.74263687612518" lon="12.739806725398557"><ele>329.0</ele><time>2026-05-01T09:55:20Z</time></trkpt><trkpt lat="42.74256262722626" lon="12.739740322574374"><ele>329.0</ele><time>2026-05-01T09:55:22Z</time></trkpt><trkpt lat="42.742508591651784" lon="12.739683840937747"><ele>329.0</ele><time>2026-05-01T09:55:25Z</time></trkpt><trkpt lat="42.74243046433012" lon="12.739607298909348"><ele>329.0</ele><time>2026-05-01T09:55:28Z</time></trkpt><trkpt lat="42.742361967668415" lon="12.739533248498343"><ele>329.0</ele><time>2026-05-01T09:55:31Z</time></trkpt><trkpt lat="42.742304768793815" lon="12.73947079517498"><ele>329.0</ele><time>2026-05-01T09:55:46Z</time></trkpt><trkpt lat="42.742234385828326" lon="12.739423174955"><ele>329.0</ele><time>2026-05-01T09:55:48Z</time></trkpt><trkpt lat="42.74217315998991" lon="12.739381129204473"><ele>329.0</ele><time>2026-05-01T09:55:49Z</time></trkpt><trkpt lat="42.74210159090652" lon="12.739316095447183"><ele>329.0</ele><time>2026-05-01T09:55:50Z</time></trkpt><trkpt lat="42.74203633693674" lon="12.739249553648499"><ele>329.0</ele><time>2026-05-01T09:55:51Z</time></trkpt><trkpt lat="42.741978398764566" lon="12.739193089700755"><ele>329.0</ele><time>2026-05-01T09:55:52Z</time></trkpt><trkpt lat="42.74192102035522" lon="12.739134212125473"><ele>329.0</ele><time>2026-05-01T09:55:53Z</time></trkpt><trkpt lat="42.74186731918552" lon="12.739076844346984"><ele>329.0</ele><time>2026-05-01T09:55:54Z</time></trkpt><trkpt lat="42.741796801511754" lon="12.739004499026882"><ele>328.6666666666667</ele><time>2026-05-01T09:55:56Z</time></trkpt><trkpt lat="42.74173585330538" lon="12.738943222465876"><ele>328.33333333333337</ele><time>2026-05-01T09:55:58Z</time></trkpt><trkpt lat="42.741682495487666" lon="12.738896015979089"><ele>328.0</ele><time>2026-05-01T09:56:01Z</time></trkpt><trkpt lat="42.741609830025254" lon="12.738852695233263"><ele>327.6666666666667</ele><time>2026-05-01T09:56:13Z</time></trkpt><trkpt lat="42.74154134388445" lon="12.738793733196664"><ele>327.3333333333333</ele><time>2026-05-01T09:56:16Z</time></trkpt><trkpt lat="42.74148753100547" lon="12.738722256688716"><ele>327.0</ele><time>2026-05-01T09:56:19Z</time></trkpt><trkpt lat="42.74141832407726" lon="12.738679067577225"><ele>327.0</ele><time>2026-05-01T09:56:32Z</time></trkpt><trkpt lat="42.741351079849004" lon="12.738622608480547"><ele>327.0</ele><time>2026-05-01T09:56:39Z</time></trkpt><trkpt lat="42.74131332583755" lon="12.738549647708789"><ele>327.0</ele><time>2026-05-01T09:56:45Z</time></trkpt><trkpt lat="42.74130152686622" lon="12.73845119509847"><ele>327.0</ele><time>2026-05-01T09:56:47Z</time></trkpt><trkpt lat="42.74138594568696" lon="12.738372301676774"><ele>327.0</ele><time>2026-05-01T09:56:49Z</time></trkpt><trkpt lat="42.74145823593818" lon="12.738348669103226"><ele>327.0</ele><time>2026-05-01T09:56:53Z</time></trkpt><trkpt lat="42.741559101056424" lon="12.73831933633454"><ele>326.0</ele><time>2026-05-01T09:56:56Z</time></trkpt><trkpt lat="42.74164529522546" lon="12.738293798154974"><ele>325.0</ele><time>2026-05-01T09:56:58Z</time></trkpt><trkpt lat="42.74173437007736" lon="12.738279217009335"><ele>324.0</ele><time>2026-05-01T09:57:00Z</time></trkpt><trkpt lat="42.74182931581064" lon="12.73824740719111"><ele>323.0</ele><time>2026-05-01T09:57:02Z</time></trkpt><trkpt lat="42.74192106488395" lon="12.738222529093024"><ele>322.0</ele><time>2026-05-01T09:57:04Z</time></trkpt><trkpt lat="42.742023717389536" lon="12.73819738900228"><ele>321.5</ele><time>2026-05-01T09:57:06Z</time></trkpt><trkpt lat="42.74214406883721" lon="12.738162765026658"><ele>321.0</ele><time>2026-05-01T09:57:08Z</time></trkpt><trkpt lat="42.7422605837646" lon="12.738128938575361"><ele>320.5</ele><time>2026-05-01T09:57:10Z</time></trkpt><trkpt lat="42.742373967265586" lon="12.73809306898114"><ele>320.0</ele><time>2026-05-01T09:57:12Z</time></trkpt><trkpt lat="42.74248651637841" lon="12.738057874052663"><ele>320.0</ele><time>2026-05-01T09:57:14Z</time></trkpt><trkpt lat="42.74260289736243" lon="12.738020293567818"><ele>320.0</ele><time>2026-05-01T09:57:16Z</time></trkpt><trkpt lat="42.74271742398571" lon="12.737984188951827"><ele>320.0</ele><time>2026-05-01T09:57:18Z</time></trkpt><trkpt lat="42.74284822499881" lon="12.737947671890137"><ele>320.0</ele><time>2026-05-01T09:57:20Z</time></trkpt><trkpt lat="42.742921325312935" lon="12.737926574347158"><ele>320.0</ele><time>2026-05-01T09:57:21Z</time></trkpt><trkpt lat="42.74299451393761" lon="12.737900083900154"><ele>319.6666666666667</ele><time>2026-05-01T09:57:22Z</time></trkpt><trkpt lat="42.74306459135103" lon="12.737877239954846"><ele>319.33333333333337</ele><time>2026-05-01T09:57:23Z</time></trkpt><trkpt lat="42.7431319232935" lon="12.73785713183436"><ele>319.0</ele><time>2026-05-01T09:57:24Z</time></trkpt><trkpt lat="42.743195867595844" lon="12.737838874780817"><ele>318.6666666666667</ele><time>2026-05-01T09:57:25Z</time></trkpt><trkpt lat="42.74331727383654" lon="12.73780550671869"><ele>318.3333333333333</ele><time>2026-05-01T09:57:27Z</time></trkpt><trkpt lat="42.74338382998095" lon="12.737786002401537"><ele>318.0</ele><time>2026-05-01T09:57:28Z</time></trkpt><trkpt lat="42.74344968943614" lon="12.737768542595568"><ele>318.0</ele><time>2026-05-01T09:57:29Z</time></trkpt><trkpt lat="42.74351631915402" lon="12.737753116124509"><ele>318.0</ele><time>2026-05-01T09:57:30Z</time></trkpt><trkpt lat="42.743581796988316" lon="12.737734461703043"><ele>318.0</ele><time>2026-05-01T09:57:31Z</time></trkpt><trkpt lat="42.743656611849715" lon="12.737713727396907"><ele>318.0</ele><time>2026-05-01T09:57:32Z</time></trkpt><trkpt lat="42.74373795519936" lon="12.737693048068518"><ele>318.0</ele><time>2026-05-01T09:57:33Z</time></trkpt><trkpt lat="42.74381999949221" lon="12.737668127580665"><ele>318.0</ele><time>2026-05-01T09:57:34Z</time></trkpt><trkpt lat="42.74390396132008" lon="12.737641841638426"><ele>317.5</ele><time>2026-05-01T09:57:35Z</time></trkpt><trkpt lat="42.74399040149032" lon="12.737613261178767"><ele>317.0</ele><time>2026-05-01T09:57:36Z</time></trkpt><trkpt lat="42.744078543398736" lon="12.737582633789382"><ele>316.5</ele><time>2026-05-01T09:57:37Z</time></trkpt><trkpt lat="42.744167432811935" lon="12.737551710780972"><ele>316.0</ele><time>2026-05-01T09:57:38Z</time></trkpt><trkpt lat="42.74425466071989" lon="12.737526014189523"><ele>315.5</ele><time>2026-05-01T09:57:39Z</time></trkpt><trkpt lat="42.744340067785686" lon="12.737502468030181"><ele>315.0</ele><time>2026-05-01T09:57:40Z</time></trkpt><trkpt lat="42.744424742920735" lon="12.737474637486194"><ele>314.4</ele><time>2026-05-01T09:57:41Z</time></trkpt><trkpt lat="42.744504964499214" lon="12.737446609308202"><ele>313.8</ele><time>2026-05-01T09:57:42Z</time></trkpt><trkpt lat="42.74458577315747" lon="12.737421392405569"><ele>313.2</ele><time>2026-05-01T09:57:43Z</time></trkpt><trkpt lat="42.744676098028194" lon="12.737394658666178"><ele>312.6</ele><time>2026-05-01T09:57:44Z</time></trkpt><trkpt lat="42.74476952530993" lon="12.737369436843538"><ele>312.0</ele><time>2026-05-01T09:57:45Z</time></trkpt><trkpt lat="42.744865535798546" lon="12.737338611218368"><ele>312.0</ele><time>2026-05-01T09:57:46Z</time></trkpt><trkpt lat="42.74496904292395" lon="12.737309684826787"><ele>312.0</ele><time>2026-05-01T09:57:47Z</time></trkpt><trkpt lat="42.74507556018022" lon="12.737275784879873"><ele>312.0</ele><time>2026-05-01T09:57:48Z</time></trkpt><trkpt lat="42.74517624512385" lon="12.737244527368683"><ele>312.0</ele><time>2026-05-01T09:57:49Z</time></trkpt><trkpt lat="42.745271942175734" lon="12.737210306483664"><ele>312.0</ele><time>2026-05-01T09:57:50Z</time></trkpt><trkpt lat="42.74536822967738" lon="12.737175245225867"><ele>311.2</ele><time>2026-05-01T09:57:51Z</time></trkpt><trkpt lat="42.745469420349565" lon="12.737144004005842"><ele>310.4</ele><time>2026-05-01T09:57:52Z</time></trkpt><trkpt lat="42.74556594734144" lon="12.737117039891544"><ele>309.6</ele><time>2026-05-01T09:57:53Z</time></trkpt><trkpt lat="42.74565796312702" lon="12.737089693127565"><ele>308.8</ele><time>2026-05-01T09:57:54Z</time></trkpt><trkpt lat="42.74575116894059" lon="12.73705669715104"><ele>308.0</ele><time>2026-05-01T09:57:55Z</time></trkpt><trkpt lat="42.74584798840359" lon="12.737023943681805"><ele>308.0</ele><time>2026-05-01T09:57:56Z</time></trkpt><trkpt lat="42.74593851821859" lon="12.736997348413745"><ele>308.0</ele><time>2026-05-01T09:57:57Z</time></trkpt><trkpt lat="42.74602257104999" lon="12.736968518269775"><ele>308.0</ele><time>2026-05-01T09:57:58Z</time></trkpt><trkpt lat="42.74610202958608" lon="12.73694511900658"><ele>308.0</ele><time>2026-05-01T09:57:59Z</time></trkpt><trkpt lat="42.74617599652655" lon="12.736923200837612"><ele>308.0</ele><time>2026-05-01T09:58:00Z</time></trkpt><trkpt lat="42.7462423375897" lon="12.73690240354076"><ele>308.0</ele><time>2026-05-01T09:58:01Z</time></trkpt><trkpt lat="42.74633481390678" lon="12.73687398471656"><ele>308.1666666666667</ele><time>2026-05-01T09:58:03Z</time></trkpt><trkpt lat="42.746409353291604" lon="12.736837654671122"><ele>308.33333333333337</ele><time>2026-05-01T09:58:05Z</time></trkpt><trkpt lat="42.74646812117179" lon="12.736704670272388"><ele>308.5</ele><time>2026-05-01T09:58:07Z</time></trkpt><trkpt lat="42.74648884974434" lon="12.736617921370108"><ele>308.6666666666667</ele><time>2026-05-01T09:58:08Z</time></trkpt><trkpt lat="42.74650988873036" lon="12.736535791127539"><ele>308.8333333333333</ele><time>2026-05-01T09:58:09Z</time></trkpt><trkpt lat="42.74653536636102" lon="12.736448935081649"><ele>309.0</ele><time>2026-05-01T09:58:10Z</time></trkpt><trkpt lat="42.746561830157965" lon="12.736357946069283"><ele>309.0</ele><time>2026-05-01T09:58:11Z</time></trkpt><trkpt lat="42.74658477819453" lon="12.736271165773884"><ele>309.0</ele><time>2026-05-01T09:58:12Z</time></trkpt><trkpt lat="42.746611890170335" lon="12.73616975767111"><ele>309.0</ele><time>2026-05-01T09:58:13Z</time></trkpt><trkpt lat="42.74664417704551" lon="12.736051298226231"><ele>309.0</ele><time>2026-05-01T09:58:14Z</time></trkpt><trkpt lat="42.74667176153223" lon="12.735944690865237"><ele>309.0</ele><time>2026-05-01T09:58:15Z</time></trkpt><trkpt lat="42.74669931494247" lon="12.735832376989176"><ele>309.0</ele><time>2026-05-01T09:58:16Z</time></trkpt><trkpt lat="42.746727466587124" lon="12.735720283312187"><ele>308.8</ele><time>2026-05-01T09:58:17Z</time></trkpt><trkpt lat="42.74675442752823" lon="12.735616108583322"><ele>308.59999999999997</ele><time>2026-05-01T09:58:18Z</time></trkpt><trkpt lat="42.74678379930092" lon="12.735504951800397"><ele>308.4</ele><time>2026-05-01T09:58:19Z</time></trkpt><trkpt lat="42.74681641321367" lon="12.73538610740944"><ele>308.2</ele><time>2026-05-01T09:58:20Z</time></trkpt><trkpt lat="42.746850910536004" lon="12.7352688013714"><ele>308.0</ele><time>2026-05-01T09:58:21Z</time></trkpt><trkpt lat="42.74688330780766" lon="12.735132710357693"><ele>307.2</ele><time>2026-05-01T09:58:22Z</time></trkpt><trkpt lat="42.74691586704385" lon="12.734996863020967"><ele>306.4</ele><time>2026-05-01T09:58:23Z</time></trkpt><trkpt lat="42.746951580068554" lon="12.734855319864993"><ele>305.59999999999997</ele><time>2026-05-01T09:58:24Z</time></trkpt><trkpt lat="42.74698678884969" lon="12.734710512715933"><ele>304.8</ele><time>2026-05-01T09:58:25Z</time></trkpt><trkpt lat="42.74702338058231" lon="12.734578241250107"><ele>304.0</ele><time>2026-05-01T09:58:26Z</time></trkpt><trkpt lat="42.74705733007567" lon="12.734450670868208"><ele>304.0</ele><time>2026-05-01T09:58:27Z</time></trkpt><trkpt lat="42.747090118238845" lon="12.734329461806727"><ele>304.0</ele><time>2026-05-01T09:58:28Z</time></trkpt><trkpt lat="42.7471200692565" lon="12.7342021009603"><ele>304.0</ele><time>2026-05-01T09:58:29Z</time></trkpt><trkpt lat="42.747156631121214" lon="12.734065738426546"><ele>304.0</ele><time>2026-05-01T09:58:30Z</time></trkpt><trkpt lat="42.74719329226828" lon="12.733926162663977"><ele>304.0</ele><time>2026-05-01T09:58:31Z</time></trkpt><trkpt lat="42.7472312861625" lon="12.733778982402578"><ele>304.0</ele><time>2026-05-01T09:58:32Z</time></trkpt><trkpt lat="42.74726964129285" lon="12.73362777476244"><ele>304.0</ele><time>2026-05-01T09:58:33Z</time></trkpt><trkpt lat="42.74730667475671" lon="12.73347387516857"><ele>304.0</ele><time>2026-05-01T09:58:34Z</time></trkpt><trkpt lat="42.7473449108907" lon="12.733330104121816"><ele>304.0</ele><time>2026-05-01T09:58:35Z</time></trkpt><trkpt lat="42.74738408441043" lon="12.73318721163333"><ele>304.0</ele><time>2026-05-01T09:58:36Z</time></trkpt><trkpt lat="42.74743043067529" lon="12.733039848774867"><ele>304.0</ele><time>2026-05-01T09:58:37Z</time></trkpt><trkpt lat="42.7474769598124" lon="12.732907331035404"><ele>304.0</ele><time>2026-05-01T09:58:38Z</time></trkpt><trkpt lat="42.747529081648565" lon="12.732778805899464"><ele>304.0</ele><time>2026-05-01T09:58:39Z</time></trkpt><trkpt lat="42.747594858302485" lon="12.732671434506045"><ele>304.0</ele><time>2026-05-01T09:58:40Z</time></trkpt><trkpt lat="42.74767552053359" lon="12.732581495160888"><ele>303.59999999999997</ele><time>2026-05-01T09:58:41Z</time></trkpt><trkpt lat="42.747768117338275" lon="12.732501159347672"><ele>303.2</ele><time>2026-05-01T09:58:42Z</time></trkpt><trkpt lat="42.747857381680795" lon="12.732433657049315"><ele>302.79999999999995</ele><time>2026-05-01T09:58:43Z</time></trkpt><trkpt lat="42.74794117798072" lon="12.732372449883858"><ele>302.4</ele><time>2026-05-01T09:58:44Z</time></trkpt><trkpt lat="42.74802323726319" lon="12.732316298614515"><ele>302.0</ele><time>2026-05-01T09:58:45Z</time></trkpt><trkpt lat="42.74809559426698" lon="12.732263527168287"><ele>302.0</ele><time>2026-05-01T09:58:46Z</time></trkpt><trkpt lat="42.748175535668885" lon="12.732204741487687"><ele>302.0</ele><time>2026-05-01T09:58:47Z</time></trkpt><trkpt lat="42.74824508473382" lon="12.73215165753755"><ele>302.0</ele><time>2026-05-01T09:58:48Z</time></trkpt><trkpt lat="42.74831739427773" lon="12.73209952167795"><ele>302.0</ele><time>2026-05-01T09:58:49Z</time></trkpt><trkpt lat="42.74839273524365" lon="12.732041502796026"><ele>302.0</ele><time>2026-05-01T09:58:50Z</time></trkpt><trkpt lat="42.748466148494764" lon="12.731987781472647"><ele>302.0</ele><time>2026-05-01T09:58:51Z</time></trkpt><trkpt lat="42.74853102954078" lon="12.731948663681147"><ele>301.6666666666667</ele><time>2026-05-01T09:58:52Z</time></trkpt><trkpt lat="42.74859487663101" lon="12.731906516632685"><ele>301.33333333333337</ele><time>2026-05-01T09:58:53Z</time></trkpt><trkpt lat="42.74866148732179" lon="12.731865602416628"><ele>301.0</ele><time>2026-05-01T09:58:54Z</time></trkpt><trkpt lat="42.74873138308606" lon="12.73181803025352"><ele>300.6666666666667</ele><time>2026-05-01T09:58:55Z</time></trkpt><trkpt lat="42.74880669861027" lon="12.731764634539603"><ele>300.3333333333333</ele><time>2026-05-01T09:58:56Z</time></trkpt><trkpt lat="42.748886727766966" lon="12.731712774870436"><ele>300.0</ele><time>2026-05-01T09:58:57Z</time></trkpt><trkpt lat="42.7489616041638" lon="12.731665480738688"><ele>300.0</ele><time>2026-05-01T09:58:58Z</time></trkpt><trkpt lat="42.74903907758235" lon="12.731609690665445"><ele>300.0</ele><time>2026-05-01T09:58:59Z</time></trkpt><trkpt lat="42.7491196250277" lon="12.73156388488947"><ele>300.0</ele><time>2026-05-01T09:59:00Z</time></trkpt><trkpt lat="42.74919500133391" lon="12.731521121478105"><ele>300.0</ele><time>2026-05-01T09:59:01Z</time></trkpt><trkpt lat="42.74926695772003" lon="12.731471695773333"><ele>300.0</ele><time>2026-05-01T09:59:02Z</time></trkpt><trkpt lat="42.74933599536583" lon="12.731421863421515"><ele>300.0</ele><time>2026-05-01T09:59:03Z</time></trkpt><trkpt lat="42.74940560709449" lon="12.731375962552987"><ele>299.6666666666667</ele><time>2026-05-01T09:59:04Z</time></trkpt><trkpt lat="42.74946685583281" lon="12.731334179328336"><ele>299.3333333333333</ele><time>2026-05-01T09:59:05Z</time></trkpt><trkpt lat="42.74957447859362" lon="12.731262780033738"><ele>299.0</ele><time>2026-05-01T09:59:07Z</time></trkpt><trkpt lat="42.74963638273031" lon="12.731225266879392"><ele>298.66666666666663</ele><time>2026-05-01T09:59:08Z</time></trkpt><trkpt lat="42.74969924236399" lon="12.731186273747713"><ele>298.3333333333333</ele><time>2026-05-01T09:59:09Z</time></trkpt><trkpt lat="42.74977174176503" lon="12.731139504162476"><ele>298.0</ele><time>2026-05-01T09:59:10Z</time></trkpt><trkpt lat="42.74983825615335" lon="12.731082900956466"><ele>298.0</ele><time>2026-05-01T09:59:11Z</time></trkpt><trkpt lat="42.74990801893283" lon="12.7310244670364"><ele>298.0</ele><time>2026-05-01T09:59:12Z</time></trkpt><trkpt lat="42.7499823610712" lon="12.730973705948891"><ele>298.0</ele><time>2026-05-01T09:59:13Z</time></trkpt><trkpt lat="42.75005948319537" lon="12.730916702884699"><ele>298.0</ele><time>2026-05-01T09:59:14Z</time></trkpt><trkpt lat="42.75013267757334" lon="12.730865438818542"><ele>298.0</ele><time>2026-05-01T09:59:15Z</time></trkpt><trkpt lat="42.75020419563384" lon="12.730818944124787"><ele>298.0</ele><time>2026-05-01T09:59:16Z</time></trkpt><trkpt lat="42.75027668384932" lon="12.730769459647902"><ele>297.8333333333333</ele><time>2026-05-01T09:59:17Z</time></trkpt><trkpt lat="42.75035083016435" lon="12.730716110436473"><ele>297.66666666666663</ele><time>2026-05-01T09:59:18Z</time></trkpt><trkpt lat="42.750424346627184" lon="12.730665723272198"><ele>297.5</ele><time>2026-05-01T09:59:19Z</time></trkpt><trkpt lat="42.75049970483706" lon="12.730611037275933"><ele>297.3333333333333</ele><time>2026-05-01T09:59:20Z</time></trkpt><trkpt lat="42.7505696264859" lon="12.73056336132431"><ele>297.1666666666667</ele><time>2026-05-01T09:59:21Z</time></trkpt><trkpt lat="42.75063991802214" lon="12.73051535375455"><ele>297.0</ele><time>2026-05-01T09:59:22Z</time></trkpt><trkpt lat="42.75070847519957" lon="12.730462978769513"><ele>297.0</ele><time>2026-05-01T09:59:23Z</time></trkpt><trkpt lat="42.75079807581937" lon="12.730389648876322"><ele>297.0</ele><time>2026-05-01T09:59:25Z</time></trkpt><trkpt lat="42.750859672234384" lon="12.730340581521391"><ele>297.0</ele><time>2026-05-01T09:59:27Z</time></trkpt><trkpt lat="42.75093715802304" lon="12.730278292211333"><ele>297.0</ele><time>2026-05-01T09:59:29Z</time></trkpt><trkpt lat="42.75103254955638" lon="12.730205423249297"><ele>297.0</ele><time>2026-05-01T09:59:31Z</time></trkpt><trkpt lat="42.751145231265355" lon="12.730124359391601"><ele>296.8571428571429</ele><time>2026-05-01T09:59:33Z</time></trkpt><trkpt lat="42.75120389789671" lon="12.730079078437585"><ele>296.7142857142857</ele><time>2026-05-01T09:59:34Z</time></trkpt><trkpt lat="42.751276226224554" lon="12.730033122853083"><ele>296.57142857142856</ele><time>2026-05-01T09:59:35Z</time></trkpt><trkpt lat="42.751344768539035" lon="12.72997986238999"><ele>296.42857142857144</ele><time>2026-05-01T09:59:36Z</time></trkpt><trkpt lat="42.75141072863288" lon="12.729934944572118"><ele>296.2857142857143</ele><time>2026-05-01T09:59:37Z</time></trkpt><trkpt lat="42.75147601510798" lon="12.729891256933767"><ele>296.14285714285717</ele><time>2026-05-01T09:59:38Z</time></trkpt><trkpt lat="42.751539346381136" lon="12.729836081451696"><ele>296.0</ele><time>2026-05-01T09:59:39Z</time></trkpt><trkpt lat="42.75159655012561" lon="12.72978858259742"><ele>296.0</ele><time>2026-05-01T09:59:40Z</time></trkpt><trkpt lat="42.751703588994665" lon="12.729719623097075"><ele>296.0</ele><time>2026-05-01T09:59:42Z</time></trkpt><trkpt lat="42.75181381059607" lon="12.729632016996884"><ele>296.0</ele><time>2026-05-01T09:59:44Z</time></trkpt><trkpt lat="42.75191396021933" lon="12.729557334918058"><ele>296.0</ele><time>2026-05-01T09:59:46Z</time></trkpt><trkpt lat="42.75197246089149" lon="12.729520998266763"><ele>296.0</ele><time>2026-05-01T09:59:47Z</time></trkpt><trkpt lat="42.75202927435827" lon="12.729474981015446"><ele>295.6666666666667</ele><time>2026-05-01T09:59:48Z</time></trkpt><trkpt lat="42.75209706098128" lon="12.729425469539073"><ele>295.33333333333337</ele><time>2026-05-01T09:59:49Z</time></trkpt><trkpt lat="42.75217242688584" lon="12.729368547539783"><ele>295.0</ele><time>2026-05-01T09:59:50Z</time></trkpt><trkpt lat="42.752231340012585" lon="12.729325977253403"><ele>294.6666666666667</ele><time>2026-05-01T09:59:51Z</time></trkpt><trkpt lat="42.75229785727649" lon="12.72927629201665"><ele>294.3333333333333</ele><time>2026-05-01T09:59:52Z</time></trkpt><trkpt lat="42.75236157445055" lon="12.729231876374993"><ele>294.0</ele><time>2026-05-01T09:59:53Z</time></trkpt><trkpt lat="42.75242708644758" lon="12.72918299759124"><ele>294.0</ele><time>2026-05-01T09:59:54Z</time></trkpt><trkpt lat="42.75249131077542" lon="12.729133245798758"><ele>294.0</ele><time>2026-05-01T09:59:55Z</time></trkpt><trkpt lat="42.752559700302946" lon="12.729083883168782"><ele>294.0</ele><time>2026-05-01T09:59:56Z</time></trkpt><trkpt lat="42.75262419996761" lon="12.729031599775638"><ele>294.0</ele><time>2026-05-01T09:59:57Z</time></trkpt><trkpt lat="42.75268957987365" lon="12.728981524508523"><ele>294.0</ele><time>2026-05-01T09:59:58Z</time></trkpt><trkpt lat="42.75274993071177" lon="12.72893319712777"><ele>294.0</ele><time>2026-05-01T09:59:59Z</time></trkpt><trkpt lat="42.752856855290254" lon="12.728855152656221"><ele>293.6666666666667</ele><time>2026-05-01T10:00:01Z</time></trkpt><trkpt lat="42.75297056129493" lon="12.728764759490304"><ele>293.3333333333333</ele><time>2026-05-01T10:00:03Z</time></trkpt><trkpt lat="42.75303412763474" lon="12.72872368696802"><ele>293.0</ele><time>2026-05-01T10:00:04Z</time></trkpt><trkpt lat="42.75309292610579" lon="12.728685916392593"><ele>292.66666666666663</ele><time>2026-05-01T10:00:05Z</time></trkpt><trkpt lat="42.75319777707846" lon="12.728620801559256"><ele>292.3333333333333</ele><time>2026-05-01T10:00:07Z</time></trkpt><trkpt lat="42.753257006832726" lon="12.728582983803909"><ele>292.0</ele><time>2026-05-01T10:00:08Z</time></trkpt><trkpt lat="42.75331944787427" lon="12.728552301370145"><ele>292.0</ele><time>2026-05-01T10:00:09Z</time></trkpt><trkpt lat="42.753384815217636" lon="12.728521552348278"><ele>292.0</ele><time>2026-05-01T10:00:10Z</time></trkpt><trkpt lat="42.75344576613635" lon="12.728492821837644"><ele>292.0</ele><time>2026-05-01T10:00:11Z</time></trkpt><trkpt lat="42.75350773028985" lon="12.728467951853252"><ele>292.0</ele><time>2026-05-01T10:00:12Z</time></trkpt><trkpt lat="42.753582348729594" lon="12.728434072227364"><ele>292.0</ele><time>2026-05-01T10:00:13Z</time></trkpt><trkpt lat="42.75366480924487" lon="12.728402903492368"><ele>292.0</ele><time>2026-05-01T10:00:14Z</time></trkpt><trkpt lat="42.75374634557136" lon="12.728369231314328"><ele>292.0</ele><time>2026-05-01T10:00:15Z</time></trkpt><trkpt lat="42.753827684786096" lon="12.72832871231885"><ele>291.8333333333333</ele><time>2026-05-01T10:00:16Z</time></trkpt><trkpt lat="42.75390371134511" lon="12.72828908745414"><ele>291.66666666666663</ele><time>2026-05-01T10:00:17Z</time></trkpt><trkpt lat="42.75398608490544" lon="12.728249798720634"><ele>291.5</ele><time>2026-05-01T10:00:18Z</time></trkpt><trkpt lat="42.754069153462225" lon="12.728214153760312"><ele>291.3333333333333</ele><time>2026-05-01T10:00:19Z</time></trkpt><trkpt lat="42.754146266800305" lon="12.728178131339064"><ele>291.1666666666667</ele><time>2026-05-01T10:00:20Z</time></trkpt><trkpt lat="42.754223869236796" lon="12.728147195128605"><ele>291.0</ele><time>2026-05-01T10:00:21Z</time></trkpt><trkpt lat="42.754298771324954" lon="12.728110745120988"><ele>290.3333333333333</ele><time>2026-05-01T10:00:22Z</time></trkpt><trkpt lat="42.754374731908264" lon="12.728073538329483"><ele>289.6666666666667</ele><time>2026-05-01T10:00:23Z</time></trkpt><trkpt lat="42.75443814230177" lon="12.72804374575822"><ele>289.0</ele><time>2026-05-01T10:00:24Z</time></trkpt><trkpt lat="42.75450610944987" lon="12.728016168072982"><ele>288.33333333333337</ele><time>2026-05-01T10:00:25Z</time></trkpt><trkpt lat="42.75456387070516" lon="12.727981942771386"><ele>287.6666666666667</ele><time>2026-05-01T10:00:26Z</time></trkpt><trkpt lat="42.75466689722399" lon="12.727934068782046"><ele>287.0</ele><time>2026-05-01T10:00:28Z</time></trkpt><trkpt lat="42.754738149786" lon="12.727898778013255"><ele>287.0</ele><time>2026-05-01T10:00:30Z</time></trkpt><trkpt lat="42.75481923429258" lon="12.727856966269051"><ele>287.0</ele><time>2026-05-01T10:00:33Z</time></trkpt><trkpt lat="42.754886130991956" lon="12.727829646689369"><ele>287.0</ele><time>2026-05-01T10:00:36Z</time></trkpt><trkpt lat="42.754980974832925" lon="12.727814597682377"><ele>287.0</ele><time>2026-05-01T10:00:40Z</time></trkpt><trkpt lat="42.75504850455016" lon="12.727796770227613"><ele>287.0</ele><time>2026-05-01T10:00:42Z</time></trkpt><trkpt lat="42.75506419505025" lon="12.727647639499075"><ele>287.0</ele><time>2026-05-01T10:00:45Z</time></trkpt><trkpt lat="42.754999599592956" lon="12.727589437573835"><ele>287.14285714285717</ele><time>2026-05-01T10:00:46Z</time></trkpt><trkpt lat="42.7549516208325" lon="12.727502730406105"><ele>287.2857142857143</ele><time>2026-05-01T10:00:47Z</time></trkpt><trkpt lat="42.75491570272907" lon="12.727402348100092"><ele>287.42857142857144</ele><time>2026-05-01T10:00:48Z</time></trkpt><trkpt lat="42.75488969458908" lon="12.727323680255843"><ele>287.57142857142856</ele><time>2026-05-01T10:00:49Z</time></trkpt><trkpt lat="42.754859550199065" lon="12.727230876446407"><ele>287.7142857142857</ele><time>2026-05-01T10:00:50Z</time></trkpt><trkpt lat="42.75483766983228" lon="12.727145345807306"><ele>287.8571428571429</ele><time>2026-05-01T10:00:51Z</time></trkpt><trkpt lat="42.754808847177955" lon="12.727054566358122"><ele>288.0</ele><time>2026-05-01T10:00:52Z</time></trkpt><trkpt lat="42.75477638325472" lon="12.726946528306744"><ele>288.0</ele><time>2026-05-01T10:00:53Z</time></trkpt><trkpt lat="42.7547473732862" lon="12.726840917377768"><ele>288.0</ele><time>2026-05-01T10:00:54Z</time></trkpt><trkpt lat="42.75471711008278" lon="12.726732889298177"><ele>288.0</ele><time>2026-05-01T10:00:55Z</time></trkpt><trkpt lat="42.75468743572928" lon="12.72662838171592"><ele>288.0</ele><time>2026-05-01T10:00:56Z</time></trkpt><trkpt lat="42.75465634931056" lon="12.726521969557314"><ele>288.0</ele><time>2026-05-01T10:00:57Z</time></trkpt><trkpt lat="42.75462672171937" lon="12.726430065058862"><ele>288.0</ele><time>2026-05-01T10:00:58Z</time></trkpt><trkpt lat="42.75459773992588" lon="12.726348811997067"><ele>288.0</ele><time>2026-05-01T10:00:59Z</time></trkpt><trkpt lat="42.754569783762406" lon="12.72626192563968"><ele>288.0</ele><time>2026-05-01T10:01:00Z</time></trkpt><trkpt lat="42.7545402240027" lon="12.726171630711958"><ele>288.0</ele><time>2026-05-01T10:01:01Z</time></trkpt><trkpt lat="42.75450587323735" lon="12.72607094069551"><ele>288.0</ele><time>2026-05-01T10:01:02Z</time></trkpt><trkpt lat="42.75446923481732" lon="12.725971391502823"><ele>288.0</ele><time>2026-05-01T10:01:03Z</time></trkpt><trkpt lat="42.75443736094211" lon="12.725876889959386"><ele>288.0</ele><time>2026-05-01T10:01:04Z</time></trkpt><trkpt lat="42.75440719112634" lon="12.725784572032927"><ele>288.0</ele><time>2026-05-01T10:01:05Z</time></trkpt><trkpt lat="42.75437626163068" lon="12.725682571499078"><ele>288.0</ele><time>2026-05-01T10:01:06Z</time></trkpt><trkpt lat="42.75435188792081" lon="12.725588715555906"><ele>288.0</ele><time>2026-05-01T10:01:07Z</time></trkpt><trkpt lat="42.75433045483547" lon="12.725501439551698"><ele>288.0</ele><time>2026-05-01T10:01:08Z</time></trkpt><trkpt lat="42.754306442935594" lon="12.725416469525799"><ele>288.0</ele><time>2026-05-01T10:01:09Z</time></trkpt><trkpt lat="42.75428213096521" lon="12.725330036774686"><ele>288.0</ele><time>2026-05-01T10:01:10Z</time></trkpt><trkpt lat="42.754239270646615" lon="12.72518649473069"><ele>288.0</ele><time>2026-05-01T10:01:12Z</time></trkpt><trkpt lat="42.754190887417025" lon="12.725054234489809"><ele>288.0</ele><time>2026-05-01T10:01:14Z</time></trkpt><trkpt lat="42.75415607763374" lon="12.72495769822715"><ele>288.0</ele><time>2026-05-01T10:01:15Z</time></trkpt><trkpt lat="42.75412236774905" lon="12.724855322319334"><ele>288.0</ele><time>2026-05-01T10:01:16Z</time></trkpt><trkpt lat="42.75408297804159" lon="12.724740929853207"><ele>288.0</ele><time>2026-05-01T10:01:17Z</time></trkpt><trkpt lat="42.75404531811494" lon="12.724624951566915"><ele>288.0</ele><time>2026-05-01T10:01:18Z</time></trkpt><trkpt lat="42.7540021476262" lon="12.724509569153815"><ele>288.0</ele><time>2026-05-01T10:01:19Z</time></trkpt><trkpt lat="42.75395756716006" lon="12.724394417488044"><ele>288.0</ele><time>2026-05-01T10:01:20Z</time></trkpt><trkpt lat="42.753910021248565" lon="12.724290678267511"><ele>288.0</ele><time>2026-05-01T10:01:21Z</time></trkpt><trkpt lat="42.75384995961993" lon="12.7241955153244"><ele>288.0</ele><time>2026-05-01T10:01:22Z</time></trkpt><trkpt lat="42.75378195116434" lon="12.724108907242396"><ele>287.8</ele><time>2026-05-01T10:01:23Z</time></trkpt><trkpt lat="42.75370695009829" lon="12.724024788434686"><ele>287.6</ele><time>2026-05-01T10:01:24Z</time></trkpt><trkpt lat="42.75362737291386" lon="12.723946042046617"><ele>287.4</ele><time>2026-05-01T10:01:25Z</time></trkpt><trkpt lat="42.75354201803787" lon="12.723871532355492"><ele>287.2</ele><time>2026-05-01T10:01:26Z</time></trkpt><trkpt lat="42.753455772572664" lon="12.723798522418706"><ele>287.0</ele><time>2026-05-01T10:01:27Z</time></trkpt><trkpt lat="42.75337452212098" lon="12.723727110593867"><ele>287.0</ele><time>2026-05-01T10:01:28Z</time></trkpt><trkpt lat="42.75329442745786" lon="12.723666575334631"><ele>287.0</ele><time>2026-05-01T10:01:29Z</time></trkpt><trkpt lat="42.753223700935074" lon="12.723606822849165"><ele>287.0</ele><time>2026-05-01T10:01:30Z</time></trkpt><trkpt lat="42.753153539031" lon="12.723556289421767"><ele>287.0</ele><time>2026-05-01T10:01:31Z</time></trkpt><trkpt lat="42.75309363589848" lon="12.723519273086906"><ele>287.0</ele><time>2026-05-01T10:01:32Z</time></trkpt><trkpt lat="42.753016268495806" lon="12.723456680105995"><ele>287.0</ele><time>2026-05-01T10:01:34Z</time></trkpt><trkpt lat="42.75293632161196" lon="12.723408939642246"><ele>287.0</ele><time>2026-05-01T10:01:37Z</time></trkpt><trkpt lat="42.75292590600915" lon="12.723207202691835"><ele>287.0</ele><time>2026-05-01T10:01:39Z</time></trkpt><trkpt lat="42.75295392461406" lon="12.723112789024189"><ele>287.0</ele><time>2026-05-01T10:01:40Z</time></trkpt><trkpt lat="42.75300450400956" lon="12.723010537670849"><ele>287.0</ele><time>2026-05-01T10:01:41Z</time></trkpt><trkpt lat="42.75307176990912" lon="12.722909366717488"><ele>287.0</ele><time>2026-05-01T10:01:42Z</time></trkpt><trkpt lat="42.75314891651107" lon="12.722814205558217"><ele>286.6</ele><time>2026-05-01T10:01:43Z</time></trkpt><trkpt lat="42.75320864063083" lon="12.722719864362327"><ele>286.2</ele><time>2026-05-01T10:01:44Z</time></trkpt><trkpt lat="42.75327072051129" lon="12.7226228417878"><ele>285.8</ele><time>2026-05-01T10:01:45Z</time></trkpt><trkpt lat="42.75334144277742" lon="12.722518614127962"><ele>285.4</ele><time>2026-05-01T10:01:46Z</time></trkpt><trkpt lat="42.75341331607642" lon="12.722411872807792"><ele>285.0</ele><time>2026-05-01T10:01:47Z</time></trkpt><trkpt lat="42.75348853495269" lon="12.722299689710923"><ele>285.0</ele><time>2026-05-01T10:01:48Z</time></trkpt><trkpt lat="42.75353832371713" lon="12.722184746041021"><ele>285.0</ele><time>2026-05-01T10:01:49Z</time></trkpt><trkpt lat="42.7536145012614" lon="12.72210215864806"><ele>285.0</ele><time>2026-05-01T10:01:50Z</time></trkpt><trkpt lat="42.75367862931287" lon="12.722001092248036"><ele>285.0</ele><time>2026-05-01T10:01:51Z</time></trkpt><trkpt lat="42.75374187057406" lon="12.721904247510732"><ele>285.0</ele><time>2026-05-01T10:01:52Z</time></trkpt><trkpt lat="42.753803349076755" lon="12.721801191061042"><ele>285.2</ele><time>2026-05-01T10:01:53Z</time></trkpt><trkpt lat="42.753867904623185" lon="12.721699267848196"><ele>285.4</ele><time>2026-05-01T10:01:54Z</time></trkpt><trkpt lat="42.75393094841226" lon="12.721599980125301"><ele>285.6</ele><time>2026-05-01T10:01:55Z</time></trkpt><trkpt lat="42.75398412980389" lon="12.72151307280414"><ele>285.8</ele><time>2026-05-01T10:01:56Z</time></trkpt><trkpt lat="42.75403307140326" lon="12.721441362405843"><ele>286.0</ele><time>2026-05-01T10:01:57Z</time></trkpt><trkpt lat="42.75411145375224" lon="12.721318476276455"><ele>286.0</ele><time>2026-05-01T10:01:59Z</time></trkpt><trkpt lat="42.754177484881204" lon="12.721236213051045"><ele>286.0</ele><time>2026-05-01T10:02:01Z</time></trkpt><trkpt lat="42.75432978296648" lon="12.721352376024777"><ele>286.0</ele><time>2026-05-01T10:02:02Z</time></trkpt><trkpt lat="42.75441932880185" lon="12.721397510330144"><ele>286.0</ele><time>2026-05-01T10:02:03Z</time></trkpt><trkpt lat="42.754516821043865" lon="12.721448669428762"><ele>285.3333333333333</ele><time>2026-05-01T10:02:04Z</time></trkpt><trkpt lat="42.754612321932946" lon="12.721498034523897"><ele>284.66666666666663</ele><time>2026-05-01T10:02:05Z</time></trkpt><trkpt lat="42.754699853030445" lon="12.72153582889642"><ele>284.0</ele><time>2026-05-01T10:02:06Z</time></trkpt><trkpt lat="42.75477912235064" lon="12.721570905335193"><ele>283.3333333333333</ele><time>2026-05-01T10:02:07Z</time></trkpt><trkpt lat="42.75484504956379" lon="12.721608228242378"><ele>282.6666666666667</ele><time>2026-05-01T10:02:08Z</time></trkpt><trkpt lat="42.75491276975703" lon="12.721652867797719"><ele>282.0</ele><time>2026-05-01T10:02:09Z</time></trkpt><trkpt lat="42.75497330700374" lon="12.721689081822497"><ele>282.0</ele><time>2026-05-01T10:02:10Z</time></trkpt><trkpt lat="42.755079792951314" lon="12.721749186632678"><ele>282.0</ele><time>2026-05-01T10:02:12Z</time></trkpt><trkpt lat="42.75516733497493" lon="12.721765096093325"><ele>282.0</ele><time>2026-05-01T10:02:14Z</time></trkpt><trkpt lat="42.75521524616185" lon="12.721679268222134"><ele>282.0</ele><time>2026-05-01T10:02:16Z</time></trkpt><trkpt lat="42.755294331817005" lon="12.721540159483212"><ele>282.0</ele><time>2026-05-01T10:02:19Z</time></trkpt><trkpt lat="42.75523000290236" lon="12.721345863382766"><ele>282.0</ele><time>2026-05-01T10:02:20Z</time></trkpt><trkpt lat="42.75524334861695" lon="12.721230628858727"><ele>282.0</ele><time>2026-05-01T10:02:22Z</time></trkpt><trkpt lat="42.75514910261517" lon="12.721118176866408"><ele>282.0</ele><time>2026-05-01T10:02:24Z</time></trkpt><trkpt lat="42.75508671377583" lon="12.721062236973504"><ele>282.0</ele><time>2026-05-01T10:02:25Z</time></trkpt><trkpt lat="42.75502530043121" lon="12.720997538296373"><ele>282.0</ele><time>2026-05-01T10:02:26Z</time></trkpt><trkpt lat="42.75496514940214" lon="12.720935481779172"><ele>282.0</ele><time>2026-05-01T10:02:27Z</time></trkpt><trkpt lat="42.7548960511781" lon="12.720857591874811"><ele>281.6666666666667</ele><time>2026-05-01T10:02:28Z</time></trkpt><trkpt lat="42.75482838423261" lon="12.720785122451723"><ele>281.3333333333333</ele><time>2026-05-01T10:02:29Z</time></trkpt><trkpt lat="42.75477457867881" lon="12.720721689597466"><ele>281.0</ele><time>2026-05-01T10:02:30Z</time></trkpt><trkpt lat="42.75469425020039" lon="12.72061796712202"><ele>280.66666666666663</ele><time>2026-05-01T10:02:32Z</time></trkpt><trkpt lat="42.75463406704162" lon="12.720550075195922"><ele>280.3333333333333</ele><time>2026-05-01T10:02:34Z</time></trkpt><trkpt lat="42.7545852517527" lon="12.720493083478747"><ele>280.0</ele><time>2026-05-01T10:02:36Z</time></trkpt><trkpt lat="42.75465441687836" lon="12.72041781060264"><ele>280.0</ele><time>2026-05-01T10:02:37Z</time></trkpt><trkpt lat="42.75470172463135" lon="12.720313853172769"><ele>280.0</ele><time>2026-05-01T10:02:38Z</time></trkpt><trkpt lat="42.754768025179814" lon="12.720225860381456"><ele>280.0</ele><time>2026-05-01T10:02:39Z</time></trkpt><trkpt lat="42.754833603505624" lon="12.720119109214734"><ele>280.0</ele><time>2026-05-01T10:02:40Z</time></trkpt><trkpt lat="42.754904874240594" lon="12.720002158505961"><ele>280.0</ele><time>2026-05-01T10:02:41Z</time></trkpt><trkpt lat="42.75497193458843" lon="12.7198932163096"><ele>281.0</ele><time>2026-05-01T10:02:42Z</time></trkpt><trkpt lat="42.75502925278411" lon="12.719812431134347"><ele>281.0</ele><time>2026-05-01T10:02:44Z</time></trkpt><trkpt lat="42.75489889201121" lon="12.719697938934111"><ele>281.0</ele><time>2026-05-01T10:02:47Z</time></trkpt><trkpt lat="42.75478650558141" lon="12.71980743344224"><ele>281.0</ele><time>2026-05-01T10:02:49Z</time></trkpt><trkpt lat="42.75473137728015" lon="12.719855623809599"><ele>281.0</ele><time>2026-05-01T10:02:51Z</time></trkpt></trkseg></trk></gpx>